<?xml version="1.0" encoding="UTF-8" standalone="no" ?>
<gpx xmlns="http://www.topografix.com/GPX/1/1" xmlns:xsi="http://www.w3.org/2001/XMLSchema-instance" xsi:schemaLocation="http://www.topografix.com/GPX/1/1 http://www.topografix.com/GPX/1/1/gpx.xsd" version="1.1" creator="VisuGPX - https://www.visugpx.com">
  <metadata>
    <name>Les Glaisins 30 kms 1600 D </name>
    <desc><![CDATA[Les Glaisins 30 kms 1600 D ]]></desc>
  </metadata>
  <trk>
    <name><![CDATA[Parcours Trail des Glaisins]]></name>
    <trkseg>
      <trkpt lat="45.93382" lon="6.15627">
        <ele>514.20001220703</ele>
        <time>2014-04-13T06:45:06.000Z</time>
      </trkpt>
      <trkpt lat="45.93391" lon="6.15632">
        <ele>513.59997558594</ele>
        <time>2014-04-13T06:45:09.000Z</time>
      </trkpt>
      <trkpt lat="45.93394" lon="6.15635">
        <ele>513.40002441406</ele>
        <time>2014-04-13T06:45:10.000Z</time>
      </trkpt>
      <trkpt lat="45.93401" lon="6.1564">
        <ele>513</ele>
        <time>2014-04-13T06:45:13.000Z</time>
      </trkpt>
      <trkpt lat="45.93404" lon="6.15654">
        <ele>512.79998779297</ele>
        <time>2014-04-13T06:45:17.000Z</time>
      </trkpt>
      <trkpt lat="45.93404" lon="6.15662">
        <ele>512.79998779297</ele>
        <time>2014-04-13T06:45:19.000Z</time>
      </trkpt>
      <trkpt lat="45.93402" lon="6.15674">
        <ele>513.40002441406</ele>
        <time>2014-04-13T06:45:22.000Z</time>
      </trkpt>
      <trkpt lat="45.934" lon="6.15696">
        <ele>515.20001220703</ele>
        <time>2014-04-13T06:45:27.000Z</time>
      </trkpt>
      <trkpt lat="45.934" lon="6.15715">
        <ele>516.59997558594</ele>
        <time>2014-04-13T06:45:31.000Z</time>
      </trkpt>
      <trkpt lat="45.93406" lon="6.15735">
        <ele>517.79998779297</ele>
        <time>2014-04-13T06:45:36.000Z</time>
      </trkpt>
      <trkpt lat="45.93413" lon="6.15748">
        <ele>518.20001220703</ele>
        <time>2014-04-13T06:45:41.000Z</time>
      </trkpt>
      <trkpt lat="45.93416" lon="6.15764">
        <ele>519</ele>
        <time>2014-04-13T06:45:46.000Z</time>
      </trkpt>
      <trkpt lat="45.93421" lon="6.15773">
        <ele>519.40002441406</ele>
        <time>2014-04-13T06:45:49.000Z</time>
      </trkpt>
      <trkpt lat="45.93425" lon="6.1578">
        <ele>519.79998779297</ele>
        <time>2014-04-13T06:45:51.000Z</time>
      </trkpt>
      <trkpt lat="45.93426" lon="6.15798">
        <ele>520.79998779297</ele>
        <time>2014-04-13T06:45:56.000Z</time>
      </trkpt>
      <trkpt lat="45.93431" lon="6.15809">
        <ele>521.20001220703</ele>
        <time>2014-04-13T06:46:00.000Z</time>
      </trkpt>
      <trkpt lat="45.93437" lon="6.15819">
        <ele>521.40002441406</ele>
        <time>2014-04-13T06:46:04.000Z</time>
      </trkpt>
      <trkpt lat="45.93439" lon="6.15822">
        <ele>521.40002441406</ele>
        <time>2014-04-13T06:46:05.000Z</time>
      </trkpt>
      <trkpt lat="45.93445" lon="6.15836">
        <ele>521.59997558594</ele>
        <time>2014-04-13T06:46:10.000Z</time>
      </trkpt>
      <trkpt lat="45.93449" lon="6.15846">
        <ele>521.40002441406</ele>
        <time>2014-04-13T06:46:13.000Z</time>
      </trkpt>
      <trkpt lat="45.93449" lon="6.15849">
        <ele>521.20001220703</ele>
        <time>2014-04-13T06:46:14.000Z</time>
      </trkpt>
      <trkpt lat="45.93459" lon="6.1587">
        <ele>520.59997558594</ele>
        <time>2014-04-13T06:46:20.000Z</time>
      </trkpt>
      <trkpt lat="45.93471" lon="6.15891">
        <ele>520.20001220703</ele>
        <time>2014-04-13T06:46:25.000Z</time>
      </trkpt>
      <trkpt lat="45.93482" lon="6.15912">
        <ele>519.79998779297</ele>
        <time>2014-04-13T06:46:30.000Z</time>
      </trkpt>
      <trkpt lat="45.93484" lon="6.15914">
        <ele>519.79998779297</ele>
        <time>2014-04-13T06:46:31.000Z</time>
      </trkpt>
      <trkpt lat="45.9349" lon="6.15924">
        <ele>519.79998779297</ele>
        <time>2014-04-13T06:46:35.000Z</time>
      </trkpt>
      <trkpt lat="45.93491" lon="6.15928">
        <ele>520</ele>
        <time>2014-04-13T06:46:36.000Z</time>
      </trkpt>
      <trkpt lat="45.93498" lon="6.15939">
        <ele>520.20001220703</ele>
        <time>2014-04-13T06:46:40.000Z</time>
      </trkpt>
      <trkpt lat="45.93507" lon="6.15963">
        <ele>520.79998779297</ele>
        <time>2014-04-13T06:46:46.000Z</time>
      </trkpt>
      <trkpt lat="45.93508" lon="6.15965">
        <ele>520.79998779297</ele>
        <time>2014-04-13T06:46:47.000Z</time>
      </trkpt>
      <trkpt lat="45.93513" lon="6.15973">
        <ele>520.79998779297</ele>
        <time>2014-04-13T06:46:50.000Z</time>
      </trkpt>
      <trkpt lat="45.93524" lon="6.15985">
        <ele>520.59997558594</ele>
        <time>2014-04-13T06:46:56.000Z</time>
      </trkpt>
      <trkpt lat="45.93536" lon="6.15998">
        <ele>520.40002441406</ele>
        <time>2014-04-13T06:47:02.000Z</time>
      </trkpt>
      <trkpt lat="45.93545" lon="6.16009">
        <ele>520.20001220703</ele>
        <time>2014-04-13T06:47:06.000Z</time>
      </trkpt>
      <trkpt lat="45.93554" lon="6.1602">
        <ele>520.40002441406</ele>
        <time>2014-04-13T06:47:11.000Z</time>
      </trkpt>
      <trkpt lat="45.93556" lon="6.16027">
        <ele>520.59997558594</ele>
        <time>2014-04-13T06:47:14.000Z</time>
      </trkpt>
      <trkpt lat="45.93555" lon="6.16031">
        <ele>521</ele>
        <time>2014-04-13T06:47:15.000Z</time>
      </trkpt>
      <trkpt lat="45.93554" lon="6.16038">
        <ele>521.40002441406</ele>
        <time>2014-04-13T06:47:17.000Z</time>
      </trkpt>
      <trkpt lat="45.93552" lon="6.16042">
        <ele>521.59997558594</ele>
        <time>2014-04-13T06:47:19.000Z</time>
      </trkpt>
      <trkpt lat="45.9355" lon="6.16044">
        <ele>522</ele>
        <time>2014-04-13T06:47:20.000Z</time>
      </trkpt>
      <trkpt lat="45.9355" lon="6.16055">
        <ele>522.59997558594</ele>
        <time>2014-04-13T06:47:23.000Z</time>
      </trkpt>
      <trkpt lat="45.93561" lon="6.16071">
        <ele>523</ele>
        <time>2014-04-13T06:47:27.000Z</time>
      </trkpt>
      <trkpt lat="45.93564" lon="6.16074">
        <ele>523</ele>
        <time>2014-04-13T06:47:28.000Z</time>
      </trkpt>
      <trkpt lat="45.9358" lon="6.16089">
        <ele>523.20001220703</ele>
        <time>2014-04-13T06:47:34.000Z</time>
      </trkpt>
      <trkpt lat="45.93597" lon="6.161">
        <ele>523.20001220703</ele>
        <time>2014-04-13T06:47:40.000Z</time>
      </trkpt>
      <trkpt lat="45.93608" lon="6.16113">
        <ele>523.20001220703</ele>
        <time>2014-04-13T06:47:46.000Z</time>
      </trkpt>
      <trkpt lat="45.93612" lon="6.16118">
        <ele>523.20001220703</ele>
        <time>2014-04-13T06:47:50.000Z</time>
      </trkpt>
      <trkpt lat="45.9362" lon="6.16124">
        <ele>523.20001220703</ele>
        <time>2014-04-13T06:47:54.000Z</time>
      </trkpt>
      <trkpt lat="45.93638" lon="6.16136">
        <ele>523.40002441406</ele>
        <time>2014-04-13T06:48:00.000Z</time>
      </trkpt>
      <trkpt lat="45.9364" lon="6.16137">
        <ele>523.40002441406</ele>
        <time>2014-04-13T06:48:01.000Z</time>
      </trkpt>
      <trkpt lat="45.93659" lon="6.16141">
        <ele>523.20001220703</ele>
        <time>2014-04-13T06:48:07.000Z</time>
      </trkpt>
      <trkpt lat="45.93677" lon="6.16146">
        <ele>522</ele>
        <time>2014-04-13T06:48:13.000Z</time>
      </trkpt>
      <trkpt lat="45.93679" lon="6.16146">
        <ele>521.79998779297</ele>
        <time>2014-04-13T06:48:14.000Z</time>
      </trkpt>
      <trkpt lat="45.93683" lon="6.16147">
        <ele>521.40002441406</ele>
        <time>2014-04-13T06:48:16.000Z</time>
      </trkpt>
      <trkpt lat="45.93688" lon="6.1615">
        <ele>520.79998779297</ele>
        <time>2014-04-13T06:48:19.000Z</time>
      </trkpt>
      <trkpt lat="45.93689" lon="6.1615">
        <ele>520.79998779297</ele>
        <time>2014-04-13T06:48:20.000Z</time>
      </trkpt>
      <trkpt lat="45.93695" lon="6.16152">
        <ele>520.20001220703</ele>
        <time>2014-04-13T06:48:24.000Z</time>
      </trkpt>
      <trkpt lat="45.93705" lon="6.16157">
        <ele>519</ele>
        <time>2014-04-13T06:48:28.000Z</time>
      </trkpt>
      <trkpt lat="45.9372" lon="6.16167">
        <ele>517.59997558594</ele>
        <time>2014-04-13T06:48:33.000Z</time>
      </trkpt>
      <trkpt lat="45.93721" lon="6.16178">
        <ele>517.59997558594</ele>
        <time>2014-04-13T06:48:37.000Z</time>
      </trkpt>
      <trkpt lat="45.93719" lon="6.16183">
        <ele>518</ele>
        <time>2014-04-13T06:48:39.000Z</time>
      </trkpt>
      <trkpt lat="45.93716" lon="6.16191">
        <ele>518.40002441406</ele>
        <time>2014-04-13T06:48:42.000Z</time>
      </trkpt>
      <trkpt lat="45.9371" lon="6.1621">
        <ele>519.40002441406</ele>
        <time>2014-04-13T06:48:48.000Z</time>
      </trkpt>
      <trkpt lat="45.93704" lon="6.16228">
        <ele>520.20001220703</ele>
        <time>2014-04-13T06:48:54.000Z</time>
      </trkpt>
      <trkpt lat="45.93696" lon="6.16242">
        <ele>520.79998779297</ele>
        <time>2014-04-13T06:48:59.000Z</time>
      </trkpt>
      <trkpt lat="45.93689" lon="6.16261">
        <ele>521.40002441406</ele>
        <time>2014-04-13T06:49:05.000Z</time>
      </trkpt>
      <trkpt lat="45.93685" lon="6.16273">
        <ele>521.79998779297</ele>
        <time>2014-04-13T06:49:09.000Z</time>
      </trkpt>
      <trkpt lat="45.93678" lon="6.16286">
        <ele>522.20001220703</ele>
        <time>2014-04-13T06:49:14.000Z</time>
      </trkpt>
      <trkpt lat="45.93675" lon="6.16302">
        <ele>522.20001220703</ele>
        <time>2014-04-13T06:49:19.000Z</time>
      </trkpt>
      <trkpt lat="45.93671" lon="6.1632">
        <ele>522.20001220703</ele>
        <time>2014-04-13T06:49:25.000Z</time>
      </trkpt>
      <trkpt lat="45.93663" lon="6.16333">
        <ele>522.20001220703</ele>
        <time>2014-04-13T06:49:30.000Z</time>
      </trkpt>
      <trkpt lat="45.93656" lon="6.16351">
        <ele>523.40002441406</ele>
        <time>2014-04-13T06:49:36.000Z</time>
      </trkpt>
      <trkpt lat="45.93647" lon="6.16372">
        <ele>524.79998779297</ele>
        <time>2014-04-13T06:49:43.000Z</time>
      </trkpt>
      <trkpt lat="45.93642" lon="6.1639">
        <ele>526</ele>
        <time>2014-04-13T06:49:49.000Z</time>
      </trkpt>
      <trkpt lat="45.93634" lon="6.16403">
        <ele>527</ele>
        <time>2014-04-13T06:49:54.000Z</time>
      </trkpt>
      <trkpt lat="45.93627" lon="6.1642">
        <ele>528.20001220703</ele>
        <time>2014-04-13T06:50:00.000Z</time>
      </trkpt>
      <trkpt lat="45.93619" lon="6.1644">
        <ele>530.20001220703</ele>
        <time>2014-04-13T06:50:07.000Z</time>
      </trkpt>
      <trkpt lat="45.9361" lon="6.16459">
        <ele>532.20001220703</ele>
        <time>2014-04-13T06:50:14.000Z</time>
      </trkpt>
      <trkpt lat="45.93604" lon="6.16473">
        <ele>533.59997558594</ele>
        <time>2014-04-13T06:50:19.000Z</time>
      </trkpt>
      <trkpt lat="45.93598" lon="6.16487">
        <ele>535.20001220703</ele>
        <time>2014-04-13T06:50:24.000Z</time>
      </trkpt>
      <trkpt lat="45.93591" lon="6.16505">
        <ele>536.59997558594</ele>
        <time>2014-04-13T06:50:30.000Z</time>
      </trkpt>
      <trkpt lat="45.93583" lon="6.16522">
        <ele>537</ele>
        <time>2014-04-13T06:50:36.000Z</time>
      </trkpt>
      <trkpt lat="45.93577" lon="6.16539">
        <ele>537.20001220703</ele>
        <time>2014-04-13T06:50:42.000Z</time>
      </trkpt>
      <trkpt lat="45.9357" lon="6.16564">
        <ele>537.20001220703</ele>
        <time>2014-04-13T06:50:50.000Z</time>
      </trkpt>
      <trkpt lat="45.93566" lon="6.1658">
        <ele>537.40002441406</ele>
        <time>2014-04-13T06:50:55.000Z</time>
      </trkpt>
      <trkpt lat="45.93563" lon="6.16593">
        <ele>538</ele>
        <time>2014-04-13T06:50:59.000Z</time>
      </trkpt>
      <trkpt lat="45.93561" lon="6.16599">
        <ele>538.40002441406</ele>
        <time>2014-04-13T06:51:01.000Z</time>
      </trkpt>
      <trkpt lat="45.93556" lon="6.16615">
        <ele>539.20001220703</ele>
        <time>2014-04-13T06:51:06.000Z</time>
      </trkpt>
      <trkpt lat="45.93551" lon="6.1663">
        <ele>540</ele>
        <time>2014-04-13T06:51:11.000Z</time>
      </trkpt>
      <trkpt lat="45.9355" lon="6.16647">
        <ele>540.79998779297</ele>
        <time>2014-04-13T06:51:16.000Z</time>
      </trkpt>
      <trkpt lat="45.93551" lon="6.16664">
        <ele>541.59997558594</ele>
        <time>2014-04-13T06:51:21.000Z</time>
      </trkpt>
      <trkpt lat="45.9355" lon="6.1668">
        <ele>542.40002441406</ele>
        <time>2014-04-13T06:51:26.000Z</time>
      </trkpt>
      <trkpt lat="45.93552" lon="6.16693">
        <ele>543</ele>
        <time>2014-04-13T06:51:30.000Z</time>
      </trkpt>
      <trkpt lat="45.93556" lon="6.16706">
        <ele>543.40002441406</ele>
        <time>2014-04-13T06:51:34.000Z</time>
      </trkpt>
      <trkpt lat="45.93558" lon="6.16708">
        <ele>543.40002441406</ele>
        <time>2014-04-13T06:51:35.000Z</time>
      </trkpt>
      <trkpt lat="45.93569" lon="6.1671">
        <ele>543.40002441406</ele>
        <time>2014-04-13T06:51:39.000Z</time>
      </trkpt>
      <trkpt lat="45.93575" lon="6.16711">
        <ele>543.20001220703</ele>
        <time>2014-04-13T06:51:41.000Z</time>
      </trkpt>
      <trkpt lat="45.93593" lon="6.16711">
        <ele>541</ele>
        <time>2014-04-13T06:51:47.000Z</time>
      </trkpt>
      <trkpt lat="45.93607" lon="6.16713">
        <ele>538</ele>
        <time>2014-04-13T06:51:52.000Z</time>
      </trkpt>
      <trkpt lat="45.93611" lon="6.1671">
        <ele>536.79998779297</ele>
        <time>2014-04-13T06:51:54.000Z</time>
      </trkpt>
      <trkpt lat="45.93614" lon="6.16701">
        <ele>535.59997558594</ele>
        <time>2014-04-13T06:51:56.000Z</time>
      </trkpt>
      <trkpt lat="45.93614" lon="6.16686">
        <ele>534.79998779297</ele>
        <time>2014-04-13T06:52:00.000Z</time>
      </trkpt>
      <trkpt lat="45.93612" lon="6.16671">
        <ele>534.40002441406</ele>
        <time>2014-04-13T06:52:04.000Z</time>
      </trkpt>
      <trkpt lat="45.93611" lon="6.16667">
        <ele>534.40002441406</ele>
        <time>2014-04-13T06:52:05.000Z</time>
      </trkpt>
      <trkpt lat="45.93607" lon="6.16662">
        <ele>535.20001220703</ele>
        <time>2014-04-13T06:52:07.000Z</time>
      </trkpt>
      <trkpt lat="45.93602" lon="6.16665">
        <ele>536.59997558594</ele>
        <time>2014-04-13T06:52:09.000Z</time>
      </trkpt>
      <trkpt lat="45.93597" lon="6.16678">
        <ele>538.40002441406</ele>
        <time>2014-04-13T06:52:12.000Z</time>
      </trkpt>
      <trkpt lat="45.93596" lon="6.16682">
        <ele>538.59997558594</ele>
        <time>2014-04-13T06:52:13.000Z</time>
      </trkpt>
      <trkpt lat="45.93593" lon="6.16703">
        <ele>540.59997558594</ele>
        <time>2014-04-13T06:52:19.000Z</time>
      </trkpt>
      <trkpt lat="45.93588" lon="6.16724">
        <ele>542.59997558594</ele>
        <time>2014-04-13T06:52:25.000Z</time>
      </trkpt>
      <trkpt lat="45.93588" lon="6.16741">
        <ele>543.59997558594</ele>
        <time>2014-04-13T06:52:30.000Z</time>
      </trkpt>
      <trkpt lat="45.93588" lon="6.16755">
        <ele>544.20001220703</ele>
        <time>2014-04-13T06:52:34.000Z</time>
      </trkpt>
      <trkpt lat="45.93587" lon="6.16774">
        <ele>545.20001220703</ele>
        <time>2014-04-13T06:52:39.000Z</time>
      </trkpt>
      <trkpt lat="45.93587" lon="6.16793">
        <ele>546</ele>
        <time>2014-04-13T06:52:44.000Z</time>
      </trkpt>
      <trkpt lat="45.93586" lon="6.16813">
        <ele>546.79998779297</ele>
        <time>2014-04-13T06:52:50.000Z</time>
      </trkpt>
      <trkpt lat="45.93584" lon="6.16834">
        <ele>547.79998779297</ele>
        <time>2014-04-13T06:52:56.000Z</time>
      </trkpt>
      <trkpt lat="45.93584" lon="6.16851">
        <ele>549.20001220703</ele>
        <time>2014-04-13T06:53:01.000Z</time>
      </trkpt>
      <trkpt lat="45.93582" lon="6.16868">
        <ele>550.59997558594</ele>
        <time>2014-04-13T06:53:06.000Z</time>
      </trkpt>
      <trkpt lat="45.9358" lon="6.16886">
        <ele>551.79998779297</ele>
        <time>2014-04-13T06:53:11.000Z</time>
      </trkpt>
      <trkpt lat="45.93578" lon="6.16911">
        <ele>553.79998779297</ele>
        <time>2014-04-13T06:53:18.000Z</time>
      </trkpt>
      <trkpt lat="45.93575" lon="6.16927">
        <ele>555.20001220703</ele>
        <time>2014-04-13T06:53:23.000Z</time>
      </trkpt>
      <trkpt lat="45.93573" lon="6.16945">
        <ele>557</ele>
        <time>2014-04-13T06:53:28.000Z</time>
      </trkpt>
      <trkpt lat="45.93568" lon="6.16965">
        <ele>559</ele>
        <time>2014-04-13T06:53:34.000Z</time>
      </trkpt>
      <trkpt lat="45.93564" lon="6.16984">
        <ele>561</ele>
        <time>2014-04-13T06:53:40.000Z</time>
      </trkpt>
      <trkpt lat="45.93557" lon="6.17001">
        <ele>562.59997558594</ele>
        <time>2014-04-13T06:53:45.000Z</time>
      </trkpt>
      <trkpt lat="45.9355" lon="6.17015">
        <ele>563</ele>
        <time>2014-04-13T06:53:50.000Z</time>
      </trkpt>
      <trkpt lat="45.93541" lon="6.17033">
        <ele>563</ele>
        <time>2014-04-13T06:53:56.000Z</time>
      </trkpt>
      <trkpt lat="45.93532" lon="6.17048">
        <ele>562.59997558594</ele>
        <time>2014-04-13T06:54:01.000Z</time>
      </trkpt>
      <trkpt lat="45.93519" lon="6.1707">
        <ele>561.79998779297</ele>
        <time>2014-04-13T06:54:08.000Z</time>
      </trkpt>
      <trkpt lat="45.9351" lon="6.17086">
        <ele>560.59997558594</ele>
        <time>2014-04-13T06:54:14.000Z</time>
      </trkpt>
      <trkpt lat="45.93502" lon="6.17097">
        <ele>560.20001220703</ele>
        <time>2014-04-13T06:54:18.000Z</time>
      </trkpt>
      <trkpt lat="45.93501" lon="6.17103">
        <ele>560.20001220703</ele>
        <time>2014-04-13T06:54:20.000Z</time>
      </trkpt>
      <trkpt lat="45.93501" lon="6.1711">
        <ele>560.40002441406</ele>
        <time>2014-04-13T06:54:23.000Z</time>
      </trkpt>
      <trkpt lat="45.935" lon="6.17111">
        <ele>560.40002441406</ele>
        <time>2014-04-13T06:54:24.000Z</time>
      </trkpt>
      <trkpt lat="45.93499" lon="6.17112">
        <ele>560.40002441406</ele>
        <time>2014-04-13T06:54:28.000Z</time>
      </trkpt>
      <trkpt lat="45.93501" lon="6.1711">
        <ele>560.40002441406</ele>
        <time>2014-04-13T06:54:37.000Z</time>
      </trkpt>
      <trkpt lat="45.93496" lon="6.1711">
        <ele>560.40002441406</ele>
        <time>2014-04-13T06:54:51.000Z</time>
      </trkpt>
      <trkpt lat="45.93499" lon="6.17111">
        <ele>560.40002441406</ele>
        <time>2014-04-13T06:54:55.000Z</time>
      </trkpt>
      <trkpt lat="45.935" lon="6.17112">
        <ele>560.40002441406</ele>
        <time>2014-04-13T06:54:56.000Z</time>
      </trkpt>
      <trkpt lat="45.93508" lon="6.17115">
        <ele>560.59997558594</ele>
        <time>2014-04-13T06:55:00.000Z</time>
      </trkpt>
      <trkpt lat="45.93511" lon="6.17115">
        <ele>560.59997558594</ele>
        <time>2014-04-13T06:55:01.000Z</time>
      </trkpt>
      <trkpt lat="45.93513" lon="6.17115">
        <ele>560.79998779297</ele>
        <time>2014-04-13T06:55:02.000Z</time>
      </trkpt>
      <trkpt lat="45.93518" lon="6.17111">
        <ele>561</ele>
        <time>2014-04-13T06:55:04.000Z</time>
      </trkpt>
      <trkpt lat="45.93533" lon="6.17107">
        <ele>561.59997558594</ele>
        <time>2014-04-13T06:55:09.000Z</time>
      </trkpt>
      <trkpt lat="45.9354" lon="6.17106">
        <ele>561.79998779297</ele>
        <time>2014-04-13T06:55:12.000Z</time>
      </trkpt>
      <trkpt lat="45.93546" lon="6.17106">
        <ele>562</ele>
        <time>2014-04-13T06:55:14.000Z</time>
      </trkpt>
      <trkpt lat="45.93557" lon="6.1711">
        <ele>562.20001220703</ele>
        <time>2014-04-13T06:55:18.000Z</time>
      </trkpt>
      <trkpt lat="45.9356" lon="6.1711">
        <ele>562.40002441406</ele>
        <time>2014-04-13T06:55:19.000Z</time>
      </trkpt>
      <trkpt lat="45.93574" lon="6.17113">
        <ele>562.59997558594</ele>
        <time>2014-04-13T06:55:23.000Z</time>
      </trkpt>
      <trkpt lat="45.9358" lon="6.17114">
        <ele>562.59997558594</ele>
        <time>2014-04-13T06:55:27.000Z</time>
      </trkpt>
      <trkpt lat="45.93583" lon="6.17112">
        <ele>563</ele>
        <time>2014-04-13T06:55:28.000Z</time>
      </trkpt>
      <trkpt lat="45.93594" lon="6.17103">
        <ele>562.20001220703</ele>
        <time>2014-04-13T06:55:32.000Z</time>
      </trkpt>
      <trkpt lat="45.93597" lon="6.17099">
        <ele>562.20001220703</ele>
        <time>2014-04-13T06:55:33.000Z</time>
      </trkpt>
      <trkpt lat="45.93608" lon="6.17083">
        <ele>562.79998779297</ele>
        <time>2014-04-13T06:55:38.000Z</time>
      </trkpt>
      <trkpt lat="45.9361" lon="6.1708">
        <ele>562.40002441406</ele>
        <time>2014-04-13T06:55:39.000Z</time>
      </trkpt>
      <trkpt lat="45.93618" lon="6.17071">
        <ele>561</ele>
        <time>2014-04-13T06:55:43.000Z</time>
      </trkpt>
      <trkpt lat="45.93627" lon="6.17063">
        <ele>559.79998779297</ele>
        <time>2014-04-13T06:55:47.000Z</time>
      </trkpt>
      <trkpt lat="45.93628" lon="6.17061">
        <ele>559.59997558594</ele>
        <time>2014-04-13T06:55:48.000Z</time>
      </trkpt>
      <trkpt lat="45.93632" lon="6.17049">
        <ele>558.79998779297</ele>
        <time>2014-04-13T06:55:52.000Z</time>
      </trkpt>
      <trkpt lat="45.93641" lon="6.17037">
        <ele>557.79998779297</ele>
        <time>2014-04-13T06:55:56.000Z</time>
      </trkpt>
      <trkpt lat="45.93649" lon="6.17024">
        <ele>556.79998779297</ele>
        <time>2014-04-13T06:56:00.000Z</time>
      </trkpt>
      <trkpt lat="45.93658" lon="6.17014">
        <ele>555.79998779297</ele>
        <time>2014-04-13T06:56:04.000Z</time>
      </trkpt>
      <trkpt lat="45.93665" lon="6.16999">
        <ele>555</ele>
        <time>2014-04-13T06:56:10.000Z</time>
      </trkpt>
      <trkpt lat="45.93671" lon="6.17007">
        <ele>552.79998779297</ele>
        <time>2014-04-13T06:56:15.000Z</time>
      </trkpt>
      <trkpt lat="45.93669" lon="6.17013">
        <ele>553.79998779297</ele>
        <time>2014-04-13T06:56:17.000Z</time>
      </trkpt>
      <trkpt lat="45.93667" lon="6.17017">
        <ele>554.79998779297</ele>
        <time>2014-04-13T06:56:18.000Z</time>
      </trkpt>
      <trkpt lat="45.93665" lon="6.1702">
        <ele>555.20001220703</ele>
        <time>2014-04-13T06:56:19.000Z</time>
      </trkpt>
      <trkpt lat="45.93663" lon="6.17045">
        <ele>555.40002441406</ele>
        <time>2014-04-13T06:56:24.000Z</time>
      </trkpt>
      <trkpt lat="45.93664" lon="6.17057">
        <ele>555.20001220703</ele>
        <time>2014-04-13T06:56:28.000Z</time>
      </trkpt>
      <trkpt lat="45.93665" lon="6.1706">
        <ele>555.20001220703</ele>
        <time>2014-04-13T06:56:29.000Z</time>
      </trkpt>
      <trkpt lat="45.93667" lon="6.17067">
        <ele>554.79998779297</ele>
        <time>2014-04-13T06:56:31.000Z</time>
      </trkpt>
      <trkpt lat="45.93667" lon="6.17069">
        <ele>554.79998779297</ele>
        <time>2014-04-13T06:56:32.000Z</time>
      </trkpt>
      <trkpt lat="45.9367" lon="6.17073">
        <ele>553.59997558594</ele>
        <time>2014-04-13T06:56:35.000Z</time>
      </trkpt>
      <trkpt lat="45.93672" lon="6.17074">
        <ele>552.59997558594</ele>
        <time>2014-04-13T06:56:37.000Z</time>
      </trkpt>
      <trkpt lat="45.93679" lon="6.17079">
        <ele>550</ele>
        <time>2014-04-13T06:56:40.000Z</time>
      </trkpt>
      <trkpt lat="45.93679" lon="6.1708">
        <ele>550</ele>
        <time>2014-04-13T06:56:41.000Z</time>
      </trkpt>
      <trkpt lat="45.93681" lon="6.17094">
        <ele>546.79998779297</ele>
        <time>2014-04-13T06:56:45.000Z</time>
      </trkpt>
      <trkpt lat="45.93686" lon="6.17095">
        <ele>544.59997558594</ele>
        <time>2014-04-13T06:56:48.000Z</time>
      </trkpt>
      <trkpt lat="45.93698" lon="6.17094">
        <ele>540.20001220703</ele>
        <time>2014-04-13T06:56:52.000Z</time>
      </trkpt>
      <trkpt lat="45.93702" lon="6.17093">
        <ele>538.59997558594</ele>
        <time>2014-04-13T06:56:53.000Z</time>
      </trkpt>
      <trkpt lat="45.93713" lon="6.1709">
        <ele>534.59997558594</ele>
        <time>2014-04-13T06:56:56.000Z</time>
      </trkpt>
      <trkpt lat="45.93729" lon="6.17084">
        <ele>528.59997558594</ele>
        <time>2014-04-13T06:57:00.000Z</time>
      </trkpt>
      <trkpt lat="45.93742" lon="6.17083">
        <ele>523.20001220703</ele>
        <time>2014-04-13T06:57:04.000Z</time>
      </trkpt>
      <trkpt lat="45.93745" lon="6.17081">
        <ele>521.79998779297</ele>
        <time>2014-04-13T06:57:07.000Z</time>
      </trkpt>
      <trkpt lat="45.9375" lon="6.17078">
        <ele>519.59997558594</ele>
        <time>2014-04-13T06:57:09.000Z</time>
      </trkpt>
      <trkpt lat="45.9376" lon="6.17076">
        <ele>516.20001220703</ele>
        <time>2014-04-13T06:57:11.000Z</time>
      </trkpt>
      <trkpt lat="45.93767" lon="6.17071">
        <ele>513.20001220703</ele>
        <time>2014-04-13T06:57:14.000Z</time>
      </trkpt>
      <trkpt lat="45.93769" lon="6.1707">
        <ele>512.40002441406</ele>
        <time>2014-04-13T06:57:18.000Z</time>
      </trkpt>
      <trkpt lat="45.93767" lon="6.17071">
        <ele>513.40002441406</ele>
        <time>2014-04-13T06:57:21.000Z</time>
      </trkpt>
      <trkpt lat="45.93769" lon="6.17077">
        <ele>513</ele>
        <time>2014-04-13T06:57:25.000Z</time>
      </trkpt>
      <trkpt lat="45.93766" lon="6.17079">
        <ele>514</ele>
        <time>2014-04-13T06:57:26.000Z</time>
      </trkpt>
      <trkpt lat="45.93763" lon="6.17085">
        <ele>515.40002441406</ele>
        <time>2014-04-13T06:57:28.000Z</time>
      </trkpt>
      <trkpt lat="45.93759" lon="6.17108">
        <ele>515.59997558594</ele>
        <time>2014-04-13T06:57:34.000Z</time>
      </trkpt>
      <trkpt lat="45.93761" lon="6.17121">
        <ele>514.40002441406</ele>
        <time>2014-04-13T06:57:38.000Z</time>
      </trkpt>
      <trkpt lat="45.93763" lon="6.17138">
        <ele>513</ele>
        <time>2014-04-13T06:57:43.000Z</time>
      </trkpt>
      <trkpt lat="45.93764" lon="6.17147">
        <ele>512.59997558594</ele>
        <time>2014-04-13T06:57:45.000Z</time>
      </trkpt>
      <trkpt lat="45.9377" lon="6.1716">
        <ele>510.39999389648</ele>
        <time>2014-04-13T06:57:48.000Z</time>
      </trkpt>
      <trkpt lat="45.93777" lon="6.17179">
        <ele>507.39999389648</ele>
        <time>2014-04-13T06:57:54.000Z</time>
      </trkpt>
      <trkpt lat="45.93777" lon="6.17182">
        <ele>507.20001220703</ele>
        <time>2014-04-13T06:57:55.000Z</time>
      </trkpt>
      <trkpt lat="45.93778" lon="6.17192">
        <ele>506</ele>
        <time>2014-04-13T06:57:58.000Z</time>
      </trkpt>
      <trkpt lat="45.93777" lon="6.17196">
        <ele>505.79998779297</ele>
        <time>2014-04-13T06:57:59.000Z</time>
      </trkpt>
      <trkpt lat="45.93772" lon="6.17207">
        <ele>505.39999389648</ele>
        <time>2014-04-13T06:58:02.000Z</time>
      </trkpt>
      <trkpt lat="45.93765" lon="6.17209">
        <ele>505.79998779297</ele>
        <time>2014-04-13T06:58:06.000Z</time>
      </trkpt>
      <trkpt lat="45.93761" lon="6.1721">
        <ele>506.20001220703</ele>
        <time>2014-04-13T06:58:08.000Z</time>
      </trkpt>
      <trkpt lat="45.93756" lon="6.17213">
        <ele>506.20001220703</ele>
        <time>2014-04-13T06:58:11.000Z</time>
      </trkpt>
      <trkpt lat="45.93755" lon="6.17215">
        <ele>506</ele>
        <time>2014-04-13T06:58:12.000Z</time>
      </trkpt>
      <trkpt lat="45.93752" lon="6.17216">
        <ele>506</ele>
        <time>2014-04-13T06:58:16.000Z</time>
      </trkpt>
      <trkpt lat="45.9375" lon="6.17216">
        <ele>506</ele>
        <time>2014-04-13T06:58:17.000Z</time>
      </trkpt>
      <trkpt lat="45.93741" lon="6.17214">
        <ele>507.79998779297</ele>
        <time>2014-04-13T06:58:22.000Z</time>
      </trkpt>
      <trkpt lat="45.9374" lon="6.17215">
        <ele>508</ele>
        <time>2014-04-13T06:58:23.000Z</time>
      </trkpt>
      <trkpt lat="45.93738" lon="6.17215">
        <ele>508.20001220703</ele>
        <time>2014-04-13T06:58:24.000Z</time>
      </trkpt>
      <trkpt lat="45.93734" lon="6.17216">
        <ele>508.60000610352</ele>
        <time>2014-04-13T06:58:25.000Z</time>
      </trkpt>
      <trkpt lat="45.93724" lon="6.17215">
        <ele>510.39999389648</ele>
        <time>2014-04-13T06:58:30.000Z</time>
      </trkpt>
      <trkpt lat="45.93718" lon="6.17214">
        <ele>511.60000610352</ele>
        <time>2014-04-13T06:58:33.000Z</time>
      </trkpt>
      <trkpt lat="45.93717" lon="6.17212">
        <ele>512.20001220703</ele>
        <time>2014-04-13T06:58:34.000Z</time>
      </trkpt>
      <trkpt lat="45.93715" lon="6.17211">
        <ele>512.59997558594</ele>
        <time>2014-04-13T06:58:35.000Z</time>
      </trkpt>
      <trkpt lat="45.93709" lon="6.1721">
        <ele>514</ele>
        <time>2014-04-13T06:58:39.000Z</time>
      </trkpt>
      <trkpt lat="45.93705" lon="6.17214">
        <ele>513.59997558594</ele>
        <time>2014-04-13T06:58:44.000Z</time>
      </trkpt>
      <trkpt lat="45.93696" lon="6.17223">
        <ele>512.59997558594</ele>
        <time>2014-04-13T06:58:49.000Z</time>
      </trkpt>
      <trkpt lat="45.93695" lon="6.17223">
        <ele>512.79998779297</ele>
        <time>2014-04-13T06:58:51.000Z</time>
      </trkpt>
      <trkpt lat="45.93689" lon="6.17222">
        <ele>514</ele>
        <time>2014-04-13T06:58:53.000Z</time>
      </trkpt>
      <trkpt lat="45.93675" lon="6.1722">
        <ele>516.59997558594</ele>
        <time>2014-04-13T06:58:58.000Z</time>
      </trkpt>
      <trkpt lat="45.9366" lon="6.17222">
        <ele>519.40002441406</ele>
        <time>2014-04-13T06:59:03.000Z</time>
      </trkpt>
      <trkpt lat="45.9366" lon="6.17222">
        <ele>519.59997558594</ele>
        <time>2014-04-13T06:59:04.000Z</time>
      </trkpt>
      <trkpt lat="45.93658" lon="6.17226">
        <ele>518.79998779297</ele>
        <time>2014-04-13T06:59:06.000Z</time>
      </trkpt>
      <trkpt lat="45.93658" lon="6.17232">
        <ele>517.20001220703</ele>
        <time>2014-04-13T06:59:09.000Z</time>
      </trkpt>
      <trkpt lat="45.93655" lon="6.17241">
        <ele>515.59997558594</ele>
        <time>2014-04-13T06:59:13.000Z</time>
      </trkpt>
      <trkpt lat="45.9365" lon="6.17244">
        <ele>516.59997558594</ele>
        <time>2014-04-13T06:59:15.000Z</time>
      </trkpt>
      <trkpt lat="45.93646" lon="6.17245">
        <ele>517.40002441406</ele>
        <time>2014-04-13T06:59:17.000Z</time>
      </trkpt>
      <trkpt lat="45.9364" lon="6.17253">
        <ele>518.20001220703</ele>
        <time>2014-04-13T06:59:21.000Z</time>
      </trkpt>
      <trkpt lat="45.93636" lon="6.17258">
        <ele>519.20001220703</ele>
        <time>2014-04-13T06:59:23.000Z</time>
      </trkpt>
      <trkpt lat="45.93632" lon="6.17264">
        <ele>520.20001220703</ele>
        <time>2014-04-13T06:59:25.000Z</time>
      </trkpt>
      <trkpt lat="45.93625" lon="6.17273">
        <ele>521.59997558594</ele>
        <time>2014-04-13T06:59:29.000Z</time>
      </trkpt>
      <trkpt lat="45.93618" lon="6.17282">
        <ele>523.40002441406</ele>
        <time>2014-04-13T06:59:33.000Z</time>
      </trkpt>
      <trkpt lat="45.93615" lon="6.17291">
        <ele>523.79998779297</ele>
        <time>2014-04-13T06:59:37.000Z</time>
      </trkpt>
      <trkpt lat="45.93616" lon="6.17295">
        <ele>523</ele>
        <time>2014-04-13T06:59:38.000Z</time>
      </trkpt>
      <trkpt lat="45.93615" lon="6.173">
        <ele>522.79998779297</ele>
        <time>2014-04-13T06:59:40.000Z</time>
      </trkpt>
      <trkpt lat="45.93614" lon="6.17308">
        <ele>522.20001220703</ele>
        <time>2014-04-13T06:59:43.000Z</time>
      </trkpt>
      <trkpt lat="45.93613" lon="6.17312">
        <ele>522.20001220703</ele>
        <time>2014-04-13T06:59:44.000Z</time>
      </trkpt>
      <trkpt lat="45.93611" lon="6.1732">
        <ele>522</ele>
        <time>2014-04-13T06:59:47.000Z</time>
      </trkpt>
      <trkpt lat="45.93615" lon="6.17331">
        <ele>519.40002441406</ele>
        <time>2014-04-13T06:59:50.000Z</time>
      </trkpt>
      <trkpt lat="45.93615" lon="6.17335">
        <ele>518.59997558594</ele>
        <time>2014-04-13T06:59:51.000Z</time>
      </trkpt>
      <trkpt lat="45.93616" lon="6.17344">
        <ele>517.40002441406</ele>
        <time>2014-04-13T06:59:55.000Z</time>
      </trkpt>
      <trkpt lat="45.93617" lon="6.17351">
        <ele>516.20001220703</ele>
        <time>2014-04-13T06:59:58.000Z</time>
      </trkpt>
      <trkpt lat="45.93617" lon="6.17356">
        <ele>516</ele>
        <time>2014-04-13T07:00:00.000Z</time>
      </trkpt>
      <trkpt lat="45.9362" lon="6.17368">
        <ele>514</ele>
        <time>2014-04-13T07:00:04.000Z</time>
      </trkpt>
      <trkpt lat="45.93619" lon="6.17372">
        <ele>513.79998779297</ele>
        <time>2014-04-13T07:00:05.000Z</time>
      </trkpt>
      <trkpt lat="45.93614" lon="6.17386">
        <ele>514.40002441406</ele>
        <time>2014-04-13T07:00:09.000Z</time>
      </trkpt>
      <trkpt lat="45.93613" lon="6.17405">
        <ele>512.79998779297</ele>
        <time>2014-04-13T07:00:14.000Z</time>
      </trkpt>
      <trkpt lat="45.93617" lon="6.17418">
        <ele>510.60000610352</ele>
        <time>2014-04-13T07:00:18.000Z</time>
      </trkpt>
      <trkpt lat="45.93617" lon="6.17422">
        <ele>510.20001220703</ele>
        <time>2014-04-13T07:00:19.000Z</time>
      </trkpt>
      <trkpt lat="45.93619" lon="6.17437">
        <ele>509.20001220703</ele>
        <time>2014-04-13T07:00:22.000Z</time>
      </trkpt>
      <trkpt lat="45.93618" lon="6.17444">
        <ele>509.20001220703</ele>
        <time>2014-04-13T07:00:24.000Z</time>
      </trkpt>
      <trkpt lat="45.93619" lon="6.17454">
        <ele>508.39999389648</ele>
        <time>2014-04-13T07:00:29.000Z</time>
      </trkpt>
      <trkpt lat="45.93621" lon="6.17456">
        <ele>508</ele>
        <time>2014-04-13T07:00:31.000Z</time>
      </trkpt>
      <trkpt lat="45.93619" lon="6.1746">
        <ele>508.20001220703</ele>
        <time>2014-04-13T07:00:33.000Z</time>
      </trkpt>
      <trkpt lat="45.93612" lon="6.17459">
        <ele>509.39999389648</ele>
        <time>2014-04-13T07:00:38.000Z</time>
      </trkpt>
      <trkpt lat="45.93605" lon="6.17464">
        <ele>509.79998779297</ele>
        <time>2014-04-13T07:00:42.000Z</time>
      </trkpt>
      <trkpt lat="45.93603" lon="6.17463">
        <ele>510.20001220703</ele>
        <time>2014-04-13T07:00:43.000Z</time>
      </trkpt>
      <trkpt lat="45.93594" lon="6.1746">
        <ele>511.79998779297</ele>
        <time>2014-04-13T07:00:47.000Z</time>
      </trkpt>
      <trkpt lat="45.93593" lon="6.1746">
        <ele>511.79998779297</ele>
        <time>2014-04-13T07:00:48.000Z</time>
      </trkpt>
      <trkpt lat="45.93591" lon="6.1746">
        <ele>512.20001220703</ele>
        <time>2014-04-13T07:00:49.000Z</time>
      </trkpt>
      <trkpt lat="45.93584" lon="6.17463">
        <ele>512.59997558594</ele>
        <time>2014-04-13T07:00:53.000Z</time>
      </trkpt>
      <trkpt lat="45.93576" lon="6.17464">
        <ele>513.59997558594</ele>
        <time>2014-04-13T07:00:57.000Z</time>
      </trkpt>
      <trkpt lat="45.93572" lon="6.17463">
        <ele>514.40002441406</ele>
        <time>2014-04-13T07:01:02.000Z</time>
      </trkpt>
      <trkpt lat="45.93572" lon="6.17464">
        <ele>514.20001220703</ele>
        <time>2014-04-13T07:01:06.000Z</time>
      </trkpt>
      <trkpt lat="45.93566" lon="6.17466">
        <ele>514.59997558594</ele>
        <time>2014-04-13T07:01:09.000Z</time>
      </trkpt>
      <trkpt lat="45.9356" lon="6.17476">
        <ele>513</ele>
        <time>2014-04-13T07:01:14.000Z</time>
      </trkpt>
      <trkpt lat="45.9356" lon="6.17483">
        <ele>511</ele>
        <time>2014-04-13T07:01:19.000Z</time>
      </trkpt>
      <trkpt lat="45.93559" lon="6.17484">
        <ele>510.79998779297</ele>
        <time>2014-04-13T07:01:20.000Z</time>
      </trkpt>
      <trkpt lat="45.93558" lon="6.17489">
        <ele>509.79998779297</ele>
        <time>2014-04-13T07:01:22.000Z</time>
      </trkpt>
      <trkpt lat="45.93558" lon="6.17493">
        <ele>508.79998779297</ele>
        <time>2014-04-13T07:01:23.000Z</time>
      </trkpt>
      <trkpt lat="45.93554" lon="6.17502">
        <ele>506.79998779297</ele>
        <time>2014-04-13T07:01:27.000Z</time>
      </trkpt>
      <trkpt lat="45.93553" lon="6.17501">
        <ele>507</ele>
        <time>2014-04-13T07:01:28.000Z</time>
      </trkpt>
      <trkpt lat="45.93555" lon="6.17496">
        <ele>508</ele>
        <time>2014-04-13T07:01:33.000Z</time>
      </trkpt>
      <trkpt lat="45.93551" lon="6.17488">
        <ele>510.39999389648</ele>
        <time>2014-04-13T07:01:39.000Z</time>
      </trkpt>
      <trkpt lat="45.93544" lon="6.17483">
        <ele>512.59997558594</ele>
        <time>2014-04-13T07:01:45.000Z</time>
      </trkpt>
      <trkpt lat="45.93543" lon="6.17482">
        <ele>513</ele>
        <time>2014-04-13T07:01:46.000Z</time>
      </trkpt>
      <trkpt lat="45.93543" lon="6.17479">
        <ele>514</ele>
        <time>2014-04-13T07:01:49.000Z</time>
      </trkpt>
      <trkpt lat="45.93541" lon="6.17477">
        <ele>514.59997558594</ele>
        <time>2014-04-13T07:01:51.000Z</time>
      </trkpt>
      <trkpt lat="45.9354" lon="6.17476">
        <ele>515.20001220703</ele>
        <time>2014-04-13T07:01:52.000Z</time>
      </trkpt>
      <trkpt lat="45.93538" lon="6.17475">
        <ele>515.79998779297</ele>
        <time>2014-04-13T07:01:55.000Z</time>
      </trkpt>
      <trkpt lat="45.93533" lon="6.17474">
        <ele>516.59997558594</ele>
        <time>2014-04-13T07:01:58.000Z</time>
      </trkpt>
      <trkpt lat="45.93531" lon="6.17482">
        <ele>514</ele>
        <time>2014-04-13T07:02:01.000Z</time>
      </trkpt>
      <trkpt lat="45.93528" lon="6.17489">
        <ele>512</ele>
        <time>2014-04-13T07:02:03.000Z</time>
      </trkpt>
      <trkpt lat="45.93527" lon="6.17495">
        <ele>509.60000610352</ele>
        <time>2014-04-13T07:02:06.000Z</time>
      </trkpt>
      <trkpt lat="45.93524" lon="6.17504">
        <ele>507.39999389648</ele>
        <time>2014-04-13T07:02:10.000Z</time>
      </trkpt>
      <trkpt lat="45.93525" lon="6.17507">
        <ele>506.79998779297</ele>
        <time>2014-04-13T07:02:11.000Z</time>
      </trkpt>
      <trkpt lat="45.93523" lon="6.17514">
        <ele>505.20001220703</ele>
        <time>2014-04-13T07:02:16.000Z</time>
      </trkpt>
      <trkpt lat="45.9352" lon="6.1751">
        <ele>506.20001220703</ele>
        <time>2014-04-13T07:02:19.000Z</time>
      </trkpt>
      <trkpt lat="45.93514" lon="6.17507">
        <ele>507</ele>
        <time>2014-04-13T07:02:22.000Z</time>
      </trkpt>
      <trkpt lat="45.93503" lon="6.17503">
        <ele>508.39999389648</ele>
        <time>2014-04-13T07:02:26.000Z</time>
      </trkpt>
      <trkpt lat="45.93502" lon="6.17504">
        <ele>508</ele>
        <time>2014-04-13T07:02:27.000Z</time>
      </trkpt>
      <trkpt lat="45.93496" lon="6.17501">
        <ele>508.20001220703</ele>
        <time>2014-04-13T07:02:30.000Z</time>
      </trkpt>
      <trkpt lat="45.93494" lon="6.175">
        <ele>508.20001220703</ele>
        <time>2014-04-13T07:02:31.000Z</time>
      </trkpt>
      <trkpt lat="45.93484" lon="6.17495">
        <ele>509.20001220703</ele>
        <time>2014-04-13T07:02:35.000Z</time>
      </trkpt>
      <trkpt lat="45.93478" lon="6.17498">
        <ele>507.20001220703</ele>
        <time>2014-04-13T07:02:38.000Z</time>
      </trkpt>
      <trkpt lat="45.93475" lon="6.17499">
        <ele>506.39999389648</ele>
        <time>2014-04-13T07:02:40.000Z</time>
      </trkpt>
      <trkpt lat="45.93474" lon="6.175">
        <ele>505.79998779297</ele>
        <time>2014-04-13T07:02:41.000Z</time>
      </trkpt>
      <trkpt lat="45.93469" lon="6.17505">
        <ele>504.39999389648</ele>
        <time>2014-04-13T07:02:44.000Z</time>
      </trkpt>
      <trkpt lat="45.93465" lon="6.17505">
        <ele>504</ele>
        <time>2014-04-13T07:02:46.000Z</time>
      </trkpt>
      <trkpt lat="45.93461" lon="6.17504">
        <ele>503.39999389648</ele>
        <time>2014-04-13T07:02:48.000Z</time>
      </trkpt>
      <trkpt lat="45.93452" lon="6.17498">
        <ele>503.79998779297</ele>
        <time>2014-04-13T07:02:52.000Z</time>
      </trkpt>
      <trkpt lat="45.93449" lon="6.17497">
        <ele>504</ele>
        <time>2014-04-13T07:02:53.000Z</time>
      </trkpt>
      <trkpt lat="45.93447" lon="6.17497">
        <ele>503.79998779297</ele>
        <time>2014-04-13T07:02:54.000Z</time>
      </trkpt>
      <trkpt lat="45.93444" lon="6.17501">
        <ele>502</ele>
        <time>2014-04-13T07:02:57.000Z</time>
      </trkpt>
      <trkpt lat="45.93441" lon="6.17503">
        <ele>501.60000610352</ele>
        <time>2014-04-13T07:02:59.000Z</time>
      </trkpt>
      <trkpt lat="45.93437" lon="6.17501">
        <ele>501.39999389648</ele>
        <time>2014-04-13T07:03:02.000Z</time>
      </trkpt>
      <trkpt lat="45.93426" lon="6.17502">
        <ele>499.79998779297</ele>
        <time>2014-04-13T07:03:07.000Z</time>
      </trkpt>
      <trkpt lat="45.93421" lon="6.17502">
        <ele>499.39999389648</ele>
        <time>2014-04-13T07:03:09.000Z</time>
      </trkpt>
      <trkpt lat="45.93418" lon="6.175">
        <ele>499.20001220703</ele>
        <time>2014-04-13T07:03:11.000Z</time>
      </trkpt>
      <trkpt lat="45.93416" lon="6.17499">
        <ele>499.20001220703</ele>
        <time>2014-04-13T07:03:12.000Z</time>
      </trkpt>
      <trkpt lat="45.93411" lon="6.17495">
        <ele>499.60000610352</ele>
        <time>2014-04-13T07:03:15.000Z</time>
      </trkpt>
      <trkpt lat="45.93409" lon="6.17494">
        <ele>499.60000610352</ele>
        <time>2014-04-13T07:03:17.000Z</time>
      </trkpt>
      <trkpt lat="45.93406" lon="6.17492">
        <ele>499.79998779297</ele>
        <time>2014-04-13T07:03:20.000Z</time>
      </trkpt>
      <trkpt lat="45.93405" lon="6.17492">
        <ele>499.60000610352</ele>
        <time>2014-04-13T07:03:23.000Z</time>
      </trkpt>
      <trkpt lat="45.93398" lon="6.17488">
        <ele>499.39999389648</ele>
        <time>2014-04-13T07:03:27.000Z</time>
      </trkpt>
      <trkpt lat="45.9339" lon="6.17493">
        <ele>496.79998779297</ele>
        <time>2014-04-13T07:03:36.000Z</time>
      </trkpt>
      <trkpt lat="45.93384" lon="6.17497">
        <ele>494.79998779297</ele>
        <time>2014-04-13T07:03:47.000Z</time>
      </trkpt>
      <trkpt lat="45.93378" lon="6.175">
        <ele>493</ele>
        <time>2014-04-13T07:03:50.000Z</time>
      </trkpt>
      <trkpt lat="45.93376" lon="6.175">
        <ele>492.79998779297</ele>
        <time>2014-04-13T07:03:51.000Z</time>
      </trkpt>
      <trkpt lat="45.93373" lon="6.17499">
        <ele>492.39999389648</ele>
        <time>2014-04-13T07:03:53.000Z</time>
      </trkpt>
      <trkpt lat="45.93369" lon="6.17498">
        <ele>491.79998779297</ele>
        <time>2014-04-13T07:03:55.000Z</time>
      </trkpt>
      <trkpt lat="45.93357" lon="6.17498">
        <ele>490.20001220703</ele>
        <time>2014-04-13T07:04:00.000Z</time>
      </trkpt>
      <trkpt lat="45.93355" lon="6.17498">
        <ele>489.79998779297</ele>
        <time>2014-04-13T07:04:01.000Z</time>
      </trkpt>
      <trkpt lat="45.93345" lon="6.17496">
        <ele>488.60000610352</ele>
        <time>2014-04-13T07:04:05.000Z</time>
      </trkpt>
      <trkpt lat="45.93329" lon="6.17495">
        <ele>486.79998779297</ele>
        <time>2014-04-13T07:04:11.000Z</time>
      </trkpt>
      <trkpt lat="45.93312" lon="6.17498">
        <ele>486.60000610352</ele>
        <time>2014-04-13T07:04:17.000Z</time>
      </trkpt>
      <trkpt lat="45.93293" lon="6.17502">
        <ele>486.39999389648</ele>
        <time>2014-04-13T07:04:23.000Z</time>
      </trkpt>
      <trkpt lat="45.93288" lon="6.17512">
        <ele>486.39999389648</ele>
        <time>2014-04-13T07:04:27.000Z</time>
      </trkpt>
      <trkpt lat="45.93286" lon="6.17513">
        <ele>486.39999389648</ele>
        <time>2014-04-13T07:04:28.000Z</time>
      </trkpt>
      <trkpt lat="45.9328" lon="6.17516">
        <ele>486.60000610352</ele>
        <time>2014-04-13T07:04:31.000Z</time>
      </trkpt>
      <trkpt lat="45.93269" lon="6.17519">
        <ele>486.79998779297</ele>
        <time>2014-04-13T07:04:35.000Z</time>
      </trkpt>
      <trkpt lat="45.93264" lon="6.17515">
        <ele>486.79998779297</ele>
        <time>2014-04-13T07:04:38.000Z</time>
      </trkpt>
      <trkpt lat="45.93263" lon="6.17513">
        <ele>486.79998779297</ele>
        <time>2014-04-13T07:04:39.000Z</time>
      </trkpt>
      <trkpt lat="45.93259" lon="6.17509">
        <ele>486.79998779297</ele>
        <time>2014-04-13T07:04:41.000Z</time>
      </trkpt>
      <trkpt lat="45.93257" lon="6.17505">
        <ele>487</ele>
        <time>2014-04-13T07:04:43.000Z</time>
      </trkpt>
      <trkpt lat="45.93256" lon="6.17502">
        <ele>487</ele>
        <time>2014-04-13T07:04:44.000Z</time>
      </trkpt>
      <trkpt lat="45.93254" lon="6.17498">
        <ele>487.20001220703</ele>
        <time>2014-04-13T07:04:47.000Z</time>
      </trkpt>
      <trkpt lat="45.93249" lon="6.17495">
        <ele>487.39999389648</ele>
        <time>2014-04-13T07:04:51.000Z</time>
      </trkpt>
      <trkpt lat="45.93248" lon="6.17494">
        <ele>487.60000610352</ele>
        <time>2014-04-13T07:04:52.000Z</time>
      </trkpt>
      <trkpt lat="45.93245" lon="6.17493">
        <ele>488.20001220703</ele>
        <time>2014-04-13T07:04:54.000Z</time>
      </trkpt>
      <trkpt lat="45.93239" lon="6.17493">
        <ele>489.39999389648</ele>
        <time>2014-04-13T07:04:57.000Z</time>
      </trkpt>
      <trkpt lat="45.93231" lon="6.17505">
        <ele>490</ele>
        <time>2014-04-13T07:05:01.000Z</time>
      </trkpt>
      <trkpt lat="45.9322" lon="6.17518">
        <ele>491</ele>
        <time>2014-04-13T07:05:05.000Z</time>
      </trkpt>
      <trkpt lat="45.93213" lon="6.17523">
        <ele>491.79998779297</ele>
        <time>2014-04-13T07:05:09.000Z</time>
      </trkpt>
      <trkpt lat="45.93201" lon="6.17527">
        <ele>493.39999389648</ele>
        <time>2014-04-13T07:05:14.000Z</time>
      </trkpt>
      <trkpt lat="45.93189" lon="6.17533">
        <ele>494.39999389648</ele>
        <time>2014-04-13T07:05:19.000Z</time>
      </trkpt>
      <trkpt lat="45.93186" lon="6.17536">
        <ele>494.60000610352</ele>
        <time>2014-04-13T07:05:24.000Z</time>
      </trkpt>
      <trkpt lat="45.93176" lon="6.17548">
        <ele>495</ele>
        <time>2014-04-13T07:05:56.000Z</time>
      </trkpt>
      <trkpt lat="45.93175" lon="6.17548">
        <ele>495</ele>
        <time>2014-04-13T07:05:57.000Z</time>
      </trkpt>
      <trkpt lat="45.93172" lon="6.1755">
        <ele>495.20001220703</ele>
        <time>2014-04-13T07:06:01.000Z</time>
      </trkpt>
      <trkpt lat="45.93168" lon="6.17551">
        <ele>495.60000610352</ele>
        <time>2014-04-13T07:06:05.000Z</time>
      </trkpt>
      <trkpt lat="45.93164" lon="6.17553">
        <ele>495.60000610352</ele>
        <time>2014-04-13T07:06:14.000Z</time>
      </trkpt>
      <trkpt lat="45.93159" lon="6.17557">
        <ele>495.60000610352</ele>
        <time>2014-04-13T07:06:27.000Z</time>
      </trkpt>
      <trkpt lat="45.93162" lon="6.17558">
        <ele>495.20001220703</ele>
        <time>2014-04-13T07:06:44.000Z</time>
      </trkpt>
      <trkpt lat="45.93153" lon="6.17563">
        <ele>495.20001220703</ele>
        <time>2014-04-13T07:06:48.000Z</time>
      </trkpt>
      <trkpt lat="45.93146" lon="6.17568">
        <ele>494.79998779297</ele>
        <time>2014-04-13T07:06:53.000Z</time>
      </trkpt>
      <trkpt lat="45.93143" lon="6.1757">
        <ele>494.79998779297</ele>
        <time>2014-04-13T07:06:55.000Z</time>
      </trkpt>
      <trkpt lat="45.93142" lon="6.1757">
        <ele>494.79998779297</ele>
        <time>2014-04-13T07:06:56.000Z</time>
      </trkpt>
      <trkpt lat="45.93141" lon="6.1757">
        <ele>494.79998779297</ele>
        <time>2014-04-13T07:06:57.000Z</time>
      </trkpt>
      <trkpt lat="45.93136" lon="6.17568">
        <ele>495</ele>
        <time>2014-04-13T07:07:00.000Z</time>
      </trkpt>
      <trkpt lat="45.93133" lon="6.17565">
        <ele>495.39999389648</ele>
        <time>2014-04-13T07:07:03.000Z</time>
      </trkpt>
      <trkpt lat="45.93128" lon="6.17558">
        <ele>496.39999389648</ele>
        <time>2014-04-13T07:07:07.000Z</time>
      </trkpt>
      <trkpt lat="45.93125" lon="6.17552">
        <ele>497.20001220703</ele>
        <time>2014-04-13T07:07:10.000Z</time>
      </trkpt>
      <trkpt lat="45.93122" lon="6.17549">
        <ele>497.79998779297</ele>
        <time>2014-04-13T07:07:12.000Z</time>
      </trkpt>
      <trkpt lat="45.93118" lon="6.17537">
        <ele>499.39999389648</ele>
        <time>2014-04-13T07:07:17.000Z</time>
      </trkpt>
      <trkpt lat="45.93114" lon="6.17526">
        <ele>501</ele>
        <time>2014-04-13T07:07:22.000Z</time>
      </trkpt>
      <trkpt lat="45.93112" lon="6.17522">
        <ele>501.79998779297</ele>
        <time>2014-04-13T07:07:25.000Z</time>
      </trkpt>
      <trkpt lat="45.9311" lon="6.17521">
        <ele>502</ele>
        <time>2014-04-13T07:07:26.000Z</time>
      </trkpt>
      <trkpt lat="45.93106" lon="6.17524">
        <ele>501.79998779297</ele>
        <time>2014-04-13T07:07:30.000Z</time>
      </trkpt>
      <trkpt lat="45.93106" lon="6.17523">
        <ele>502</ele>
        <time>2014-04-13T07:07:31.000Z</time>
      </trkpt>
      <trkpt lat="45.93104" lon="6.17521">
        <ele>502.39999389648</ele>
        <time>2014-04-13T07:07:33.000Z</time>
      </trkpt>
      <trkpt lat="45.93104" lon="6.17518">
        <ele>502.79998779297</ele>
        <time>2014-04-13T07:07:35.000Z</time>
      </trkpt>
      <trkpt lat="45.93104" lon="6.17516">
        <ele>503</ele>
        <time>2014-04-13T07:07:36.000Z</time>
      </trkpt>
      <trkpt lat="45.93102" lon="6.1751">
        <ele>504</ele>
        <time>2014-04-13T07:07:39.000Z</time>
      </trkpt>
      <trkpt lat="45.93103" lon="6.17509">
        <ele>504.20001220703</ele>
        <time>2014-04-13T07:07:40.000Z</time>
      </trkpt>
      <trkpt lat="45.93101" lon="6.17505">
        <ele>504.79998779297</ele>
        <time>2014-04-13T07:07:42.000Z</time>
      </trkpt>
      <trkpt lat="45.931" lon="6.17499">
        <ele>505.79998779297</ele>
        <time>2014-04-13T07:07:45.000Z</time>
      </trkpt>
      <trkpt lat="45.93093" lon="6.17493">
        <ele>508.39999389648</ele>
        <time>2014-04-13T07:07:49.000Z</time>
      </trkpt>
      <trkpt lat="45.93092" lon="6.17491">
        <ele>509.20001220703</ele>
        <time>2014-04-13T07:07:51.000Z</time>
      </trkpt>
      <trkpt lat="45.9309" lon="6.17488">
        <ele>510.39999389648</ele>
        <time>2014-04-13T07:07:54.000Z</time>
      </trkpt>
      <trkpt lat="45.93089" lon="6.17485">
        <ele>511.60000610352</ele>
        <time>2014-04-13T07:07:56.000Z</time>
      </trkpt>
      <trkpt lat="45.93086" lon="6.17485">
        <ele>511.79998779297</ele>
        <time>2014-04-13T07:07:58.000Z</time>
      </trkpt>
      <trkpt lat="45.93082" lon="6.17483">
        <ele>513.20001220703</ele>
        <time>2014-04-13T07:08:01.000Z</time>
      </trkpt>
      <trkpt lat="45.93081" lon="6.17482">
        <ele>513.59997558594</ele>
        <time>2014-04-13T07:08:02.000Z</time>
      </trkpt>
      <trkpt lat="45.93077" lon="6.17483">
        <ele>514</ele>
        <time>2014-04-13T07:08:06.000Z</time>
      </trkpt>
      <trkpt lat="45.93073" lon="6.17481">
        <ele>515</ele>
        <time>2014-04-13T07:08:11.000Z</time>
      </trkpt>
      <trkpt lat="45.9307" lon="6.17483">
        <ele>514.59997558594</ele>
        <time>2014-04-13T07:08:13.000Z</time>
      </trkpt>
      <trkpt lat="45.93065" lon="6.17484">
        <ele>515</ele>
        <time>2014-04-13T07:08:16.000Z</time>
      </trkpt>
      <trkpt lat="45.93064" lon="6.17484">
        <ele>515.40002441406</ele>
        <time>2014-04-13T07:08:17.000Z</time>
      </trkpt>
      <trkpt lat="45.93061" lon="6.17483">
        <ele>515.79998779297</ele>
        <time>2014-04-13T07:08:19.000Z</time>
      </trkpt>
      <trkpt lat="45.93055" lon="6.17483">
        <ele>516.59997558594</ele>
        <time>2014-04-13T07:08:22.000Z</time>
      </trkpt>
      <trkpt lat="45.93054" lon="6.17484">
        <ele>516.40002441406</ele>
        <time>2014-04-13T07:08:24.000Z</time>
      </trkpt>
      <trkpt lat="45.93051" lon="6.17488">
        <ele>515.40002441406</ele>
        <time>2014-04-13T07:08:26.000Z</time>
      </trkpt>
      <trkpt lat="45.93049" lon="6.17489">
        <ele>515.40002441406</ele>
        <time>2014-04-13T07:08:28.000Z</time>
      </trkpt>
      <trkpt lat="45.93048" lon="6.17488">
        <ele>515.79998779297</ele>
        <time>2014-04-13T07:08:30.000Z</time>
      </trkpt>
      <trkpt lat="45.93044" lon="6.17493">
        <ele>514.59997558594</ele>
        <time>2014-04-13T07:08:35.000Z</time>
      </trkpt>
      <trkpt lat="45.93042" lon="6.17495">
        <ele>514</ele>
        <time>2014-04-13T07:08:38.000Z</time>
      </trkpt>
      <trkpt lat="45.93039" lon="6.17495">
        <ele>514.59997558594</ele>
        <time>2014-04-13T07:08:40.000Z</time>
      </trkpt>
      <trkpt lat="45.93036" lon="6.17499">
        <ele>513.59997558594</ele>
        <time>2014-04-13T07:08:44.000Z</time>
      </trkpt>
      <trkpt lat="45.93035" lon="6.175">
        <ele>513.20001220703</ele>
        <time>2014-04-13T07:08:45.000Z</time>
      </trkpt>
      <trkpt lat="45.93034" lon="6.17501">
        <ele>513.20001220703</ele>
        <time>2014-04-13T07:08:46.000Z</time>
      </trkpt>
      <trkpt lat="45.93027" lon="6.17504">
        <ele>513.59997558594</ele>
        <time>2014-04-13T07:08:49.000Z</time>
      </trkpt>
      <trkpt lat="45.93021" lon="6.17503">
        <ele>514.40002441406</ele>
        <time>2014-04-13T07:08:52.000Z</time>
      </trkpt>
      <trkpt lat="45.93018" lon="6.17506">
        <ele>514.40002441406</ele>
        <time>2014-04-13T07:08:54.000Z</time>
      </trkpt>
      <trkpt lat="45.93008" lon="6.17507">
        <ele>515.40002441406</ele>
        <time>2014-04-13T07:08:59.000Z</time>
      </trkpt>
      <trkpt lat="45.93007" lon="6.17507">
        <ele>515.40002441406</ele>
        <time>2014-04-13T07:09:00.000Z</time>
      </trkpt>
      <trkpt lat="45.93002" lon="6.17506">
        <ele>516.40002441406</ele>
        <time>2014-04-13T07:09:03.000Z</time>
      </trkpt>
      <trkpt lat="45.93001" lon="6.17505">
        <ele>516.79998779297</ele>
        <time>2014-04-13T07:09:04.000Z</time>
      </trkpt>
      <trkpt lat="45.92993" lon="6.17504">
        <ele>519</ele>
        <time>2014-04-13T07:09:08.000Z</time>
      </trkpt>
      <trkpt lat="45.92985" lon="6.17505">
        <ele>520.79998779297</ele>
        <time>2014-04-13T07:09:11.000Z</time>
      </trkpt>
      <trkpt lat="45.92983" lon="6.17509">
        <ele>520.40002441406</ele>
        <time>2014-04-13T07:09:13.000Z</time>
      </trkpt>
      <trkpt lat="45.92982" lon="6.1751">
        <ele>520.40002441406</ele>
        <time>2014-04-13T07:09:15.000Z</time>
      </trkpt>
      <trkpt lat="45.9298" lon="6.17511">
        <ele>520.59997558594</ele>
        <time>2014-04-13T07:09:17.000Z</time>
      </trkpt>
      <trkpt lat="45.92978" lon="6.17511">
        <ele>521</ele>
        <time>2014-04-13T07:09:18.000Z</time>
      </trkpt>
      <trkpt lat="45.92976" lon="6.17509">
        <ele>522</ele>
        <time>2014-04-13T07:09:20.000Z</time>
      </trkpt>
      <trkpt lat="45.92974" lon="6.17509">
        <ele>522.79998779297</ele>
        <time>2014-04-13T07:09:21.000Z</time>
      </trkpt>
      <trkpt lat="45.92966" lon="6.17506">
        <ele>525.40002441406</ele>
        <time>2014-04-13T07:09:26.000Z</time>
      </trkpt>
      <trkpt lat="45.92964" lon="6.17508">
        <ele>525.40002441406</ele>
        <time>2014-04-13T07:09:28.000Z</time>
      </trkpt>
      <trkpt lat="45.92956" lon="6.17508">
        <ele>527.59997558594</ele>
        <time>2014-04-13T07:09:33.000Z</time>
      </trkpt>
      <trkpt lat="45.92956" lon="6.17509">
        <ele>527.40002441406</ele>
        <time>2014-04-13T07:09:34.000Z</time>
      </trkpt>
      <trkpt lat="45.92953" lon="6.17514">
        <ele>526.79998779297</ele>
        <time>2014-04-13T07:09:37.000Z</time>
      </trkpt>
      <trkpt lat="45.92952" lon="6.17519">
        <ele>526</ele>
        <time>2014-04-13T07:09:39.000Z</time>
      </trkpt>
      <trkpt lat="45.92947" lon="6.17521">
        <ele>526.79998779297</ele>
        <time>2014-04-13T07:09:44.000Z</time>
      </trkpt>
      <trkpt lat="45.92941" lon="6.17522">
        <ele>528</ele>
        <time>2014-04-13T07:09:49.000Z</time>
      </trkpt>
      <trkpt lat="45.92932" lon="6.17523">
        <ele>530</ele>
        <time>2014-04-13T07:09:53.000Z</time>
      </trkpt>
      <trkpt lat="45.92925" lon="6.17528">
        <ele>530.59997558594</ele>
        <time>2014-04-13T07:09:58.000Z</time>
      </trkpt>
      <trkpt lat="45.92922" lon="6.17543">
        <ele>527.20001220703</ele>
        <time>2014-04-13T07:10:03.000Z</time>
      </trkpt>
      <trkpt lat="45.92921" lon="6.17551">
        <ele>525.40002441406</ele>
        <time>2014-04-13T07:10:06.000Z</time>
      </trkpt>
      <trkpt lat="45.92919" lon="6.17556">
        <ele>524.79998779297</ele>
        <time>2014-04-13T07:10:08.000Z</time>
      </trkpt>
      <trkpt lat="45.92916" lon="6.17572">
        <ele>521.20001220703</ele>
        <time>2014-04-13T07:10:12.000Z</time>
      </trkpt>
      <trkpt lat="45.92918" lon="6.17579">
        <ele>518.79998779297</ele>
        <time>2014-04-13T07:10:16.000Z</time>
      </trkpt>
      <trkpt lat="45.92913" lon="6.17594">
        <ele>517.40002441406</ele>
        <time>2014-04-13T07:10:21.000Z</time>
      </trkpt>
      <trkpt lat="45.92907" lon="6.17599">
        <ele>518.40002441406</ele>
        <time>2014-04-13T07:10:26.000Z</time>
      </trkpt>
      <trkpt lat="45.92905" lon="6.17607">
        <ele>517.79998779297</ele>
        <time>2014-04-13T07:10:32.000Z</time>
      </trkpt>
      <trkpt lat="45.929" lon="6.17611">
        <ele>518.79998779297</ele>
        <time>2014-04-13T07:10:35.000Z</time>
      </trkpt>
      <trkpt lat="45.92895" lon="6.17613">
        <ele>519.79998779297</ele>
        <time>2014-04-13T07:10:37.000Z</time>
      </trkpt>
      <trkpt lat="45.92884" lon="6.17619">
        <ele>522.40002441406</ele>
        <time>2014-04-13T07:10:43.000Z</time>
      </trkpt>
      <trkpt lat="45.92879" lon="6.17628">
        <ele>522.59997558594</ele>
        <time>2014-04-13T07:10:48.000Z</time>
      </trkpt>
      <trkpt lat="45.92874" lon="6.17632">
        <ele>523.59997558594</ele>
        <time>2014-04-13T07:10:53.000Z</time>
      </trkpt>
      <trkpt lat="45.92872" lon="6.17632">
        <ele>524.20001220703</ele>
        <time>2014-04-13T07:10:55.000Z</time>
      </trkpt>
      <trkpt lat="45.9287" lon="6.17631">
        <ele>525</ele>
        <time>2014-04-13T07:10:57.000Z</time>
      </trkpt>
      <trkpt lat="45.92868" lon="6.17631">
        <ele>525.59997558594</ele>
        <time>2014-04-13T07:10:59.000Z</time>
      </trkpt>
      <trkpt lat="45.92865" lon="6.17632">
        <ele>526.20001220703</ele>
        <time>2014-04-13T07:11:02.000Z</time>
      </trkpt>
      <trkpt lat="45.92863" lon="6.17635">
        <ele>526.40002441406</ele>
        <time>2014-04-13T07:11:07.000Z</time>
      </trkpt>
      <trkpt lat="45.92866" lon="6.17646">
        <ele>524</ele>
        <time>2014-04-13T07:11:10.000Z</time>
      </trkpt>
      <trkpt lat="45.92862" lon="6.17657">
        <ele>523.59997558594</ele>
        <time>2014-04-13T07:11:14.000Z</time>
      </trkpt>
      <trkpt lat="45.92862" lon="6.17659">
        <ele>523.20001220703</ele>
        <time>2014-04-13T07:11:15.000Z</time>
      </trkpt>
      <trkpt lat="45.92864" lon="6.17663">
        <ele>521.79998779297</ele>
        <time>2014-04-13T07:11:19.000Z</time>
      </trkpt>
      <trkpt lat="45.92863" lon="6.17676">
        <ele>520.59997558594</ele>
        <time>2014-04-13T07:11:24.000Z</time>
      </trkpt>
      <trkpt lat="45.92863" lon="6.17686">
        <ele>519.59997558594</ele>
        <time>2014-04-13T07:11:27.000Z</time>
      </trkpt>
      <trkpt lat="45.92863" lon="6.17695">
        <ele>518.79998779297</ele>
        <time>2014-04-13T07:11:29.000Z</time>
      </trkpt>
      <trkpt lat="45.92866" lon="6.177">
        <ele>517.20001220703</ele>
        <time>2014-04-13T07:11:31.000Z</time>
      </trkpt>
      <trkpt lat="45.92869" lon="6.17705">
        <ele>515.40002441406</ele>
        <time>2014-04-13T07:11:33.000Z</time>
      </trkpt>
      <trkpt lat="45.92872" lon="6.17714">
        <ele>513.40002441406</ele>
        <time>2014-04-13T07:11:37.000Z</time>
      </trkpt>
      <trkpt lat="45.92871" lon="6.17716">
        <ele>513.59997558594</ele>
        <time>2014-04-13T07:11:38.000Z</time>
      </trkpt>
      <trkpt lat="45.92868" lon="6.17721">
        <ele>514.20001220703</ele>
        <time>2014-04-13T07:11:40.000Z</time>
      </trkpt>
      <trkpt lat="45.92867" lon="6.17735">
        <ele>513</ele>
        <time>2014-04-13T07:11:44.000Z</time>
      </trkpt>
      <trkpt lat="45.92867" lon="6.17737">
        <ele>512.59997558594</ele>
        <time>2014-04-13T07:11:46.000Z</time>
      </trkpt>
      <trkpt lat="45.92867" lon="6.17743">
        <ele>512.20001220703</ele>
        <time>2014-04-13T07:11:49.000Z</time>
      </trkpt>
      <trkpt lat="45.92867" lon="6.17751">
        <ele>511.20001220703</ele>
        <time>2014-04-13T07:11:52.000Z</time>
      </trkpt>
      <trkpt lat="45.92868" lon="6.17756">
        <ele>510.60000610352</ele>
        <time>2014-04-13T07:11:54.000Z</time>
      </trkpt>
      <trkpt lat="45.92865" lon="6.17763">
        <ele>510.79998779297</ele>
        <time>2014-04-13T07:11:57.000Z</time>
      </trkpt>
      <trkpt lat="45.92866" lon="6.17768">
        <ele>510.39999389648</ele>
        <time>2014-04-13T07:11:59.000Z</time>
      </trkpt>
      <trkpt lat="45.92863" lon="6.17781">
        <ele>510.20001220703</ele>
        <time>2014-04-13T07:12:03.000Z</time>
      </trkpt>
      <trkpt lat="45.92856" lon="6.1779">
        <ele>511.20001220703</ele>
        <time>2014-04-13T07:12:08.000Z</time>
      </trkpt>
      <trkpt lat="45.92852" lon="6.178">
        <ele>511.39999389648</ele>
        <time>2014-04-13T07:12:12.000Z</time>
      </trkpt>
      <trkpt lat="45.92849" lon="6.17805">
        <ele>511.60000610352</ele>
        <time>2014-04-13T07:12:14.000Z</time>
      </trkpt>
      <trkpt lat="45.92849" lon="6.17809">
        <ele>511.20001220703</ele>
        <time>2014-04-13T07:12:17.000Z</time>
      </trkpt>
      <trkpt lat="45.92849" lon="6.1781">
        <ele>510.79998779297</ele>
        <time>2014-04-13T07:12:18.000Z</time>
      </trkpt>
      <trkpt lat="45.92842" lon="6.17818">
        <ele>511.60000610352</ele>
        <time>2014-04-13T07:12:21.000Z</time>
      </trkpt>
      <trkpt lat="45.92838" lon="6.17821">
        <ele>511.79998779297</ele>
        <time>2014-04-13T07:12:25.000Z</time>
      </trkpt>
      <trkpt lat="45.92838" lon="6.17823">
        <ele>511.60000610352</ele>
        <time>2014-04-13T07:12:26.000Z</time>
      </trkpt>
      <trkpt lat="45.92835" lon="6.17829">
        <ele>511.20001220703</ele>
        <time>2014-04-13T07:12:29.000Z</time>
      </trkpt>
      <trkpt lat="45.92831" lon="6.17833">
        <ele>511</ele>
        <time>2014-04-13T07:12:33.000Z</time>
      </trkpt>
      <trkpt lat="45.92829" lon="6.17837">
        <ele>510.39999389648</ele>
        <time>2014-04-13T07:12:35.000Z</time>
      </trkpt>
      <trkpt lat="45.92826" lon="6.17842">
        <ele>509.39999389648</ele>
        <time>2014-04-13T07:12:37.000Z</time>
      </trkpt>
      <trkpt lat="45.92821" lon="6.17851">
        <ele>507.79998779297</ele>
        <time>2014-04-13T07:12:40.000Z</time>
      </trkpt>
      <trkpt lat="45.92813" lon="6.1786">
        <ele>505.79998779297</ele>
        <time>2014-04-13T07:12:45.000Z</time>
      </trkpt>
      <trkpt lat="45.9281" lon="6.17866">
        <ele>504.79998779297</ele>
        <time>2014-04-13T07:12:47.000Z</time>
      </trkpt>
      <trkpt lat="45.92808" lon="6.17875">
        <ele>503</ele>
        <time>2014-04-13T07:12:49.000Z</time>
      </trkpt>
      <trkpt lat="45.92808" lon="6.17882">
        <ele>502</ele>
        <time>2014-04-13T07:12:51.000Z</time>
      </trkpt>
      <trkpt lat="45.92807" lon="6.17884">
        <ele>501.39999389648</ele>
        <time>2014-04-13T07:12:52.000Z</time>
      </trkpt>
      <trkpt lat="45.92807" lon="6.17887">
        <ele>501</ele>
        <time>2014-04-13T07:12:53.000Z</time>
      </trkpt>
      <trkpt lat="45.92809" lon="6.17898">
        <ele>499.20001220703</ele>
        <time>2014-04-13T07:12:57.000Z</time>
      </trkpt>
      <trkpt lat="45.92815" lon="6.1791">
        <ele>497.60000610352</ele>
        <time>2014-04-13T07:13:01.000Z</time>
      </trkpt>
      <trkpt lat="45.92821" lon="6.17927">
        <ele>497.79998779297</ele>
        <time>2014-04-13T07:13:06.000Z</time>
      </trkpt>
      <trkpt lat="45.92831" lon="6.17945">
        <ele>500.39999389648</ele>
        <time>2014-04-13T07:13:12.000Z</time>
      </trkpt>
      <trkpt lat="45.92839" lon="6.17959">
        <ele>503.79998779297</ele>
        <time>2014-04-13T07:13:17.000Z</time>
      </trkpt>
      <trkpt lat="45.92846" lon="6.17974">
        <ele>507.79998779297</ele>
        <time>2014-04-13T07:13:22.000Z</time>
      </trkpt>
      <trkpt lat="45.92848" lon="6.17989">
        <ele>510.20001220703</ele>
        <time>2014-04-13T07:13:27.000Z</time>
      </trkpt>
      <trkpt lat="45.92847" lon="6.17991">
        <ele>510</ele>
        <time>2014-04-13T07:13:28.000Z</time>
      </trkpt>
      <trkpt lat="45.92844" lon="6.17991">
        <ele>509.20001220703</ele>
        <time>2014-04-13T07:13:31.000Z</time>
      </trkpt>
      <trkpt lat="45.92836" lon="6.17998">
        <ele>507</ele>
        <time>2014-04-13T07:13:35.000Z</time>
      </trkpt>
      <trkpt lat="45.92823" lon="6.18016">
        <ele>506.39999389648</ele>
        <time>2014-04-13T07:13:41.000Z</time>
      </trkpt>
      <trkpt lat="45.92809" lon="6.18031">
        <ele>506</ele>
        <time>2014-04-13T07:13:47.000Z</time>
      </trkpt>
      <trkpt lat="45.92802" lon="6.18032">
        <ele>505</ele>
        <time>2014-04-13T07:13:51.000Z</time>
      </trkpt>
      <trkpt lat="45.92801" lon="6.18032">
        <ele>504.60000610352</ele>
        <time>2014-04-13T07:13:52.000Z</time>
      </trkpt>
      <trkpt lat="45.92798" lon="6.18026">
        <ele>503.20001220703</ele>
        <time>2014-04-13T07:13:56.000Z</time>
      </trkpt>
      <trkpt lat="45.92796" lon="6.18024">
        <ele>502.60000610352</ele>
        <time>2014-04-13T07:13:57.000Z</time>
      </trkpt>
      <trkpt lat="45.92791" lon="6.18023">
        <ele>501.39999389648</ele>
        <time>2014-04-13T07:13:59.000Z</time>
      </trkpt>
      <trkpt lat="45.92785" lon="6.18024">
        <ele>500.60000610352</ele>
        <time>2014-04-13T07:14:01.000Z</time>
      </trkpt>
      <trkpt lat="45.9277" lon="6.18021">
        <ele>497.39999389648</ele>
        <time>2014-04-13T07:14:06.000Z</time>
      </trkpt>
      <trkpt lat="45.92758" lon="6.1802">
        <ele>495</ele>
        <time>2014-04-13T07:14:11.000Z</time>
      </trkpt>
      <trkpt lat="45.92743" lon="6.18027">
        <ele>494</ele>
        <time>2014-04-13T07:14:16.000Z</time>
      </trkpt>
      <trkpt lat="45.92724" lon="6.18037">
        <ele>494.79998779297</ele>
        <time>2014-04-13T07:14:22.000Z</time>
      </trkpt>
      <trkpt lat="45.92713" lon="6.18049">
        <ele>495.60000610352</ele>
        <time>2014-04-13T07:14:27.000Z</time>
      </trkpt>
      <trkpt lat="45.92698" lon="6.18058">
        <ele>495.79998779297</ele>
        <time>2014-04-13T07:14:32.000Z</time>
      </trkpt>
      <trkpt lat="45.92684" lon="6.18063">
        <ele>495.60000610352</ele>
        <time>2014-04-13T07:14:37.000Z</time>
      </trkpt>
      <trkpt lat="45.92672" lon="6.18062">
        <ele>495</ele>
        <time>2014-04-13T07:14:43.000Z</time>
      </trkpt>
      <trkpt lat="45.92668" lon="6.1806">
        <ele>494.60000610352</ele>
        <time>2014-04-13T07:14:45.000Z</time>
      </trkpt>
      <trkpt lat="45.92662" lon="6.18058">
        <ele>494.60000610352</ele>
        <time>2014-04-13T07:14:47.000Z</time>
      </trkpt>
      <trkpt lat="45.9266" lon="6.18058">
        <ele>494.79998779297</ele>
        <time>2014-04-13T07:14:48.000Z</time>
      </trkpt>
      <trkpt lat="45.92646" lon="6.1806">
        <ele>495.39999389648</ele>
        <time>2014-04-13T07:14:53.000Z</time>
      </trkpt>
      <trkpt lat="45.9263" lon="6.1806">
        <ele>496</ele>
        <time>2014-04-13T07:14:58.000Z</time>
      </trkpt>
      <trkpt lat="45.92618" lon="6.18061">
        <ele>496.39999389648</ele>
        <time>2014-04-13T07:15:02.000Z</time>
      </trkpt>
      <trkpt lat="45.92614" lon="6.18065">
        <ele>496.39999389648</ele>
        <time>2014-04-13T07:15:04.000Z</time>
      </trkpt>
      <trkpt lat="45.9261" lon="6.18071">
        <ele>496.39999389648</ele>
        <time>2014-04-13T07:15:06.000Z</time>
      </trkpt>
      <trkpt lat="45.92606" lon="6.18075">
        <ele>496.20001220703</ele>
        <time>2014-04-13T07:15:08.000Z</time>
      </trkpt>
      <trkpt lat="45.92599" lon="6.1808">
        <ele>496.20001220703</ele>
        <time>2014-04-13T07:15:11.000Z</time>
      </trkpt>
      <trkpt lat="45.92581" lon="6.18091">
        <ele>496.20001220703</ele>
        <time>2014-04-13T07:15:18.000Z</time>
      </trkpt>
      <trkpt lat="45.92575" lon="6.18099">
        <ele>496.79998779297</ele>
        <time>2014-04-13T07:15:22.000Z</time>
      </trkpt>
      <trkpt lat="45.92563" lon="6.18111">
        <ele>498</ele>
        <time>2014-04-13T07:15:27.000Z</time>
      </trkpt>
      <trkpt lat="45.92545" lon="6.18121">
        <ele>499.39999389648</ele>
        <time>2014-04-13T07:15:33.000Z</time>
      </trkpt>
      <trkpt lat="45.92539" lon="6.18136">
        <ele>499.20001220703</ele>
        <time>2014-04-13T07:15:37.000Z</time>
      </trkpt>
      <trkpt lat="45.92531" lon="6.1816">
        <ele>498.79998779297</ele>
        <time>2014-04-13T07:15:43.000Z</time>
      </trkpt>
      <trkpt lat="45.92525" lon="6.1818">
        <ele>498.60000610352</ele>
        <time>2014-04-13T07:15:48.000Z</time>
      </trkpt>
      <trkpt lat="45.92518" lon="6.18202">
        <ele>498.60000610352</ele>
        <time>2014-04-13T07:15:54.000Z</time>
      </trkpt>
      <trkpt lat="45.92514" lon="6.18214">
        <ele>498.60000610352</ele>
        <time>2014-04-13T07:15:58.000Z</time>
      </trkpt>
      <trkpt lat="45.92513" lon="6.18217">
        <ele>498.60000610352</ele>
        <time>2014-04-13T07:15:59.000Z</time>
      </trkpt>
      <trkpt lat="45.9251" lon="6.1824">
        <ele>498.20001220703</ele>
        <time>2014-04-13T07:16:05.000Z</time>
      </trkpt>
      <trkpt lat="45.92508" lon="6.18244">
        <ele>498.20001220703</ele>
        <time>2014-04-13T07:16:07.000Z</time>
      </trkpt>
      <trkpt lat="45.92509" lon="6.18246">
        <ele>498</ele>
        <time>2014-04-13T07:16:09.000Z</time>
      </trkpt>
      <trkpt lat="45.92511" lon="6.18248">
        <ele>498</ele>
        <time>2014-04-13T07:16:11.000Z</time>
      </trkpt>
      <trkpt lat="45.92513" lon="6.18257">
        <ele>498</ele>
        <time>2014-04-13T07:16:14.000Z</time>
      </trkpt>
      <trkpt lat="45.92515" lon="6.18277">
        <ele>497.79998779297</ele>
        <time>2014-04-13T07:16:19.000Z</time>
      </trkpt>
      <trkpt lat="45.92518" lon="6.18295">
        <ele>497.79998779297</ele>
        <time>2014-04-13T07:16:24.000Z</time>
      </trkpt>
      <trkpt lat="45.92519" lon="6.18313">
        <ele>497.79998779297</ele>
        <time>2014-04-13T07:16:28.000Z</time>
      </trkpt>
      <trkpt lat="45.92523" lon="6.18321">
        <ele>497.79998779297</ele>
        <time>2014-04-13T07:16:31.000Z</time>
      </trkpt>
      <trkpt lat="45.92524" lon="6.18328">
        <ele>497.79998779297</ele>
        <time>2014-04-13T07:16:33.000Z</time>
      </trkpt>
      <trkpt lat="45.92524" lon="6.18348">
        <ele>498</ele>
        <time>2014-04-13T07:16:37.000Z</time>
      </trkpt>
      <trkpt lat="45.92526" lon="6.18356">
        <ele>498.20001220703</ele>
        <time>2014-04-13T07:16:39.000Z</time>
      </trkpt>
      <trkpt lat="45.92526" lon="6.18365">
        <ele>498.20001220703</ele>
        <time>2014-04-13T07:16:41.000Z</time>
      </trkpt>
      <trkpt lat="45.92528" lon="6.18387">
        <ele>498.60000610352</ele>
        <time>2014-04-13T07:16:47.000Z</time>
      </trkpt>
      <trkpt lat="45.92527" lon="6.18404">
        <ele>498.79998779297</ele>
        <time>2014-04-13T07:16:51.000Z</time>
      </trkpt>
      <trkpt lat="45.92526" lon="6.18426">
        <ele>499</ele>
        <time>2014-04-13T07:16:56.000Z</time>
      </trkpt>
      <trkpt lat="45.92527" lon="6.18432">
        <ele>499.20001220703</ele>
        <time>2014-04-13T07:16:58.000Z</time>
      </trkpt>
      <trkpt lat="45.92529" lon="6.18437">
        <ele>499.39999389648</ele>
        <time>2014-04-13T07:17:00.000Z</time>
      </trkpt>
      <trkpt lat="45.92529" lon="6.18459">
        <ele>499.60000610352</ele>
        <time>2014-04-13T07:17:06.000Z</time>
      </trkpt>
      <trkpt lat="45.92528" lon="6.18476">
        <ele>499.79998779297</ele>
        <time>2014-04-13T07:17:11.000Z</time>
      </trkpt>
      <trkpt lat="45.92526" lon="6.18491">
        <ele>499.60000610352</ele>
        <time>2014-04-13T07:17:16.000Z</time>
      </trkpt>
      <trkpt lat="45.92519" lon="6.18503">
        <ele>498.60000610352</ele>
        <time>2014-04-13T07:17:20.000Z</time>
      </trkpt>
      <trkpt lat="45.92516" lon="6.18507">
        <ele>498</ele>
        <time>2014-04-13T07:17:22.000Z</time>
      </trkpt>
      <trkpt lat="45.92512" lon="6.18513">
        <ele>497.39999389648</ele>
        <time>2014-04-13T07:17:24.000Z</time>
      </trkpt>
      <trkpt lat="45.92502" lon="6.18531">
        <ele>495.60000610352</ele>
        <time>2014-04-13T07:17:28.000Z</time>
      </trkpt>
      <trkpt lat="45.92501" lon="6.18535">
        <ele>495.39999389648</ele>
        <time>2014-04-13T07:17:29.000Z</time>
      </trkpt>
      <trkpt lat="45.92495" lon="6.18558">
        <ele>494.60000610352</ele>
        <time>2014-04-13T07:17:34.000Z</time>
      </trkpt>
      <trkpt lat="45.92501" lon="6.18575">
        <ele>494.20001220703</ele>
        <time>2014-04-13T07:17:39.000Z</time>
      </trkpt>
      <trkpt lat="45.92509" lon="6.1858">
        <ele>495.39999389648</ele>
        <time>2014-04-13T07:17:43.000Z</time>
      </trkpt>
      <trkpt lat="45.92511" lon="6.18582">
        <ele>495.60000610352</ele>
        <time>2014-04-13T07:17:47.000Z</time>
      </trkpt>
      <trkpt lat="45.9251" lon="6.18584">
        <ele>495.39999389648</ele>
        <time>2014-04-13T07:17:49.000Z</time>
      </trkpt>
      <trkpt lat="45.92508" lon="6.18589">
        <ele>495.20001220703</ele>
        <time>2014-04-13T07:17:51.000Z</time>
      </trkpt>
      <trkpt lat="45.92509" lon="6.18591">
        <ele>495.20001220703</ele>
        <time>2014-04-13T07:17:52.000Z</time>
      </trkpt>
      <trkpt lat="45.92511" lon="6.186">
        <ele>495.60000610352</ele>
        <time>2014-04-13T07:17:55.000Z</time>
      </trkpt>
      <trkpt lat="45.92511" lon="6.18608">
        <ele>495.60000610352</ele>
        <time>2014-04-13T07:17:58.000Z</time>
      </trkpt>
      <trkpt lat="45.9251" lon="6.18615">
        <ele>495.60000610352</ele>
        <time>2014-04-13T07:18:00.000Z</time>
      </trkpt>
      <trkpt lat="45.9251" lon="6.18628">
        <ele>495.39999389648</ele>
        <time>2014-04-13T07:18:03.000Z</time>
      </trkpt>
      <trkpt lat="45.92509" lon="6.18638">
        <ele>495.39999389648</ele>
        <time>2014-04-13T07:18:06.000Z</time>
      </trkpt>
      <trkpt lat="45.92512" lon="6.18654">
        <ele>495.79998779297</ele>
        <time>2014-04-13T07:18:10.000Z</time>
      </trkpt>
      <trkpt lat="45.92522" lon="6.18659">
        <ele>497.20001220703</ele>
        <time>2014-04-13T07:18:14.000Z</time>
      </trkpt>
      <trkpt lat="45.92523" lon="6.18658">
        <ele>497.20001220703</ele>
        <time>2014-04-13T07:18:20.000Z</time>
      </trkpt>
      <trkpt lat="45.92523" lon="6.18659">
        <ele>497.39999389648</ele>
        <time>2014-04-13T07:18:27.000Z</time>
      </trkpt>
      <trkpt lat="45.92525" lon="6.18659">
        <ele>497.60000610352</ele>
        <time>2014-04-13T07:18:36.000Z</time>
      </trkpt>
      <trkpt lat="45.92528" lon="6.18661">
        <ele>498</ele>
        <time>2014-04-13T07:19:09.000Z</time>
      </trkpt>
      <trkpt lat="45.92528" lon="6.18662">
        <ele>498</ele>
        <time>2014-04-13T07:19:14.000Z</time>
      </trkpt>
      <trkpt lat="45.92525" lon="6.18658">
        <ele>497.60000610352</ele>
        <time>2014-04-13T07:19:25.000Z</time>
      </trkpt>
      <trkpt lat="45.92525" lon="6.18661">
        <ele>497.60000610352</ele>
        <time>2014-04-13T07:19:30.000Z</time>
      </trkpt>
      <trkpt lat="45.92527" lon="6.18661">
        <ele>497.79998779297</ele>
        <time>2014-04-13T07:19:33.000Z</time>
      </trkpt>
      <trkpt lat="45.92528" lon="6.18654">
        <ele>498</ele>
        <time>2014-04-13T07:20:01.000Z</time>
      </trkpt>
      <trkpt lat="45.9253" lon="6.18657">
        <ele>498.20001220703</ele>
        <time>2014-04-13T07:20:08.000Z</time>
      </trkpt>
      <trkpt lat="45.92532" lon="6.18662">
        <ele>498.60000610352</ele>
        <time>2014-04-13T07:20:19.000Z</time>
      </trkpt>
      <trkpt lat="45.92539" lon="6.18671">
        <ele>499.60000610352</ele>
        <time>2014-04-13T07:20:27.000Z</time>
      </trkpt>
      <trkpt lat="45.92547" lon="6.18675">
        <ele>501</ele>
        <time>2014-04-13T07:20:33.000Z</time>
      </trkpt>
      <trkpt lat="45.92547" lon="6.18675">
        <ele>501</ele>
        <time>2014-04-13T07:20:34.000Z</time>
      </trkpt>
      <trkpt lat="45.9255" lon="6.18678">
        <ele>501.60000610352</ele>
        <time>2014-04-13T07:20:37.000Z</time>
      </trkpt>
      <trkpt lat="45.9255" lon="6.18681">
        <ele>501.60000610352</ele>
        <time>2014-04-13T07:20:43.000Z</time>
      </trkpt>
      <trkpt lat="45.92554" lon="6.18684">
        <ele>502.39999389648</ele>
        <time>2014-04-13T07:20:48.000Z</time>
      </trkpt>
      <trkpt lat="45.92564" lon="6.18694">
        <ele>504.39999389648</ele>
        <time>2014-04-13T07:20:55.000Z</time>
      </trkpt>
      <trkpt lat="45.92575" lon="6.18718">
        <ele>507</ele>
        <time>2014-04-13T07:21:05.000Z</time>
      </trkpt>
      <trkpt lat="45.92576" lon="6.18734">
        <ele>508</ele>
        <time>2014-04-13T07:21:10.000Z</time>
      </trkpt>
      <trkpt lat="45.92576" lon="6.18753">
        <ele>508.79998779297</ele>
        <time>2014-04-13T07:21:17.000Z</time>
      </trkpt>
      <trkpt lat="45.92576" lon="6.18774">
        <ele>510.60000610352</ele>
        <time>2014-04-13T07:21:24.000Z</time>
      </trkpt>
      <trkpt lat="45.92576" lon="6.18789">
        <ele>511.79998779297</ele>
        <time>2014-04-13T07:21:29.000Z</time>
      </trkpt>
      <trkpt lat="45.92573" lon="6.18809">
        <ele>512.79998779297</ele>
        <time>2014-04-13T07:21:35.000Z</time>
      </trkpt>
      <trkpt lat="45.9257" lon="6.18832">
        <ele>513.79998779297</ele>
        <time>2014-04-13T07:21:42.000Z</time>
      </trkpt>
      <trkpt lat="45.92567" lon="6.18841">
        <ele>514.20001220703</ele>
        <time>2014-04-13T07:21:45.000Z</time>
      </trkpt>
      <trkpt lat="45.92566" lon="6.18845">
        <ele>514.40002441406</ele>
        <time>2014-04-13T07:21:46.000Z</time>
      </trkpt>
      <trkpt lat="45.9256" lon="6.18854">
        <ele>514.20001220703</ele>
        <time>2014-04-13T07:21:49.000Z</time>
      </trkpt>
      <trkpt lat="45.92556" lon="6.18861">
        <ele>514</ele>
        <time>2014-04-13T07:21:51.000Z</time>
      </trkpt>
      <trkpt lat="45.92546" lon="6.18882">
        <ele>513.59997558594</ele>
        <time>2014-04-13T07:21:56.000Z</time>
      </trkpt>
      <trkpt lat="45.9254" lon="6.18896">
        <ele>513.40002441406</ele>
        <time>2014-04-13T07:22:01.000Z</time>
      </trkpt>
      <trkpt lat="45.92533" lon="6.18909">
        <ele>512.59997558594</ele>
        <time>2014-04-13T07:22:05.000Z</time>
      </trkpt>
      <trkpt lat="45.92525" lon="6.18923">
        <ele>512</ele>
        <time>2014-04-13T07:22:10.000Z</time>
      </trkpt>
      <trkpt lat="45.92514" lon="6.18942">
        <ele>510.79998779297</ele>
        <time>2014-04-13T07:22:16.000Z</time>
      </trkpt>
      <trkpt lat="45.92513" lon="6.18945">
        <ele>511</ele>
        <time>2014-04-13T07:22:17.000Z</time>
      </trkpt>
      <trkpt lat="45.92505" lon="6.1896">
        <ele>510.39999389648</ele>
        <time>2014-04-13T07:22:22.000Z</time>
      </trkpt>
      <trkpt lat="45.92499" lon="6.18975">
        <ele>510.20001220703</ele>
        <time>2014-04-13T07:22:27.000Z</time>
      </trkpt>
      <trkpt lat="45.92492" lon="6.18993">
        <ele>510.79998779297</ele>
        <time>2014-04-13T07:22:32.000Z</time>
      </trkpt>
      <trkpt lat="45.92489" lon="6.1901">
        <ele>511.79998779297</ele>
        <time>2014-04-13T07:22:37.000Z</time>
      </trkpt>
      <trkpt lat="45.92487" lon="6.19031">
        <ele>513.40002441406</ele>
        <time>2014-04-13T07:22:43.000Z</time>
      </trkpt>
      <trkpt lat="45.92484" lon="6.19049">
        <ele>514.40002441406</ele>
        <time>2014-04-13T07:22:48.000Z</time>
      </trkpt>
      <trkpt lat="45.92474" lon="6.19067">
        <ele>514</ele>
        <time>2014-04-13T07:22:54.000Z</time>
      </trkpt>
      <trkpt lat="45.9246" lon="6.19082">
        <ele>512.20001220703</ele>
        <time>2014-04-13T07:23:00.000Z</time>
      </trkpt>
      <trkpt lat="45.92447" lon="6.19094">
        <ele>510.60000610352</ele>
        <time>2014-04-13T07:23:05.000Z</time>
      </trkpt>
      <trkpt lat="45.92439" lon="6.19105">
        <ele>510.20001220703</ele>
        <time>2014-04-13T07:23:09.000Z</time>
      </trkpt>
      <trkpt lat="45.92438" lon="6.19108">
        <ele>510.20001220703</ele>
        <time>2014-04-13T07:23:10.000Z</time>
      </trkpt>
      <trkpt lat="45.92426" lon="6.19131">
        <ele>510.60000610352</ele>
        <time>2014-04-13T07:23:17.000Z</time>
      </trkpt>
      <trkpt lat="45.92416" lon="6.1915">
        <ele>511</ele>
        <time>2014-04-13T07:23:23.000Z</time>
      </trkpt>
      <trkpt lat="45.92406" lon="6.19159">
        <ele>511.20001220703</ele>
        <time>2014-04-13T07:23:27.000Z</time>
      </trkpt>
      <trkpt lat="45.92397" lon="6.19168">
        <ele>511.39999389648</ele>
        <time>2014-04-13T07:23:31.000Z</time>
      </trkpt>
      <trkpt lat="45.92382" lon="6.19177">
        <ele>511.60000610352</ele>
        <time>2014-04-13T07:23:37.000Z</time>
      </trkpt>
      <trkpt lat="45.92366" lon="6.19185">
        <ele>511.39999389648</ele>
        <time>2014-04-13T07:23:43.000Z</time>
      </trkpt>
      <trkpt lat="45.92365" lon="6.19188">
        <ele>511.79998779297</ele>
        <time>2014-04-13T07:23:44.000Z</time>
      </trkpt>
      <trkpt lat="45.92356" lon="6.19197">
        <ele>512.40002441406</ele>
        <time>2014-04-13T07:23:48.000Z</time>
      </trkpt>
      <trkpt lat="45.92352" lon="6.19213">
        <ele>514.40002441406</ele>
        <time>2014-04-13T07:23:53.000Z</time>
      </trkpt>
      <trkpt lat="45.92347" lon="6.19219">
        <ele>515.20001220703</ele>
        <time>2014-04-13T07:23:57.000Z</time>
      </trkpt>
      <trkpt lat="45.92348" lon="6.19223">
        <ele>515.79998779297</ele>
        <time>2014-04-13T07:23:59.000Z</time>
      </trkpt>
      <trkpt lat="45.92349" lon="6.19234">
        <ele>517.59997558594</ele>
        <time>2014-04-13T07:24:04.000Z</time>
      </trkpt>
      <trkpt lat="45.92353" lon="6.19245">
        <ele>519.40002441406</ele>
        <time>2014-04-13T07:24:09.000Z</time>
      </trkpt>
      <trkpt lat="45.92354" lon="6.19248">
        <ele>520</ele>
        <time>2014-04-13T07:24:11.000Z</time>
      </trkpt>
      <trkpt lat="45.92356" lon="6.19255">
        <ele>521.79998779297</ele>
        <time>2014-04-13T07:24:14.000Z</time>
      </trkpt>
      <trkpt lat="45.92361" lon="6.19271">
        <ele>526.59997558594</ele>
        <time>2014-04-13T07:24:20.000Z</time>
      </trkpt>
      <trkpt lat="45.92364" lon="6.19276">
        <ele>527.79998779297</ele>
        <time>2014-04-13T07:24:23.000Z</time>
      </trkpt>
      <trkpt lat="45.92366" lon="6.19277">
        <ele>528.20001220703</ele>
        <time>2014-04-13T07:24:24.000Z</time>
      </trkpt>
      <trkpt lat="45.9237" lon="6.19278">
        <ele>528.59997558594</ele>
        <time>2014-04-13T07:24:26.000Z</time>
      </trkpt>
      <trkpt lat="45.92374" lon="6.19281">
        <ele>529.59997558594</ele>
        <time>2014-04-13T07:24:29.000Z</time>
      </trkpt>
      <trkpt lat="45.92381" lon="6.19288">
        <ele>531.40002441406</ele>
        <time>2014-04-13T07:24:34.000Z</time>
      </trkpt>
      <trkpt lat="45.92391" lon="6.19297">
        <ele>533.59997558594</ele>
        <time>2014-04-13T07:24:40.000Z</time>
      </trkpt>
      <trkpt lat="45.92396" lon="6.193">
        <ele>534.20001220703</ele>
        <time>2014-04-13T07:24:43.000Z</time>
      </trkpt>
      <trkpt lat="45.92404" lon="6.19296">
        <ele>533.40002441406</ele>
        <time>2014-04-13T07:24:46.000Z</time>
      </trkpt>
      <trkpt lat="45.92406" lon="6.19297">
        <ele>533.59997558594</ele>
        <time>2014-04-13T07:24:47.000Z</time>
      </trkpt>
      <trkpt lat="45.92415" lon="6.193">
        <ele>534.20001220703</ele>
        <time>2014-04-13T07:24:51.000Z</time>
      </trkpt>
      <trkpt lat="45.92425" lon="6.19298">
        <ele>534.59997558594</ele>
        <time>2014-04-13T07:24:55.000Z</time>
      </trkpt>
      <trkpt lat="45.92428" lon="6.19297">
        <ele>535</ele>
        <time>2014-04-13T07:24:56.000Z</time>
      </trkpt>
      <trkpt lat="45.92439" lon="6.19296">
        <ele>535.79998779297</ele>
        <time>2014-04-13T07:25:00.000Z</time>
      </trkpt>
      <trkpt lat="45.9244" lon="6.19296">
        <ele>536</ele>
        <time>2014-04-13T07:25:02.000Z</time>
      </trkpt>
      <trkpt lat="45.92444" lon="6.19297">
        <ele>536.79998779297</ele>
        <time>2014-04-13T07:25:05.000Z</time>
      </trkpt>
      <trkpt lat="45.92445" lon="6.19298">
        <ele>537</ele>
        <time>2014-04-13T07:25:06.000Z</time>
      </trkpt>
      <trkpt lat="45.92448" lon="6.19299">
        <ele>537.40002441406</ele>
        <time>2014-04-13T07:25:09.000Z</time>
      </trkpt>
      <trkpt lat="45.92451" lon="6.19301">
        <ele>538</ele>
        <time>2014-04-13T07:25:11.000Z</time>
      </trkpt>
      <trkpt lat="45.92457" lon="6.19306">
        <ele>539.40002441406</ele>
        <time>2014-04-13T07:25:14.000Z</time>
      </trkpt>
      <trkpt lat="45.92462" lon="6.19309">
        <ele>540.79998779297</ele>
        <time>2014-04-13T07:25:18.000Z</time>
      </trkpt>
      <trkpt lat="45.92464" lon="6.1931">
        <ele>541</ele>
        <time>2014-04-13T07:25:19.000Z</time>
      </trkpt>
      <trkpt lat="45.9247" lon="6.19312">
        <ele>542</ele>
        <time>2014-04-13T07:25:23.000Z</time>
      </trkpt>
      <trkpt lat="45.92472" lon="6.19316">
        <ele>542.79998779297</ele>
        <time>2014-04-13T07:25:25.000Z</time>
      </trkpt>
      <trkpt lat="45.92474" lon="6.19317">
        <ele>543.20001220703</ele>
        <time>2014-04-13T07:25:27.000Z</time>
      </trkpt>
      <trkpt lat="45.92478" lon="6.19316">
        <ele>543.40002441406</ele>
        <time>2014-04-13T07:25:30.000Z</time>
      </trkpt>
      <trkpt lat="45.92483" lon="6.19316">
        <ele>543.79998779297</ele>
        <time>2014-04-13T07:25:32.000Z</time>
      </trkpt>
      <trkpt lat="45.92488" lon="6.19316">
        <ele>544.20001220703</ele>
        <time>2014-04-13T07:25:34.000Z</time>
      </trkpt>
      <trkpt lat="45.9249" lon="6.19316">
        <ele>544.40002441406</ele>
        <time>2014-04-13T07:25:35.000Z</time>
      </trkpt>
      <trkpt lat="45.92494" lon="6.19315">
        <ele>544.79998779297</ele>
        <time>2014-04-13T07:25:36.000Z</time>
      </trkpt>
      <trkpt lat="45.92504" lon="6.1931">
        <ele>546</ele>
        <time>2014-04-13T07:25:42.000Z</time>
      </trkpt>
      <trkpt lat="45.92505" lon="6.19309">
        <ele>546.20001220703</ele>
        <time>2014-04-13T07:25:44.000Z</time>
      </trkpt>
      <trkpt lat="45.92508" lon="6.19309">
        <ele>547</ele>
        <time>2014-04-13T07:25:50.000Z</time>
      </trkpt>
      <trkpt lat="45.92511" lon="6.1931">
        <ele>548</ele>
        <time>2014-04-13T07:25:52.000Z</time>
      </trkpt>
      <trkpt lat="45.92512" lon="6.19313">
        <ele>548.79998779297</ele>
        <time>2014-04-13T07:25:56.000Z</time>
      </trkpt>
      <trkpt lat="45.92508" lon="6.19315">
        <ele>547.79998779297</ele>
        <time>2014-04-13T07:26:01.000Z</time>
      </trkpt>
      <trkpt lat="45.92506" lon="6.19318">
        <ele>547.59997558594</ele>
        <time>2014-04-13T07:26:05.000Z</time>
      </trkpt>
      <trkpt lat="45.92503" lon="6.19323">
        <ele>547.40002441406</ele>
        <time>2014-04-13T07:26:11.000Z</time>
      </trkpt>
      <trkpt lat="45.92503" lon="6.19325">
        <ele>547.79998779297</ele>
        <time>2014-04-13T07:26:12.000Z</time>
      </trkpt>
      <trkpt lat="45.92503" lon="6.19326">
        <ele>547.79998779297</ele>
        <time>2014-04-13T07:26:13.000Z</time>
      </trkpt>
      <trkpt lat="45.92502" lon="6.19331">
        <ele>548.40002441406</ele>
        <time>2014-04-13T07:26:17.000Z</time>
      </trkpt>
      <trkpt lat="45.92502" lon="6.19335">
        <ele>549.20001220703</ele>
        <time>2014-04-13T07:26:19.000Z</time>
      </trkpt>
      <trkpt lat="45.92502" lon="6.1934">
        <ele>550.40002441406</ele>
        <time>2014-04-13T07:26:22.000Z</time>
      </trkpt>
      <trkpt lat="45.92498" lon="6.19345">
        <ele>551</ele>
        <time>2014-04-13T07:26:27.000Z</time>
      </trkpt>
      <trkpt lat="45.92497" lon="6.19351">
        <ele>552.79998779297</ele>
        <time>2014-04-13T07:26:31.000Z</time>
      </trkpt>
      <trkpt lat="45.92496" lon="6.19353">
        <ele>553</ele>
        <time>2014-04-13T07:26:33.000Z</time>
      </trkpt>
      <trkpt lat="45.92497" lon="6.19358">
        <ele>554.40002441406</ele>
        <time>2014-04-13T07:26:40.000Z</time>
      </trkpt>
      <trkpt lat="45.92494" lon="6.19362">
        <ele>555.40002441406</ele>
        <time>2014-04-13T07:26:45.000Z</time>
      </trkpt>
      <trkpt lat="45.9249" lon="6.19364">
        <ele>555.79998779297</ele>
        <time>2014-04-13T07:26:52.000Z</time>
      </trkpt>
      <trkpt lat="45.92483" lon="6.19363">
        <ele>554.79998779297</ele>
        <time>2014-04-13T07:26:56.000Z</time>
      </trkpt>
      <trkpt lat="45.92475" lon="6.19365">
        <ele>555</ele>
        <time>2014-04-13T07:27:00.000Z</time>
      </trkpt>
      <trkpt lat="45.92474" lon="6.19366">
        <ele>555.20001220703</ele>
        <time>2014-04-13T07:27:01.000Z</time>
      </trkpt>
      <trkpt lat="45.92464" lon="6.19367">
        <ele>554.59997558594</ele>
        <time>2014-04-13T07:27:06.000Z</time>
      </trkpt>
      <trkpt lat="45.92458" lon="6.19368">
        <ele>554.59997558594</ele>
        <time>2014-04-13T07:27:10.000Z</time>
      </trkpt>
      <trkpt lat="45.92456" lon="6.19368">
        <ele>554.40002441406</ele>
        <time>2014-04-13T07:27:11.000Z</time>
      </trkpt>
      <trkpt lat="45.92451" lon="6.19366">
        <ele>553.20001220703</ele>
        <time>2014-04-13T07:27:16.000Z</time>
      </trkpt>
      <trkpt lat="45.92445" lon="6.19371">
        <ele>554.40002441406</ele>
        <time>2014-04-13T07:27:23.000Z</time>
      </trkpt>
      <trkpt lat="45.92444" lon="6.19372">
        <ele>554.59997558594</ele>
        <time>2014-04-13T07:27:24.000Z</time>
      </trkpt>
      <trkpt lat="45.92445" lon="6.19375">
        <ele>555.40002441406</ele>
        <time>2014-04-13T07:27:29.000Z</time>
      </trkpt>
      <trkpt lat="45.92441" lon="6.19379">
        <ele>556.40002441406</ele>
        <time>2014-04-13T07:27:31.000Z</time>
      </trkpt>
      <trkpt lat="45.92442" lon="6.19385">
        <ele>558.40002441406</ele>
        <time>2014-04-13T07:27:33.000Z</time>
      </trkpt>
      <trkpt lat="45.92447" lon="6.1939">
        <ele>560</ele>
        <time>2014-04-13T07:27:39.000Z</time>
      </trkpt>
      <trkpt lat="45.92449" lon="6.1939">
        <ele>560.20001220703</ele>
        <time>2014-04-13T07:27:40.000Z</time>
      </trkpt>
      <trkpt lat="45.92453" lon="6.1939">
        <ele>560.40002441406</ele>
        <time>2014-04-13T07:27:42.000Z</time>
      </trkpt>
      <trkpt lat="45.92456" lon="6.19393">
        <ele>561.59997558594</ele>
        <time>2014-04-13T07:27:45.000Z</time>
      </trkpt>
      <trkpt lat="45.92467" lon="6.19398">
        <ele>563.59997558594</ele>
        <time>2014-04-13T07:27:49.000Z</time>
      </trkpt>
      <trkpt lat="45.92468" lon="6.19398">
        <ele>563.79998779297</ele>
        <time>2014-04-13T07:27:50.000Z</time>
      </trkpt>
      <trkpt lat="45.92468" lon="6.19399">
        <ele>564.20001220703</ele>
        <time>2014-04-13T07:27:51.000Z</time>
      </trkpt>
      <trkpt lat="45.92465" lon="6.19403">
        <ele>565</ele>
        <time>2014-04-13T07:27:56.000Z</time>
      </trkpt>
      <trkpt lat="45.92459" lon="6.19404">
        <ele>564.79998779297</ele>
        <time>2014-04-13T07:28:00.000Z</time>
      </trkpt>
      <trkpt lat="45.92458" lon="6.19404">
        <ele>564.79998779297</ele>
        <time>2014-04-13T07:28:01.000Z</time>
      </trkpt>
      <trkpt lat="45.92447" lon="6.19406">
        <ele>564.59997558594</ele>
        <time>2014-04-13T07:28:08.000Z</time>
      </trkpt>
      <trkpt lat="45.92441" lon="6.1942">
        <ele>567.59997558594</ele>
        <time>2014-04-13T07:28:13.000Z</time>
      </trkpt>
      <trkpt lat="45.92437" lon="6.19431">
        <ele>568</ele>
        <time>2014-04-13T07:28:18.000Z</time>
      </trkpt>
      <trkpt lat="45.9243" lon="6.19438">
        <ele>567.79998779297</ele>
        <time>2014-04-13T07:28:24.000Z</time>
      </trkpt>
      <trkpt lat="45.92428" lon="6.19437">
        <ele>567.59997558594</ele>
        <time>2014-04-13T07:28:25.000Z</time>
      </trkpt>
      <trkpt lat="45.92421" lon="6.19432">
        <ele>566.79998779297</ele>
        <time>2014-04-13T07:28:29.000Z</time>
      </trkpt>
      <trkpt lat="45.92416" lon="6.1943">
        <ele>566.40002441406</ele>
        <time>2014-04-13T07:28:33.000Z</time>
      </trkpt>
      <trkpt lat="45.92416" lon="6.19432">
        <ele>566.40002441406</ele>
        <time>2014-04-13T07:28:34.000Z</time>
      </trkpt>
      <trkpt lat="45.92419" lon="6.19444">
        <ele>567.20001220703</ele>
        <time>2014-04-13T07:28:38.000Z</time>
      </trkpt>
      <trkpt lat="45.92425" lon="6.19449">
        <ele>568</ele>
        <time>2014-04-13T07:28:41.000Z</time>
      </trkpt>
      <trkpt lat="45.9243" lon="6.19452">
        <ele>568.40002441406</ele>
        <time>2014-04-13T07:28:43.000Z</time>
      </trkpt>
      <trkpt lat="45.92441" lon="6.19456">
        <ele>569.59997558594</ele>
        <time>2014-04-13T07:28:47.000Z</time>
      </trkpt>
      <trkpt lat="45.92448" lon="6.19458">
        <ele>570.59997558594</ele>
        <time>2014-04-13T07:28:51.000Z</time>
      </trkpt>
      <trkpt lat="45.92461" lon="6.19454">
        <ele>571.40002441406</ele>
        <time>2014-04-13T07:28:58.000Z</time>
      </trkpt>
      <trkpt lat="45.92475" lon="6.19453">
        <ele>572.59997558594</ele>
        <time>2014-04-13T07:29:05.000Z</time>
      </trkpt>
      <trkpt lat="45.92485" lon="6.19452">
        <ele>573.40002441406</ele>
        <time>2014-04-13T07:29:10.000Z</time>
      </trkpt>
      <trkpt lat="45.92498" lon="6.1945">
        <ele>574.40002441406</ele>
        <time>2014-04-13T07:29:16.000Z</time>
      </trkpt>
      <trkpt lat="45.92505" lon="6.19447">
        <ele>574.79998779297</ele>
        <time>2014-04-13T07:29:20.000Z</time>
      </trkpt>
      <trkpt lat="45.92507" lon="6.19445">
        <ele>574.79998779297</ele>
        <time>2014-04-13T07:29:21.000Z</time>
      </trkpt>
      <trkpt lat="45.92518" lon="6.1943">
        <ele>574.59997558594</ele>
        <time>2014-04-13T07:29:27.000Z</time>
      </trkpt>
      <trkpt lat="45.9252" lon="6.19428">
        <ele>574.59997558594</ele>
        <time>2014-04-13T07:29:28.000Z</time>
      </trkpt>
      <trkpt lat="45.92526" lon="6.19422">
        <ele>574.79998779297</ele>
        <time>2014-04-13T07:29:31.000Z</time>
      </trkpt>
      <trkpt lat="45.92534" lon="6.19409">
        <ele>573.79998779297</ele>
        <time>2014-04-13T07:29:36.000Z</time>
      </trkpt>
      <trkpt lat="45.92541" lon="6.19401">
        <ele>573.20001220703</ele>
        <time>2014-04-13T07:29:39.000Z</time>
      </trkpt>
      <trkpt lat="45.92545" lon="6.19398">
        <ele>573.40002441406</ele>
        <time>2014-04-13T07:29:41.000Z</time>
      </trkpt>
      <trkpt lat="45.92558" lon="6.19399">
        <ele>575.79998779297</ele>
        <time>2014-04-13T07:29:46.000Z</time>
      </trkpt>
      <trkpt lat="45.92571" lon="6.19407">
        <ele>579</ele>
        <time>2014-04-13T07:29:51.000Z</time>
      </trkpt>
      <trkpt lat="45.92586" lon="6.19416">
        <ele>582.20001220703</ele>
        <time>2014-04-13T07:29:57.000Z</time>
      </trkpt>
      <trkpt lat="45.926" lon="6.19426">
        <ele>583.20001220703</ele>
        <time>2014-04-13T07:30:03.000Z</time>
      </trkpt>
      <trkpt lat="45.92614" lon="6.19434">
        <ele>584.20001220703</ele>
        <time>2014-04-13T07:30:09.000Z</time>
      </trkpt>
      <trkpt lat="45.92629" lon="6.19442">
        <ele>585.40002441406</ele>
        <time>2014-04-13T07:30:15.000Z</time>
      </trkpt>
      <trkpt lat="45.92643" lon="6.19452">
        <ele>586.40002441406</ele>
        <time>2014-04-13T07:30:21.000Z</time>
      </trkpt>
      <trkpt lat="45.92657" lon="6.19459">
        <ele>587.40002441406</ele>
        <time>2014-04-13T07:30:27.000Z</time>
      </trkpt>
      <trkpt lat="45.92668" lon="6.19467">
        <ele>588.20001220703</ele>
        <time>2014-04-13T07:30:32.000Z</time>
      </trkpt>
      <trkpt lat="45.92682" lon="6.19473">
        <ele>589.40002441406</ele>
        <time>2014-04-13T07:30:38.000Z</time>
      </trkpt>
      <trkpt lat="45.92698" lon="6.19481">
        <ele>591</ele>
        <time>2014-04-13T07:30:45.000Z</time>
      </trkpt>
      <trkpt lat="45.9271" lon="6.19485">
        <ele>592</ele>
        <time>2014-04-13T07:30:50.000Z</time>
      </trkpt>
      <trkpt lat="45.92718" lon="6.19491">
        <ele>593</ele>
        <time>2014-04-13T07:30:54.000Z</time>
      </trkpt>
      <trkpt lat="45.9272" lon="6.19492">
        <ele>593.20001220703</ele>
        <time>2014-04-13T07:30:55.000Z</time>
      </trkpt>
      <trkpt lat="45.92733" lon="6.19496">
        <ele>594.40002441406</ele>
        <time>2014-04-13T07:31:01.000Z</time>
      </trkpt>
      <trkpt lat="45.92742" lon="6.19494">
        <ele>595</ele>
        <time>2014-04-13T07:31:05.000Z</time>
      </trkpt>
      <trkpt lat="45.92744" lon="6.19494">
        <ele>595.20001220703</ele>
        <time>2014-04-13T07:31:06.000Z</time>
      </trkpt>
      <trkpt lat="45.9275" lon="6.19496">
        <ele>595.79998779297</ele>
        <time>2014-04-13T07:31:09.000Z</time>
      </trkpt>
      <trkpt lat="45.92753" lon="6.19496">
        <ele>596</ele>
        <time>2014-04-13T07:31:10.000Z</time>
      </trkpt>
      <trkpt lat="45.92765" lon="6.19502">
        <ele>597.59997558594</ele>
        <time>2014-04-13T07:31:16.000Z</time>
      </trkpt>
      <trkpt lat="45.92775" lon="6.1951">
        <ele>598.79998779297</ele>
        <time>2014-04-13T07:31:21.000Z</time>
      </trkpt>
      <trkpt lat="45.92781" lon="6.19515">
        <ele>599.79998779297</ele>
        <time>2014-04-13T07:31:25.000Z</time>
      </trkpt>
      <trkpt lat="45.92783" lon="6.19516">
        <ele>600</ele>
        <time>2014-04-13T07:31:26.000Z</time>
      </trkpt>
      <trkpt lat="45.92792" lon="6.19522">
        <ele>601.20001220703</ele>
        <time>2014-04-13T07:31:31.000Z</time>
      </trkpt>
      <trkpt lat="45.92797" lon="6.19524">
        <ele>601.59997558594</ele>
        <time>2014-04-13T07:31:33.000Z</time>
      </trkpt>
      <trkpt lat="45.92801" lon="6.19523">
        <ele>602</ele>
        <time>2014-04-13T07:31:35.000Z</time>
      </trkpt>
      <trkpt lat="45.92811" lon="6.19515">
        <ele>602.59997558594</ele>
        <time>2014-04-13T07:31:39.000Z</time>
      </trkpt>
      <trkpt lat="45.92815" lon="6.19511">
        <ele>602.79998779297</ele>
        <time>2014-04-13T07:31:41.000Z</time>
      </trkpt>
      <trkpt lat="45.92822" lon="6.19507">
        <ele>603.20001220703</ele>
        <time>2014-04-13T07:31:44.000Z</time>
      </trkpt>
      <trkpt lat="45.92831" lon="6.19498">
        <ele>603.59997558594</ele>
        <time>2014-04-13T07:31:49.000Z</time>
      </trkpt>
      <trkpt lat="45.9284" lon="6.19487">
        <ele>604.20001220703</ele>
        <time>2014-04-13T07:31:55.000Z</time>
      </trkpt>
      <trkpt lat="45.92845" lon="6.19481">
        <ele>604.40002441406</ele>
        <time>2014-04-13T07:32:00.000Z</time>
      </trkpt>
      <trkpt lat="45.92851" lon="6.19489">
        <ele>605.79998779297</ele>
        <time>2014-04-13T07:32:04.000Z</time>
      </trkpt>
      <trkpt lat="45.92853" lon="6.19491">
        <ele>606.20001220703</ele>
        <time>2014-04-13T07:32:05.000Z</time>
      </trkpt>
      <trkpt lat="45.92862" lon="6.19509">
        <ele>608.20001220703</ele>
        <time>2014-04-13T07:32:13.000Z</time>
      </trkpt>
      <trkpt lat="45.9287" lon="6.19522">
        <ele>609.79998779297</ele>
        <time>2014-04-13T07:32:19.000Z</time>
      </trkpt>
      <trkpt lat="45.92877" lon="6.19532">
        <ele>611.20001220703</ele>
        <time>2014-04-13T07:32:24.000Z</time>
      </trkpt>
      <trkpt lat="45.92887" lon="6.19546">
        <ele>613</ele>
        <time>2014-04-13T07:32:31.000Z</time>
      </trkpt>
      <trkpt lat="45.92895" lon="6.19555">
        <ele>614.20001220703</ele>
        <time>2014-04-13T07:32:36.000Z</time>
      </trkpt>
      <trkpt lat="45.92908" lon="6.1957">
        <ele>616.40002441406</ele>
        <time>2014-04-13T07:32:44.000Z</time>
      </trkpt>
      <trkpt lat="45.92916" lon="6.19583">
        <ele>617.79998779297</ele>
        <time>2014-04-13T07:32:50.000Z</time>
      </trkpt>
      <trkpt lat="45.92922" lon="6.19599">
        <ele>619.59997558594</ele>
        <time>2014-04-13T07:32:57.000Z</time>
      </trkpt>
      <trkpt lat="45.92925" lon="6.1961">
        <ele>620.79998779297</ele>
        <time>2014-04-13T07:33:02.000Z</time>
      </trkpt>
      <trkpt lat="45.92932" lon="6.19613">
        <ele>621.59997558594</ele>
        <time>2014-04-13T07:33:06.000Z</time>
      </trkpt>
      <trkpt lat="45.92939" lon="6.19609">
        <ele>622</ele>
        <time>2014-04-13T07:33:09.000Z</time>
      </trkpt>
      <trkpt lat="45.92944" lon="6.19605">
        <ele>622.20001220703</ele>
        <time>2014-04-13T07:33:11.000Z</time>
      </trkpt>
      <trkpt lat="45.92954" lon="6.19595">
        <ele>622.40002441406</ele>
        <time>2014-04-13T07:33:16.000Z</time>
      </trkpt>
      <trkpt lat="45.92965" lon="6.19583">
        <ele>622.59997558594</ele>
        <time>2014-04-13T07:33:22.000Z</time>
      </trkpt>
      <trkpt lat="45.92972" lon="6.19572">
        <ele>622.79998779297</ele>
        <time>2014-04-13T07:33:27.000Z</time>
      </trkpt>
      <trkpt lat="45.92984" lon="6.19556">
        <ele>623</ele>
        <time>2014-04-13T07:33:34.000Z</time>
      </trkpt>
      <trkpt lat="45.92988" lon="6.19551">
        <ele>623</ele>
        <time>2014-04-13T07:33:37.000Z</time>
      </trkpt>
      <trkpt lat="45.92993" lon="6.19552">
        <ele>623.40002441406</ele>
        <time>2014-04-13T07:33:39.000Z</time>
      </trkpt>
      <trkpt lat="45.92997" lon="6.19558">
        <ele>624.20001220703</ele>
        <time>2014-04-13T07:33:42.000Z</time>
      </trkpt>
      <trkpt lat="45.93" lon="6.19561">
        <ele>624.59997558594</ele>
        <time>2014-04-13T07:33:44.000Z</time>
      </trkpt>
      <trkpt lat="45.93009" lon="6.19568">
        <ele>625.59997558594</ele>
        <time>2014-04-13T07:33:50.000Z</time>
      </trkpt>
      <trkpt lat="45.93017" lon="6.19576">
        <ele>626.59997558594</ele>
        <time>2014-04-13T07:33:55.000Z</time>
      </trkpt>
      <trkpt lat="45.93027" lon="6.19579">
        <ele>627.59997558594</ele>
        <time>2014-04-13T07:34:00.000Z</time>
      </trkpt>
      <trkpt lat="45.93039" lon="6.19578">
        <ele>628.40002441406</ele>
        <time>2014-04-13T07:34:05.000Z</time>
      </trkpt>
      <trkpt lat="45.9305" lon="6.19583">
        <ele>629.59997558594</ele>
        <time>2014-04-13T07:34:10.000Z</time>
      </trkpt>
      <trkpt lat="45.93056" lon="6.19593">
        <ele>631</ele>
        <time>2014-04-13T07:34:15.000Z</time>
      </trkpt>
      <trkpt lat="45.93062" lon="6.19606">
        <ele>632.59997558594</ele>
        <time>2014-04-13T07:34:21.000Z</time>
      </trkpt>
      <trkpt lat="45.93068" lon="6.19615">
        <ele>634</ele>
        <time>2014-04-13T07:34:26.000Z</time>
      </trkpt>
      <trkpt lat="45.93069" lon="6.19618">
        <ele>634.40002441406</ele>
        <time>2014-04-13T07:34:27.000Z</time>
      </trkpt>
      <trkpt lat="45.93073" lon="6.19629">
        <ele>635.79998779297</ele>
        <time>2014-04-13T07:34:31.000Z</time>
      </trkpt>
      <trkpt lat="45.93076" lon="6.19637">
        <ele>637</ele>
        <time>2014-04-13T07:34:35.000Z</time>
      </trkpt>
      <trkpt lat="45.93077" lon="6.1964">
        <ele>637.40002441406</ele>
        <time>2014-04-13T07:34:36.000Z</time>
      </trkpt>
      <trkpt lat="45.93084" lon="6.19649">
        <ele>639.20001220703</ele>
        <time>2014-04-13T07:34:41.000Z</time>
      </trkpt>
      <trkpt lat="45.9309" lon="6.19654">
        <ele>640.40002441406</ele>
        <time>2014-04-13T07:34:44.000Z</time>
      </trkpt>
      <trkpt lat="45.93094" lon="6.19657">
        <ele>641.20001220703</ele>
        <time>2014-04-13T07:34:47.000Z</time>
      </trkpt>
      <trkpt lat="45.93095" lon="6.19658">
        <ele>641.40002441406</ele>
        <time>2014-04-13T07:34:48.000Z</time>
      </trkpt>
      <trkpt lat="45.93102" lon="6.19655">
        <ele>641.79998779297</ele>
        <time>2014-04-13T07:34:52.000Z</time>
      </trkpt>
      <trkpt lat="45.93112" lon="6.19645">
        <ele>641.79998779297</ele>
        <time>2014-04-13T07:34:58.000Z</time>
      </trkpt>
      <trkpt lat="45.93113" lon="6.19642">
        <ele>641.59997558594</ele>
        <time>2014-04-13T07:34:59.000Z</time>
      </trkpt>
      <trkpt lat="45.93118" lon="6.19634">
        <ele>641.40002441406</ele>
        <time>2014-04-13T07:35:02.000Z</time>
      </trkpt>
      <trkpt lat="45.93126" lon="6.19622">
        <ele>640.79998779297</ele>
        <time>2014-04-13T07:35:07.000Z</time>
      </trkpt>
      <trkpt lat="45.93134" lon="6.19609">
        <ele>640</ele>
        <time>2014-04-13T07:35:12.000Z</time>
      </trkpt>
      <trkpt lat="45.93144" lon="6.19595">
        <ele>639.20001220703</ele>
        <time>2014-04-13T07:35:17.000Z</time>
      </trkpt>
      <trkpt lat="45.93158" lon="6.19578">
        <ele>638.40002441406</ele>
        <time>2014-04-13T07:35:24.000Z</time>
      </trkpt>
      <trkpt lat="45.9317" lon="6.19564">
        <ele>638</ele>
        <time>2014-04-13T07:35:30.000Z</time>
      </trkpt>
      <trkpt lat="45.93179" lon="6.19552">
        <ele>638</ele>
        <time>2014-04-13T07:35:35.000Z</time>
      </trkpt>
      <trkpt lat="45.93191" lon="6.19542">
        <ele>638.20001220703</ele>
        <time>2014-04-13T07:35:40.000Z</time>
      </trkpt>
      <trkpt lat="45.93203" lon="6.19533">
        <ele>638.79998779297</ele>
        <time>2014-04-13T07:35:45.000Z</time>
      </trkpt>
      <trkpt lat="45.93215" lon="6.19522">
        <ele>639</ele>
        <time>2014-04-13T07:35:50.000Z</time>
      </trkpt>
      <trkpt lat="45.9323" lon="6.19504">
        <ele>638.79998779297</ele>
        <time>2014-04-13T07:35:57.000Z</time>
      </trkpt>
      <trkpt lat="45.9324" lon="6.19486">
        <ele>638.79998779297</ele>
        <time>2014-04-13T07:36:03.000Z</time>
      </trkpt>
      <trkpt lat="45.93254" lon="6.19464">
        <ele>638.59997558594</ele>
        <time>2014-04-13T07:36:11.000Z</time>
      </trkpt>
      <trkpt lat="45.93263" lon="6.19454">
        <ele>638.59997558594</ele>
        <time>2014-04-13T07:36:15.000Z</time>
      </trkpt>
      <trkpt lat="45.93271" lon="6.19437">
        <ele>637.79998779297</ele>
        <time>2014-04-13T07:36:20.000Z</time>
      </trkpt>
      <trkpt lat="45.93276" lon="6.19419">
        <ele>637</ele>
        <time>2014-04-13T07:36:25.000Z</time>
      </trkpt>
      <trkpt lat="45.93283" lon="6.19401">
        <ele>636.79998779297</ele>
        <time>2014-04-13T07:36:30.000Z</time>
      </trkpt>
      <trkpt lat="45.93295" lon="6.1938">
        <ele>637</ele>
        <time>2014-04-13T07:36:37.000Z</time>
      </trkpt>
      <trkpt lat="45.93306" lon="6.19363">
        <ele>637.20001220703</ele>
        <time>2014-04-13T07:36:44.000Z</time>
      </trkpt>
      <trkpt lat="45.93308" lon="6.19373">
        <ele>637.59997558594</ele>
        <time>2014-04-13T07:36:48.000Z</time>
      </trkpt>
      <trkpt lat="45.93308" lon="6.19376">
        <ele>637.79998779297</ele>
        <time>2014-04-13T07:36:49.000Z</time>
      </trkpt>
      <trkpt lat="45.9331" lon="6.19388">
        <ele>638.20001220703</ele>
        <time>2014-04-13T07:36:53.000Z</time>
      </trkpt>
      <trkpt lat="45.93312" lon="6.19411">
        <ele>639.20001220703</ele>
        <time>2014-04-13T07:36:59.000Z</time>
      </trkpt>
      <trkpt lat="45.93313" lon="6.19438">
        <ele>640.79998779297</ele>
        <time>2014-04-13T07:37:06.000Z</time>
      </trkpt>
      <trkpt lat="45.93314" lon="6.19455">
        <ele>642</ele>
        <time>2014-04-13T07:37:11.000Z</time>
      </trkpt>
      <trkpt lat="45.93319" lon="6.19468">
        <ele>643.20001220703</ele>
        <time>2014-04-13T07:37:17.000Z</time>
      </trkpt>
      <trkpt lat="45.93326" lon="6.19463">
        <ele>643.40002441406</ele>
        <time>2014-04-13T07:37:21.000Z</time>
      </trkpt>
      <trkpt lat="45.93327" lon="6.19462">
        <ele>643.40002441406</ele>
        <time>2014-04-13T07:37:24.000Z</time>
      </trkpt>
      <trkpt lat="45.93325" lon="6.19463">
        <ele>643.20001220703</ele>
        <time>2014-04-13T07:37:25.000Z</time>
      </trkpt>
      <trkpt lat="45.93314" lon="6.1947">
        <ele>643</ele>
        <time>2014-04-13T07:37:30.000Z</time>
      </trkpt>
      <trkpt lat="45.93304" lon="6.19479">
        <ele>643</ele>
        <time>2014-04-13T07:37:35.000Z</time>
      </trkpt>
      <trkpt lat="45.93302" lon="6.19481">
        <ele>643</ele>
        <time>2014-04-13T07:37:36.000Z</time>
      </trkpt>
      <trkpt lat="45.93298" lon="6.19486">
        <ele>643</ele>
        <time>2014-04-13T07:37:38.000Z</time>
      </trkpt>
      <trkpt lat="45.93295" lon="6.1949">
        <ele>643</ele>
        <time>2014-04-13T07:37:40.000Z</time>
      </trkpt>
      <trkpt lat="45.93294" lon="6.19497">
        <ele>643.40002441406</ele>
        <time>2014-04-13T07:37:43.000Z</time>
      </trkpt>
      <trkpt lat="45.93293" lon="6.19501">
        <ele>643.79998779297</ele>
        <time>2014-04-13T07:37:45.000Z</time>
      </trkpt>
      <trkpt lat="45.93293" lon="6.19515">
        <ele>645.40002441406</ele>
        <time>2014-04-13T07:37:51.000Z</time>
      </trkpt>
      <trkpt lat="45.93296" lon="6.19534">
        <ele>647.59997558594</ele>
        <time>2014-04-13T07:37:58.000Z</time>
      </trkpt>
      <trkpt lat="45.93299" lon="6.1955">
        <ele>649.59997558594</ele>
        <time>2014-04-13T07:38:04.000Z</time>
      </trkpt>
      <trkpt lat="45.93299" lon="6.19566">
        <ele>651.40002441406</ele>
        <time>2014-04-13T07:38:10.000Z</time>
      </trkpt>
      <trkpt lat="45.93298" lon="6.19579">
        <ele>652.79998779297</ele>
        <time>2014-04-13T07:38:16.000Z</time>
      </trkpt>
      <trkpt lat="45.93297" lon="6.19585">
        <ele>653.40002441406</ele>
        <time>2014-04-13T07:38:19.000Z</time>
      </trkpt>
      <trkpt lat="45.93297" lon="6.19595">
        <ele>654.20001220703</ele>
        <time>2014-04-13T07:38:23.000Z</time>
      </trkpt>
      <trkpt lat="45.93298" lon="6.19611">
        <ele>655.59997558594</ele>
        <time>2014-04-13T07:38:29.000Z</time>
      </trkpt>
      <trkpt lat="45.93299" lon="6.19628">
        <ele>657</ele>
        <time>2014-04-13T07:38:34.000Z</time>
      </trkpt>
      <trkpt lat="45.933" lon="6.1964">
        <ele>657.79998779297</ele>
        <time>2014-04-13T07:38:38.000Z</time>
      </trkpt>
      <trkpt lat="45.933" lon="6.19644">
        <ele>658.20001220703</ele>
        <time>2014-04-13T07:38:40.000Z</time>
      </trkpt>
      <trkpt lat="45.93302" lon="6.19651">
        <ele>658.79998779297</ele>
        <time>2014-04-13T07:38:43.000Z</time>
      </trkpt>
      <trkpt lat="45.93302" lon="6.1966">
        <ele>659.40002441406</ele>
        <time>2014-04-13T07:38:46.000Z</time>
      </trkpt>
      <trkpt lat="45.93302" lon="6.19681">
        <ele>661.20001220703</ele>
        <time>2014-04-13T07:38:52.000Z</time>
      </trkpt>
      <trkpt lat="45.93303" lon="6.19697">
        <ele>662.59997558594</ele>
        <time>2014-04-13T07:38:57.000Z</time>
      </trkpt>
      <trkpt lat="45.93304" lon="6.19713">
        <ele>663.79998779297</ele>
        <time>2014-04-13T07:39:02.000Z</time>
      </trkpt>
      <trkpt lat="45.933" lon="6.19728">
        <ele>665.20001220703</ele>
        <time>2014-04-13T07:39:07.000Z</time>
      </trkpt>
      <trkpt lat="45.93294" lon="6.1974">
        <ele>666.20001220703</ele>
        <time>2014-04-13T07:39:13.000Z</time>
      </trkpt>
      <trkpt lat="45.93292" lon="6.19751">
        <ele>667.20001220703</ele>
        <time>2014-04-13T07:39:18.000Z</time>
      </trkpt>
      <trkpt lat="45.9329" lon="6.19758">
        <ele>668.20001220703</ele>
        <time>2014-04-13T07:39:22.000Z</time>
      </trkpt>
      <trkpt lat="45.9329" lon="6.19767">
        <ele>669.40002441406</ele>
        <time>2014-04-13T07:39:26.000Z</time>
      </trkpt>
      <trkpt lat="45.93292" lon="6.19778">
        <ele>671.20001220703</ele>
        <time>2014-04-13T07:39:30.000Z</time>
      </trkpt>
      <trkpt lat="45.93293" lon="6.19783">
        <ele>672</ele>
        <time>2014-04-13T07:39:32.000Z</time>
      </trkpt>
      <trkpt lat="45.93294" lon="6.19793">
        <ele>673.40002441406</ele>
        <time>2014-04-13T07:39:37.000Z</time>
      </trkpt>
      <trkpt lat="45.93294" lon="6.19795">
        <ele>673.79998779297</ele>
        <time>2014-04-13T07:39:38.000Z</time>
      </trkpt>
      <trkpt lat="45.93295" lon="6.19804">
        <ele>675.20001220703</ele>
        <time>2014-04-13T07:39:42.000Z</time>
      </trkpt>
      <trkpt lat="45.93295" lon="6.19819">
        <ele>677.40002441406</ele>
        <time>2014-04-13T07:39:48.000Z</time>
      </trkpt>
      <trkpt lat="45.93297" lon="6.19829">
        <ele>679</ele>
        <time>2014-04-13T07:39:53.000Z</time>
      </trkpt>
      <trkpt lat="45.93297" lon="6.1983">
        <ele>679.20001220703</ele>
        <time>2014-04-13T07:39:54.000Z</time>
      </trkpt>
      <trkpt lat="45.93297" lon="6.1984">
        <ele>680.79998779297</ele>
        <time>2014-04-13T07:39:58.000Z</time>
      </trkpt>
      <trkpt lat="45.93297" lon="6.19842">
        <ele>681.20001220703</ele>
        <time>2014-04-13T07:39:59.000Z</time>
      </trkpt>
      <trkpt lat="45.93299" lon="6.19858">
        <ele>684</ele>
        <time>2014-04-13T07:40:06.000Z</time>
      </trkpt>
      <trkpt lat="45.933" lon="6.19867">
        <ele>685.59997558594</ele>
        <time>2014-04-13T07:40:10.000Z</time>
      </trkpt>
      <trkpt lat="45.93301" lon="6.19871">
        <ele>686.20001220703</ele>
        <time>2014-04-13T07:40:12.000Z</time>
      </trkpt>
      <trkpt lat="45.93302" lon="6.1988">
        <ele>687.79998779297</ele>
        <time>2014-04-13T07:40:16.000Z</time>
      </trkpt>
      <trkpt lat="45.93302" lon="6.19884">
        <ele>688.59997558594</ele>
        <time>2014-04-13T07:40:18.000Z</time>
      </trkpt>
      <trkpt lat="45.93303" lon="6.19895">
        <ele>690.40002441406</ele>
        <time>2014-04-13T07:40:23.000Z</time>
      </trkpt>
      <trkpt lat="45.93305" lon="6.19906">
        <ele>692.40002441406</ele>
        <time>2014-04-13T07:40:30.000Z</time>
      </trkpt>
      <trkpt lat="45.93306" lon="6.19916">
        <ele>694.20001220703</ele>
        <time>2014-04-13T07:40:36.000Z</time>
      </trkpt>
      <trkpt lat="45.93307" lon="6.19925">
        <ele>696.20001220703</ele>
        <time>2014-04-13T07:40:41.000Z</time>
      </trkpt>
      <trkpt lat="45.93306" lon="6.19927">
        <ele>696.59997558594</ele>
        <time>2014-04-13T07:40:42.000Z</time>
      </trkpt>
      <trkpt lat="45.93304" lon="6.19935">
        <ele>698.20001220703</ele>
        <time>2014-04-13T07:40:46.000Z</time>
      </trkpt>
      <trkpt lat="45.93303" lon="6.19939">
        <ele>699</ele>
        <time>2014-04-13T07:40:50.000Z</time>
      </trkpt>
      <trkpt lat="45.93299" lon="6.19942">
        <ele>699.40002441406</ele>
        <time>2014-04-13T07:40:53.000Z</time>
      </trkpt>
      <trkpt lat="45.93293" lon="6.19947">
        <ele>700</ele>
        <time>2014-04-13T07:40:58.000Z</time>
      </trkpt>
      <trkpt lat="45.93282" lon="6.19951">
        <ele>700</ele>
        <time>2014-04-13T07:41:05.000Z</time>
      </trkpt>
      <trkpt lat="45.9328" lon="6.19951">
        <ele>700</ele>
        <time>2014-04-13T07:41:06.000Z</time>
      </trkpt>
      <trkpt lat="45.93279" lon="6.19953">
        <ele>700.20001220703</ele>
        <time>2014-04-13T07:41:07.000Z</time>
      </trkpt>
      <trkpt lat="45.93274" lon="6.19957">
        <ele>700.59997558594</ele>
        <time>2014-04-13T07:41:11.000Z</time>
      </trkpt>
      <trkpt lat="45.93275" lon="6.19958">
        <ele>700.79998779297</ele>
        <time>2014-04-13T07:41:12.000Z</time>
      </trkpt>
      <trkpt lat="45.93274" lon="6.19959">
        <ele>701</ele>
        <time>2014-04-13T07:41:14.000Z</time>
      </trkpt>
      <trkpt lat="45.93273" lon="6.19961">
        <ele>701.20001220703</ele>
        <time>2014-04-13T07:41:16.000Z</time>
      </trkpt>
      <trkpt lat="45.93271" lon="6.19964">
        <ele>701.79998779297</ele>
        <time>2014-04-13T07:41:21.000Z</time>
      </trkpt>
      <trkpt lat="45.93273" lon="6.19979">
        <ele>705</ele>
        <time>2014-04-13T07:41:28.000Z</time>
      </trkpt>
      <trkpt lat="45.93273" lon="6.19991">
        <ele>707.40002441406</ele>
        <time>2014-04-13T07:41:35.000Z</time>
      </trkpt>
      <trkpt lat="45.93275" lon="6.19999">
        <ele>709.20001220703</ele>
        <time>2014-04-13T07:41:39.000Z</time>
      </trkpt>
      <trkpt lat="45.93276" lon="6.20003">
        <ele>710.20001220703</ele>
        <time>2014-04-13T07:41:41.000Z</time>
      </trkpt>
      <trkpt lat="45.93277" lon="6.20006">
        <ele>711</ele>
        <time>2014-04-13T07:41:44.000Z</time>
      </trkpt>
      <trkpt lat="45.93278" lon="6.20009">
        <ele>711.40002441406</ele>
        <time>2014-04-13T07:41:46.000Z</time>
      </trkpt>
      <trkpt lat="45.93277" lon="6.20016">
        <ele>712.59997558594</ele>
        <time>2014-04-13T07:41:51.000Z</time>
      </trkpt>
      <trkpt lat="45.93276" lon="6.20018">
        <ele>713</ele>
        <time>2014-04-13T07:41:53.000Z</time>
      </trkpt>
      <trkpt lat="45.93278" lon="6.20023">
        <ele>714</ele>
        <time>2014-04-13T07:41:57.000Z</time>
      </trkpt>
      <trkpt lat="45.93277" lon="6.2003">
        <ele>715.59997558594</ele>
        <time>2014-04-13T07:42:05.000Z</time>
      </trkpt>
      <trkpt lat="45.93277" lon="6.20035">
        <ele>716.59997558594</ele>
        <time>2014-04-13T07:42:09.000Z</time>
      </trkpt>
      <trkpt lat="45.93278" lon="6.20041">
        <ele>717.79998779297</ele>
        <time>2014-04-13T07:42:16.000Z</time>
      </trkpt>
      <trkpt lat="45.93278" lon="6.20048">
        <ele>719.20001220703</ele>
        <time>2014-04-13T07:42:23.000Z</time>
      </trkpt>
      <trkpt lat="45.93278" lon="6.20049">
        <ele>719.20001220703</ele>
        <time>2014-04-13T07:42:24.000Z</time>
      </trkpt>
      <trkpt lat="45.93275" lon="6.20053">
        <ele>719.79998779297</ele>
        <time>2014-04-13T07:42:29.000Z</time>
      </trkpt>
      <trkpt lat="45.93275" lon="6.20055">
        <ele>720</ele>
        <time>2014-04-13T07:42:30.000Z</time>
      </trkpt>
      <trkpt lat="45.93276" lon="6.20056">
        <ele>720.59997558594</ele>
        <time>2014-04-13T07:42:34.000Z</time>
      </trkpt>
      <trkpt lat="45.93277" lon="6.20063">
        <ele>722</ele>
        <time>2014-04-13T07:42:38.000Z</time>
      </trkpt>
      <trkpt lat="45.93279" lon="6.20064">
        <ele>722.20001220703</ele>
        <time>2014-04-13T07:42:39.000Z</time>
      </trkpt>
      <trkpt lat="45.9328" lon="6.20064">
        <ele>722.40002441406</ele>
        <time>2014-04-13T07:42:40.000Z</time>
      </trkpt>
      <trkpt lat="45.93289" lon="6.20062">
        <ele>723</ele>
        <time>2014-04-13T07:42:44.000Z</time>
      </trkpt>
      <trkpt lat="45.9329" lon="6.20064">
        <ele>723.40002441406</ele>
        <time>2014-04-13T07:42:45.000Z</time>
      </trkpt>
      <trkpt lat="45.93293" lon="6.20065">
        <ele>724</ele>
        <time>2014-04-13T07:42:48.000Z</time>
      </trkpt>
      <trkpt lat="45.93294" lon="6.20066">
        <ele>724.40002441406</ele>
        <time>2014-04-13T07:42:49.000Z</time>
      </trkpt>
      <trkpt lat="45.93297" lon="6.20068">
        <ele>725</ele>
        <time>2014-04-13T07:42:51.000Z</time>
      </trkpt>
      <trkpt lat="45.933" lon="6.20071">
        <ele>725.79998779297</ele>
        <time>2014-04-13T07:42:53.000Z</time>
      </trkpt>
      <trkpt lat="45.93308" lon="6.20077">
        <ele>728</ele>
        <time>2014-04-13T07:42:58.000Z</time>
      </trkpt>
      <trkpt lat="45.93321" lon="6.20086">
        <ele>731.20001220703</ele>
        <time>2014-04-13T07:43:03.000Z</time>
      </trkpt>
      <trkpt lat="45.93326" lon="6.20094">
        <ele>733.59997558594</ele>
        <time>2014-04-13T07:43:07.000Z</time>
      </trkpt>
      <trkpt lat="45.93327" lon="6.20102">
        <ele>736</ele>
        <time>2014-04-13T07:43:12.000Z</time>
      </trkpt>
      <trkpt lat="45.93327" lon="6.20105">
        <ele>736.59997558594</ele>
        <time>2014-04-13T07:43:13.000Z</time>
      </trkpt>
      <trkpt lat="45.9333" lon="6.20111">
        <ele>738.40002441406</ele>
        <time>2014-04-13T07:43:17.000Z</time>
      </trkpt>
      <trkpt lat="45.9333" lon="6.20115">
        <ele>739.20001220703</ele>
        <time>2014-04-13T07:43:19.000Z</time>
      </trkpt>
      <trkpt lat="45.93334" lon="6.20127">
        <ele>742.59997558594</ele>
        <time>2014-04-13T07:43:26.000Z</time>
      </trkpt>
      <trkpt lat="45.93334" lon="6.2013">
        <ele>743.20001220703</ele>
        <time>2014-04-13T07:43:27.000Z</time>
      </trkpt>
      <trkpt lat="45.93337" lon="6.2014">
        <ele>746.20001220703</ele>
        <time>2014-04-13T07:43:33.000Z</time>
      </trkpt>
      <trkpt lat="45.93338" lon="6.20147">
        <ele>748</ele>
        <time>2014-04-13T07:43:37.000Z</time>
      </trkpt>
      <trkpt lat="45.93339" lon="6.20148">
        <ele>748.40002441406</ele>
        <time>2014-04-13T07:43:38.000Z</time>
      </trkpt>
      <trkpt lat="45.9334" lon="6.20149">
        <ele>748.59997558594</ele>
        <time>2014-04-13T07:43:39.000Z</time>
      </trkpt>
      <trkpt lat="45.93344" lon="6.20151">
        <ele>749.79998779297</ele>
        <time>2014-04-13T07:43:45.000Z</time>
      </trkpt>
      <trkpt lat="45.93348" lon="6.20155">
        <ele>751.40002441406</ele>
        <time>2014-04-13T07:43:50.000Z</time>
      </trkpt>
      <trkpt lat="45.93351" lon="6.20158">
        <ele>752.40002441406</ele>
        <time>2014-04-13T07:43:53.000Z</time>
      </trkpt>
      <trkpt lat="45.9336" lon="6.20156">
        <ele>753.20001220703</ele>
        <time>2014-04-13T07:43:58.000Z</time>
      </trkpt>
      <trkpt lat="45.93361" lon="6.20155">
        <ele>753.20001220703</ele>
        <time>2014-04-13T07:43:59.000Z</time>
      </trkpt>
      <trkpt lat="45.93361" lon="6.20154">
        <ele>753.20001220703</ele>
        <time>2014-04-13T07:44:00.000Z</time>
      </trkpt>
      <trkpt lat="45.93365" lon="6.2015">
        <ele>752.79998779297</ele>
        <time>2014-04-13T07:44:03.000Z</time>
      </trkpt>
      <trkpt lat="45.93369" lon="6.20143">
        <ele>751.79998779297</ele>
        <time>2014-04-13T07:44:09.000Z</time>
      </trkpt>
      <trkpt lat="45.9337" lon="6.20139">
        <ele>751.20001220703</ele>
        <time>2014-04-13T07:44:11.000Z</time>
      </trkpt>
      <trkpt lat="45.93372" lon="6.20135">
        <ele>751</ele>
        <time>2014-04-13T07:44:13.000Z</time>
      </trkpt>
      <trkpt lat="45.93375" lon="6.20126">
        <ele>749.59997558594</ele>
        <time>2014-04-13T07:44:19.000Z</time>
      </trkpt>
      <trkpt lat="45.93378" lon="6.20112">
        <ele>747.20001220703</ele>
        <time>2014-04-13T07:44:25.000Z</time>
      </trkpt>
      <trkpt lat="45.93381" lon="6.20106">
        <ele>746.79998779297</ele>
        <time>2014-04-13T07:44:28.000Z</time>
      </trkpt>
      <trkpt lat="45.93385" lon="6.20099">
        <ele>746.20001220703</ele>
        <time>2014-04-13T07:44:32.000Z</time>
      </trkpt>
      <trkpt lat="45.9339" lon="6.20091">
        <ele>745.59997558594</ele>
        <time>2014-04-13T07:44:39.000Z</time>
      </trkpt>
      <trkpt lat="45.9339" lon="6.2009">
        <ele>745.40002441406</ele>
        <time>2014-04-13T07:44:40.000Z</time>
      </trkpt>
      <trkpt lat="45.93398" lon="6.20089">
        <ele>747</ele>
        <time>2014-04-13T07:44:47.000Z</time>
      </trkpt>
      <trkpt lat="45.93398" lon="6.2009">
        <ele>747.20001220703</ele>
        <time>2014-04-13T07:44:48.000Z</time>
      </trkpt>
      <trkpt lat="45.93402" lon="6.20093">
        <ele>748.40002441406</ele>
        <time>2014-04-13T07:44:53.000Z</time>
      </trkpt>
      <trkpt lat="45.93405" lon="6.20096">
        <ele>749.59997558594</ele>
        <time>2014-04-13T07:44:57.000Z</time>
      </trkpt>
      <trkpt lat="45.93407" lon="6.20099">
        <ele>750.40002441406</ele>
        <time>2014-04-13T07:45:00.000Z</time>
      </trkpt>
      <trkpt lat="45.93408" lon="6.20099">
        <ele>750.79998779297</ele>
        <time>2014-04-13T07:45:01.000Z</time>
      </trkpt>
      <trkpt lat="45.93411" lon="6.20102">
        <ele>751.79998779297</ele>
        <time>2014-04-13T07:45:05.000Z</time>
      </trkpt>
      <trkpt lat="45.93411" lon="6.20102">
        <ele>752</ele>
        <time>2014-04-13T07:45:06.000Z</time>
      </trkpt>
      <trkpt lat="45.93414" lon="6.20108">
        <ele>753.40002441406</ele>
        <time>2014-04-13T07:45:11.000Z</time>
      </trkpt>
      <trkpt lat="45.93415" lon="6.2011">
        <ele>753.79998779297</ele>
        <time>2014-04-13T07:45:13.000Z</time>
      </trkpt>
      <trkpt lat="45.93413" lon="6.20112">
        <ele>753.79998779297</ele>
        <time>2014-04-13T07:45:15.000Z</time>
      </trkpt>
      <trkpt lat="45.93412" lon="6.20114">
        <ele>753.79998779297</ele>
        <time>2014-04-13T07:45:17.000Z</time>
      </trkpt>
      <trkpt lat="45.93412" lon="6.20115">
        <ele>754</ele>
        <time>2014-04-13T07:45:18.000Z</time>
      </trkpt>
      <trkpt lat="45.93413" lon="6.20125">
        <ele>755.79998779297</ele>
        <time>2014-04-13T07:45:24.000Z</time>
      </trkpt>
      <trkpt lat="45.93413" lon="6.20126">
        <ele>756</ele>
        <time>2014-04-13T07:45:26.000Z</time>
      </trkpt>
      <trkpt lat="45.93412" lon="6.2013">
        <ele>756.59997558594</ele>
        <time>2014-04-13T07:45:29.000Z</time>
      </trkpt>
      <trkpt lat="45.93412" lon="6.20137">
        <ele>757.59997558594</ele>
        <time>2014-04-13T07:45:33.000Z</time>
      </trkpt>
      <trkpt lat="45.93413" lon="6.20139">
        <ele>758</ele>
        <time>2014-04-13T07:45:34.000Z</time>
      </trkpt>
      <trkpt lat="45.93413" lon="6.20141">
        <ele>758.40002441406</ele>
        <time>2014-04-13T07:45:35.000Z</time>
      </trkpt>
      <trkpt lat="45.93413" lon="6.20147">
        <ele>759.40002441406</ele>
        <time>2014-04-13T07:45:38.000Z</time>
      </trkpt>
      <trkpt lat="45.93414" lon="6.20148">
        <ele>759.79998779297</ele>
        <time>2014-04-13T07:45:39.000Z</time>
      </trkpt>
      <trkpt lat="45.93413" lon="6.20153">
        <ele>760.40002441406</ele>
        <time>2014-04-13T07:45:42.000Z</time>
      </trkpt>
      <trkpt lat="45.93414" lon="6.20154">
        <ele>760.59997558594</ele>
        <time>2014-04-13T07:45:43.000Z</time>
      </trkpt>
      <trkpt lat="45.93415" lon="6.2016">
        <ele>761.79998779297</ele>
        <time>2014-04-13T07:45:47.000Z</time>
      </trkpt>
      <trkpt lat="45.93415" lon="6.20166">
        <ele>762.79998779297</ele>
        <time>2014-04-13T07:45:50.000Z</time>
      </trkpt>
      <trkpt lat="45.93415" lon="6.20172">
        <ele>763.59997558594</ele>
        <time>2014-04-13T07:45:53.000Z</time>
      </trkpt>
      <trkpt lat="45.93416" lon="6.20178">
        <ele>764.59997558594</ele>
        <time>2014-04-13T07:45:57.000Z</time>
      </trkpt>
      <trkpt lat="45.93416" lon="6.20179">
        <ele>764.79998779297</ele>
        <time>2014-04-13T07:45:58.000Z</time>
      </trkpt>
      <trkpt lat="45.93416" lon="6.20183">
        <ele>765.20001220703</ele>
        <time>2014-04-13T07:46:00.000Z</time>
      </trkpt>
      <trkpt lat="45.93417" lon="6.20184">
        <ele>765.59997558594</ele>
        <time>2014-04-13T07:46:01.000Z</time>
      </trkpt>
      <trkpt lat="45.93418" lon="6.20188">
        <ele>766.20001220703</ele>
        <time>2014-04-13T07:46:04.000Z</time>
      </trkpt>
      <trkpt lat="45.93419" lon="6.2019">
        <ele>766.40002441406</ele>
        <time>2014-04-13T07:46:05.000Z</time>
      </trkpt>
      <trkpt lat="45.93421" lon="6.20204">
        <ele>768.79998779297</ele>
        <time>2014-04-13T07:46:13.000Z</time>
      </trkpt>
      <trkpt lat="45.93423" lon="6.20209">
        <ele>769.79998779297</ele>
        <time>2014-04-13T07:46:17.000Z</time>
      </trkpt>
      <trkpt lat="45.93427" lon="6.20213">
        <ele>770.59997558594</ele>
        <time>2014-04-13T07:46:21.000Z</time>
      </trkpt>
      <trkpt lat="45.93429" lon="6.20223">
        <ele>772.20001220703</ele>
        <time>2014-04-13T07:46:29.000Z</time>
      </trkpt>
      <trkpt lat="45.93429" lon="6.20224">
        <ele>772.59997558594</ele>
        <time>2014-04-13T07:46:30.000Z</time>
      </trkpt>
      <trkpt lat="45.9343" lon="6.20228">
        <ele>773.20001220703</ele>
        <time>2014-04-13T07:46:34.000Z</time>
      </trkpt>
      <trkpt lat="45.93431" lon="6.20231">
        <ele>773.59997558594</ele>
        <time>2014-04-13T07:46:35.000Z</time>
      </trkpt>
      <trkpt lat="45.93431" lon="6.20235">
        <ele>774.20001220703</ele>
        <time>2014-04-13T07:46:39.000Z</time>
      </trkpt>
      <trkpt lat="45.9343" lon="6.20234">
        <ele>774</ele>
        <time>2014-04-13T07:46:40.000Z</time>
      </trkpt>
      <trkpt lat="45.93431" lon="6.20239">
        <ele>775</ele>
        <time>2014-04-13T07:46:44.000Z</time>
      </trkpt>
      <trkpt lat="45.93432" lon="6.20251">
        <ele>776.59997558594</ele>
        <time>2014-04-13T07:46:49.000Z</time>
      </trkpt>
      <trkpt lat="45.93433" lon="6.20259">
        <ele>778.20001220703</ele>
        <time>2014-04-13T07:46:52.000Z</time>
      </trkpt>
      <trkpt lat="45.93433" lon="6.20261">
        <ele>778.59997558594</ele>
        <time>2014-04-13T07:46:53.000Z</time>
      </trkpt>
      <trkpt lat="45.93435" lon="6.20273">
        <ele>780.79998779297</ele>
        <time>2014-04-13T07:47:00.000Z</time>
      </trkpt>
      <trkpt lat="45.93435" lon="6.20277">
        <ele>781.59997558594</ele>
        <time>2014-04-13T07:47:02.000Z</time>
      </trkpt>
      <trkpt lat="45.93435" lon="6.20283">
        <ele>782.79998779297</ele>
        <time>2014-04-13T07:47:06.000Z</time>
      </trkpt>
      <trkpt lat="45.93436" lon="6.20299">
        <ele>785.79998779297</ele>
        <time>2014-04-13T07:47:13.000Z</time>
      </trkpt>
      <trkpt lat="45.9344" lon="6.20307">
        <ele>787.59997558594</ele>
        <time>2014-04-13T07:47:18.000Z</time>
      </trkpt>
      <trkpt lat="45.93442" lon="6.20308">
        <ele>788</ele>
        <time>2014-04-13T07:47:19.000Z</time>
      </trkpt>
      <trkpt lat="45.93443" lon="6.20314">
        <ele>789.20001220703</ele>
        <time>2014-04-13T07:47:23.000Z</time>
      </trkpt>
      <trkpt lat="45.93445" lon="6.20316">
        <ele>789.79998779297</ele>
        <time>2014-04-13T07:47:25.000Z</time>
      </trkpt>
      <trkpt lat="45.93447" lon="6.20319">
        <ele>790.59997558594</ele>
        <time>2014-04-13T07:47:29.000Z</time>
      </trkpt>
      <trkpt lat="45.93448" lon="6.2032">
        <ele>791</ele>
        <time>2014-04-13T07:47:30.000Z</time>
      </trkpt>
      <trkpt lat="45.93448" lon="6.20322">
        <ele>791.40002441406</ele>
        <time>2014-04-13T07:47:31.000Z</time>
      </trkpt>
      <trkpt lat="45.9345" lon="6.20326">
        <ele>792.20001220703</ele>
        <time>2014-04-13T07:47:34.000Z</time>
      </trkpt>
      <trkpt lat="45.9345" lon="6.20329">
        <ele>792.79998779297</ele>
        <time>2014-04-13T07:47:36.000Z</time>
      </trkpt>
      <trkpt lat="45.93456" lon="6.20338">
        <ele>795.40002441406</ele>
        <time>2014-04-13T07:47:43.000Z</time>
      </trkpt>
      <trkpt lat="45.93458" lon="6.20339">
        <ele>796</ele>
        <time>2014-04-13T07:47:45.000Z</time>
      </trkpt>
      <trkpt lat="45.93463" lon="6.20344">
        <ele>797.40002441406</ele>
        <time>2014-04-13T07:47:49.000Z</time>
      </trkpt>
      <trkpt lat="45.93471" lon="6.20348">
        <ele>799.40002441406</ele>
        <time>2014-04-13T07:47:54.000Z</time>
      </trkpt>
      <trkpt lat="45.93474" lon="6.2035">
        <ele>800.20001220703</ele>
        <time>2014-04-13T07:47:56.000Z</time>
      </trkpt>
      <trkpt lat="45.93482" lon="6.20356">
        <ele>802.59997558594</ele>
        <time>2014-04-13T07:48:02.000Z</time>
      </trkpt>
      <trkpt lat="45.93491" lon="6.2036">
        <ele>804.40002441406</ele>
        <time>2014-04-13T07:48:08.000Z</time>
      </trkpt>
      <trkpt lat="45.93494" lon="6.20367">
        <ele>806.40002441406</ele>
        <time>2014-04-13T07:48:14.000Z</time>
      </trkpt>
      <trkpt lat="45.93497" lon="6.20373">
        <ele>808.20001220703</ele>
        <time>2014-04-13T07:48:20.000Z</time>
      </trkpt>
      <trkpt lat="45.93504" lon="6.20374">
        <ele>808.59997558594</ele>
        <time>2014-04-13T07:48:24.000Z</time>
      </trkpt>
      <trkpt lat="45.93505" lon="6.20373">
        <ele>808.40002441406</ele>
        <time>2014-04-13T07:48:25.000Z</time>
      </trkpt>
      <trkpt lat="45.93514" lon="6.20371">
        <ele>807.79998779297</ele>
        <time>2014-04-13T07:48:31.000Z</time>
      </trkpt>
      <trkpt lat="45.93526" lon="6.20366">
        <ele>806.59997558594</ele>
        <time>2014-04-13T07:48:36.000Z</time>
      </trkpt>
      <trkpt lat="45.9354" lon="6.20364">
        <ele>806</ele>
        <time>2014-04-13T07:48:42.000Z</time>
      </trkpt>
      <trkpt lat="45.93541" lon="6.20363">
        <ele>806</ele>
        <time>2014-04-13T07:48:43.000Z</time>
      </trkpt>
      <trkpt lat="45.93543" lon="6.20363">
        <ele>806</ele>
        <time>2014-04-13T07:48:44.000Z</time>
      </trkpt>
      <trkpt lat="45.93547" lon="6.20363">
        <ele>806</ele>
        <time>2014-04-13T07:48:46.000Z</time>
      </trkpt>
      <trkpt lat="45.93554" lon="6.20365">
        <ele>806.20001220703</ele>
        <time>2014-04-13T07:48:49.000Z</time>
      </trkpt>
      <trkpt lat="45.93556" lon="6.20366">
        <ele>806.40002441406</ele>
        <time>2014-04-13T07:48:50.000Z</time>
      </trkpt>
      <trkpt lat="45.93559" lon="6.20367">
        <ele>806.59997558594</ele>
        <time>2014-04-13T07:48:51.000Z</time>
      </trkpt>
      <trkpt lat="45.93562" lon="6.20368">
        <ele>806.59997558594</ele>
        <time>2014-04-13T07:48:52.000Z</time>
      </trkpt>
      <trkpt lat="45.93566" lon="6.20371">
        <ele>807</ele>
        <time>2014-04-13T07:48:54.000Z</time>
      </trkpt>
      <trkpt lat="45.9357" lon="6.20376">
        <ele>807.79998779297</ele>
        <time>2014-04-13T07:48:57.000Z</time>
      </trkpt>
      <trkpt lat="45.93579" lon="6.20382">
        <ele>808.59997558594</ele>
        <time>2014-04-13T07:49:02.000Z</time>
      </trkpt>
      <trkpt lat="45.93587" lon="6.2038">
        <ele>808.20001220703</ele>
        <time>2014-04-13T07:49:06.000Z</time>
      </trkpt>
      <trkpt lat="45.93591" lon="6.20376">
        <ele>807.40002441406</ele>
        <time>2014-04-13T07:49:09.000Z</time>
      </trkpt>
      <trkpt lat="45.93602" lon="6.20364">
        <ele>805.20001220703</ele>
        <time>2014-04-13T07:49:14.000Z</time>
      </trkpt>
      <trkpt lat="45.93612" lon="6.2035">
        <ele>802.40002441406</ele>
        <time>2014-04-13T07:49:19.000Z</time>
      </trkpt>
      <trkpt lat="45.93622" lon="6.20333">
        <ele>799</ele>
        <time>2014-04-13T07:49:24.000Z</time>
      </trkpt>
      <trkpt lat="45.93622" lon="6.20316">
        <ele>796.20001220703</ele>
        <time>2014-04-13T07:49:29.000Z</time>
      </trkpt>
      <trkpt lat="45.93623" lon="6.20305">
        <ele>794.20001220703</ele>
        <time>2014-04-13T07:49:35.000Z</time>
      </trkpt>
      <trkpt lat="45.93633" lon="6.20313">
        <ele>795.20001220703</ele>
        <time>2014-04-13T07:49:41.000Z</time>
      </trkpt>
      <trkpt lat="45.93636" lon="6.20314">
        <ele>795.40002441406</ele>
        <time>2014-04-13T07:49:43.000Z</time>
      </trkpt>
      <trkpt lat="45.93637" lon="6.20316">
        <ele>795.59997558594</ele>
        <time>2014-04-13T07:49:44.000Z</time>
      </trkpt>
      <trkpt lat="45.93639" lon="6.20318">
        <ele>795.79998779297</ele>
        <time>2014-04-13T07:49:46.000Z</time>
      </trkpt>
      <trkpt lat="45.93648" lon="6.20321">
        <ele>796</ele>
        <time>2014-04-13T07:49:51.000Z</time>
      </trkpt>
      <trkpt lat="45.9365" lon="6.20321">
        <ele>795.79998779297</ele>
        <time>2014-04-13T07:49:52.000Z</time>
      </trkpt>
      <trkpt lat="45.93654" lon="6.20322">
        <ele>795.79998779297</ele>
        <time>2014-04-13T07:49:55.000Z</time>
      </trkpt>
      <trkpt lat="45.93655" lon="6.20325">
        <ele>796.20001220703</ele>
        <time>2014-04-13T07:49:57.000Z</time>
      </trkpt>
      <trkpt lat="45.93656" lon="6.20333">
        <ele>797.40002441406</ele>
        <time>2014-04-13T07:50:03.000Z</time>
      </trkpt>
      <trkpt lat="45.93658" lon="6.20341">
        <ele>799</ele>
        <time>2014-04-13T07:50:07.000Z</time>
      </trkpt>
      <trkpt lat="45.93659" lon="6.20346">
        <ele>799.79998779297</ele>
        <time>2014-04-13T07:50:09.000Z</time>
      </trkpt>
      <trkpt lat="45.93661" lon="6.20354">
        <ele>801.40002441406</ele>
        <time>2014-04-13T07:50:15.000Z</time>
      </trkpt>
      <trkpt lat="45.93663" lon="6.20363">
        <ele>803.20001220703</ele>
        <time>2014-04-13T07:50:21.000Z</time>
      </trkpt>
      <trkpt lat="45.93665" lon="6.20371">
        <ele>804.79998779297</ele>
        <time>2014-04-13T07:50:27.000Z</time>
      </trkpt>
      <trkpt lat="45.93665" lon="6.20372">
        <ele>804.79998779297</ele>
        <time>2014-04-13T07:50:28.000Z</time>
      </trkpt>
      <trkpt lat="45.93668" lon="6.20378">
        <ele>806.20001220703</ele>
        <time>2014-04-13T07:50:33.000Z</time>
      </trkpt>
      <trkpt lat="45.93669" lon="6.20386">
        <ele>808</ele>
        <time>2014-04-13T07:50:40.000Z</time>
      </trkpt>
      <trkpt lat="45.93672" lon="6.20396">
        <ele>810</ele>
        <time>2014-04-13T07:50:47.000Z</time>
      </trkpt>
      <trkpt lat="45.93671" lon="6.20396">
        <ele>810.20001220703</ele>
        <time>2014-04-13T07:50:48.000Z</time>
      </trkpt>
      <trkpt lat="45.93676" lon="6.20404">
        <ele>812</ele>
        <time>2014-04-13T07:50:53.000Z</time>
      </trkpt>
      <trkpt lat="45.93676" lon="6.20405">
        <ele>812.40002441406</ele>
        <time>2014-04-13T07:50:54.000Z</time>
      </trkpt>
      <trkpt lat="45.93678" lon="6.20412">
        <ele>814</ele>
        <time>2014-04-13T07:50:59.000Z</time>
      </trkpt>
      <trkpt lat="45.93678" lon="6.20413">
        <ele>814.20001220703</ele>
        <time>2014-04-13T07:51:00.000Z</time>
      </trkpt>
      <trkpt lat="45.93678" lon="6.20417">
        <ele>815.20001220703</ele>
        <time>2014-04-13T07:51:03.000Z</time>
      </trkpt>
      <trkpt lat="45.93679" lon="6.20421">
        <ele>816.20001220703</ele>
        <time>2014-04-13T07:51:05.000Z</time>
      </trkpt>
      <trkpt lat="45.9368" lon="6.20425">
        <ele>817.40002441406</ele>
        <time>2014-04-13T07:51:08.000Z</time>
      </trkpt>
      <trkpt lat="45.93682" lon="6.20431">
        <ele>819</ele>
        <time>2014-04-13T07:51:12.000Z</time>
      </trkpt>
      <trkpt lat="45.93681" lon="6.20433">
        <ele>819.40002441406</ele>
        <time>2014-04-13T07:51:13.000Z</time>
      </trkpt>
      <trkpt lat="45.93682" lon="6.20439">
        <ele>821</ele>
        <time>2014-04-13T07:51:17.000Z</time>
      </trkpt>
      <trkpt lat="45.93682" lon="6.20441">
        <ele>821.59997558594</ele>
        <time>2014-04-13T07:51:18.000Z</time>
      </trkpt>
      <trkpt lat="45.93683" lon="6.20444">
        <ele>822.40002441406</ele>
        <time>2014-04-13T07:51:19.000Z</time>
      </trkpt>
      <trkpt lat="45.93685" lon="6.20445">
        <ele>822.79998779297</ele>
        <time>2014-04-13T07:51:22.000Z</time>
      </trkpt>
      <trkpt lat="45.93685" lon="6.20448">
        <ele>823.59997558594</ele>
        <time>2014-04-13T07:51:24.000Z</time>
      </trkpt>
      <trkpt lat="45.93688" lon="6.20454">
        <ele>825.40002441406</ele>
        <time>2014-04-13T07:51:30.000Z</time>
      </trkpt>
      <trkpt lat="45.93688" lon="6.20456">
        <ele>826</ele>
        <time>2014-04-13T07:51:31.000Z</time>
      </trkpt>
      <trkpt lat="45.93692" lon="6.20462">
        <ele>827.59997558594</ele>
        <time>2014-04-13T07:51:35.000Z</time>
      </trkpt>
      <trkpt lat="45.93696" lon="6.20462">
        <ele>828</ele>
        <time>2014-04-13T07:51:38.000Z</time>
      </trkpt>
      <trkpt lat="45.93697" lon="6.20462">
        <ele>828.20001220703</ele>
        <time>2014-04-13T07:51:39.000Z</time>
      </trkpt>
      <trkpt lat="45.93699" lon="6.20467">
        <ele>829.59997558594</ele>
        <time>2014-04-13T07:51:43.000Z</time>
      </trkpt>
      <trkpt lat="45.93699" lon="6.20468">
        <ele>830</ele>
        <time>2014-04-13T07:51:44.000Z</time>
      </trkpt>
      <trkpt lat="45.93701" lon="6.20473">
        <ele>831.40002441406</ele>
        <time>2014-04-13T07:51:50.000Z</time>
      </trkpt>
      <trkpt lat="45.93702" lon="6.20476">
        <ele>832.20001220703</ele>
        <time>2014-04-13T07:51:54.000Z</time>
      </trkpt>
      <trkpt lat="45.93707" lon="6.20476">
        <ele>832.79998779297</ele>
        <time>2014-04-13T07:51:58.000Z</time>
      </trkpt>
      <trkpt lat="45.93709" lon="6.20476">
        <ele>833</ele>
        <time>2014-04-13T07:52:01.000Z</time>
      </trkpt>
      <trkpt lat="45.93712" lon="6.20477">
        <ele>833.40002441406</ele>
        <time>2014-04-13T07:52:03.000Z</time>
      </trkpt>
      <trkpt lat="45.93713" lon="6.20478">
        <ele>833.79998779297</ele>
        <time>2014-04-13T07:52:06.000Z</time>
      </trkpt>
      <trkpt lat="45.93714" lon="6.20479">
        <ele>834</ele>
        <time>2014-04-13T07:52:07.000Z</time>
      </trkpt>
      <trkpt lat="45.93718" lon="6.2048">
        <ele>834.79998779297</ele>
        <time>2014-04-13T07:52:12.000Z</time>
      </trkpt>
      <trkpt lat="45.93723" lon="6.20486">
        <ele>836.59997558594</ele>
        <time>2014-04-13T07:52:18.000Z</time>
      </trkpt>
      <trkpt lat="45.93724" lon="6.20486">
        <ele>837</ele>
        <time>2014-04-13T07:52:19.000Z</time>
      </trkpt>
      <trkpt lat="45.93727" lon="6.20491">
        <ele>838.59997558594</ele>
        <time>2014-04-13T07:52:22.000Z</time>
      </trkpt>
      <trkpt lat="45.93728" lon="6.20493">
        <ele>839</ele>
        <time>2014-04-13T07:52:24.000Z</time>
      </trkpt>
      <trkpt lat="45.93729" lon="6.20496">
        <ele>839.79998779297</ele>
        <time>2014-04-13T07:52:27.000Z</time>
      </trkpt>
      <trkpt lat="45.93729" lon="6.20499">
        <ele>840.59997558594</ele>
        <time>2014-04-13T07:52:29.000Z</time>
      </trkpt>
      <trkpt lat="45.9373" lon="6.205">
        <ele>841.20001220703</ele>
        <time>2014-04-13T07:52:30.000Z</time>
      </trkpt>
      <trkpt lat="45.93731" lon="6.20502">
        <ele>841.59997558594</ele>
        <time>2014-04-13T07:52:32.000Z</time>
      </trkpt>
      <trkpt lat="45.93732" lon="6.20506">
        <ele>842.40002441406</ele>
        <time>2014-04-13T07:52:34.000Z</time>
      </trkpt>
      <trkpt lat="45.93732" lon="6.20509">
        <ele>843</ele>
        <time>2014-04-13T07:52:36.000Z</time>
      </trkpt>
      <trkpt lat="45.93734" lon="6.20515">
        <ele>844.40002441406</ele>
        <time>2014-04-13T07:52:40.000Z</time>
      </trkpt>
      <trkpt lat="45.93734" lon="6.20518">
        <ele>844.79998779297</ele>
        <time>2014-04-13T07:52:41.000Z</time>
      </trkpt>
      <trkpt lat="45.93736" lon="6.20524">
        <ele>846.20001220703</ele>
        <time>2014-04-13T07:52:45.000Z</time>
      </trkpt>
      <trkpt lat="45.93736" lon="6.20526">
        <ele>846.59997558594</ele>
        <time>2014-04-13T07:52:46.000Z</time>
      </trkpt>
      <trkpt lat="45.93738" lon="6.20535">
        <ele>848.20001220703</ele>
        <time>2014-04-13T07:52:52.000Z</time>
      </trkpt>
      <trkpt lat="45.93738" lon="6.20541">
        <ele>849.40002441406</ele>
        <time>2014-04-13T07:52:59.000Z</time>
      </trkpt>
      <trkpt lat="45.93739" lon="6.20545">
        <ele>850.20001220703</ele>
        <time>2014-04-13T07:53:01.000Z</time>
      </trkpt>
      <trkpt lat="45.93739" lon="6.2055">
        <ele>851.20001220703</ele>
        <time>2014-04-13T07:53:04.000Z</time>
      </trkpt>
      <trkpt lat="45.93739" lon="6.20553">
        <ele>851.59997558594</ele>
        <time>2014-04-13T07:53:06.000Z</time>
      </trkpt>
      <trkpt lat="45.93738" lon="6.20555">
        <ele>852</ele>
        <time>2014-04-13T07:53:07.000Z</time>
      </trkpt>
      <trkpt lat="45.93738" lon="6.20556">
        <ele>852.20001220703</ele>
        <time>2014-04-13T07:53:08.000Z</time>
      </trkpt>
      <trkpt lat="45.93735" lon="6.20568">
        <ele>854.20001220703</ele>
        <time>2014-04-13T07:53:16.000Z</time>
      </trkpt>
      <trkpt lat="45.93735" lon="6.20578">
        <ele>856</ele>
        <time>2014-04-13T07:53:21.000Z</time>
      </trkpt>
      <trkpt lat="45.93735" lon="6.20579">
        <ele>856.40002441406</ele>
        <time>2014-04-13T07:53:22.000Z</time>
      </trkpt>
      <trkpt lat="45.93731" lon="6.20586">
        <ele>857.40002441406</ele>
        <time>2014-04-13T07:53:27.000Z</time>
      </trkpt>
      <trkpt lat="45.93731" lon="6.20589">
        <ele>858</ele>
        <time>2014-04-13T07:53:28.000Z</time>
      </trkpt>
      <trkpt lat="45.93729" lon="6.20595">
        <ele>859</ele>
        <time>2014-04-13T07:53:31.000Z</time>
      </trkpt>
      <trkpt lat="45.9373" lon="6.20595">
        <ele>859.20001220703</ele>
        <time>2014-04-13T07:53:33.000Z</time>
      </trkpt>
      <trkpt lat="45.93733" lon="6.20597">
        <ele>859.59997558594</ele>
        <time>2014-04-13T07:53:36.000Z</time>
      </trkpt>
      <trkpt lat="45.93734" lon="6.20602">
        <ele>860.59997558594</ele>
        <time>2014-04-13T07:53:40.000Z</time>
      </trkpt>
      <trkpt lat="45.93734" lon="6.20605">
        <ele>861.20001220703</ele>
        <time>2014-04-13T07:53:42.000Z</time>
      </trkpt>
      <trkpt lat="45.93735" lon="6.20615">
        <ele>863.20001220703</ele>
        <time>2014-04-13T07:53:47.000Z</time>
      </trkpt>
      <trkpt lat="45.93735" lon="6.20616">
        <ele>863.40002441406</ele>
        <time>2014-04-13T07:53:49.000Z</time>
      </trkpt>
      <trkpt lat="45.93735" lon="6.20627">
        <ele>865.40002441406</ele>
        <time>2014-04-13T07:53:54.000Z</time>
      </trkpt>
      <trkpt lat="45.93735" lon="6.20629">
        <ele>865.79998779297</ele>
        <time>2014-04-13T07:53:55.000Z</time>
      </trkpt>
      <trkpt lat="45.93733" lon="6.20632">
        <ele>866.40002441406</ele>
        <time>2014-04-13T07:53:57.000Z</time>
      </trkpt>
      <trkpt lat="45.93735" lon="6.20648">
        <ele>869.59997558594</ele>
        <time>2014-04-13T07:54:01.000Z</time>
      </trkpt>
      <trkpt lat="45.93736" lon="6.2065">
        <ele>869.79998779297</ele>
        <time>2014-04-13T07:54:02.000Z</time>
      </trkpt>
      <trkpt lat="45.93736" lon="6.20658">
        <ele>871.40002441406</ele>
        <time>2014-04-13T07:54:05.000Z</time>
      </trkpt>
      <trkpt lat="45.93735" lon="6.2066">
        <ele>871.79998779297</ele>
        <time>2014-04-13T07:54:06.000Z</time>
      </trkpt>
      <trkpt lat="45.93733" lon="6.20663">
        <ele>872.40002441406</ele>
        <time>2014-04-13T07:54:09.000Z</time>
      </trkpt>
      <trkpt lat="45.93731" lon="6.20667">
        <ele>873.20001220703</ele>
        <time>2014-04-13T07:54:11.000Z</time>
      </trkpt>
      <trkpt lat="45.93728" lon="6.20675">
        <ele>874.20001220703</ele>
        <time>2014-04-13T07:54:14.000Z</time>
      </trkpt>
      <trkpt lat="45.93727" lon="6.2068">
        <ele>875.20001220703</ele>
        <time>2014-04-13T07:54:19.000Z</time>
      </trkpt>
      <trkpt lat="45.93726" lon="6.20682">
        <ele>875.40002441406</ele>
        <time>2014-04-13T07:54:22.000Z</time>
      </trkpt>
      <trkpt lat="45.93724" lon="6.20687">
        <ele>876.20001220703</ele>
        <time>2014-04-13T07:54:25.000Z</time>
      </trkpt>
      <trkpt lat="45.93724" lon="6.20692">
        <ele>877</ele>
        <time>2014-04-13T07:54:27.000Z</time>
      </trkpt>
      <trkpt lat="45.93722" lon="6.207">
        <ele>878.20001220703</ele>
        <time>2014-04-13T07:54:31.000Z</time>
      </trkpt>
      <trkpt lat="45.9372" lon="6.20707">
        <ele>879.40002441406</ele>
        <time>2014-04-13T07:54:35.000Z</time>
      </trkpt>
      <trkpt lat="45.93719" lon="6.20709">
        <ele>879.59997558594</ele>
        <time>2014-04-13T07:54:36.000Z</time>
      </trkpt>
      <trkpt lat="45.93717" lon="6.20713">
        <ele>880.20001220703</ele>
        <time>2014-04-13T07:54:41.000Z</time>
      </trkpt>
      <trkpt lat="45.93719" lon="6.2072">
        <ele>881.20001220703</ele>
        <time>2014-04-13T07:54:46.000Z</time>
      </trkpt>
      <trkpt lat="45.93721" lon="6.20731">
        <ele>883</ele>
        <time>2014-04-13T07:54:50.000Z</time>
      </trkpt>
      <trkpt lat="45.93719" lon="6.20745">
        <ele>885.20001220703</ele>
        <time>2014-04-13T07:54:56.000Z</time>
      </trkpt>
      <trkpt lat="45.93718" lon="6.20747">
        <ele>885.59997558594</ele>
        <time>2014-04-13T07:54:57.000Z</time>
      </trkpt>
      <trkpt lat="45.93717" lon="6.20757">
        <ele>887.59997558594</ele>
        <time>2014-04-13T07:55:02.000Z</time>
      </trkpt>
      <trkpt lat="45.93716" lon="6.20764">
        <ele>889.20001220703</ele>
        <time>2014-04-13T07:55:06.000Z</time>
      </trkpt>
      <trkpt lat="45.93717" lon="6.20772">
        <ele>891</ele>
        <time>2014-04-13T07:55:09.000Z</time>
      </trkpt>
      <trkpt lat="45.93718" lon="6.20779">
        <ele>892.79998779297</ele>
        <time>2014-04-13T07:55:12.000Z</time>
      </trkpt>
      <trkpt lat="45.93719" lon="6.20783">
        <ele>893.59997558594</ele>
        <time>2014-04-13T07:55:15.000Z</time>
      </trkpt>
      <trkpt lat="45.93719" lon="6.20784">
        <ele>893.79998779297</ele>
        <time>2014-04-13T07:55:16.000Z</time>
      </trkpt>
      <trkpt lat="45.93717" lon="6.20788">
        <ele>894.79998779297</ele>
        <time>2014-04-13T07:55:20.000Z</time>
      </trkpt>
      <trkpt lat="45.93717" lon="6.20798">
        <ele>897</ele>
        <time>2014-04-13T07:55:24.000Z</time>
      </trkpt>
      <trkpt lat="45.93718" lon="6.20799">
        <ele>897.20001220703</ele>
        <time>2014-04-13T07:55:25.000Z</time>
      </trkpt>
      <trkpt lat="45.93719" lon="6.20803">
        <ele>898.20001220703</ele>
        <time>2014-04-13T07:55:30.000Z</time>
      </trkpt>
      <trkpt lat="45.93719" lon="6.20808">
        <ele>899.40002441406</ele>
        <time>2014-04-13T07:55:35.000Z</time>
      </trkpt>
      <trkpt lat="45.9372" lon="6.20809">
        <ele>899.59997558594</ele>
        <time>2014-04-13T07:55:36.000Z</time>
      </trkpt>
      <trkpt lat="45.93723" lon="6.20816">
        <ele>901.20001220703</ele>
        <time>2014-04-13T07:55:40.000Z</time>
      </trkpt>
      <trkpt lat="45.93725" lon="6.20821">
        <ele>902.59997558594</ele>
        <time>2014-04-13T07:55:42.000Z</time>
      </trkpt>
      <trkpt lat="45.93724" lon="6.20829">
        <ele>904.40002441406</ele>
        <time>2014-04-13T07:55:48.000Z</time>
      </trkpt>
      <trkpt lat="45.93723" lon="6.20831">
        <ele>904.79998779297</ele>
        <time>2014-04-13T07:55:49.000Z</time>
      </trkpt>
      <trkpt lat="45.93723" lon="6.20833">
        <ele>905.20001220703</ele>
        <time>2014-04-13T07:55:50.000Z</time>
      </trkpt>
      <trkpt lat="45.93721" lon="6.20837">
        <ele>906.59997558594</ele>
        <time>2014-04-13T07:55:54.000Z</time>
      </trkpt>
      <trkpt lat="45.93721" lon="6.20839">
        <ele>907.20001220703</ele>
        <time>2014-04-13T07:55:55.000Z</time>
      </trkpt>
      <trkpt lat="45.93722" lon="6.20845">
        <ele>909</ele>
        <time>2014-04-13T07:55:58.000Z</time>
      </trkpt>
      <trkpt lat="45.93722" lon="6.20848">
        <ele>909.79998779297</ele>
        <time>2014-04-13T07:56:01.000Z</time>
      </trkpt>
      <trkpt lat="45.93722" lon="6.20849">
        <ele>910.20001220703</ele>
        <time>2014-04-13T07:56:02.000Z</time>
      </trkpt>
      <trkpt lat="45.93725" lon="6.20854">
        <ele>911.79998779297</ele>
        <time>2014-04-13T07:56:08.000Z</time>
      </trkpt>
      <trkpt lat="45.93733" lon="6.20858">
        <ele>913.40002441406</ele>
        <time>2014-04-13T07:56:13.000Z</time>
      </trkpt>
      <trkpt lat="45.93734" lon="6.20858">
        <ele>913.20001220703</ele>
        <time>2014-04-13T07:56:14.000Z</time>
      </trkpt>
      <trkpt lat="45.93734" lon="6.20856">
        <ele>912.79998779297</ele>
        <time>2014-04-13T07:56:16.000Z</time>
      </trkpt>
      <trkpt lat="45.93736" lon="6.20852">
        <ele>911.40002441406</ele>
        <time>2014-04-13T07:56:20.000Z</time>
      </trkpt>
      <trkpt lat="45.93746" lon="6.20862">
        <ele>914.79998779297</ele>
        <time>2014-04-13T07:56:27.000Z</time>
      </trkpt>
      <trkpt lat="45.93748" lon="6.20864">
        <ele>915.59997558594</ele>
        <time>2014-04-13T07:56:29.000Z</time>
      </trkpt>
      <trkpt lat="45.93748" lon="6.20867">
        <ele>916.59997558594</ele>
        <time>2014-04-13T07:56:31.000Z</time>
      </trkpt>
      <trkpt lat="45.93756" lon="6.20879">
        <ele>920.20001220703</ele>
        <time>2014-04-13T07:56:43.000Z</time>
      </trkpt>
      <trkpt lat="45.93758" lon="6.2088">
        <ele>920.59997558594</ele>
        <time>2014-04-13T07:56:45.000Z</time>
      </trkpt>
      <trkpt lat="45.9376" lon="6.20884">
        <ele>921.79998779297</ele>
        <time>2014-04-13T07:56:50.000Z</time>
      </trkpt>
      <trkpt lat="45.93762" lon="6.20886">
        <ele>922.40002441406</ele>
        <time>2014-04-13T07:56:52.000Z</time>
      </trkpt>
      <trkpt lat="45.93764" lon="6.20883">
        <ele>921.59997558594</ele>
        <time>2014-04-13T07:56:55.000Z</time>
      </trkpt>
      <trkpt lat="45.93771" lon="6.20883">
        <ele>921.59997558594</ele>
        <time>2014-04-13T07:57:00.000Z</time>
      </trkpt>
      <trkpt lat="45.93772" lon="6.20883">
        <ele>921.59997558594</ele>
        <time>2014-04-13T07:57:04.000Z</time>
      </trkpt>
      <trkpt lat="45.93777" lon="6.20882">
        <ele>921.59997558594</ele>
        <time>2014-04-13T07:57:10.000Z</time>
      </trkpt>
      <trkpt lat="45.93778" lon="6.20882">
        <ele>921.59997558594</ele>
        <time>2014-04-13T07:57:14.000Z</time>
      </trkpt>
      <trkpt lat="45.9378" lon="6.20884">
        <ele>922</ele>
        <time>2014-04-13T07:57:19.000Z</time>
      </trkpt>
      <trkpt lat="45.93783" lon="6.20887">
        <ele>923</ele>
        <time>2014-04-13T07:57:25.000Z</time>
      </trkpt>
      <trkpt lat="45.93787" lon="6.20889">
        <ele>923.59997558594</ele>
        <time>2014-04-13T07:57:31.000Z</time>
      </trkpt>
      <trkpt lat="45.93787" lon="6.20891">
        <ele>924</ele>
        <time>2014-04-13T07:57:32.000Z</time>
      </trkpt>
      <trkpt lat="45.93788" lon="6.20895">
        <ele>925.40002441406</ele>
        <time>2014-04-13T07:57:36.000Z</time>
      </trkpt>
      <trkpt lat="45.93789" lon="6.20895">
        <ele>925.40002441406</ele>
        <time>2014-04-13T07:57:37.000Z</time>
      </trkpt>
      <trkpt lat="45.93791" lon="6.20897">
        <ele>926</ele>
        <time>2014-04-13T07:57:39.000Z</time>
      </trkpt>
      <trkpt lat="45.93791" lon="6.20898">
        <ele>926</ele>
        <time>2014-04-13T07:57:40.000Z</time>
      </trkpt>
      <trkpt lat="45.93791" lon="6.20897">
        <ele>925.79998779297</ele>
        <time>2014-04-13T07:57:45.000Z</time>
      </trkpt>
      <trkpt lat="45.93792" lon="6.20899">
        <ele>926.59997558594</ele>
        <time>2014-04-13T07:57:47.000Z</time>
      </trkpt>
      <trkpt lat="45.93791" lon="6.20904">
        <ele>927.79998779297</ele>
        <time>2014-04-13T07:57:52.000Z</time>
      </trkpt>
      <trkpt lat="45.9379" lon="6.20909">
        <ele>929.40002441406</ele>
        <time>2014-04-13T07:57:58.000Z</time>
      </trkpt>
      <trkpt lat="45.93789" lon="6.20912">
        <ele>930</ele>
        <time>2014-04-13T07:57:59.000Z</time>
      </trkpt>
      <trkpt lat="45.93789" lon="6.20914">
        <ele>930.79998779297</ele>
        <time>2014-04-13T07:58:01.000Z</time>
      </trkpt>
      <trkpt lat="45.9379" lon="6.20918">
        <ele>932</ele>
        <time>2014-04-13T07:58:04.000Z</time>
      </trkpt>
      <trkpt lat="45.93791" lon="6.20929">
        <ele>935.20001220703</ele>
        <time>2014-04-13T07:58:10.000Z</time>
      </trkpt>
      <trkpt lat="45.93788" lon="6.20935">
        <ele>937</ele>
        <time>2014-04-13T07:58:16.000Z</time>
      </trkpt>
      <trkpt lat="45.93789" lon="6.20937">
        <ele>937.59997558594</ele>
        <time>2014-04-13T07:58:17.000Z</time>
      </trkpt>
      <trkpt lat="45.93787" lon="6.20952">
        <ele>942.20001220703</ele>
        <time>2014-04-13T07:58:30.000Z</time>
      </trkpt>
      <trkpt lat="45.93788" lon="6.20955">
        <ele>943.20001220703</ele>
        <time>2014-04-13T07:58:32.000Z</time>
      </trkpt>
      <trkpt lat="45.93788" lon="6.20957">
        <ele>943.59997558594</ele>
        <time>2014-04-13T07:58:33.000Z</time>
      </trkpt>
      <trkpt lat="45.93788" lon="6.20961">
        <ele>944.79998779297</ele>
        <time>2014-04-13T07:58:35.000Z</time>
      </trkpt>
      <trkpt lat="45.9379" lon="6.20967">
        <ele>946.59997558594</ele>
        <time>2014-04-13T07:58:39.000Z</time>
      </trkpt>
      <trkpt lat="45.9379" lon="6.20968">
        <ele>947.20001220703</ele>
        <time>2014-04-13T07:58:40.000Z</time>
      </trkpt>
      <trkpt lat="45.93791" lon="6.20971">
        <ele>948</ele>
        <time>2014-04-13T07:58:42.000Z</time>
      </trkpt>
      <trkpt lat="45.93792" lon="6.20975">
        <ele>949</ele>
        <time>2014-04-13T07:58:44.000Z</time>
      </trkpt>
      <trkpt lat="45.93793" lon="6.20977">
        <ele>949.59997558594</ele>
        <time>2014-04-13T07:58:50.000Z</time>
      </trkpt>
      <trkpt lat="45.93792" lon="6.20983">
        <ele>951.40002441406</ele>
        <time>2014-04-13T07:58:54.000Z</time>
      </trkpt>
      <trkpt lat="45.93792" lon="6.20985">
        <ele>951.79998779297</ele>
        <time>2014-04-13T07:58:56.000Z</time>
      </trkpt>
      <trkpt lat="45.93794" lon="6.20988">
        <ele>952.79998779297</ele>
        <time>2014-04-13T07:58:58.000Z</time>
      </trkpt>
      <trkpt lat="45.93795" lon="6.20991">
        <ele>953.40002441406</ele>
        <time>2014-04-13T07:59:00.000Z</time>
      </trkpt>
      <trkpt lat="45.93796" lon="6.20992">
        <ele>953.79998779297</ele>
        <time>2014-04-13T07:59:01.000Z</time>
      </trkpt>
      <trkpt lat="45.93798" lon="6.20999">
        <ele>955.79998779297</ele>
        <time>2014-04-13T07:59:09.000Z</time>
      </trkpt>
      <trkpt lat="45.93798" lon="6.21003">
        <ele>957</ele>
        <time>2014-04-13T07:59:11.000Z</time>
      </trkpt>
      <trkpt lat="45.93801" lon="6.21005">
        <ele>957.40002441406</ele>
        <time>2014-04-13T07:59:14.000Z</time>
      </trkpt>
      <trkpt lat="45.93808" lon="6.2101">
        <ele>958.20001220703</ele>
        <time>2014-04-13T07:59:20.000Z</time>
      </trkpt>
      <trkpt lat="45.93808" lon="6.21012">
        <ele>958.59997558594</ele>
        <time>2014-04-13T07:59:21.000Z</time>
      </trkpt>
      <trkpt lat="45.93809" lon="6.21013">
        <ele>959.20001220703</ele>
        <time>2014-04-13T07:59:22.000Z</time>
      </trkpt>
      <trkpt lat="45.9381" lon="6.21018">
        <ele>960.20001220703</ele>
        <time>2014-04-13T07:59:25.000Z</time>
      </trkpt>
      <trkpt lat="45.93811" lon="6.21022">
        <ele>961.20001220703</ele>
        <time>2014-04-13T07:59:31.000Z</time>
      </trkpt>
      <trkpt lat="45.93813" lon="6.2102">
        <ele>960.59997558594</ele>
        <time>2014-04-13T07:59:33.000Z</time>
      </trkpt>
      <trkpt lat="45.93816" lon="6.21021">
        <ele>960.79998779297</ele>
        <time>2014-04-13T07:59:35.000Z</time>
      </trkpt>
      <trkpt lat="45.93818" lon="6.21024">
        <ele>961.40002441406</ele>
        <time>2014-04-13T07:59:41.000Z</time>
      </trkpt>
      <trkpt lat="45.93821" lon="6.21029">
        <ele>962.59997558594</ele>
        <time>2014-04-13T07:59:46.000Z</time>
      </trkpt>
      <trkpt lat="45.93823" lon="6.21031">
        <ele>963</ele>
        <time>2014-04-13T07:59:48.000Z</time>
      </trkpt>
      <trkpt lat="45.93828" lon="6.21038">
        <ele>964.40002441406</ele>
        <time>2014-04-13T07:59:53.000Z</time>
      </trkpt>
      <trkpt lat="45.93829" lon="6.2104">
        <ele>964.79998779297</ele>
        <time>2014-04-13T07:59:55.000Z</time>
      </trkpt>
      <trkpt lat="45.93829" lon="6.21047">
        <ele>966.79998779297</ele>
        <time>2014-04-13T08:00:00.000Z</time>
      </trkpt>
      <trkpt lat="45.93827" lon="6.21056">
        <ele>969.20001220703</ele>
        <time>2014-04-13T08:00:05.000Z</time>
      </trkpt>
      <trkpt lat="45.9383" lon="6.21056">
        <ele>969</ele>
        <time>2014-04-13T08:00:07.000Z</time>
      </trkpt>
      <trkpt lat="45.93835" lon="6.21057">
        <ele>969</ele>
        <time>2014-04-13T08:00:11.000Z</time>
      </trkpt>
      <trkpt lat="45.9384" lon="6.21059">
        <ele>969.20001220703</ele>
        <time>2014-04-13T08:00:14.000Z</time>
      </trkpt>
      <trkpt lat="45.93843" lon="6.21062">
        <ele>970</ele>
        <time>2014-04-13T08:00:18.000Z</time>
      </trkpt>
      <trkpt lat="45.93847" lon="6.21072">
        <ele>972.20001220703</ele>
        <time>2014-04-13T08:00:26.000Z</time>
      </trkpt>
      <trkpt lat="45.93851" lon="6.2108">
        <ele>974.20001220703</ele>
        <time>2014-04-13T08:00:33.000Z</time>
      </trkpt>
      <trkpt lat="45.93853" lon="6.21083">
        <ele>974.59997558594</ele>
        <time>2014-04-13T08:00:35.000Z</time>
      </trkpt>
      <trkpt lat="45.93857" lon="6.21087">
        <ele>975.79998779297</ele>
        <time>2014-04-13T08:00:40.000Z</time>
      </trkpt>
      <trkpt lat="45.93858" lon="6.21088">
        <ele>976</ele>
        <time>2014-04-13T08:00:41.000Z</time>
      </trkpt>
      <trkpt lat="45.9386" lon="6.21091">
        <ele>976.79998779297</ele>
        <time>2014-04-13T08:00:43.000Z</time>
      </trkpt>
      <trkpt lat="45.93863" lon="6.21094">
        <ele>977.79998779297</ele>
        <time>2014-04-13T08:00:46.000Z</time>
      </trkpt>
      <trkpt lat="45.93864" lon="6.21096">
        <ele>978.40002441406</ele>
        <time>2014-04-13T08:00:47.000Z</time>
      </trkpt>
      <trkpt lat="45.93867" lon="6.21104">
        <ele>980.40002441406</ele>
        <time>2014-04-13T08:00:52.000Z</time>
      </trkpt>
      <trkpt lat="45.9387" lon="6.21108">
        <ele>981.79998779297</ele>
        <time>2014-04-13T08:00:55.000Z</time>
      </trkpt>
      <trkpt lat="45.93872" lon="6.21114">
        <ele>983.59997558594</ele>
        <time>2014-04-13T08:00:59.000Z</time>
      </trkpt>
      <trkpt lat="45.93871" lon="6.21117">
        <ele>984.40002441406</ele>
        <time>2014-04-13T08:01:00.000Z</time>
      </trkpt>
      <trkpt lat="45.93875" lon="6.21114">
        <ele>983.20001220703</ele>
        <time>2014-04-13T08:01:04.000Z</time>
      </trkpt>
      <trkpt lat="45.93876" lon="6.21113">
        <ele>983.20001220703</ele>
        <time>2014-04-13T08:01:05.000Z</time>
      </trkpt>
      <trkpt lat="45.93883" lon="6.21114">
        <ele>983</ele>
        <time>2014-04-13T08:01:09.000Z</time>
      </trkpt>
      <trkpt lat="45.93883" lon="6.21115">
        <ele>983.40002441406</ele>
        <time>2014-04-13T08:01:10.000Z</time>
      </trkpt>
      <trkpt lat="45.93889" lon="6.21118">
        <ele>984</ele>
        <time>2014-04-13T08:01:15.000Z</time>
      </trkpt>
      <trkpt lat="45.93899" lon="6.21126">
        <ele>986.20001220703</ele>
        <time>2014-04-13T08:01:22.000Z</time>
      </trkpt>
      <trkpt lat="45.93904" lon="6.2113">
        <ele>987.40002441406</ele>
        <time>2014-04-13T08:01:28.000Z</time>
      </trkpt>
      <trkpt lat="45.93904" lon="6.21129">
        <ele>986.79998779297</ele>
        <time>2014-04-13T08:01:30.000Z</time>
      </trkpt>
      <trkpt lat="45.93906" lon="6.21129">
        <ele>987</ele>
        <time>2014-04-13T08:01:32.000Z</time>
      </trkpt>
      <trkpt lat="45.93913" lon="6.21134">
        <ele>988.40002441406</ele>
        <time>2014-04-13T08:01:38.000Z</time>
      </trkpt>
      <trkpt lat="45.93916" lon="6.21143">
        <ele>991.20001220703</ele>
        <time>2014-04-13T08:01:42.000Z</time>
      </trkpt>
      <trkpt lat="45.93918" lon="6.21147">
        <ele>992.20001220703</ele>
        <time>2014-04-13T08:01:45.000Z</time>
      </trkpt>
      <trkpt lat="45.93921" lon="6.21152">
        <ele>993.20001220703</ele>
        <time>2014-04-13T08:01:51.000Z</time>
      </trkpt>
      <trkpt lat="45.93929" lon="6.2116">
        <ele>994.40002441406</ele>
        <time>2014-04-13T08:02:00.000Z</time>
      </trkpt>
      <trkpt lat="45.93934" lon="6.21168">
        <ele>996</ele>
        <time>2014-04-13T08:02:07.000Z</time>
      </trkpt>
      <trkpt lat="45.93936" lon="6.21172">
        <ele>997.20001220703</ele>
        <time>2014-04-13T08:02:10.000Z</time>
      </trkpt>
      <trkpt lat="45.93938" lon="6.21176">
        <ele>998.20001220703</ele>
        <time>2014-04-13T08:02:14.000Z</time>
      </trkpt>
      <trkpt lat="45.93938" lon="6.21177">
        <ele>998.59997558594</ele>
        <time>2014-04-13T08:02:16.000Z</time>
      </trkpt>
      <trkpt lat="45.93939" lon="6.21184">
        <ele>1000.5999755859</ele>
        <time>2014-04-13T08:02:21.000Z</time>
      </trkpt>
      <trkpt lat="45.9394" lon="6.21186">
        <ele>1001.200012207</ele>
        <time>2014-04-13T08:02:23.000Z</time>
      </trkpt>
      <trkpt lat="45.93944" lon="6.21188">
        <ele>1001.200012207</ele>
        <time>2014-04-13T08:02:27.000Z</time>
      </trkpt>
      <trkpt lat="45.93944" lon="6.21188">
        <ele>1001</ele>
        <time>2014-04-13T08:02:28.000Z</time>
      </trkpt>
      <trkpt lat="45.93944" lon="6.21188">
        <ele>1001.4000244141</ele>
        <time>2014-04-13T08:02:29.000Z</time>
      </trkpt>
      <trkpt lat="45.93944" lon="6.21193">
        <ele>1003</ele>
        <time>2014-04-13T08:02:31.000Z</time>
      </trkpt>
      <trkpt lat="45.93945" lon="6.21199">
        <ele>1004.5999755859</ele>
        <time>2014-04-13T08:02:34.000Z</time>
      </trkpt>
      <trkpt lat="45.93946" lon="6.212">
        <ele>1004.799987793</ele>
        <time>2014-04-13T08:02:35.000Z</time>
      </trkpt>
      <trkpt lat="45.93947" lon="6.21203">
        <ele>1005.799987793</ele>
        <time>2014-04-13T08:02:37.000Z</time>
      </trkpt>
      <trkpt lat="45.93949" lon="6.21206">
        <ele>1006.4000244141</ele>
        <time>2014-04-13T08:02:40.000Z</time>
      </trkpt>
      <trkpt lat="45.93951" lon="6.21209">
        <ele>1007.200012207</ele>
        <time>2014-04-13T08:02:43.000Z</time>
      </trkpt>
      <trkpt lat="45.93954" lon="6.2122">
        <ele>1010.200012207</ele>
        <time>2014-04-13T08:02:49.000Z</time>
      </trkpt>
      <trkpt lat="45.93955" lon="6.21224">
        <ele>1011.4000244141</ele>
        <time>2014-04-13T08:02:51.000Z</time>
      </trkpt>
      <trkpt lat="45.9396" lon="6.21227">
        <ele>1011.5999755859</ele>
        <time>2014-04-13T08:02:55.000Z</time>
      </trkpt>
      <trkpt lat="45.93962" lon="6.21229">
        <ele>1012</ele>
        <time>2014-04-13T08:02:57.000Z</time>
      </trkpt>
      <trkpt lat="45.93966" lon="6.21235">
        <ele>1013</ele>
        <time>2014-04-13T08:03:02.000Z</time>
      </trkpt>
      <trkpt lat="45.93968" lon="6.21238">
        <ele>1013.799987793</ele>
        <time>2014-04-13T08:03:05.000Z</time>
      </trkpt>
      <trkpt lat="45.9397" lon="6.21245">
        <ele>1015.5999755859</ele>
        <time>2014-04-13T08:03:09.000Z</time>
      </trkpt>
      <trkpt lat="45.93971" lon="6.21247">
        <ele>1016.4000244141</ele>
        <time>2014-04-13T08:03:11.000Z</time>
      </trkpt>
      <trkpt lat="45.93972" lon="6.2125">
        <ele>1017</ele>
        <time>2014-04-13T08:03:14.000Z</time>
      </trkpt>
      <trkpt lat="45.93972" lon="6.21251">
        <ele>1017.200012207</ele>
        <time>2014-04-13T08:03:16.000Z</time>
      </trkpt>
      <trkpt lat="45.93975" lon="6.21254">
        <ele>1017.5999755859</ele>
        <time>2014-04-13T08:03:19.000Z</time>
      </trkpt>
      <trkpt lat="45.93973" lon="6.21259">
        <ele>1019.4000244141</ele>
        <time>2014-04-13T08:03:22.000Z</time>
      </trkpt>
      <trkpt lat="45.93976" lon="6.21264">
        <ele>1020.5999755859</ele>
        <time>2014-04-13T08:03:26.000Z</time>
      </trkpt>
      <trkpt lat="45.9398" lon="6.21266">
        <ele>1020.5999755859</ele>
        <time>2014-04-13T08:03:28.000Z</time>
      </trkpt>
      <trkpt lat="45.93985" lon="6.21269">
        <ele>1020.4000244141</ele>
        <time>2014-04-13T08:03:33.000Z</time>
      </trkpt>
      <trkpt lat="45.93984" lon="6.21269">
        <ele>1020.799987793</ele>
        <time>2014-04-13T08:03:34.000Z</time>
      </trkpt>
      <trkpt lat="45.93986" lon="6.21276">
        <ele>1022.200012207</ele>
        <time>2014-04-13T08:03:37.000Z</time>
      </trkpt>
      <trkpt lat="45.93986" lon="6.21279">
        <ele>1023.200012207</ele>
        <time>2014-04-13T08:03:39.000Z</time>
      </trkpt>
      <trkpt lat="45.93988" lon="6.21284">
        <ele>1024.5999755859</ele>
        <time>2014-04-13T08:03:42.000Z</time>
      </trkpt>
      <trkpt lat="45.93991" lon="6.21288">
        <ele>1025.1999511719</ele>
        <time>2014-04-13T08:03:46.000Z</time>
      </trkpt>
      <trkpt lat="45.93997" lon="6.21295">
        <ele>1026</ele>
        <time>2014-04-13T08:03:52.000Z</time>
      </trkpt>
      <trkpt lat="45.94" lon="6.21302">
        <ele>1027.5999755859</ele>
        <time>2014-04-13T08:03:58.000Z</time>
      </trkpt>
      <trkpt lat="45.94002" lon="6.21302">
        <ele>1027</ele>
        <time>2014-04-13T08:04:00.000Z</time>
      </trkpt>
      <trkpt lat="45.94005" lon="6.21304">
        <ele>1027</ele>
        <time>2014-04-13T08:04:03.000Z</time>
      </trkpt>
      <trkpt lat="45.94006" lon="6.21307">
        <ele>1027.4000244141</ele>
        <time>2014-04-13T08:04:05.000Z</time>
      </trkpt>
      <trkpt lat="45.94007" lon="6.2131">
        <ele>1028.1999511719</ele>
        <time>2014-04-13T08:04:09.000Z</time>
      </trkpt>
      <trkpt lat="45.94008" lon="6.21311">
        <ele>1028.1999511719</ele>
        <time>2014-04-13T08:04:11.000Z</time>
      </trkpt>
      <trkpt lat="45.94003" lon="6.21313">
        <ele>1030</ele>
        <time>2014-04-13T08:04:18.000Z</time>
      </trkpt>
      <trkpt lat="45.94008" lon="6.21313">
        <ele>1029</ele>
        <time>2014-04-13T08:04:22.000Z</time>
      </trkpt>
      <trkpt lat="45.94014" lon="6.21318">
        <ele>1028.8000488281</ele>
        <time>2014-04-13T08:04:27.000Z</time>
      </trkpt>
      <trkpt lat="45.94016" lon="6.21318">
        <ele>1028.4000244141</ele>
        <time>2014-04-13T08:04:29.000Z</time>
      </trkpt>
      <trkpt lat="45.94019" lon="6.2132">
        <ele>1028.4000244141</ele>
        <time>2014-04-13T08:04:35.000Z</time>
      </trkpt>
      <trkpt lat="45.9402" lon="6.21321">
        <ele>1028.5999755859</ele>
        <time>2014-04-13T08:04:36.000Z</time>
      </trkpt>
      <trkpt lat="45.9402" lon="6.21325">
        <ele>1029.5999755859</ele>
        <time>2014-04-13T08:04:42.000Z</time>
      </trkpt>
      <trkpt lat="45.94021" lon="6.21329">
        <ele>1030.8000488281</ele>
        <time>2014-04-13T08:04:45.000Z</time>
      </trkpt>
      <trkpt lat="45.94025" lon="6.21336">
        <ele>1032</ele>
        <time>2014-04-13T08:04:49.000Z</time>
      </trkpt>
      <trkpt lat="45.94025" lon="6.21337">
        <ele>1032.1999511719</ele>
        <time>2014-04-13T08:04:50.000Z</time>
      </trkpt>
      <trkpt lat="45.94026" lon="6.21341">
        <ele>1033</ele>
        <time>2014-04-13T08:04:54.000Z</time>
      </trkpt>
      <trkpt lat="45.94027" lon="6.21343">
        <ele>1033.4000244141</ele>
        <time>2014-04-13T08:04:56.000Z</time>
      </trkpt>
      <trkpt lat="45.9403" lon="6.2135">
        <ele>1034.5999755859</ele>
        <time>2014-04-13T08:05:02.000Z</time>
      </trkpt>
      <trkpt lat="45.9403" lon="6.21354">
        <ele>1035.8000488281</ele>
        <time>2014-04-13T08:05:04.000Z</time>
      </trkpt>
      <trkpt lat="45.9403" lon="6.21355">
        <ele>1036</ele>
        <time>2014-04-13T08:05:10.000Z</time>
      </trkpt>
      <trkpt lat="45.94032" lon="6.21362">
        <ele>1037.1999511719</ele>
        <time>2014-04-13T08:05:17.000Z</time>
      </trkpt>
      <trkpt lat="45.94031" lon="6.21363">
        <ele>1038</ele>
        <time>2014-04-13T08:05:18.000Z</time>
      </trkpt>
      <trkpt lat="45.94028" lon="6.21361">
        <ele>1038.4000244141</ele>
        <time>2014-04-13T08:05:21.000Z</time>
      </trkpt>
      <trkpt lat="45.94032" lon="6.21363">
        <ele>1037.8000488281</ele>
        <time>2014-04-13T08:05:24.000Z</time>
      </trkpt>
      <trkpt lat="45.94032" lon="6.21365">
        <ele>1038.4000244141</ele>
        <time>2014-04-13T08:05:25.000Z</time>
      </trkpt>
      <trkpt lat="45.94034" lon="6.21368">
        <ele>1038.5999755859</ele>
        <time>2014-04-13T08:05:28.000Z</time>
      </trkpt>
      <trkpt lat="45.94039" lon="6.21379">
        <ele>1040.4000244141</ele>
        <time>2014-04-13T08:05:32.000Z</time>
      </trkpt>
      <trkpt lat="45.9404" lon="6.21384">
        <ele>1041.4000244141</ele>
        <time>2014-04-13T08:05:35.000Z</time>
      </trkpt>
      <trkpt lat="45.9404" lon="6.21388">
        <ele>1042.4000244141</ele>
        <time>2014-04-13T08:05:37.000Z</time>
      </trkpt>
      <trkpt lat="45.9404" lon="6.21391">
        <ele>1043.4000244141</ele>
        <time>2014-04-13T08:05:39.000Z</time>
      </trkpt>
      <trkpt lat="45.94039" lon="6.21397">
        <ele>1045.4000244141</ele>
        <time>2014-04-13T08:05:44.000Z</time>
      </trkpt>
      <trkpt lat="45.9404" lon="6.21399">
        <ele>1045.5999755859</ele>
        <time>2014-04-13T08:05:45.000Z</time>
      </trkpt>
      <trkpt lat="45.94041" lon="6.21404">
        <ele>1046.5999755859</ele>
        <time>2014-04-13T08:05:49.000Z</time>
      </trkpt>
      <trkpt lat="45.94042" lon="6.21405">
        <ele>1046.5999755859</ele>
        <time>2014-04-13T08:05:50.000Z</time>
      </trkpt>
      <trkpt lat="45.94042" lon="6.2141">
        <ele>1048.1999511719</ele>
        <time>2014-04-13T08:05:54.000Z</time>
      </trkpt>
      <trkpt lat="45.94043" lon="6.21412">
        <ele>1048.4000244141</ele>
        <time>2014-04-13T08:06:01.000Z</time>
      </trkpt>
      <trkpt lat="45.94044" lon="6.21415">
        <ele>1049</ele>
        <time>2014-04-13T08:06:06.000Z</time>
      </trkpt>
      <trkpt lat="45.94045" lon="6.21418">
        <ele>1049.4000244141</ele>
        <time>2014-04-13T08:06:07.000Z</time>
      </trkpt>
      <trkpt lat="45.94047" lon="6.21421">
        <ele>1049.5999755859</ele>
        <time>2014-04-13T08:06:11.000Z</time>
      </trkpt>
      <trkpt lat="45.94051" lon="6.21426">
        <ele>1049.4000244141</ele>
        <time>2014-04-13T08:06:22.000Z</time>
      </trkpt>
      <trkpt lat="45.94053" lon="6.21428">
        <ele>1049.1999511719</ele>
        <time>2014-04-13T08:06:24.000Z</time>
      </trkpt>
      <trkpt lat="45.94055" lon="6.21434">
        <ele>1050.4000244141</ele>
        <time>2014-04-13T08:06:29.000Z</time>
      </trkpt>
      <trkpt lat="45.94059" lon="6.21442">
        <ele>1051.1999511719</ele>
        <time>2014-04-13T08:06:33.000Z</time>
      </trkpt>
      <trkpt lat="45.94058" lon="6.21444">
        <ele>1051.5999755859</ele>
        <time>2014-04-13T08:06:34.000Z</time>
      </trkpt>
      <trkpt lat="45.9406" lon="6.21448">
        <ele>1052</ele>
        <time>2014-04-13T08:06:36.000Z</time>
      </trkpt>
      <trkpt lat="45.94059" lon="6.21453">
        <ele>1053.5999755859</ele>
        <time>2014-04-13T08:06:38.000Z</time>
      </trkpt>
      <trkpt lat="45.9406" lon="6.21457">
        <ele>1054.4000244141</ele>
        <time>2014-04-13T08:06:40.000Z</time>
      </trkpt>
      <trkpt lat="45.9406" lon="6.21464">
        <ele>1055.8000488281</ele>
        <time>2014-04-13T08:06:44.000Z</time>
      </trkpt>
      <trkpt lat="45.94061" lon="6.21467">
        <ele>1056.1999511719</ele>
        <time>2014-04-13T08:06:49.000Z</time>
      </trkpt>
      <trkpt lat="45.94063" lon="6.21475">
        <ele>1057.1999511719</ele>
        <time>2014-04-13T08:06:54.000Z</time>
      </trkpt>
      <trkpt lat="45.94061" lon="6.21479">
        <ele>1058.8000488281</ele>
        <time>2014-04-13T08:06:56.000Z</time>
      </trkpt>
      <trkpt lat="45.94058" lon="6.21482">
        <ele>1061.4000244141</ele>
        <time>2014-04-13T08:07:00.000Z</time>
      </trkpt>
      <trkpt lat="45.94055" lon="6.21486">
        <ele>1063.5999755859</ele>
        <time>2014-04-13T08:07:03.000Z</time>
      </trkpt>
      <trkpt lat="45.94057" lon="6.21488">
        <ele>1063.4000244141</ele>
        <time>2014-04-13T08:07:04.000Z</time>
      </trkpt>
      <trkpt lat="45.9406" lon="6.215">
        <ele>1064.8000488281</ele>
        <time>2014-04-13T08:07:10.000Z</time>
      </trkpt>
      <trkpt lat="45.94061" lon="6.21503">
        <ele>1065</ele>
        <time>2014-04-13T08:07:11.000Z</time>
      </trkpt>
      <trkpt lat="45.94061" lon="6.21505">
        <ele>1065.8000488281</ele>
        <time>2014-04-13T08:07:12.000Z</time>
      </trkpt>
      <trkpt lat="45.94063" lon="6.21506">
        <ele>1065.1999511719</ele>
        <time>2014-04-13T08:07:14.000Z</time>
      </trkpt>
      <trkpt lat="45.94064" lon="6.21508">
        <ele>1065.1999511719</ele>
        <time>2014-04-13T08:07:18.000Z</time>
      </trkpt>
      <trkpt lat="45.94066" lon="6.21512">
        <ele>1065.1999511719</ele>
        <time>2014-04-13T08:07:21.000Z</time>
      </trkpt>
      <trkpt lat="45.94067" lon="6.21513">
        <ele>1065.1999511719</ele>
        <time>2014-04-13T08:07:22.000Z</time>
      </trkpt>
      <trkpt lat="45.94068" lon="6.2152">
        <ele>1066.5999755859</ele>
        <time>2014-04-13T08:07:25.000Z</time>
      </trkpt>
      <trkpt lat="45.9407" lon="6.21528">
        <ele>1068.4000244141</ele>
        <time>2014-04-13T08:07:28.000Z</time>
      </trkpt>
      <trkpt lat="45.94069" lon="6.21538">
        <ele>1071.8000488281</ele>
        <time>2014-04-13T08:07:34.000Z</time>
      </trkpt>
      <trkpt lat="45.9407" lon="6.21547">
        <ele>1073.5999755859</ele>
        <time>2014-04-13T08:07:38.000Z</time>
      </trkpt>
      <trkpt lat="45.94071" lon="6.21548">
        <ele>1073.4000244141</ele>
        <time>2014-04-13T08:07:39.000Z</time>
      </trkpt>
      <trkpt lat="45.94071" lon="6.2155">
        <ele>1074</ele>
        <time>2014-04-13T08:07:40.000Z</time>
      </trkpt>
      <trkpt lat="45.94072" lon="6.21556">
        <ele>1075.5999755859</ele>
        <time>2014-04-13T08:07:44.000Z</time>
      </trkpt>
      <trkpt lat="45.94079" lon="6.21567">
        <ele>1074.4000244141</ele>
        <time>2014-04-13T08:07:51.000Z</time>
      </trkpt>
      <trkpt lat="45.94083" lon="6.21577">
        <ele>1074.5999755859</ele>
        <time>2014-04-13T08:07:57.000Z</time>
      </trkpt>
      <trkpt lat="45.94084" lon="6.21578">
        <ele>1074.1999511719</ele>
        <time>2014-04-13T08:07:58.000Z</time>
      </trkpt>
      <trkpt lat="45.94085" lon="6.21585">
        <ele>1075.5999755859</ele>
        <time>2014-04-13T08:08:02.000Z</time>
      </trkpt>
      <trkpt lat="45.94086" lon="6.21597">
        <ele>1079.4000244141</ele>
        <time>2014-04-13T08:08:07.000Z</time>
      </trkpt>
      <trkpt lat="45.94086" lon="6.21599">
        <ele>1080</ele>
        <time>2014-04-13T08:08:08.000Z</time>
      </trkpt>
      <trkpt lat="45.94088" lon="6.21605">
        <ele>1080.5999755859</ele>
        <time>2014-04-13T08:08:12.000Z</time>
      </trkpt>
      <trkpt lat="45.9409" lon="6.21613">
        <ele>1082.4000244141</ele>
        <time>2014-04-13T08:08:16.000Z</time>
      </trkpt>
      <trkpt lat="45.94095" lon="6.21622">
        <ele>1083.1999511719</ele>
        <time>2014-04-13T08:08:22.000Z</time>
      </trkpt>
      <trkpt lat="45.94096" lon="6.21624">
        <ele>1083</ele>
        <time>2014-04-13T08:08:23.000Z</time>
      </trkpt>
      <trkpt lat="45.94098" lon="6.21625">
        <ele>1082</ele>
        <time>2014-04-13T08:08:24.000Z</time>
      </trkpt>
      <trkpt lat="45.94101" lon="6.21635">
        <ele>1084</ele>
        <time>2014-04-13T08:08:28.000Z</time>
      </trkpt>
      <trkpt lat="45.94101" lon="6.21637">
        <ele>1084.8000488281</ele>
        <time>2014-04-13T08:08:29.000Z</time>
      </trkpt>
      <trkpt lat="45.94103" lon="6.21653">
        <ele>1089</ele>
        <time>2014-04-13T08:08:37.000Z</time>
      </trkpt>
      <trkpt lat="45.94107" lon="6.21665">
        <ele>1091</ele>
        <time>2014-04-13T08:08:44.000Z</time>
      </trkpt>
      <trkpt lat="45.94112" lon="6.21679">
        <ele>1091</ele>
        <time>2014-04-13T08:08:51.000Z</time>
      </trkpt>
      <trkpt lat="45.94113" lon="6.21695">
        <ele>1094.1999511719</ele>
        <time>2014-04-13T08:08:58.000Z</time>
      </trkpt>
      <trkpt lat="45.94116" lon="6.21709">
        <ele>1095.1999511719</ele>
        <time>2014-04-13T08:09:04.000Z</time>
      </trkpt>
      <trkpt lat="45.94117" lon="6.2171">
        <ele>1094.8000488281</ele>
        <time>2014-04-13T08:09:05.000Z</time>
      </trkpt>
      <trkpt lat="45.94118" lon="6.21723">
        <ele>1097.1999511719</ele>
        <time>2014-04-13T08:09:10.000Z</time>
      </trkpt>
      <trkpt lat="45.9412" lon="6.21734">
        <ele>1099</ele>
        <time>2014-04-13T08:09:16.000Z</time>
      </trkpt>
      <trkpt lat="45.9412" lon="6.21737">
        <ele>1099.1999511719</ele>
        <time>2014-04-13T08:09:17.000Z</time>
      </trkpt>
      <trkpt lat="45.94126" lon="6.21752">
        <ele>1099.1999511719</ele>
        <time>2014-04-13T08:09:23.000Z</time>
      </trkpt>
      <trkpt lat="45.94126" lon="6.21762">
        <ele>1099.8000488281</ele>
        <time>2014-04-13T08:09:28.000Z</time>
      </trkpt>
      <trkpt lat="45.94125" lon="6.21768">
        <ele>1100.8000488281</ele>
        <time>2014-04-13T08:09:30.000Z</time>
      </trkpt>
      <trkpt lat="45.94123" lon="6.21774">
        <ele>1102</ele>
        <time>2014-04-13T08:09:32.000Z</time>
      </trkpt>
      <trkpt lat="45.94124" lon="6.21784">
        <ele>1102.5999755859</ele>
        <time>2014-04-13T08:09:36.000Z</time>
      </trkpt>
      <trkpt lat="45.94125" lon="6.2179">
        <ele>1102.1999511719</ele>
        <time>2014-04-13T08:09:42.000Z</time>
      </trkpt>
      <trkpt lat="45.94127" lon="6.21797">
        <ele>1101.5999755859</ele>
        <time>2014-04-13T08:09:47.000Z</time>
      </trkpt>
      <trkpt lat="45.94126" lon="6.21808">
        <ele>1102.8000488281</ele>
        <time>2014-04-13T08:09:54.000Z</time>
      </trkpt>
      <trkpt lat="45.94126" lon="6.21814">
        <ele>1103</ele>
        <time>2014-04-13T08:09:59.000Z</time>
      </trkpt>
      <trkpt lat="45.94126" lon="6.21821">
        <ele>1103.5999755859</ele>
        <time>2014-04-13T08:10:02.000Z</time>
      </trkpt>
      <trkpt lat="45.94128" lon="6.2183">
        <ele>1103.1999511719</ele>
        <time>2014-04-13T08:10:07.000Z</time>
      </trkpt>
      <trkpt lat="45.94128" lon="6.21838">
        <ele>1103.5999755859</ele>
        <time>2014-04-13T08:10:12.000Z</time>
      </trkpt>
      <trkpt lat="45.94127" lon="6.21847">
        <ele>1104</ele>
        <time>2014-04-13T08:10:18.000Z</time>
      </trkpt>
      <trkpt lat="45.94125" lon="6.21851">
        <ele>1105.4000244141</ele>
        <time>2014-04-13T08:10:20.000Z</time>
      </trkpt>
      <trkpt lat="45.9412" lon="6.2186">
        <ele>1108.4000244141</ele>
        <time>2014-04-13T08:10:26.000Z</time>
      </trkpt>
      <trkpt lat="45.94119" lon="6.2186">
        <ele>1108.5999755859</ele>
        <time>2014-04-13T08:10:27.000Z</time>
      </trkpt>
      <trkpt lat="45.94118" lon="6.2186">
        <ele>1109.1999511719</ele>
        <time>2014-04-13T08:10:28.000Z</time>
      </trkpt>
      <trkpt lat="45.94117" lon="6.21863">
        <ele>1109.8000488281</ele>
        <time>2014-04-13T08:10:30.000Z</time>
      </trkpt>
      <trkpt lat="45.94118" lon="6.21864">
        <ele>1109.5999755859</ele>
        <time>2014-04-13T08:10:31.000Z</time>
      </trkpt>
      <trkpt lat="45.94117" lon="6.21866">
        <ele>1110</ele>
        <time>2014-04-13T08:10:32.000Z</time>
      </trkpt>
      <trkpt lat="45.94115" lon="6.21874">
        <ele>1111</ele>
        <time>2014-04-13T08:10:37.000Z</time>
      </trkpt>
      <trkpt lat="45.94113" lon="6.21883">
        <ele>1112</ele>
        <time>2014-04-13T08:10:42.000Z</time>
      </trkpt>
      <trkpt lat="45.94112" lon="6.21887">
        <ele>1113</ele>
        <time>2014-04-13T08:10:44.000Z</time>
      </trkpt>
      <trkpt lat="45.94111" lon="6.2189">
        <ele>1113.1999511719</ele>
        <time>2014-04-13T08:10:45.000Z</time>
      </trkpt>
      <trkpt lat="45.94113" lon="6.21898">
        <ele>1112.1999511719</ele>
        <time>2014-04-13T08:10:48.000Z</time>
      </trkpt>
      <trkpt lat="45.94112" lon="6.21904">
        <ele>1113.1999511719</ele>
        <time>2014-04-13T08:10:51.000Z</time>
      </trkpt>
      <trkpt lat="45.94113" lon="6.2191">
        <ele>1112.8000488281</ele>
        <time>2014-04-13T08:10:54.000Z</time>
      </trkpt>
      <trkpt lat="45.94112" lon="6.21916">
        <ele>1113.1999511719</ele>
        <time>2014-04-13T08:10:59.000Z</time>
      </trkpt>
      <trkpt lat="45.9411" lon="6.2192">
        <ele>1114</ele>
        <time>2014-04-13T08:11:04.000Z</time>
      </trkpt>
      <trkpt lat="45.94111" lon="6.21921">
        <ele>1114</ele>
        <time>2014-04-13T08:11:05.000Z</time>
      </trkpt>
      <trkpt lat="45.94112" lon="6.21929">
        <ele>1113.1999511719</ele>
        <time>2014-04-13T08:11:10.000Z</time>
      </trkpt>
      <trkpt lat="45.94112" lon="6.21933">
        <ele>1113.5999755859</ele>
        <time>2014-04-13T08:11:12.000Z</time>
      </trkpt>
      <trkpt lat="45.94112" lon="6.21937">
        <ele>1113.4000244141</ele>
        <time>2014-04-13T08:11:15.000Z</time>
      </trkpt>
      <trkpt lat="45.9411" lon="6.2194">
        <ele>1114.1999511719</ele>
        <time>2014-04-13T08:11:17.000Z</time>
      </trkpt>
      <trkpt lat="45.94109" lon="6.21941">
        <ele>1114.8000488281</ele>
        <time>2014-04-13T08:11:18.000Z</time>
      </trkpt>
      <trkpt lat="45.94107" lon="6.21946">
        <ele>1115.8000488281</ele>
        <time>2014-04-13T08:11:22.000Z</time>
      </trkpt>
      <trkpt lat="45.94107" lon="6.21952">
        <ele>1115.8000488281</ele>
        <time>2014-04-13T08:11:25.000Z</time>
      </trkpt>
      <trkpt lat="45.94108" lon="6.21956">
        <ele>1115.5999755859</ele>
        <time>2014-04-13T08:11:27.000Z</time>
      </trkpt>
      <trkpt lat="45.94108" lon="6.21961">
        <ele>1115.4000244141</ele>
        <time>2014-04-13T08:11:30.000Z</time>
      </trkpt>
      <trkpt lat="45.94106" lon="6.21971">
        <ele>1116.1999511719</ele>
        <time>2014-04-13T08:11:36.000Z</time>
      </trkpt>
      <trkpt lat="45.94105" lon="6.21981">
        <ele>1117</ele>
        <time>2014-04-13T08:11:41.000Z</time>
      </trkpt>
      <trkpt lat="45.94107" lon="6.21993">
        <ele>1116</ele>
        <time>2014-04-13T08:11:46.000Z</time>
      </trkpt>
      <trkpt lat="45.94111" lon="6.22003">
        <ele>1114.5999755859</ele>
        <time>2014-04-13T08:11:52.000Z</time>
      </trkpt>
      <trkpt lat="45.94115" lon="6.22015">
        <ele>1113</ele>
        <time>2014-04-13T08:11:59.000Z</time>
      </trkpt>
      <trkpt lat="45.9411" lon="6.22028">
        <ele>1114.4000244141</ele>
        <time>2014-04-13T08:12:06.000Z</time>
      </trkpt>
      <trkpt lat="45.94104" lon="6.22039">
        <ele>1115.8000488281</ele>
        <time>2014-04-13T08:12:13.000Z</time>
      </trkpt>
      <trkpt lat="45.941" lon="6.22053">
        <ele>1116.4000244141</ele>
        <time>2014-04-13T08:12:21.000Z</time>
      </trkpt>
      <trkpt lat="45.94098" lon="6.22066">
        <ele>1116</ele>
        <time>2014-04-13T08:12:27.000Z</time>
      </trkpt>
      <trkpt lat="45.94099" lon="6.22084">
        <ele>1115</ele>
        <time>2014-04-13T08:12:34.000Z</time>
      </trkpt>
      <trkpt lat="45.941" lon="6.22102">
        <ele>1116.1999511719</ele>
        <time>2014-04-13T08:12:42.000Z</time>
      </trkpt>
      <trkpt lat="45.94105" lon="6.22112">
        <ele>1116.4000244141</ele>
        <time>2014-04-13T08:12:49.000Z</time>
      </trkpt>
      <trkpt lat="45.94107" lon="6.22126">
        <ele>1117.1999511719</ele>
        <time>2014-04-13T08:12:56.000Z</time>
      </trkpt>
      <trkpt lat="45.94109" lon="6.2213">
        <ele>1117.4000244141</ele>
        <time>2014-04-13T08:13:00.000Z</time>
      </trkpt>
      <trkpt lat="45.9411" lon="6.22135">
        <ele>1117.5999755859</ele>
        <time>2014-04-13T08:13:03.000Z</time>
      </trkpt>
      <trkpt lat="45.94112" lon="6.22144">
        <ele>1118.1999511719</ele>
        <time>2014-04-13T08:13:10.000Z</time>
      </trkpt>
      <trkpt lat="45.94112" lon="6.22146">
        <ele>1118.1999511719</ele>
        <time>2014-04-13T08:13:12.000Z</time>
      </trkpt>
      <trkpt lat="45.94113" lon="6.22154">
        <ele>1118.8000488281</ele>
        <time>2014-04-13T08:13:18.000Z</time>
      </trkpt>
      <trkpt lat="45.94114" lon="6.22164">
        <ele>1119.5999755859</ele>
        <time>2014-04-13T08:13:24.000Z</time>
      </trkpt>
      <trkpt lat="45.94111" lon="6.22181">
        <ele>1120</ele>
        <time>2014-04-13T08:13:32.000Z</time>
      </trkpt>
      <trkpt lat="45.94109" lon="6.22184">
        <ele>1120</ele>
        <time>2014-04-13T08:13:37.000Z</time>
      </trkpt>
      <trkpt lat="45.94106" lon="6.22189">
        <ele>1120.1999511719</ele>
        <time>2014-04-13T08:13:43.000Z</time>
      </trkpt>
      <trkpt lat="45.94104" lon="6.222">
        <ele>1120.1999511719</ele>
        <time>2014-04-13T08:13:49.000Z</time>
      </trkpt>
      <trkpt lat="45.94103" lon="6.22203">
        <ele>1120.1999511719</ele>
        <time>2014-04-13T08:13:52.000Z</time>
      </trkpt>
      <trkpt lat="45.94105" lon="6.22208">
        <ele>1120</ele>
        <time>2014-04-13T08:13:55.000Z</time>
      </trkpt>
      <trkpt lat="45.94106" lon="6.2221">
        <ele>1120</ele>
        <time>2014-04-13T08:13:57.000Z</time>
      </trkpt>
      <trkpt lat="45.94106" lon="6.22214">
        <ele>1119.8000488281</ele>
        <time>2014-04-13T08:14:00.000Z</time>
      </trkpt>
      <trkpt lat="45.94105" lon="6.22216">
        <ele>1119.8000488281</ele>
        <time>2014-04-13T08:14:02.000Z</time>
      </trkpt>
      <trkpt lat="45.94102" lon="6.22218">
        <ele>1119.8000488281</ele>
        <time>2014-04-13T08:14:05.000Z</time>
      </trkpt>
      <trkpt lat="45.94099" lon="6.22217">
        <ele>1119.8000488281</ele>
        <time>2014-04-13T08:14:09.000Z</time>
      </trkpt>
      <trkpt lat="45.94099" lon="6.22217">
        <ele>1119.8000488281</ele>
        <time>2014-04-13T08:14:10.000Z</time>
      </trkpt>
      <trkpt lat="45.94098" lon="6.22215">
        <ele>1120</ele>
        <time>2014-04-13T08:14:16.000Z</time>
      </trkpt>
      <trkpt lat="45.9409" lon="6.22214">
        <ele>1120</ele>
        <time>2014-04-13T08:14:22.000Z</time>
      </trkpt>
      <trkpt lat="45.94079" lon="6.22208">
        <ele>1120.8000488281</ele>
        <time>2014-04-13T08:14:30.000Z</time>
      </trkpt>
      <trkpt lat="45.9407" lon="6.22201">
        <ele>1122</ele>
        <time>2014-04-13T08:14:37.000Z</time>
      </trkpt>
      <trkpt lat="45.94062" lon="6.22196">
        <ele>1123.4000244141</ele>
        <time>2014-04-13T08:14:44.000Z</time>
      </trkpt>
      <trkpt lat="45.94051" lon="6.2219">
        <ele>1125.1999511719</ele>
        <time>2014-04-13T08:14:52.000Z</time>
      </trkpt>
      <trkpt lat="45.94039" lon="6.22184">
        <ele>1127.5999755859</ele>
        <time>2014-04-13T08:15:00.000Z</time>
      </trkpt>
      <trkpt lat="45.94027" lon="6.22177">
        <ele>1130.4000244141</ele>
        <time>2014-04-13T08:15:07.000Z</time>
      </trkpt>
      <trkpt lat="45.94015" lon="6.22169">
        <ele>1134</ele>
        <time>2014-04-13T08:15:14.000Z</time>
      </trkpt>
      <trkpt lat="45.94012" lon="6.22167">
        <ele>1135</ele>
        <time>2014-04-13T08:15:16.000Z</time>
      </trkpt>
      <trkpt lat="45.94005" lon="6.22163">
        <ele>1136.1999511719</ele>
        <time>2014-04-13T08:15:20.000Z</time>
      </trkpt>
      <trkpt lat="45.93995" lon="6.22158">
        <ele>1137</ele>
        <time>2014-04-13T08:15:26.000Z</time>
      </trkpt>
      <trkpt lat="45.93993" lon="6.22158">
        <ele>1137.1999511719</ele>
        <time>2014-04-13T08:15:27.000Z</time>
      </trkpt>
      <trkpt lat="45.93988" lon="6.22156">
        <ele>1137.1999511719</ele>
        <time>2014-04-13T08:15:31.000Z</time>
      </trkpt>
      <trkpt lat="45.93986" lon="6.22155">
        <ele>1137.4000244141</ele>
        <time>2014-04-13T08:15:32.000Z</time>
      </trkpt>
      <trkpt lat="45.93978" lon="6.22147">
        <ele>1137.8000488281</ele>
        <time>2014-04-13T08:15:38.000Z</time>
      </trkpt>
      <trkpt lat="45.9397" lon="6.22135">
        <ele>1138.8000488281</ele>
        <time>2014-04-13T08:15:43.000Z</time>
      </trkpt>
      <trkpt lat="45.9396" lon="6.22121">
        <ele>1140.4000244141</ele>
        <time>2014-04-13T08:15:50.000Z</time>
      </trkpt>
      <trkpt lat="45.93951" lon="6.22112">
        <ele>1142</ele>
        <time>2014-04-13T08:15:57.000Z</time>
      </trkpt>
      <trkpt lat="45.93942" lon="6.22101">
        <ele>1144.1999511719</ele>
        <time>2014-04-13T08:16:05.000Z</time>
      </trkpt>
      <trkpt lat="45.93932" lon="6.22091">
        <ele>1146.8000488281</ele>
        <time>2014-04-13T08:16:12.000Z</time>
      </trkpt>
      <trkpt lat="45.93922" lon="6.22086">
        <ele>1148.8000488281</ele>
        <time>2014-04-13T08:16:19.000Z</time>
      </trkpt>
      <trkpt lat="45.93914" lon="6.22079">
        <ele>1150.8000488281</ele>
        <time>2014-04-13T08:16:25.000Z</time>
      </trkpt>
      <trkpt lat="45.93905" lon="6.2207">
        <ele>1152.5999755859</ele>
        <time>2014-04-13T08:16:31.000Z</time>
      </trkpt>
      <trkpt lat="45.93896" lon="6.22064">
        <ele>1153.8000488281</ele>
        <time>2014-04-13T08:16:37.000Z</time>
      </trkpt>
      <trkpt lat="45.9389" lon="6.22055">
        <ele>1155</ele>
        <time>2014-04-13T08:16:42.000Z</time>
      </trkpt>
      <trkpt lat="45.93884" lon="6.22049">
        <ele>1155.8000488281</ele>
        <time>2014-04-13T08:16:47.000Z</time>
      </trkpt>
      <trkpt lat="45.93884" lon="6.22048">
        <ele>1156</ele>
        <time>2014-04-13T08:16:48.000Z</time>
      </trkpt>
      <trkpt lat="45.9388" lon="6.22044">
        <ele>1156.5999755859</ele>
        <time>2014-04-13T08:16:52.000Z</time>
      </trkpt>
      <trkpt lat="45.93879" lon="6.22041">
        <ele>1156.8000488281</ele>
        <time>2014-04-13T08:16:54.000Z</time>
      </trkpt>
      <trkpt lat="45.93876" lon="6.22032">
        <ele>1157.5999755859</ele>
        <time>2014-04-13T08:16:59.000Z</time>
      </trkpt>
      <trkpt lat="45.93874" lon="6.22031">
        <ele>1157.5999755859</ele>
        <time>2014-04-13T08:17:00.000Z</time>
      </trkpt>
      <trkpt lat="45.9387" lon="6.22024">
        <ele>1158.1999511719</ele>
        <time>2014-04-13T08:17:04.000Z</time>
      </trkpt>
      <trkpt lat="45.93864" lon="6.22011">
        <ele>1159.1999511719</ele>
        <time>2014-04-13T08:17:11.000Z</time>
      </trkpt>
      <trkpt lat="45.93858" lon="6.21993">
        <ele>1160.8000488281</ele>
        <time>2014-04-13T08:17:17.000Z</time>
      </trkpt>
      <trkpt lat="45.93858" lon="6.21987">
        <ele>1162</ele>
        <time>2014-04-13T08:17:20.000Z</time>
      </trkpt>
      <trkpt lat="45.93855" lon="6.2198">
        <ele>1163.1999511719</ele>
        <time>2014-04-13T08:17:22.000Z</time>
      </trkpt>
      <trkpt lat="45.93852" lon="6.21976">
        <ele>1163.8000488281</ele>
        <time>2014-04-13T08:17:24.000Z</time>
      </trkpt>
      <trkpt lat="45.93846" lon="6.21971">
        <ele>1164.5999755859</ele>
        <time>2014-04-13T08:17:28.000Z</time>
      </trkpt>
      <trkpt lat="45.9384" lon="6.21959">
        <ele>1166.1999511719</ele>
        <time>2014-04-13T08:17:35.000Z</time>
      </trkpt>
      <trkpt lat="45.93837" lon="6.21949">
        <ele>1167.5999755859</ele>
        <time>2014-04-13T08:17:42.000Z</time>
      </trkpt>
      <trkpt lat="45.93837" lon="6.21948">
        <ele>1167.8000488281</ele>
        <time>2014-04-13T08:17:43.000Z</time>
      </trkpt>
      <trkpt lat="45.93838" lon="6.21942">
        <ele>1168.8000488281</ele>
        <time>2014-04-13T08:17:48.000Z</time>
      </trkpt>
      <trkpt lat="45.93838" lon="6.21933">
        <ele>1170</ele>
        <time>2014-04-13T08:17:53.000Z</time>
      </trkpt>
      <trkpt lat="45.93839" lon="6.21929">
        <ele>1170.8000488281</ele>
        <time>2014-04-13T08:17:58.000Z</time>
      </trkpt>
      <trkpt lat="45.93838" lon="6.21927">
        <ele>1171</ele>
        <time>2014-04-13T08:18:00.000Z</time>
      </trkpt>
      <trkpt lat="45.93838" lon="6.21924">
        <ele>1171.4000244141</ele>
        <time>2014-04-13T08:18:01.000Z</time>
      </trkpt>
      <trkpt lat="45.9384" lon="6.21918">
        <ele>1172.4000244141</ele>
        <time>2014-04-13T08:18:06.000Z</time>
      </trkpt>
      <trkpt lat="45.9384" lon="6.2191">
        <ele>1175.4000244141</ele>
        <time>2014-04-13T08:18:12.000Z</time>
      </trkpt>
      <trkpt lat="45.93839" lon="6.21905">
        <ele>1177.5999755859</ele>
        <time>2014-04-13T08:18:17.000Z</time>
      </trkpt>
      <trkpt lat="45.93839" lon="6.21904">
        <ele>1177.8000488281</ele>
        <time>2014-04-13T08:18:18.000Z</time>
      </trkpt>
      <trkpt lat="45.93835" lon="6.219">
        <ele>1179.4000244141</ele>
        <time>2014-04-13T08:18:23.000Z</time>
      </trkpt>
      <trkpt lat="45.93835" lon="6.21899">
        <ele>1179.8000488281</ele>
        <time>2014-04-13T08:18:24.000Z</time>
      </trkpt>
      <trkpt lat="45.93836" lon="6.21894">
        <ele>1181.5999755859</ele>
        <time>2014-04-13T08:18:28.000Z</time>
      </trkpt>
      <trkpt lat="45.93835" lon="6.21894">
        <ele>1181.4000244141</ele>
        <time>2014-04-13T08:18:30.000Z</time>
      </trkpt>
      <trkpt lat="45.93834" lon="6.21893">
        <ele>1181.8000488281</ele>
        <time>2014-04-13T08:18:33.000Z</time>
      </trkpt>
      <trkpt lat="45.93832" lon="6.21894">
        <ele>1181</ele>
        <time>2014-04-13T08:18:36.000Z</time>
      </trkpt>
      <trkpt lat="45.93833" lon="6.21893">
        <ele>1181.8000488281</ele>
        <time>2014-04-13T08:18:40.000Z</time>
      </trkpt>
      <trkpt lat="45.93838" lon="6.21888">
        <ele>1184.4000244141</ele>
        <time>2014-04-13T08:18:48.000Z</time>
      </trkpt>
      <trkpt lat="45.93839" lon="6.21886">
        <ele>1185.4000244141</ele>
        <time>2014-04-13T08:18:49.000Z</time>
      </trkpt>
      <trkpt lat="45.93838" lon="6.21879">
        <ele>1188</ele>
        <time>2014-04-13T08:18:52.000Z</time>
      </trkpt>
      <trkpt lat="45.93837" lon="6.21878">
        <ele>1188.8000488281</ele>
        <time>2014-04-13T08:18:54.000Z</time>
      </trkpt>
      <trkpt lat="45.93839" lon="6.21877">
        <ele>1189.1999511719</ele>
        <time>2014-04-13T08:18:55.000Z</time>
      </trkpt>
      <trkpt lat="45.93841" lon="6.21874">
        <ele>1190.4000244141</ele>
        <time>2014-04-13T08:18:57.000Z</time>
      </trkpt>
      <trkpt lat="45.93841" lon="6.21871">
        <ele>1191.8000488281</ele>
        <time>2014-04-13T08:18:59.000Z</time>
      </trkpt>
      <trkpt lat="45.93839" lon="6.21863">
        <ele>1194.8000488281</ele>
        <time>2014-04-13T08:19:05.000Z</time>
      </trkpt>
      <trkpt lat="45.93835" lon="6.21861">
        <ele>1195.4000244141</ele>
        <time>2014-04-13T08:19:08.000Z</time>
      </trkpt>
      <trkpt lat="45.93833" lon="6.21859">
        <ele>1196.1999511719</ele>
        <time>2014-04-13T08:19:10.000Z</time>
      </trkpt>
      <trkpt lat="45.93832" lon="6.21855">
        <ele>1197</ele>
        <time>2014-04-13T08:19:13.000Z</time>
      </trkpt>
      <trkpt lat="45.9383" lon="6.21852">
        <ele>1198</ele>
        <time>2014-04-13T08:19:17.000Z</time>
      </trkpt>
      <trkpt lat="45.93828" lon="6.21851">
        <ele>1197.4000244141</ele>
        <time>2014-04-13T08:19:18.000Z</time>
      </trkpt>
      <trkpt lat="45.93828" lon="6.21849">
        <ele>1198.4000244141</ele>
        <time>2014-04-13T08:19:20.000Z</time>
      </trkpt>
      <trkpt lat="45.93828" lon="6.21847">
        <ele>1199.1999511719</ele>
        <time>2014-04-13T08:19:23.000Z</time>
      </trkpt>
      <trkpt lat="45.93826" lon="6.21846">
        <ele>1199</ele>
        <time>2014-04-13T08:19:24.000Z</time>
      </trkpt>
      <trkpt lat="45.93824" lon="6.2184">
        <ele>1200.4000244141</ele>
        <time>2014-04-13T08:19:29.000Z</time>
      </trkpt>
      <trkpt lat="45.93823" lon="6.2184">
        <ele>1200.4000244141</ele>
        <time>2014-04-13T08:19:30.000Z</time>
      </trkpt>
      <trkpt lat="45.93824" lon="6.21835">
        <ele>1202.5999755859</ele>
        <time>2014-04-13T08:19:31.000Z</time>
      </trkpt>
      <trkpt lat="45.93824" lon="6.21829">
        <ele>1204.1999511719</ele>
        <time>2014-04-13T08:19:34.000Z</time>
      </trkpt>
      <trkpt lat="45.93824" lon="6.21827">
        <ele>1204.4000244141</ele>
        <time>2014-04-13T08:19:35.000Z</time>
      </trkpt>
      <trkpt lat="45.93822" lon="6.2182">
        <ele>1205.5999755859</ele>
        <time>2014-04-13T08:19:39.000Z</time>
      </trkpt>
      <trkpt lat="45.93822" lon="6.21817">
        <ele>1206</ele>
        <time>2014-04-13T08:19:42.000Z</time>
      </trkpt>
      <trkpt lat="45.93818" lon="6.21813">
        <ele>1206</ele>
        <time>2014-04-13T08:19:45.000Z</time>
      </trkpt>
      <trkpt lat="45.93816" lon="6.21811">
        <ele>1205.8000488281</ele>
        <time>2014-04-13T08:19:48.000Z</time>
      </trkpt>
      <trkpt lat="45.93812" lon="6.21805">
        <ele>1206.4000244141</ele>
        <time>2014-04-13T08:19:54.000Z</time>
      </trkpt>
      <trkpt lat="45.93812" lon="6.21801">
        <ele>1207.4000244141</ele>
        <time>2014-04-13T08:19:58.000Z</time>
      </trkpt>
      <trkpt lat="45.93811" lon="6.21798">
        <ele>1207.8000488281</ele>
        <time>2014-04-13T08:20:00.000Z</time>
      </trkpt>
      <trkpt lat="45.93807" lon="6.21792">
        <ele>1208.5999755859</ele>
        <time>2014-04-13T08:20:06.000Z</time>
      </trkpt>
      <trkpt lat="45.93806" lon="6.2179">
        <ele>1209.1999511719</ele>
        <time>2014-04-13T08:20:07.000Z</time>
      </trkpt>
      <trkpt lat="45.93806" lon="6.21787">
        <ele>1210.1999511719</ele>
        <time>2014-04-13T08:20:09.000Z</time>
      </trkpt>
      <trkpt lat="45.93805" lon="6.21785">
        <ele>1210.8000488281</ele>
        <time>2014-04-13T08:20:11.000Z</time>
      </trkpt>
      <trkpt lat="45.93803" lon="6.2178">
        <ele>1211.5999755859</ele>
        <time>2014-04-13T08:20:15.000Z</time>
      </trkpt>
      <trkpt lat="45.938" lon="6.21771">
        <ele>1214.1999511719</ele>
        <time>2014-04-13T08:20:19.000Z</time>
      </trkpt>
      <trkpt lat="45.93797" lon="6.21758">
        <ele>1218.4000244141</ele>
        <time>2014-04-13T08:20:26.000Z</time>
      </trkpt>
      <trkpt lat="45.93794" lon="6.21755">
        <ele>1219.4000244141</ele>
        <time>2014-04-13T08:20:29.000Z</time>
      </trkpt>
      <trkpt lat="45.93793" lon="6.21754">
        <ele>1219.5999755859</ele>
        <time>2014-04-13T08:20:30.000Z</time>
      </trkpt>
      <trkpt lat="45.93791" lon="6.21753">
        <ele>1220</ele>
        <time>2014-04-13T08:20:31.000Z</time>
      </trkpt>
      <trkpt lat="45.93789" lon="6.2175">
        <ele>1221</ele>
        <time>2014-04-13T08:20:34.000Z</time>
      </trkpt>
      <trkpt lat="45.93786" lon="6.21746">
        <ele>1220.8000488281</ele>
        <time>2014-04-13T08:20:36.000Z</time>
      </trkpt>
      <trkpt lat="45.93784" lon="6.21743">
        <ele>1220.8000488281</ele>
        <time>2014-04-13T08:20:38.000Z</time>
      </trkpt>
      <trkpt lat="45.93781" lon="6.2174">
        <ele>1220.8000488281</ele>
        <time>2014-04-13T08:20:41.000Z</time>
      </trkpt>
      <trkpt lat="45.93779" lon="6.21735">
        <ele>1220.8000488281</ele>
        <time>2014-04-13T08:20:43.000Z</time>
      </trkpt>
      <trkpt lat="45.93774" lon="6.21731">
        <ele>1221</ele>
        <time>2014-04-13T08:20:45.000Z</time>
      </trkpt>
      <trkpt lat="45.9377" lon="6.21728">
        <ele>1221.1999511719</ele>
        <time>2014-04-13T08:20:48.000Z</time>
      </trkpt>
      <trkpt lat="45.93767" lon="6.21726">
        <ele>1221.4000244141</ele>
        <time>2014-04-13T08:20:50.000Z</time>
      </trkpt>
      <trkpt lat="45.93765" lon="6.21726">
        <ele>1221.4000244141</ele>
        <time>2014-04-13T08:20:52.000Z</time>
      </trkpt>
      <trkpt lat="45.9376" lon="6.2172">
        <ele>1221.8000488281</ele>
        <time>2014-04-13T08:20:55.000Z</time>
      </trkpt>
      <trkpt lat="45.93755" lon="6.21713">
        <ele>1222.4000244141</ele>
        <time>2014-04-13T08:21:00.000Z</time>
      </trkpt>
      <trkpt lat="45.9375" lon="6.21708">
        <ele>1223</ele>
        <time>2014-04-13T08:21:04.000Z</time>
      </trkpt>
      <trkpt lat="45.93748" lon="6.21708">
        <ele>1223</ele>
        <time>2014-04-13T08:21:05.000Z</time>
      </trkpt>
      <trkpt lat="45.93747" lon="6.21707">
        <ele>1223</ele>
        <time>2014-04-13T08:21:06.000Z</time>
      </trkpt>
      <trkpt lat="45.93741" lon="6.21707">
        <ele>1223</ele>
        <time>2014-04-13T08:21:10.000Z</time>
      </trkpt>
      <trkpt lat="45.93739" lon="6.21705">
        <ele>1223.1999511719</ele>
        <time>2014-04-13T08:21:12.000Z</time>
      </trkpt>
      <trkpt lat="45.93726" lon="6.21697">
        <ele>1224.4000244141</ele>
        <time>2014-04-13T08:21:18.000Z</time>
      </trkpt>
      <trkpt lat="45.93715" lon="6.21688">
        <ele>1226.4000244141</ele>
        <time>2014-04-13T08:21:23.000Z</time>
      </trkpt>
      <trkpt lat="45.9371" lon="6.21684">
        <ele>1227.1999511719</ele>
        <time>2014-04-13T08:21:25.000Z</time>
      </trkpt>
      <trkpt lat="45.93702" lon="6.21684">
        <ele>1227.8000488281</ele>
        <time>2014-04-13T08:21:28.000Z</time>
      </trkpt>
      <trkpt lat="45.93696" lon="6.21682">
        <ele>1228.5999755859</ele>
        <time>2014-04-13T08:21:30.000Z</time>
      </trkpt>
      <trkpt lat="45.93691" lon="6.2168">
        <ele>1229.5999755859</ele>
        <time>2014-04-13T08:21:32.000Z</time>
      </trkpt>
      <trkpt lat="45.93676" lon="6.21671">
        <ele>1233.4000244141</ele>
        <time>2014-04-13T08:21:38.000Z</time>
      </trkpt>
      <trkpt lat="45.93668" lon="6.21662">
        <ele>1235.4000244141</ele>
        <time>2014-04-13T08:21:42.000Z</time>
      </trkpt>
      <trkpt lat="45.93667" lon="6.21658">
        <ele>1235.1999511719</ele>
        <time>2014-04-13T08:21:43.000Z</time>
      </trkpt>
      <trkpt lat="45.93662" lon="6.21639">
        <ele>1233.5999755859</ele>
        <time>2014-04-13T08:21:48.000Z</time>
      </trkpt>
      <trkpt lat="45.93658" lon="6.21623">
        <ele>1232.5999755859</ele>
        <time>2014-04-13T08:21:53.000Z</time>
      </trkpt>
      <trkpt lat="45.93656" lon="6.21613">
        <ele>1232.1999511719</ele>
        <time>2014-04-13T08:21:57.000Z</time>
      </trkpt>
      <trkpt lat="45.93651" lon="6.21599">
        <ele>1232</ele>
        <time>2014-04-13T08:22:02.000Z</time>
      </trkpt>
      <trkpt lat="45.93649" lon="6.21592">
        <ele>1232.1999511719</ele>
        <time>2014-04-13T08:22:06.000Z</time>
      </trkpt>
      <trkpt lat="45.93646" lon="6.21586">
        <ele>1232.1999511719</ele>
        <time>2014-04-13T08:22:08.000Z</time>
      </trkpt>
      <trkpt lat="45.93644" lon="6.21579">
        <ele>1230.8000488281</ele>
        <time>2014-04-13T08:22:11.000Z</time>
      </trkpt>
      <trkpt lat="45.93644" lon="6.21577">
        <ele>1230.1999511719</ele>
        <time>2014-04-13T08:22:13.000Z</time>
      </trkpt>
      <trkpt lat="45.9364" lon="6.21571">
        <ele>1228.5999755859</ele>
        <time>2014-04-13T08:22:17.000Z</time>
      </trkpt>
      <trkpt lat="45.93636" lon="6.21571">
        <ele>1229.5999755859</ele>
        <time>2014-04-13T08:22:21.000Z</time>
      </trkpt>
      <trkpt lat="45.93635" lon="6.21574">
        <ele>1230.5999755859</ele>
        <time>2014-04-13T08:22:23.000Z</time>
      </trkpt>
      <trkpt lat="45.93635" lon="6.21581">
        <ele>1233.5999755859</ele>
        <time>2014-04-13T08:22:28.000Z</time>
      </trkpt>
      <trkpt lat="45.93635" lon="6.21583">
        <ele>1234.1999511719</ele>
        <time>2014-04-13T08:22:29.000Z</time>
      </trkpt>
      <trkpt lat="45.93635" lon="6.21585">
        <ele>1234.4000244141</ele>
        <time>2014-04-13T08:22:31.000Z</time>
      </trkpt>
      <trkpt lat="45.93633" lon="6.21591">
        <ele>1235</ele>
        <time>2014-04-13T08:22:37.000Z</time>
      </trkpt>
      <trkpt lat="45.9363" lon="6.21589">
        <ele>1235.5999755859</ele>
        <time>2014-04-13T08:22:43.000Z</time>
      </trkpt>
      <trkpt lat="45.93623" lon="6.21588">
        <ele>1236.8000488281</ele>
        <time>2014-04-13T08:22:49.000Z</time>
      </trkpt>
      <trkpt lat="45.93622" lon="6.21588">
        <ele>1237</ele>
        <time>2014-04-13T08:22:50.000Z</time>
      </trkpt>
      <trkpt lat="45.93617" lon="6.21591">
        <ele>1237.8000488281</ele>
        <time>2014-04-13T08:22:57.000Z</time>
      </trkpt>
      <trkpt lat="45.93614" lon="6.21594">
        <ele>1238.1999511719</ele>
        <time>2014-04-13T08:23:03.000Z</time>
      </trkpt>
      <trkpt lat="45.93609" lon="6.21598">
        <ele>1239</ele>
        <time>2014-04-13T08:23:09.000Z</time>
      </trkpt>
      <trkpt lat="45.93604" lon="6.21602">
        <ele>1239.5999755859</ele>
        <time>2014-04-13T08:23:15.000Z</time>
      </trkpt>
      <trkpt lat="45.93603" lon="6.21602">
        <ele>1239.5999755859</ele>
        <time>2014-04-13T08:23:16.000Z</time>
      </trkpt>
      <trkpt lat="45.93598" lon="6.21603">
        <ele>1240.4000244141</ele>
        <time>2014-04-13T08:23:21.000Z</time>
      </trkpt>
      <trkpt lat="45.93595" lon="6.21603">
        <ele>1240.8000488281</ele>
        <time>2014-04-13T08:23:26.000Z</time>
      </trkpt>
      <trkpt lat="45.93594" lon="6.21605">
        <ele>1240.8000488281</ele>
        <time>2014-04-13T08:23:27.000Z</time>
      </trkpt>
      <trkpt lat="45.93593" lon="6.21606">
        <ele>1240.8000488281</ele>
        <time>2014-04-13T08:23:29.000Z</time>
      </trkpt>
      <trkpt lat="45.93591" lon="6.21608">
        <ele>1241</ele>
        <time>2014-04-13T08:23:31.000Z</time>
      </trkpt>
      <trkpt lat="45.9359" lon="6.21609">
        <ele>1241</ele>
        <time>2014-04-13T08:23:32.000Z</time>
      </trkpt>
      <trkpt lat="45.93586" lon="6.21616">
        <ele>1240.8000488281</ele>
        <time>2014-04-13T08:23:36.000Z</time>
      </trkpt>
      <trkpt lat="45.93585" lon="6.21619">
        <ele>1240.4000244141</ele>
        <time>2014-04-13T08:23:38.000Z</time>
      </trkpt>
      <trkpt lat="45.93585" lon="6.2162">
        <ele>1240.4000244141</ele>
        <time>2014-04-13T08:23:39.000Z</time>
      </trkpt>
      <trkpt lat="45.93582" lon="6.21623">
        <ele>1240.4000244141</ele>
        <time>2014-04-13T08:23:43.000Z</time>
      </trkpt>
      <trkpt lat="45.9358" lon="6.21619">
        <ele>1241.1999511719</ele>
        <time>2014-04-13T08:23:47.000Z</time>
      </trkpt>
      <trkpt lat="45.93579" lon="6.21616">
        <ele>1241.4000244141</ele>
        <time>2014-04-13T08:23:49.000Z</time>
      </trkpt>
      <trkpt lat="45.93575" lon="6.21607">
        <ele>1243.4000244141</ele>
        <time>2014-04-13T08:23:55.000Z</time>
      </trkpt>
      <trkpt lat="45.93567" lon="6.21603">
        <ele>1244.8000488281</ele>
        <time>2014-04-13T08:24:01.000Z</time>
      </trkpt>
      <trkpt lat="45.9356" lon="6.21608">
        <ele>1244.8000488281</ele>
        <time>2014-04-13T08:24:08.000Z</time>
      </trkpt>
      <trkpt lat="45.93559" lon="6.2161">
        <ele>1244.8000488281</ele>
        <time>2014-04-13T08:24:09.000Z</time>
      </trkpt>
      <trkpt lat="45.93557" lon="6.21615">
        <ele>1244</ele>
        <time>2014-04-13T08:24:12.000Z</time>
      </trkpt>
      <trkpt lat="45.93557" lon="6.21617">
        <ele>1243.5999755859</ele>
        <time>2014-04-13T08:24:13.000Z</time>
      </trkpt>
      <trkpt lat="45.93553" lon="6.21624">
        <ele>1242.8000488281</ele>
        <time>2014-04-13T08:24:16.000Z</time>
      </trkpt>
      <trkpt lat="45.93551" lon="6.21624">
        <ele>1242.8000488281</ele>
        <time>2014-04-13T08:24:17.000Z</time>
      </trkpt>
      <trkpt lat="45.93543" lon="6.21625">
        <ele>1243.4000244141</ele>
        <time>2014-04-13T08:24:21.000Z</time>
      </trkpt>
      <trkpt lat="45.93534" lon="6.21623">
        <ele>1244.5999755859</ele>
        <time>2014-04-13T08:24:26.000Z</time>
      </trkpt>
      <trkpt lat="45.93534" lon="6.21613">
        <ele>1247</ele>
        <time>2014-04-13T08:24:30.000Z</time>
      </trkpt>
      <trkpt lat="45.93533" lon="6.2161">
        <ele>1247.8000488281</ele>
        <time>2014-04-13T08:24:31.000Z</time>
      </trkpt>
      <trkpt lat="45.93528" lon="6.21605">
        <ele>1249.5999755859</ele>
        <time>2014-04-13T08:24:33.000Z</time>
      </trkpt>
      <trkpt lat="45.93526" lon="6.21604">
        <ele>1250.1999511719</ele>
        <time>2014-04-13T08:24:34.000Z</time>
      </trkpt>
      <trkpt lat="45.93517" lon="6.21602">
        <ele>1251.8000488281</ele>
        <time>2014-04-13T08:24:38.000Z</time>
      </trkpt>
      <trkpt lat="45.93508" lon="6.21604">
        <ele>1252.5999755859</ele>
        <time>2014-04-13T08:24:43.000Z</time>
      </trkpt>
      <trkpt lat="45.93501" lon="6.21602">
        <ele>1254</ele>
        <time>2014-04-13T08:24:48.000Z</time>
      </trkpt>
      <trkpt lat="45.93497" lon="6.21602">
        <ele>1254</ele>
        <time>2014-04-13T08:24:51.000Z</time>
      </trkpt>
      <trkpt lat="45.9349" lon="6.21604">
        <ele>1253.4000244141</ele>
        <time>2014-04-13T08:24:54.000Z</time>
      </trkpt>
      <trkpt lat="45.9348" lon="6.21605">
        <ele>1252.5999755859</ele>
        <time>2014-04-13T08:24:58.000Z</time>
      </trkpt>
      <trkpt lat="45.93478" lon="6.21604">
        <ele>1253</ele>
        <time>2014-04-13T08:24:59.000Z</time>
      </trkpt>
      <trkpt lat="45.93472" lon="6.21597">
        <ele>1255.5999755859</ele>
        <time>2014-04-13T08:25:04.000Z</time>
      </trkpt>
      <trkpt lat="45.93463" lon="6.21587">
        <ele>1259.1999511719</ele>
        <time>2014-04-13T08:25:08.000Z</time>
      </trkpt>
      <trkpt lat="45.93456" lon="6.21585">
        <ele>1260.4000244141</ele>
        <time>2014-04-13T08:25:11.000Z</time>
      </trkpt>
      <trkpt lat="45.93452" lon="6.2158">
        <ele>1260.4000244141</ele>
        <time>2014-04-13T08:25:13.000Z</time>
      </trkpt>
      <trkpt lat="45.93447" lon="6.21576">
        <ele>1260</ele>
        <time>2014-04-13T08:25:16.000Z</time>
      </trkpt>
      <trkpt lat="45.93445" lon="6.21575">
        <ele>1259.8000488281</ele>
        <time>2014-04-13T08:25:17.000Z</time>
      </trkpt>
      <trkpt lat="45.9344" lon="6.21578">
        <ele>1260.4000244141</ele>
        <time>2014-04-13T08:25:21.000Z</time>
      </trkpt>
      <trkpt lat="45.93439" lon="6.21578">
        <ele>1260.5999755859</ele>
        <time>2014-04-13T08:25:22.000Z</time>
      </trkpt>
      <trkpt lat="45.93438" lon="6.21579">
        <ele>1260.8000488281</ele>
        <time>2014-04-13T08:25:23.000Z</time>
      </trkpt>
      <trkpt lat="45.93433" lon="6.21582">
        <ele>1261.4000244141</ele>
        <time>2014-04-13T08:25:27.000Z</time>
      </trkpt>
      <trkpt lat="45.93427" lon="6.21585">
        <ele>1261</ele>
        <time>2014-04-13T08:25:33.000Z</time>
      </trkpt>
      <trkpt lat="45.93423" lon="6.21583">
        <ele>1261.8000488281</ele>
        <time>2014-04-13T08:25:40.000Z</time>
      </trkpt>
      <trkpt lat="45.93422" lon="6.21584">
        <ele>1261.5999755859</ele>
        <time>2014-04-13T08:25:41.000Z</time>
      </trkpt>
      <trkpt lat="45.93417" lon="6.21586">
        <ele>1260.8000488281</ele>
        <time>2014-04-13T08:25:46.000Z</time>
      </trkpt>
      <trkpt lat="45.93415" lon="6.21586">
        <ele>1260.5999755859</ele>
        <time>2014-04-13T08:25:49.000Z</time>
      </trkpt>
      <trkpt lat="45.93412" lon="6.21584">
        <ele>1261.1999511719</ele>
        <time>2014-04-13T08:25:52.000Z</time>
      </trkpt>
      <trkpt lat="45.93411" lon="6.21583">
        <ele>1261.5999755859</ele>
        <time>2014-04-13T08:25:54.000Z</time>
      </trkpt>
      <trkpt lat="45.93409" lon="6.21582">
        <ele>1261.1999511719</ele>
        <time>2014-04-13T08:25:57.000Z</time>
      </trkpt>
      <trkpt lat="45.93407" lon="6.2158">
        <ele>1260.8000488281</ele>
        <time>2014-04-13T08:25:59.000Z</time>
      </trkpt>
      <trkpt lat="45.93405" lon="6.21578">
        <ele>1260.4000244141</ele>
        <time>2014-04-13T08:26:03.000Z</time>
      </trkpt>
      <trkpt lat="45.93404" lon="6.21578">
        <ele>1260.4000244141</ele>
        <time>2014-04-13T08:26:04.000Z</time>
      </trkpt>
      <trkpt lat="45.93398" lon="6.21576">
        <ele>1259.8000488281</ele>
        <time>2014-04-13T08:26:09.000Z</time>
      </trkpt>
      <trkpt lat="45.93392" lon="6.21577">
        <ele>1259.5999755859</ele>
        <time>2014-04-13T08:26:17.000Z</time>
      </trkpt>
      <trkpt lat="45.93386" lon="6.21576">
        <ele>1259.1999511719</ele>
        <time>2014-04-13T08:26:21.000Z</time>
      </trkpt>
      <trkpt lat="45.93384" lon="6.21575">
        <ele>1259</ele>
        <time>2014-04-13T08:26:22.000Z</time>
      </trkpt>
      <trkpt lat="45.93377" lon="6.2157">
        <ele>1258.5999755859</ele>
        <time>2014-04-13T08:26:28.000Z</time>
      </trkpt>
      <trkpt lat="45.93375" lon="6.21568">
        <ele>1258.4000244141</ele>
        <time>2014-04-13T08:26:30.000Z</time>
      </trkpt>
      <trkpt lat="45.93374" lon="6.21567">
        <ele>1258.4000244141</ele>
        <time>2014-04-13T08:26:31.000Z</time>
      </trkpt>
      <trkpt lat="45.93371" lon="6.21565">
        <ele>1258.4000244141</ele>
        <time>2014-04-13T08:26:34.000Z</time>
      </trkpt>
      <trkpt lat="45.93369" lon="6.21563">
        <ele>1258.4000244141</ele>
        <time>2014-04-13T08:26:36.000Z</time>
      </trkpt>
      <trkpt lat="45.93368" lon="6.21563">
        <ele>1258.4000244141</ele>
        <time>2014-04-13T08:26:38.000Z</time>
      </trkpt>
      <trkpt lat="45.93367" lon="6.21562">
        <ele>1258.4000244141</ele>
        <time>2014-04-13T08:26:39.000Z</time>
      </trkpt>
      <trkpt lat="45.93362" lon="6.21559">
        <ele>1258.5999755859</ele>
        <time>2014-04-13T08:26:44.000Z</time>
      </trkpt>
      <trkpt lat="45.93361" lon="6.21559">
        <ele>1258.5999755859</ele>
        <time>2014-04-13T08:26:45.000Z</time>
      </trkpt>
      <trkpt lat="45.93358" lon="6.21556">
        <ele>1258.8000488281</ele>
        <time>2014-04-13T08:26:49.000Z</time>
      </trkpt>
      <trkpt lat="45.93356" lon="6.21554">
        <ele>1258.8000488281</ele>
        <time>2014-04-13T08:26:51.000Z</time>
      </trkpt>
      <trkpt lat="45.93354" lon="6.21547">
        <ele>1259.4000244141</ele>
        <time>2014-04-13T08:26:57.000Z</time>
      </trkpt>
      <trkpt lat="45.93354" lon="6.21546">
        <ele>1259.4000244141</ele>
        <time>2014-04-13T08:26:58.000Z</time>
      </trkpt>
      <trkpt lat="45.93354" lon="6.21539">
        <ele>1260</ele>
        <time>2014-04-13T08:27:02.000Z</time>
      </trkpt>
      <trkpt lat="45.93354" lon="6.21537">
        <ele>1260</ele>
        <time>2014-04-13T08:27:03.000Z</time>
      </trkpt>
      <trkpt lat="45.93353" lon="6.21536">
        <ele>1260.1999511719</ele>
        <time>2014-04-13T08:27:04.000Z</time>
      </trkpt>
      <trkpt lat="45.9335" lon="6.21534">
        <ele>1260.5999755859</ele>
        <time>2014-04-13T08:27:08.000Z</time>
      </trkpt>
      <trkpt lat="45.93348" lon="6.21536">
        <ele>1260.5999755859</ele>
        <time>2014-04-13T08:27:10.000Z</time>
      </trkpt>
      <trkpt lat="45.93347" lon="6.21536">
        <ele>1260.8000488281</ele>
        <time>2014-04-13T08:27:11.000Z</time>
      </trkpt>
      <trkpt lat="45.93344" lon="6.21537">
        <ele>1260.8000488281</ele>
        <time>2014-04-13T08:27:13.000Z</time>
      </trkpt>
      <trkpt lat="45.93337" lon="6.21536">
        <ele>1261.5999755859</ele>
        <time>2014-04-13T08:27:18.000Z</time>
      </trkpt>
      <trkpt lat="45.93334" lon="6.21536">
        <ele>1261.8000488281</ele>
        <time>2014-04-13T08:27:21.000Z</time>
      </trkpt>
      <trkpt lat="45.93331" lon="6.21533">
        <ele>1262</ele>
        <time>2014-04-13T08:27:24.000Z</time>
      </trkpt>
      <trkpt lat="45.93328" lon="6.2153">
        <ele>1262.1999511719</ele>
        <time>2014-04-13T08:27:27.000Z</time>
      </trkpt>
      <trkpt lat="45.93327" lon="6.21531">
        <ele>1262</ele>
        <time>2014-04-13T08:27:30.000Z</time>
      </trkpt>
      <trkpt lat="45.93318" lon="6.21528">
        <ele>1261.8000488281</ele>
        <time>2014-04-13T08:28:09.000Z</time>
      </trkpt>
      <trkpt lat="45.93317" lon="6.2153">
        <ele>1261.1999511719</ele>
        <time>2014-04-13T08:28:10.000Z</time>
      </trkpt>
      <trkpt lat="45.9331" lon="6.2153">
        <ele>1260.5999755859</ele>
        <time>2014-04-13T08:28:15.000Z</time>
      </trkpt>
      <trkpt lat="45.93308" lon="6.21529">
        <ele>1260.5999755859</ele>
        <time>2014-04-13T08:28:16.000Z</time>
      </trkpt>
      <trkpt lat="45.93302" lon="6.21523">
        <ele>1261.4000244141</ele>
        <time>2014-04-13T08:28:19.000Z</time>
      </trkpt>
      <trkpt lat="45.93292" lon="6.21518">
        <ele>1261.8000488281</ele>
        <time>2014-04-13T08:28:24.000Z</time>
      </trkpt>
      <trkpt lat="45.93288" lon="6.21521">
        <ele>1261</ele>
        <time>2014-04-13T08:28:26.000Z</time>
      </trkpt>
      <trkpt lat="45.93284" lon="6.21524">
        <ele>1260</ele>
        <time>2014-04-13T08:28:28.000Z</time>
      </trkpt>
      <trkpt lat="45.93282" lon="6.21524">
        <ele>1259.5999755859</ele>
        <time>2014-04-13T08:28:29.000Z</time>
      </trkpt>
      <trkpt lat="45.93274" lon="6.21522">
        <ele>1259.8000488281</ele>
        <time>2014-04-13T08:28:32.000Z</time>
      </trkpt>
      <trkpt lat="45.9327" lon="6.21519">
        <ele>1260.4000244141</ele>
        <time>2014-04-13T08:28:34.000Z</time>
      </trkpt>
      <trkpt lat="45.93266" lon="6.21512">
        <ele>1262.1999511719</ele>
        <time>2014-04-13T08:28:37.000Z</time>
      </trkpt>
      <trkpt lat="45.93255" lon="6.2151">
        <ele>1262.5999755859</ele>
        <time>2014-04-13T08:28:41.000Z</time>
      </trkpt>
      <trkpt lat="45.93252" lon="6.21508">
        <ele>1263.1999511719</ele>
        <time>2014-04-13T08:28:43.000Z</time>
      </trkpt>
      <trkpt lat="45.9325" lon="6.21509">
        <ele>1262.8000488281</ele>
        <time>2014-04-13T08:28:45.000Z</time>
      </trkpt>
      <trkpt lat="45.93249" lon="6.2151">
        <ele>1262.1999511719</ele>
        <time>2014-04-13T08:28:47.000Z</time>
      </trkpt>
      <trkpt lat="45.93248" lon="6.21511">
        <ele>1261.5999755859</ele>
        <time>2014-04-13T08:28:49.000Z</time>
      </trkpt>
      <trkpt lat="45.93248" lon="6.21509">
        <ele>1262.1999511719</ele>
        <time>2014-04-13T08:28:55.000Z</time>
      </trkpt>
      <trkpt lat="45.93247" lon="6.21511">
        <ele>1261.1999511719</ele>
        <time>2014-04-13T08:29:09.000Z</time>
      </trkpt>
      <trkpt lat="45.93248" lon="6.21516">
        <ele>1259.4000244141</ele>
        <time>2014-04-13T08:34:27.000Z</time>
      </trkpt>
      <trkpt lat="45.93247" lon="6.2152">
        <ele>1257.8000488281</ele>
        <time>2014-04-13T08:34:34.000Z</time>
      </trkpt>
      <trkpt lat="45.93241" lon="6.21522">
        <ele>1255.1999511719</ele>
        <time>2014-04-13T08:34:40.000Z</time>
      </trkpt>
      <trkpt lat="45.93238" lon="6.21523">
        <ele>1253.8000488281</ele>
        <time>2014-04-13T08:34:42.000Z</time>
      </trkpt>
      <trkpt lat="45.93233" lon="6.21524">
        <ele>1251.8000488281</ele>
        <time>2014-04-13T08:34:45.000Z</time>
      </trkpt>
      <trkpt lat="45.93229" lon="6.21522">
        <ele>1251.4000244141</ele>
        <time>2014-04-13T08:34:48.000Z</time>
      </trkpt>
      <trkpt lat="45.93226" lon="6.21519">
        <ele>1251.8000488281</ele>
        <time>2014-04-13T08:34:51.000Z</time>
      </trkpt>
      <trkpt lat="45.93224" lon="6.21519">
        <ele>1251.4000244141</ele>
        <time>2014-04-13T08:34:52.000Z</time>
      </trkpt>
      <trkpt lat="45.93219" lon="6.21515">
        <ele>1251.8000488281</ele>
        <time>2014-04-13T08:34:56.000Z</time>
      </trkpt>
      <trkpt lat="45.93217" lon="6.21515">
        <ele>1251.4000244141</ele>
        <time>2014-04-13T08:34:58.000Z</time>
      </trkpt>
      <trkpt lat="45.93215" lon="6.21515">
        <ele>1250.8000488281</ele>
        <time>2014-04-13T08:34:59.000Z</time>
      </trkpt>
      <trkpt lat="45.93211" lon="6.21516">
        <ele>1249.1999511719</ele>
        <time>2014-04-13T08:35:02.000Z</time>
      </trkpt>
      <trkpt lat="45.93206" lon="6.21511">
        <ele>1250.1999511719</ele>
        <time>2014-04-13T08:35:06.000Z</time>
      </trkpt>
      <trkpt lat="45.93204" lon="6.21511">
        <ele>1250</ele>
        <time>2014-04-13T08:35:07.000Z</time>
      </trkpt>
      <trkpt lat="45.93202" lon="6.21508">
        <ele>1250.4000244141</ele>
        <time>2014-04-13T08:35:09.000Z</time>
      </trkpt>
      <trkpt lat="45.93199" lon="6.21504">
        <ele>1252.4000244141</ele>
        <time>2014-04-13T08:35:12.000Z</time>
      </trkpt>
      <trkpt lat="45.93193" lon="6.21501">
        <ele>1252</ele>
        <time>2014-04-13T08:35:17.000Z</time>
      </trkpt>
      <trkpt lat="45.93189" lon="6.215">
        <ele>1252.1999511719</ele>
        <time>2014-04-13T08:35:18.000Z</time>
      </trkpt>
      <trkpt lat="45.93178" lon="6.215">
        <ele>1249.4000244141</ele>
        <time>2014-04-13T08:35:23.000Z</time>
      </trkpt>
      <trkpt lat="45.93168" lon="6.21498">
        <ele>1247</ele>
        <time>2014-04-13T08:35:27.000Z</time>
      </trkpt>
      <trkpt lat="45.93166" lon="6.21497">
        <ele>1246.1999511719</ele>
        <time>2014-04-13T08:35:28.000Z</time>
      </trkpt>
      <trkpt lat="45.9316" lon="6.21496">
        <ele>1244.5999755859</ele>
        <time>2014-04-13T08:35:31.000Z</time>
      </trkpt>
      <trkpt lat="45.93158" lon="6.21495">
        <ele>1243.5999755859</ele>
        <time>2014-04-13T08:35:32.000Z</time>
      </trkpt>
      <trkpt lat="45.9315" lon="6.21488">
        <ele>1241</ele>
        <time>2014-04-13T08:35:36.000Z</time>
      </trkpt>
      <trkpt lat="45.93148" lon="6.21487">
        <ele>1240.4000244141</ele>
        <time>2014-04-13T08:35:37.000Z</time>
      </trkpt>
      <trkpt lat="45.93139" lon="6.21486">
        <ele>1237.8000488281</ele>
        <time>2014-04-13T08:35:42.000Z</time>
      </trkpt>
      <trkpt lat="45.93131" lon="6.21482">
        <ele>1235.5999755859</ele>
        <time>2014-04-13T08:35:47.000Z</time>
      </trkpt>
      <trkpt lat="45.93123" lon="6.21481">
        <ele>1233.5999755859</ele>
        <time>2014-04-13T08:35:52.000Z</time>
      </trkpt>
      <trkpt lat="45.93118" lon="6.2148">
        <ele>1232.4000244141</ele>
        <time>2014-04-13T08:35:54.000Z</time>
      </trkpt>
      <trkpt lat="45.93116" lon="6.21478">
        <ele>1232</ele>
        <time>2014-04-13T08:35:55.000Z</time>
      </trkpt>
      <trkpt lat="45.93115" lon="6.21476">
        <ele>1231.8000488281</ele>
        <time>2014-04-13T08:35:56.000Z</time>
      </trkpt>
      <trkpt lat="45.93109" lon="6.21469">
        <ele>1230.8000488281</ele>
        <time>2014-04-13T08:36:00.000Z</time>
      </trkpt>
      <trkpt lat="45.93106" lon="6.21466">
        <ele>1230.1999511719</ele>
        <time>2014-04-13T08:36:02.000Z</time>
      </trkpt>
      <trkpt lat="45.93103" lon="6.21462">
        <ele>1229.5999755859</ele>
        <time>2014-04-13T08:36:05.000Z</time>
      </trkpt>
      <trkpt lat="45.93094" lon="6.21456">
        <ele>1228.5999755859</ele>
        <time>2014-04-13T08:36:11.000Z</time>
      </trkpt>
      <trkpt lat="45.93091" lon="6.21453">
        <ele>1228.1999511719</ele>
        <time>2014-04-13T08:36:13.000Z</time>
      </trkpt>
      <trkpt lat="45.9309" lon="6.21452">
        <ele>1228.1999511719</ele>
        <time>2014-04-13T08:36:14.000Z</time>
      </trkpt>
      <trkpt lat="45.93086" lon="6.21446">
        <ele>1228.1999511719</ele>
        <time>2014-04-13T08:36:16.000Z</time>
      </trkpt>
      <trkpt lat="45.93083" lon="6.21444">
        <ele>1228</ele>
        <time>2014-04-13T08:36:17.000Z</time>
      </trkpt>
      <trkpt lat="45.93079" lon="6.21448">
        <ele>1226.5999755859</ele>
        <time>2014-04-13T08:36:20.000Z</time>
      </trkpt>
      <trkpt lat="45.9307" lon="6.2145">
        <ele>1224.5999755859</ele>
        <time>2014-04-13T08:36:25.000Z</time>
      </trkpt>
      <trkpt lat="45.93061" lon="6.21447">
        <ele>1223</ele>
        <time>2014-04-13T08:36:30.000Z</time>
      </trkpt>
      <trkpt lat="45.93058" lon="6.21445">
        <ele>1222.5999755859</ele>
        <time>2014-04-13T08:36:32.000Z</time>
      </trkpt>
      <trkpt lat="45.93053" lon="6.21446">
        <ele>1221.4000244141</ele>
        <time>2014-04-13T08:36:34.000Z</time>
      </trkpt>
      <trkpt lat="45.93044" lon="6.2145">
        <ele>1219</ele>
        <time>2014-04-13T08:36:39.000Z</time>
      </trkpt>
      <trkpt lat="45.93037" lon="6.21448">
        <ele>1217.8000488281</ele>
        <time>2014-04-13T08:36:42.000Z</time>
      </trkpt>
      <trkpt lat="45.93033" lon="6.21448">
        <ele>1217</ele>
        <time>2014-04-13T08:36:44.000Z</time>
      </trkpt>
      <trkpt lat="45.93032" lon="6.21448">
        <ele>1216.5999755859</ele>
        <time>2014-04-13T08:36:45.000Z</time>
      </trkpt>
      <trkpt lat="45.93026" lon="6.21448">
        <ele>1215.5999755859</ele>
        <time>2014-04-13T08:36:48.000Z</time>
      </trkpt>
      <trkpt lat="45.93014" lon="6.21448">
        <ele>1213</ele>
        <time>2014-04-13T08:36:54.000Z</time>
      </trkpt>
      <trkpt lat="45.93007" lon="6.21448">
        <ele>1211.1999511719</ele>
        <time>2014-04-13T08:36:58.000Z</time>
      </trkpt>
      <trkpt lat="45.93005" lon="6.21449">
        <ele>1210.5999755859</ele>
        <time>2014-04-13T08:36:59.000Z</time>
      </trkpt>
      <trkpt lat="45.92997" lon="6.2145">
        <ele>1209.1999511719</ele>
        <time>2014-04-13T08:37:03.000Z</time>
      </trkpt>
      <trkpt lat="45.92996" lon="6.2145">
        <ele>1209</ele>
        <time>2014-04-13T08:37:04.000Z</time>
      </trkpt>
      <trkpt lat="45.92989" lon="6.21449">
        <ele>1208.5999755859</ele>
        <time>2014-04-13T08:37:08.000Z</time>
      </trkpt>
      <trkpt lat="45.92987" lon="6.21447">
        <ele>1208.8000488281</ele>
        <time>2014-04-13T08:37:09.000Z</time>
      </trkpt>
      <trkpt lat="45.92979" lon="6.21449">
        <ele>1207.5999755859</ele>
        <time>2014-04-13T08:37:12.000Z</time>
      </trkpt>
      <trkpt lat="45.92978" lon="6.2145">
        <ele>1207</ele>
        <time>2014-04-13T08:37:13.000Z</time>
      </trkpt>
      <trkpt lat="45.92969" lon="6.21452">
        <ele>1205.8000488281</ele>
        <time>2014-04-13T08:37:16.000Z</time>
      </trkpt>
      <trkpt lat="45.92967" lon="6.21453">
        <ele>1205.1999511719</ele>
        <time>2014-04-13T08:37:17.000Z</time>
      </trkpt>
      <trkpt lat="45.92956" lon="6.21457">
        <ele>1203.1999511719</ele>
        <time>2014-04-13T08:37:23.000Z</time>
      </trkpt>
      <trkpt lat="45.92947" lon="6.21458">
        <ele>1202.1999511719</ele>
        <time>2014-04-13T08:37:28.000Z</time>
      </trkpt>
      <trkpt lat="45.92934" lon="6.21459">
        <ele>1200.5999755859</ele>
        <time>2014-04-13T08:37:34.000Z</time>
      </trkpt>
      <trkpt lat="45.92921" lon="6.21453">
        <ele>1200.8000488281</ele>
        <time>2014-04-13T08:37:39.000Z</time>
      </trkpt>
      <trkpt lat="45.92908" lon="6.21453">
        <ele>1199.4000244141</ele>
        <time>2014-04-13T08:37:43.000Z</time>
      </trkpt>
      <trkpt lat="45.92896" lon="6.21457">
        <ele>1197.4000244141</ele>
        <time>2014-04-13T08:37:47.000Z</time>
      </trkpt>
      <trkpt lat="45.92891" lon="6.21459">
        <ele>1196.4000244141</ele>
        <time>2014-04-13T08:37:49.000Z</time>
      </trkpt>
      <trkpt lat="45.92882" lon="6.21461">
        <ele>1195.1999511719</ele>
        <time>2014-04-13T08:37:52.000Z</time>
      </trkpt>
      <trkpt lat="45.92869" lon="6.21464">
        <ele>1193.1999511719</ele>
        <time>2014-04-13T08:37:57.000Z</time>
      </trkpt>
      <trkpt lat="45.92856" lon="6.21465">
        <ele>1192</ele>
        <time>2014-04-13T08:38:02.000Z</time>
      </trkpt>
      <trkpt lat="45.92847" lon="6.21468">
        <ele>1190.4000244141</ele>
        <time>2014-04-13T08:38:06.000Z</time>
      </trkpt>
      <trkpt lat="45.92835" lon="6.21469">
        <ele>1189.1999511719</ele>
        <time>2014-04-13T08:38:11.000Z</time>
      </trkpt>
      <trkpt lat="45.92827" lon="6.21472">
        <ele>1187.1999511719</ele>
        <time>2014-04-13T08:38:14.000Z</time>
      </trkpt>
      <trkpt lat="45.92825" lon="6.21471">
        <ele>1186.5999755859</ele>
        <time>2014-04-13T08:38:15.000Z</time>
      </trkpt>
      <trkpt lat="45.92822" lon="6.2147">
        <ele>1186.4000244141</ele>
        <time>2014-04-13T08:38:16.000Z</time>
      </trkpt>
      <trkpt lat="45.92817" lon="6.21469">
        <ele>1185.5999755859</ele>
        <time>2014-04-13T08:38:19.000Z</time>
      </trkpt>
      <trkpt lat="45.92806" lon="6.21466">
        <ele>1183.8000488281</ele>
        <time>2014-04-13T08:38:24.000Z</time>
      </trkpt>
      <trkpt lat="45.92803" lon="6.21462">
        <ele>1184</ele>
        <time>2014-04-13T08:38:25.000Z</time>
      </trkpt>
      <trkpt lat="45.92797" lon="6.21456">
        <ele>1183.8000488281</ele>
        <time>2014-04-13T08:38:29.000Z</time>
      </trkpt>
      <trkpt lat="45.9279" lon="6.21456">
        <ele>1182.1999511719</ele>
        <time>2014-04-13T08:38:33.000Z</time>
      </trkpt>
      <trkpt lat="45.92787" lon="6.21456">
        <ele>1181.8000488281</ele>
        <time>2014-04-13T08:38:34.000Z</time>
      </trkpt>
      <trkpt lat="45.92778" lon="6.21456">
        <ele>1179.8000488281</ele>
        <time>2014-04-13T08:38:39.000Z</time>
      </trkpt>
      <trkpt lat="45.92775" lon="6.2145">
        <ele>1180.1999511719</ele>
        <time>2014-04-13T08:38:42.000Z</time>
      </trkpt>
      <trkpt lat="45.92773" lon="6.21447">
        <ele>1180.5999755859</ele>
        <time>2014-04-13T08:38:45.000Z</time>
      </trkpt>
      <trkpt lat="45.92771" lon="6.21445">
        <ele>1180.5999755859</ele>
        <time>2014-04-13T08:38:46.000Z</time>
      </trkpt>
      <trkpt lat="45.9277" lon="6.21445">
        <ele>1180.4000244141</ele>
        <time>2014-04-13T08:38:47.000Z</time>
      </trkpt>
      <trkpt lat="45.92763" lon="6.21442">
        <ele>1179.5999755859</ele>
        <time>2014-04-13T08:38:50.000Z</time>
      </trkpt>
      <trkpt lat="45.92756" lon="6.21443">
        <ele>1178</ele>
        <time>2014-04-13T08:38:56.000Z</time>
      </trkpt>
      <trkpt lat="45.92751" lon="6.21429">
        <ele>1179.8000488281</ele>
        <time>2014-04-13T08:39:01.000Z</time>
      </trkpt>
      <trkpt lat="45.92744" lon="6.21426">
        <ele>1178.5999755859</ele>
        <time>2014-04-13T08:39:05.000Z</time>
      </trkpt>
      <trkpt lat="45.92743" lon="6.21426">
        <ele>1178.4000244141</ele>
        <time>2014-04-13T08:39:06.000Z</time>
      </trkpt>
      <trkpt lat="45.9273" lon="6.21426">
        <ele>1175.4000244141</ele>
        <time>2014-04-13T08:39:12.000Z</time>
      </trkpt>
      <trkpt lat="45.92726" lon="6.21427">
        <ele>1174.1999511719</ele>
        <time>2014-04-13T08:39:15.000Z</time>
      </trkpt>
      <trkpt lat="45.92723" lon="6.21426">
        <ele>1173.5999755859</ele>
        <time>2014-04-13T08:39:17.000Z</time>
      </trkpt>
      <trkpt lat="45.92719" lon="6.21426">
        <ele>1172.8000488281</ele>
        <time>2014-04-13T08:39:19.000Z</time>
      </trkpt>
      <trkpt lat="45.92714" lon="6.21429">
        <ele>1170.5999755859</ele>
        <time>2014-04-13T08:39:22.000Z</time>
      </trkpt>
      <trkpt lat="45.9271" lon="6.21428">
        <ele>1170</ele>
        <time>2014-04-13T08:39:24.000Z</time>
      </trkpt>
      <trkpt lat="45.92705" lon="6.21425">
        <ele>1169.8000488281</ele>
        <time>2014-04-13T08:39:27.000Z</time>
      </trkpt>
      <trkpt lat="45.92698" lon="6.21417">
        <ele>1170.4000244141</ele>
        <time>2014-04-13T08:39:32.000Z</time>
      </trkpt>
      <trkpt lat="45.92689" lon="6.21411">
        <ele>1169.1999511719</ele>
        <time>2014-04-13T08:39:38.000Z</time>
      </trkpt>
      <trkpt lat="45.92688" lon="6.21409">
        <ele>1169</ele>
        <time>2014-04-13T08:39:39.000Z</time>
      </trkpt>
      <trkpt lat="45.92686" lon="6.21408">
        <ele>1168.5999755859</ele>
        <time>2014-04-13T08:39:40.000Z</time>
      </trkpt>
      <trkpt lat="45.9268" lon="6.21406">
        <ele>1167.4000244141</ele>
        <time>2014-04-13T08:39:44.000Z</time>
      </trkpt>
      <trkpt lat="45.92674" lon="6.21407">
        <ele>1166.1999511719</ele>
        <time>2014-04-13T08:39:48.000Z</time>
      </trkpt>
      <trkpt lat="45.92672" lon="6.21406">
        <ele>1165.8000488281</ele>
        <time>2014-04-13T08:39:49.000Z</time>
      </trkpt>
      <trkpt lat="45.9267" lon="6.21403">
        <ele>1165.4000244141</ele>
        <time>2014-04-13T08:39:51.000Z</time>
      </trkpt>
      <trkpt lat="45.92666" lon="6.214">
        <ele>1164.8000488281</ele>
        <time>2014-04-13T08:39:53.000Z</time>
      </trkpt>
      <trkpt lat="45.92656" lon="6.21393">
        <ele>1162.1999511719</ele>
        <time>2014-04-13T08:39:58.000Z</time>
      </trkpt>
      <trkpt lat="45.92646" lon="6.21387">
        <ele>1159.5999755859</ele>
        <time>2014-04-13T08:40:03.000Z</time>
      </trkpt>
      <trkpt lat="45.92644" lon="6.21387">
        <ele>1159</ele>
        <time>2014-04-13T08:40:04.000Z</time>
      </trkpt>
      <trkpt lat="45.92635" lon="6.21388">
        <ele>1156.5999755859</ele>
        <time>2014-04-13T08:40:08.000Z</time>
      </trkpt>
      <trkpt lat="45.92622" lon="6.21386">
        <ele>1152.8000488281</ele>
        <time>2014-04-13T08:40:13.000Z</time>
      </trkpt>
      <trkpt lat="45.92611" lon="6.21386">
        <ele>1149.8000488281</ele>
        <time>2014-04-13T08:40:17.000Z</time>
      </trkpt>
      <trkpt lat="45.926" lon="6.21384">
        <ele>1147</ele>
        <time>2014-04-13T08:40:21.000Z</time>
      </trkpt>
      <trkpt lat="45.92593" lon="6.21377">
        <ele>1146.1999511719</ele>
        <time>2014-04-13T08:40:24.000Z</time>
      </trkpt>
      <trkpt lat="45.92587" lon="6.21371">
        <ele>1145.8000488281</ele>
        <time>2014-04-13T08:40:26.000Z</time>
      </trkpt>
      <trkpt lat="45.92573" lon="6.2135">
        <ele>1147.5999755859</ele>
        <time>2014-04-13T08:40:31.000Z</time>
      </trkpt>
      <trkpt lat="45.92569" lon="6.21344">
        <ele>1148.5999755859</ele>
        <time>2014-04-13T08:40:32.000Z</time>
      </trkpt>
      <trkpt lat="45.92562" lon="6.21333">
        <ele>1150.1999511719</ele>
        <time>2014-04-13T08:40:34.000Z</time>
      </trkpt>
      <trkpt lat="45.92555" lon="6.21328">
        <ele>1149.1999511719</ele>
        <time>2014-04-13T08:40:36.000Z</time>
      </trkpt>
      <trkpt lat="45.92543" lon="6.2133">
        <ele>1148.1999511719</ele>
        <time>2014-04-13T08:40:40.000Z</time>
      </trkpt>
      <trkpt lat="45.92531" lon="6.21328">
        <ele>1147.1999511719</ele>
        <time>2014-04-13T08:40:45.000Z</time>
      </trkpt>
      <trkpt lat="45.9252" lon="6.21323">
        <ele>1145.8000488281</ele>
        <time>2014-04-13T08:40:50.000Z</time>
      </trkpt>
      <trkpt lat="45.92511" lon="6.21317">
        <ele>1144.8000488281</ele>
        <time>2014-04-13T08:40:55.000Z</time>
      </trkpt>
      <trkpt lat="45.92507" lon="6.21317">
        <ele>1144.4000244141</ele>
        <time>2014-04-13T08:40:57.000Z</time>
      </trkpt>
      <trkpt lat="45.92501" lon="6.21317">
        <ele>1143.8000488281</ele>
        <time>2014-04-13T08:41:01.000Z</time>
      </trkpt>
      <trkpt lat="45.92499" lon="6.21316">
        <ele>1143.5999755859</ele>
        <time>2014-04-13T08:41:02.000Z</time>
      </trkpt>
      <trkpt lat="45.92493" lon="6.21314">
        <ele>1142.8000488281</ele>
        <time>2014-04-13T08:41:05.000Z</time>
      </trkpt>
      <trkpt lat="45.92488" lon="6.2131">
        <ele>1141.8000488281</ele>
        <time>2014-04-13T08:41:08.000Z</time>
      </trkpt>
      <trkpt lat="45.92486" lon="6.21308">
        <ele>1141.5999755859</ele>
        <time>2014-04-13T08:41:09.000Z</time>
      </trkpt>
      <trkpt lat="45.92478" lon="6.21308">
        <ele>1140.5999755859</ele>
        <time>2014-04-13T08:41:12.000Z</time>
      </trkpt>
      <trkpt lat="45.92463" lon="6.21303">
        <ele>1138.4000244141</ele>
        <time>2014-04-13T08:41:18.000Z</time>
      </trkpt>
      <trkpt lat="45.9245" lon="6.21297">
        <ele>1136.5999755859</ele>
        <time>2014-04-13T08:41:23.000Z</time>
      </trkpt>
      <trkpt lat="45.92438" lon="6.21295">
        <ele>1135.1999511719</ele>
        <time>2014-04-13T08:41:27.000Z</time>
      </trkpt>
      <trkpt lat="45.92424" lon="6.21295">
        <ele>1133.5999755859</ele>
        <time>2014-04-13T08:41:33.000Z</time>
      </trkpt>
      <trkpt lat="45.92407" lon="6.21289">
        <ele>1130.5999755859</ele>
        <time>2014-04-13T08:41:38.000Z</time>
      </trkpt>
      <trkpt lat="45.92395" lon="6.21291">
        <ele>1128.4000244141</ele>
        <time>2014-04-13T08:41:43.000Z</time>
      </trkpt>
      <trkpt lat="45.92393" lon="6.21292">
        <ele>1128</ele>
        <time>2014-04-13T08:41:44.000Z</time>
      </trkpt>
      <trkpt lat="45.92385" lon="6.21292">
        <ele>1126.4000244141</ele>
        <time>2014-04-13T08:41:48.000Z</time>
      </trkpt>
      <trkpt lat="45.92383" lon="6.21292">
        <ele>1126</ele>
        <time>2014-04-13T08:41:49.000Z</time>
      </trkpt>
      <trkpt lat="45.92374" lon="6.21292">
        <ele>1124.4000244141</ele>
        <time>2014-04-13T08:41:53.000Z</time>
      </trkpt>
      <trkpt lat="45.92372" lon="6.21291">
        <ele>1124</ele>
        <time>2014-04-13T08:41:54.000Z</time>
      </trkpt>
      <trkpt lat="45.92362" lon="6.21291">
        <ele>1122</ele>
        <time>2014-04-13T08:41:58.000Z</time>
      </trkpt>
      <trkpt lat="45.92348" lon="6.21293">
        <ele>1119.1999511719</ele>
        <time>2014-04-13T08:42:02.000Z</time>
      </trkpt>
      <trkpt lat="45.92339" lon="6.21288">
        <ele>1118.1999511719</ele>
        <time>2014-04-13T08:42:06.000Z</time>
      </trkpt>
      <trkpt lat="45.92335" lon="6.21264">
        <ele>1120.4000244141</ele>
        <time>2014-04-13T08:42:10.000Z</time>
      </trkpt>
      <trkpt lat="45.92335" lon="6.21246">
        <ele>1121</ele>
        <time>2014-04-13T08:42:13.000Z</time>
      </trkpt>
      <trkpt lat="45.92336" lon="6.21239">
        <ele>1118.5999755859</ele>
        <time>2014-04-13T08:42:14.000Z</time>
      </trkpt>
      <trkpt lat="45.92337" lon="6.2122">
        <ele>1112.4000244141</ele>
        <time>2014-04-13T08:42:18.000Z</time>
      </trkpt>
      <trkpt lat="45.92339" lon="6.21207">
        <ele>1108.1999511719</ele>
        <time>2014-04-13T08:42:23.000Z</time>
      </trkpt>
      <trkpt lat="45.92339" lon="6.21205">
        <ele>1107.8000488281</ele>
        <time>2014-04-13T08:42:24.000Z</time>
      </trkpt>
      <trkpt lat="45.92341" lon="6.21199">
        <ele>1105.8000488281</ele>
        <time>2014-04-13T08:42:28.000Z</time>
      </trkpt>
      <trkpt lat="45.9234" lon="6.21198">
        <ele>1105.4000244141</ele>
        <time>2014-04-13T08:42:29.000Z</time>
      </trkpt>
      <trkpt lat="45.92341" lon="6.21194">
        <ele>1104.1999511719</ele>
        <time>2014-04-13T08:42:32.000Z</time>
      </trkpt>
      <trkpt lat="45.92332" lon="6.21189">
        <ele>1101.4000244141</ele>
        <time>2014-04-13T08:42:37.000Z</time>
      </trkpt>
      <trkpt lat="45.92323" lon="6.21186">
        <ele>1098.4000244141</ele>
        <time>2014-04-13T08:42:42.000Z</time>
      </trkpt>
      <trkpt lat="45.92312" lon="6.21185">
        <ele>1095.5999755859</ele>
        <time>2014-04-13T08:42:47.000Z</time>
      </trkpt>
      <trkpt lat="45.92301" lon="6.21182">
        <ele>1092.4000244141</ele>
        <time>2014-04-13T08:42:52.000Z</time>
      </trkpt>
      <trkpt lat="45.92288" lon="6.21176">
        <ele>1087.1999511719</ele>
        <time>2014-04-13T08:42:57.000Z</time>
      </trkpt>
      <trkpt lat="45.92276" lon="6.21174">
        <ele>1084.1999511719</ele>
        <time>2014-04-13T08:43:02.000Z</time>
      </trkpt>
      <trkpt lat="45.92265" lon="6.21169">
        <ele>1080.1999511719</ele>
        <time>2014-04-13T08:43:07.000Z</time>
      </trkpt>
      <trkpt lat="45.92251" lon="6.21166">
        <ele>1075.8000488281</ele>
        <time>2014-04-13T08:43:12.000Z</time>
      </trkpt>
      <trkpt lat="45.92246" lon="6.21171">
        <ele>1077.1999511719</ele>
        <time>2014-04-13T08:43:16.000Z</time>
      </trkpt>
      <trkpt lat="45.92239" lon="6.21179">
        <ele>1079</ele>
        <time>2014-04-13T08:43:20.000Z</time>
      </trkpt>
      <trkpt lat="45.92237" lon="6.21181">
        <ele>1079.1999511719</ele>
        <time>2014-04-13T08:43:22.000Z</time>
      </trkpt>
      <trkpt lat="45.9223" lon="6.21183">
        <ele>1078.5999755859</ele>
        <time>2014-04-13T08:43:24.000Z</time>
      </trkpt>
      <trkpt lat="45.92218" lon="6.21193">
        <ele>1080</ele>
        <time>2014-04-13T08:43:30.000Z</time>
      </trkpt>
      <trkpt lat="45.9221" lon="6.212">
        <ele>1080.5999755859</ele>
        <time>2014-04-13T08:43:34.000Z</time>
      </trkpt>
      <trkpt lat="45.92205" lon="6.21208">
        <ele>1082</ele>
        <time>2014-04-13T08:43:37.000Z</time>
      </trkpt>
      <trkpt lat="45.92202" lon="6.21208">
        <ele>1081.5999755859</ele>
        <time>2014-04-13T08:43:38.000Z</time>
      </trkpt>
      <trkpt lat="45.92194" lon="6.21213">
        <ele>1081.1999511719</ele>
        <time>2014-04-13T08:43:42.000Z</time>
      </trkpt>
      <trkpt lat="45.92191" lon="6.21214">
        <ele>1081.1999511719</ele>
        <time>2014-04-13T08:43:43.000Z</time>
      </trkpt>
      <trkpt lat="45.92186" lon="6.21217">
        <ele>1080.8000488281</ele>
        <time>2014-04-13T08:43:45.000Z</time>
      </trkpt>
      <trkpt lat="45.9218" lon="6.21215">
        <ele>1079.1999511719</ele>
        <time>2014-04-13T08:43:47.000Z</time>
      </trkpt>
      <trkpt lat="45.92171" lon="6.21218">
        <ele>1078</ele>
        <time>2014-04-13T08:43:52.000Z</time>
      </trkpt>
      <trkpt lat="45.9216" lon="6.21224">
        <ele>1077.4000244141</ele>
        <time>2014-04-13T08:43:57.000Z</time>
      </trkpt>
      <trkpt lat="45.92155" lon="6.21226">
        <ele>1077.4000244141</ele>
        <time>2014-04-13T08:43:59.000Z</time>
      </trkpt>
      <trkpt lat="45.9214" lon="6.21226">
        <ele>1075.4000244141</ele>
        <time>2014-04-13T08:44:03.000Z</time>
      </trkpt>
      <trkpt lat="45.92128" lon="6.21228">
        <ele>1074.1999511719</ele>
        <time>2014-04-13T08:44:09.000Z</time>
      </trkpt>
      <trkpt lat="45.92118" lon="6.2123">
        <ele>1073.1999511719</ele>
        <time>2014-04-13T08:44:13.000Z</time>
      </trkpt>
      <trkpt lat="45.92115" lon="6.2123">
        <ele>1072.8000488281</ele>
        <time>2014-04-13T08:44:14.000Z</time>
      </trkpt>
      <trkpt lat="45.92101" lon="6.21228">
        <ele>1070.5999755859</ele>
        <time>2014-04-13T08:44:19.000Z</time>
      </trkpt>
      <trkpt lat="45.92089" lon="6.21221">
        <ele>1068.5999755859</ele>
        <time>2014-04-13T08:44:24.000Z</time>
      </trkpt>
      <trkpt lat="45.92088" lon="6.2122">
        <ele>1068.4000244141</ele>
        <time>2014-04-13T08:44:25.000Z</time>
      </trkpt>
      <trkpt lat="45.9208" lon="6.21222">
        <ele>1067.8000488281</ele>
        <time>2014-04-13T08:44:30.000Z</time>
      </trkpt>
      <trkpt lat="45.92068" lon="6.21219">
        <ele>1067.5999755859</ele>
        <time>2014-04-13T08:44:35.000Z</time>
      </trkpt>
      <trkpt lat="45.92058" lon="6.21214">
        <ele>1067.4000244141</ele>
        <time>2014-04-13T08:44:41.000Z</time>
      </trkpt>
      <trkpt lat="45.92056" lon="6.21214">
        <ele>1067.4000244141</ele>
        <time>2014-04-13T08:44:42.000Z</time>
      </trkpt>
      <trkpt lat="45.92047" lon="6.21209">
        <ele>1067.5999755859</ele>
        <time>2014-04-13T08:44:49.000Z</time>
      </trkpt>
      <trkpt lat="45.92032" lon="6.21203">
        <ele>1068.1999511719</ele>
        <time>2014-04-13T08:44:55.000Z</time>
      </trkpt>
      <trkpt lat="45.9202" lon="6.212">
        <ele>1069</ele>
        <time>2014-04-13T08:45:00.000Z</time>
      </trkpt>
      <trkpt lat="45.92004" lon="6.21194">
        <ele>1070.4000244141</ele>
        <time>2014-04-13T08:45:06.000Z</time>
      </trkpt>
      <trkpt lat="45.91985" lon="6.21184">
        <ele>1071</ele>
        <time>2014-04-13T08:45:12.000Z</time>
      </trkpt>
      <trkpt lat="45.91974" lon="6.21179">
        <ele>1071</ele>
        <time>2014-04-13T08:45:16.000Z</time>
      </trkpt>
      <trkpt lat="45.91959" lon="6.21172">
        <ele>1071.4000244141</ele>
        <time>2014-04-13T08:45:22.000Z</time>
      </trkpt>
      <trkpt lat="45.91945" lon="6.21163">
        <ele>1070.8000488281</ele>
        <time>2014-04-13T08:45:27.000Z</time>
      </trkpt>
      <trkpt lat="45.91926" lon="6.21162">
        <ele>1070</ele>
        <time>2014-04-13T08:45:33.000Z</time>
      </trkpt>
      <trkpt lat="45.91914" lon="6.21154">
        <ele>1067.8000488281</ele>
        <time>2014-04-13T08:45:37.000Z</time>
      </trkpt>
      <trkpt lat="45.91901" lon="6.2115">
        <ele>1064.5999755859</ele>
        <time>2014-04-13T08:45:41.000Z</time>
      </trkpt>
      <trkpt lat="45.9189" lon="6.21145">
        <ele>1062</ele>
        <time>2014-04-13T08:45:46.000Z</time>
      </trkpt>
      <trkpt lat="45.91888" lon="6.21141">
        <ele>1061.1999511719</ele>
        <time>2014-04-13T08:45:48.000Z</time>
      </trkpt>
      <trkpt lat="45.91888" lon="6.21131">
        <ele>1060.5999755859</ele>
        <time>2014-04-13T08:45:50.000Z</time>
      </trkpt>
      <trkpt lat="45.9189" lon="6.21122">
        <ele>1060.1999511719</ele>
        <time>2014-04-13T08:45:53.000Z</time>
      </trkpt>
      <trkpt lat="45.91889" lon="6.21116">
        <ele>1059.5999755859</ele>
        <time>2014-04-13T08:45:55.000Z</time>
      </trkpt>
      <trkpt lat="45.91884" lon="6.21109">
        <ele>1058.4000244141</ele>
        <time>2014-04-13T08:45:58.000Z</time>
      </trkpt>
      <trkpt lat="45.91882" lon="6.21104">
        <ele>1058</ele>
        <time>2014-04-13T08:46:00.000Z</time>
      </trkpt>
      <trkpt lat="45.91888" lon="6.21099">
        <ele>1058.4000244141</ele>
        <time>2014-04-13T08:46:04.000Z</time>
      </trkpt>
      <trkpt lat="45.91893" lon="6.21097">
        <ele>1058.8000488281</ele>
        <time>2014-04-13T08:46:07.000Z</time>
      </trkpt>
      <trkpt lat="45.91895" lon="6.21095">
        <ele>1058.8000488281</ele>
        <time>2014-04-13T08:46:08.000Z</time>
      </trkpt>
      <trkpt lat="45.91899" lon="6.2108">
        <ele>1057.4000244141</ele>
        <time>2014-04-13T08:46:14.000Z</time>
      </trkpt>
      <trkpt lat="45.91894" lon="6.21074">
        <ele>1054.8000488281</ele>
        <time>2014-04-13T08:46:18.000Z</time>
      </trkpt>
      <trkpt lat="45.9189" lon="6.21074">
        <ele>1054.4000244141</ele>
        <time>2014-04-13T08:46:20.000Z</time>
      </trkpt>
      <trkpt lat="45.91887" lon="6.21072">
        <ele>1053.4000244141</ele>
        <time>2014-04-13T08:46:22.000Z</time>
      </trkpt>
      <trkpt lat="45.91886" lon="6.21071">
        <ele>1053</ele>
        <time>2014-04-13T08:46:23.000Z</time>
      </trkpt>
      <trkpt lat="45.91878" lon="6.21067">
        <ele>1050.5999755859</ele>
        <time>2014-04-13T08:46:27.000Z</time>
      </trkpt>
      <trkpt lat="45.91874" lon="6.21063">
        <ele>1048.5999755859</ele>
        <time>2014-04-13T08:46:29.000Z</time>
      </trkpt>
      <trkpt lat="45.91868" lon="6.21054">
        <ele>1044.5999755859</ele>
        <time>2014-04-13T08:46:32.000Z</time>
      </trkpt>
      <trkpt lat="45.91855" lon="6.21046">
        <ele>1039.1999511719</ele>
        <time>2014-04-13T08:46:37.000Z</time>
      </trkpt>
      <trkpt lat="45.91853" lon="6.21046">
        <ele>1038.4000244141</ele>
        <time>2014-04-13T08:46:38.000Z</time>
      </trkpt>
      <trkpt lat="45.91844" lon="6.21044">
        <ele>1036.4000244141</ele>
        <time>2014-04-13T08:46:43.000Z</time>
      </trkpt>
      <trkpt lat="45.91839" lon="6.21046">
        <ele>1036.1999511719</ele>
        <time>2014-04-13T08:46:47.000Z</time>
      </trkpt>
      <trkpt lat="45.9183" lon="6.21041">
        <ele>1031.5999755859</ele>
        <time>2014-04-13T08:46:51.000Z</time>
      </trkpt>
      <trkpt lat="45.91828" lon="6.21041">
        <ele>1030.5999755859</ele>
        <time>2014-04-13T08:46:52.000Z</time>
      </trkpt>
      <trkpt lat="45.91826" lon="6.21044">
        <ele>1031</ele>
        <time>2014-04-13T08:46:54.000Z</time>
      </trkpt>
      <trkpt lat="45.91823" lon="6.21048">
        <ele>1031.4000244141</ele>
        <time>2014-04-13T08:46:56.000Z</time>
      </trkpt>
      <trkpt lat="45.91815" lon="6.21052">
        <ele>1030.5999755859</ele>
        <time>2014-04-13T08:47:00.000Z</time>
      </trkpt>
      <trkpt lat="45.91809" lon="6.21065">
        <ele>1033.4000244141</ele>
        <time>2014-04-13T08:47:05.000Z</time>
      </trkpt>
      <trkpt lat="45.91803" lon="6.21077">
        <ele>1035.4000244141</ele>
        <time>2014-04-13T08:47:09.000Z</time>
      </trkpt>
      <trkpt lat="45.918" lon="6.21078">
        <ele>1035</ele>
        <time>2014-04-13T08:47:10.000Z</time>
      </trkpt>
      <trkpt lat="45.91794" lon="6.21083">
        <ele>1034.1999511719</ele>
        <time>2014-04-13T08:47:13.000Z</time>
      </trkpt>
      <trkpt lat="45.9179" lon="6.21081">
        <ele>1031.4000244141</ele>
        <time>2014-04-13T08:47:15.000Z</time>
      </trkpt>
      <trkpt lat="45.91787" lon="6.21083">
        <ele>1031</ele>
        <time>2014-04-13T08:47:17.000Z</time>
      </trkpt>
      <trkpt lat="45.91784" lon="6.21089">
        <ele>1029</ele>
        <time>2014-04-13T08:47:19.000Z</time>
      </trkpt>
      <trkpt lat="45.91777" lon="6.21096">
        <ele>1025.5999755859</ele>
        <time>2014-04-13T08:47:22.000Z</time>
      </trkpt>
      <trkpt lat="45.91774" lon="6.21098">
        <ele>1024.1999511719</ele>
        <time>2014-04-13T08:47:24.000Z</time>
      </trkpt>
      <trkpt lat="45.91766" lon="6.21086">
        <ele>1021.200012207</ele>
        <time>2014-04-13T08:47:27.000Z</time>
      </trkpt>
      <trkpt lat="45.91765" lon="6.21078">
        <ele>1018.799987793</ele>
        <time>2014-04-13T08:47:30.000Z</time>
      </trkpt>
      <trkpt lat="45.91765" lon="6.21071">
        <ele>1016.799987793</ele>
        <time>2014-04-13T08:47:32.000Z</time>
      </trkpt>
      <trkpt lat="45.91766" lon="6.21052">
        <ele>1010.799987793</ele>
        <time>2014-04-13T08:47:37.000Z</time>
      </trkpt>
      <trkpt lat="45.91764" lon="6.21048">
        <ele>1008.5999755859</ele>
        <time>2014-04-13T08:47:41.000Z</time>
      </trkpt>
      <trkpt lat="45.91762" lon="6.21049">
        <ele>1008.200012207</ele>
        <time>2014-04-13T08:47:42.000Z</time>
      </trkpt>
      <trkpt lat="45.91756" lon="6.21053">
        <ele>1006.799987793</ele>
        <time>2014-04-13T08:47:45.000Z</time>
      </trkpt>
      <trkpt lat="45.91751" lon="6.21054">
        <ele>1005.4000244141</ele>
        <time>2014-04-13T08:47:47.000Z</time>
      </trkpt>
      <trkpt lat="45.91741" lon="6.21062">
        <ele>1004.200012207</ele>
        <time>2014-04-13T08:47:52.000Z</time>
      </trkpt>
      <trkpt lat="45.91734" lon="6.21069">
        <ele>1003.5999755859</ele>
        <time>2014-04-13T08:47:57.000Z</time>
      </trkpt>
      <trkpt lat="45.91727" lon="6.21062">
        <ele>999.20001220703</ele>
        <time>2014-04-13T08:48:01.000Z</time>
      </trkpt>
      <trkpt lat="45.91718" lon="6.2106">
        <ele>995.40002441406</ele>
        <time>2014-04-13T08:48:06.000Z</time>
      </trkpt>
      <trkpt lat="45.91711" lon="6.21072">
        <ele>995</ele>
        <time>2014-04-13T08:48:11.000Z</time>
      </trkpt>
      <trkpt lat="45.91707" lon="6.21077">
        <ele>994.59997558594</ele>
        <time>2014-04-13T08:48:14.000Z</time>
      </trkpt>
      <trkpt lat="45.91706" lon="6.21079">
        <ele>994.59997558594</ele>
        <time>2014-04-13T08:48:15.000Z</time>
      </trkpt>
      <trkpt lat="45.91696" lon="6.2108">
        <ele>990.79998779297</ele>
        <time>2014-04-13T08:48:19.000Z</time>
      </trkpt>
      <trkpt lat="45.91693" lon="6.21081">
        <ele>989.79998779297</ele>
        <time>2014-04-13T08:48:21.000Z</time>
      </trkpt>
      <trkpt lat="45.91688" lon="6.21083">
        <ele>987.79998779297</ele>
        <time>2014-04-13T08:48:24.000Z</time>
      </trkpt>
      <trkpt lat="45.91679" lon="6.21084">
        <ele>984.20001220703</ele>
        <time>2014-04-13T08:48:29.000Z</time>
      </trkpt>
      <trkpt lat="45.91678" lon="6.21094">
        <ele>982.20001220703</ele>
        <time>2014-04-13T08:48:33.000Z</time>
      </trkpt>
      <trkpt lat="45.91673" lon="6.21096">
        <ele>979.59997558594</ele>
        <time>2014-04-13T08:48:37.000Z</time>
      </trkpt>
      <trkpt lat="45.91672" lon="6.21095">
        <ele>979.20001220703</ele>
        <time>2014-04-13T08:48:38.000Z</time>
      </trkpt>
      <trkpt lat="45.91671" lon="6.21094">
        <ele>978.79998779297</ele>
        <time>2014-04-13T08:48:39.000Z</time>
      </trkpt>
      <trkpt lat="45.91665" lon="6.21092">
        <ele>976.59997558594</ele>
        <time>2014-04-13T08:48:42.000Z</time>
      </trkpt>
      <trkpt lat="45.91659" lon="6.21081">
        <ele>975.79998779297</ele>
        <time>2014-04-13T08:48:47.000Z</time>
      </trkpt>
      <trkpt lat="45.91653" lon="6.21067">
        <ele>972.79998779297</ele>
        <time>2014-04-13T08:48:52.000Z</time>
      </trkpt>
      <trkpt lat="45.91652" lon="6.21065">
        <ele>972.59997558594</ele>
        <time>2014-04-13T08:48:53.000Z</time>
      </trkpt>
      <trkpt lat="45.91649" lon="6.21057">
        <ele>971</ele>
        <time>2014-04-13T08:48:57.000Z</time>
      </trkpt>
      <trkpt lat="45.91645" lon="6.21051">
        <ele>969.40002441406</ele>
        <time>2014-04-13T08:49:01.000Z</time>
      </trkpt>
      <trkpt lat="45.91643" lon="6.2105">
        <ele>968.79998779297</ele>
        <time>2014-04-13T08:49:02.000Z</time>
      </trkpt>
      <trkpt lat="45.91635" lon="6.21045">
        <ele>966</ele>
        <time>2014-04-13T08:49:08.000Z</time>
      </trkpt>
      <trkpt lat="45.9163" lon="6.21046">
        <ele>964.40002441406</ele>
        <time>2014-04-13T08:49:13.000Z</time>
      </trkpt>
      <trkpt lat="45.91629" lon="6.21045">
        <ele>964.40002441406</ele>
        <time>2014-04-13T08:49:14.000Z</time>
      </trkpt>
      <trkpt lat="45.91628" lon="6.21039">
        <ele>963.79998779297</ele>
        <time>2014-04-13T08:49:18.000Z</time>
      </trkpt>
      <trkpt lat="45.91627" lon="6.21036">
        <ele>963.59997558594</ele>
        <time>2014-04-13T08:49:20.000Z</time>
      </trkpt>
      <trkpt lat="45.91625" lon="6.21026">
        <ele>963</ele>
        <time>2014-04-13T08:49:23.000Z</time>
      </trkpt>
      <trkpt lat="45.91623" lon="6.21022">
        <ele>962.40002441406</ele>
        <time>2014-04-13T08:49:24.000Z</time>
      </trkpt>
      <trkpt lat="45.91619" lon="6.21004">
        <ele>961.59997558594</ele>
        <time>2014-04-13T08:49:28.000Z</time>
      </trkpt>
      <trkpt lat="45.91617" lon="6.20985">
        <ele>958</ele>
        <time>2014-04-13T08:49:32.000Z</time>
      </trkpt>
      <trkpt lat="45.91614" lon="6.20969">
        <ele>953.79998779297</ele>
        <time>2014-04-13T08:49:37.000Z</time>
      </trkpt>
      <trkpt lat="45.916" lon="6.20966">
        <ele>951.20001220703</ele>
        <time>2014-04-13T08:49:43.000Z</time>
      </trkpt>
      <trkpt lat="45.9159" lon="6.20971">
        <ele>950.59997558594</ele>
        <time>2014-04-13T08:49:48.000Z</time>
      </trkpt>
      <trkpt lat="45.91583" lon="6.20978">
        <ele>950.40002441406</ele>
        <time>2014-04-13T08:49:52.000Z</time>
      </trkpt>
      <trkpt lat="45.91582" lon="6.20983">
        <ele>950.40002441406</ele>
        <time>2014-04-13T08:49:54.000Z</time>
      </trkpt>
      <trkpt lat="45.91578" lon="6.20989">
        <ele>949.40002441406</ele>
        <time>2014-04-13T08:49:57.000Z</time>
      </trkpt>
      <trkpt lat="45.91577" lon="6.2099">
        <ele>949</ele>
        <time>2014-04-13T08:49:59.000Z</time>
      </trkpt>
      <trkpt lat="45.91574" lon="6.20985">
        <ele>946.79998779297</ele>
        <time>2014-04-13T08:50:01.000Z</time>
      </trkpt>
      <trkpt lat="45.91573" lon="6.20979">
        <ele>945.40002441406</ele>
        <time>2014-04-13T08:50:03.000Z</time>
      </trkpt>
      <trkpt lat="45.9157" lon="6.20968">
        <ele>943</ele>
        <time>2014-04-13T08:50:05.000Z</time>
      </trkpt>
      <trkpt lat="45.91567" lon="6.20954">
        <ele>939.79998779297</ele>
        <time>2014-04-13T08:50:08.000Z</time>
      </trkpt>
      <trkpt lat="45.91567" lon="6.20949">
        <ele>939.40002441406</ele>
        <time>2014-04-13T08:50:09.000Z</time>
      </trkpt>
      <trkpt lat="45.91566" lon="6.20932">
        <ele>937.40002441406</ele>
        <time>2014-04-13T08:50:14.000Z</time>
      </trkpt>
      <trkpt lat="45.91564" lon="6.20929">
        <ele>936.40002441406</ele>
        <time>2014-04-13T08:50:15.000Z</time>
      </trkpt>
      <trkpt lat="45.91561" lon="6.20929">
        <ele>935.59997558594</ele>
        <time>2014-04-13T08:50:17.000Z</time>
      </trkpt>
      <trkpt lat="45.91559" lon="6.20931">
        <ele>935</ele>
        <time>2014-04-13T08:50:19.000Z</time>
      </trkpt>
      <trkpt lat="45.91554" lon="6.20937">
        <ele>933.59997558594</ele>
        <time>2014-04-13T08:50:22.000Z</time>
      </trkpt>
      <trkpt lat="45.91547" lon="6.20938">
        <ele>931.20001220703</ele>
        <time>2014-04-13T08:50:24.000Z</time>
      </trkpt>
      <trkpt lat="45.91541" lon="6.20941">
        <ele>928.79998779297</ele>
        <time>2014-04-13T08:50:26.000Z</time>
      </trkpt>
      <trkpt lat="45.9153" lon="6.20939">
        <ele>924.59997558594</ele>
        <time>2014-04-13T08:50:30.000Z</time>
      </trkpt>
      <trkpt lat="45.91528" lon="6.2094">
        <ele>924</ele>
        <time>2014-04-13T08:50:31.000Z</time>
      </trkpt>
      <trkpt lat="45.91519" lon="6.20935">
        <ele>920.79998779297</ele>
        <time>2014-04-13T08:50:36.000Z</time>
      </trkpt>
      <trkpt lat="45.91518" lon="6.20931">
        <ele>920.59997558594</ele>
        <time>2014-04-13T08:50:37.000Z</time>
      </trkpt>
      <trkpt lat="45.91507" lon="6.20917">
        <ele>918.20001220703</ele>
        <time>2014-04-13T08:50:40.000Z</time>
      </trkpt>
      <trkpt lat="45.91498" lon="6.20903">
        <ele>913</ele>
        <time>2014-04-13T08:50:44.000Z</time>
      </trkpt>
      <trkpt lat="45.91486" lon="6.2089">
        <ele>906.40002441406</ele>
        <time>2014-04-13T08:50:48.000Z</time>
      </trkpt>
      <trkpt lat="45.91477" lon="6.20889">
        <ele>903</ele>
        <time>2014-04-13T08:50:52.000Z</time>
      </trkpt>
      <trkpt lat="45.91475" lon="6.20889">
        <ele>902.59997558594</ele>
        <time>2014-04-13T08:50:53.000Z</time>
      </trkpt>
      <trkpt lat="45.91464" lon="6.20892">
        <ele>899.20001220703</ele>
        <time>2014-04-13T08:50:58.000Z</time>
      </trkpt>
      <trkpt lat="45.91462" lon="6.20893">
        <ele>898.59997558594</ele>
        <time>2014-04-13T08:50:59.000Z</time>
      </trkpt>
      <trkpt lat="45.91451" lon="6.20895">
        <ele>894.79998779297</ele>
        <time>2014-04-13T08:51:05.000Z</time>
      </trkpt>
      <trkpt lat="45.91445" lon="6.20898">
        <ele>892.79998779297</ele>
        <time>2014-04-13T08:51:09.000Z</time>
      </trkpt>
      <trkpt lat="45.91443" lon="6.20898">
        <ele>892</ele>
        <time>2014-04-13T08:51:11.000Z</time>
      </trkpt>
      <trkpt lat="45.91442" lon="6.20895">
        <ele>891.40002441406</ele>
        <time>2014-04-13T08:51:13.000Z</time>
      </trkpt>
      <trkpt lat="45.9144" lon="6.20889">
        <ele>890.79998779297</ele>
        <time>2014-04-13T08:51:16.000Z</time>
      </trkpt>
      <trkpt lat="45.91438" lon="6.2088">
        <ele>889.59997558594</ele>
        <time>2014-04-13T08:51:19.000Z</time>
      </trkpt>
      <trkpt lat="45.91432" lon="6.20869">
        <ele>887.79998779297</ele>
        <time>2014-04-13T08:51:22.000Z</time>
      </trkpt>
      <trkpt lat="45.91431" lon="6.20867">
        <ele>887.40002441406</ele>
        <time>2014-04-13T08:51:23.000Z</time>
      </trkpt>
      <trkpt lat="45.91424" lon="6.20844">
        <ele>885.59997558594</ele>
        <time>2014-04-13T08:51:28.000Z</time>
      </trkpt>
      <trkpt lat="45.91416" lon="6.20843">
        <ele>883.40002441406</ele>
        <time>2014-04-13T08:51:32.000Z</time>
      </trkpt>
      <trkpt lat="45.91415" lon="6.20844">
        <ele>883.20001220703</ele>
        <time>2014-04-13T08:51:33.000Z</time>
      </trkpt>
      <trkpt lat="45.91414" lon="6.20847">
        <ele>882.59997558594</ele>
        <time>2014-04-13T08:51:34.000Z</time>
      </trkpt>
      <trkpt lat="45.91413" lon="6.2085">
        <ele>882</ele>
        <time>2014-04-13T08:51:36.000Z</time>
      </trkpt>
      <trkpt lat="45.91411" lon="6.20854">
        <ele>880.59997558594</ele>
        <time>2014-04-13T08:51:38.000Z</time>
      </trkpt>
      <trkpt lat="45.91407" lon="6.2086">
        <ele>878.79998779297</ele>
        <time>2014-04-13T08:51:41.000Z</time>
      </trkpt>
      <trkpt lat="45.91406" lon="6.20863">
        <ele>878.20001220703</ele>
        <time>2014-04-13T08:51:42.000Z</time>
      </trkpt>
      <trkpt lat="45.91403" lon="6.20869">
        <ele>876.40002441406</ele>
        <time>2014-04-13T08:51:45.000Z</time>
      </trkpt>
      <trkpt lat="45.91401" lon="6.20872">
        <ele>875.59997558594</ele>
        <time>2014-04-13T08:51:47.000Z</time>
      </trkpt>
      <trkpt lat="45.914" lon="6.20875">
        <ele>874.59997558594</ele>
        <time>2014-04-13T08:51:49.000Z</time>
      </trkpt>
      <trkpt lat="45.91398" lon="6.20875">
        <ele>873.79998779297</ele>
        <time>2014-04-13T08:51:51.000Z</time>
      </trkpt>
      <trkpt lat="45.91393" lon="6.20867">
        <ele>871.79998779297</ele>
        <time>2014-04-13T08:51:56.000Z</time>
      </trkpt>
      <trkpt lat="45.91385" lon="6.20849">
        <ele>869.20001220703</ele>
        <time>2014-04-13T08:52:01.000Z</time>
      </trkpt>
      <trkpt lat="45.91381" lon="6.20845">
        <ele>867.40002441406</ele>
        <time>2014-04-13T08:52:04.000Z</time>
      </trkpt>
      <trkpt lat="45.9138" lon="6.20845">
        <ele>867</ele>
        <time>2014-04-13T08:52:05.000Z</time>
      </trkpt>
      <trkpt lat="45.91378" lon="6.20848">
        <ele>865.59997558594</ele>
        <time>2014-04-13T08:52:07.000Z</time>
      </trkpt>
      <trkpt lat="45.91375" lon="6.20853">
        <ele>864</ele>
        <time>2014-04-13T08:52:10.000Z</time>
      </trkpt>
      <trkpt lat="45.91373" lon="6.20855">
        <ele>863</ele>
        <time>2014-04-13T08:52:11.000Z</time>
      </trkpt>
      <trkpt lat="45.91372" lon="6.20858">
        <ele>862.40002441406</ele>
        <time>2014-04-13T08:52:13.000Z</time>
      </trkpt>
      <trkpt lat="45.91371" lon="6.20856">
        <ele>861.79998779297</ele>
        <time>2014-04-13T08:52:14.000Z</time>
      </trkpt>
      <trkpt lat="45.91364" lon="6.20854">
        <ele>858.79998779297</ele>
        <time>2014-04-13T08:52:20.000Z</time>
      </trkpt>
      <trkpt lat="45.91362" lon="6.20858">
        <ele>857.20001220703</ele>
        <time>2014-04-13T08:52:22.000Z</time>
      </trkpt>
      <trkpt lat="45.91354" lon="6.20861">
        <ele>853</ele>
        <time>2014-04-13T08:52:26.000Z</time>
      </trkpt>
      <trkpt lat="45.91348" lon="6.2086">
        <ele>850.40002441406</ele>
        <time>2014-04-13T08:52:29.000Z</time>
      </trkpt>
      <trkpt lat="45.91342" lon="6.20856">
        <ele>848</ele>
        <time>2014-04-13T08:52:31.000Z</time>
      </trkpt>
      <trkpt lat="45.91333" lon="6.20848">
        <ele>845.20001220703</ele>
        <time>2014-04-13T08:52:35.000Z</time>
      </trkpt>
      <trkpt lat="45.91328" lon="6.20835">
        <ele>845</ele>
        <time>2014-04-13T08:52:39.000Z</time>
      </trkpt>
      <trkpt lat="45.91326" lon="6.2083">
        <ele>844.20001220703</ele>
        <time>2014-04-13T08:52:40.000Z</time>
      </trkpt>
      <trkpt lat="45.91324" lon="6.20811">
        <ele>841.79998779297</ele>
        <time>2014-04-13T08:52:45.000Z</time>
      </trkpt>
      <trkpt lat="45.91318" lon="6.20811">
        <ele>840</ele>
        <time>2014-04-13T08:52:48.000Z</time>
      </trkpt>
      <trkpt lat="45.91311" lon="6.20818">
        <ele>838.20001220703</ele>
        <time>2014-04-13T08:52:52.000Z</time>
      </trkpt>
      <trkpt lat="45.91305" lon="6.20824">
        <ele>836.40002441406</ele>
        <time>2014-04-13T08:52:56.000Z</time>
      </trkpt>
      <trkpt lat="45.91302" lon="6.20821">
        <ele>835.40002441406</ele>
        <time>2014-04-13T08:52:59.000Z</time>
      </trkpt>
      <trkpt lat="45.91302" lon="6.20816">
        <ele>834.79998779297</ele>
        <time>2014-04-13T08:53:00.000Z</time>
      </trkpt>
      <trkpt lat="45.91297" lon="6.20817">
        <ele>833.40002441406</ele>
        <time>2014-04-13T08:53:04.000Z</time>
      </trkpt>
      <trkpt lat="45.91292" lon="6.20821">
        <ele>832.20001220703</ele>
        <time>2014-04-13T08:53:08.000Z</time>
      </trkpt>
      <trkpt lat="45.91292" lon="6.20818">
        <ele>831.59997558594</ele>
        <time>2014-04-13T08:53:09.000Z</time>
      </trkpt>
      <trkpt lat="45.91291" lon="6.20805">
        <ele>830.79998779297</ele>
        <time>2014-04-13T08:53:12.000Z</time>
      </trkpt>
      <trkpt lat="45.91288" lon="6.208">
        <ele>829.59997558594</ele>
        <time>2014-04-13T08:53:16.000Z</time>
      </trkpt>
      <trkpt lat="45.9128" lon="6.20804">
        <ele>827.40002441406</ele>
        <time>2014-04-13T08:53:20.000Z</time>
      </trkpt>
      <trkpt lat="45.91276" lon="6.20808">
        <ele>826.40002441406</ele>
        <time>2014-04-13T08:53:22.000Z</time>
      </trkpt>
      <trkpt lat="45.91271" lon="6.20815">
        <ele>824.79998779297</ele>
        <time>2014-04-13T08:53:25.000Z</time>
      </trkpt>
      <trkpt lat="45.91265" lon="6.20818">
        <ele>823</ele>
        <time>2014-04-13T08:53:29.000Z</time>
      </trkpt>
      <trkpt lat="45.91262" lon="6.20822">
        <ele>822</ele>
        <time>2014-04-13T08:53:31.000Z</time>
      </trkpt>
      <trkpt lat="45.91259" lon="6.20826">
        <ele>821</ele>
        <time>2014-04-13T08:53:33.000Z</time>
      </trkpt>
      <trkpt lat="45.91247" lon="6.20829">
        <ele>817.40002441406</ele>
        <time>2014-04-13T08:53:38.000Z</time>
      </trkpt>
      <trkpt lat="45.91238" lon="6.20828">
        <ele>816</ele>
        <time>2014-04-13T08:53:41.000Z</time>
      </trkpt>
      <trkpt lat="45.91234" lon="6.20829">
        <ele>815.40002441406</ele>
        <time>2014-04-13T08:53:42.000Z</time>
      </trkpt>
      <trkpt lat="45.9123" lon="6.20832">
        <ele>814.59997558594</ele>
        <time>2014-04-13T08:53:44.000Z</time>
      </trkpt>
      <trkpt lat="45.91226" lon="6.20831">
        <ele>814</ele>
        <time>2014-04-13T08:53:46.000Z</time>
      </trkpt>
      <trkpt lat="45.91225" lon="6.20832">
        <ele>813.79998779297</ele>
        <time>2014-04-13T08:53:47.000Z</time>
      </trkpt>
      <trkpt lat="45.91215" lon="6.20839">
        <ele>810.59997558594</ele>
        <time>2014-04-13T08:53:53.000Z</time>
      </trkpt>
      <trkpt lat="45.91211" lon="6.20838">
        <ele>810</ele>
        <time>2014-04-13T08:53:57.000Z</time>
      </trkpt>
      <trkpt lat="45.91206" lon="6.20831">
        <ele>810.79998779297</ele>
        <time>2014-04-13T08:54:01.000Z</time>
      </trkpt>
      <trkpt lat="45.91209" lon="6.20838">
        <ele>809.79998779297</ele>
        <time>2014-04-13T08:54:06.000Z</time>
      </trkpt>
      <trkpt lat="45.91215" lon="6.20847">
        <ele>808.59997558594</ele>
        <time>2014-04-13T08:54:12.000Z</time>
      </trkpt>
      <trkpt lat="45.91222" lon="6.20855">
        <ele>807.79998779297</ele>
        <time>2014-04-13T08:54:17.000Z</time>
      </trkpt>
      <trkpt lat="45.9123" lon="6.20866">
        <ele>807</ele>
        <time>2014-04-13T08:54:23.000Z</time>
      </trkpt>
      <trkpt lat="45.91238" lon="6.20874">
        <ele>807.20001220703</ele>
        <time>2014-04-13T08:54:27.000Z</time>
      </trkpt>
      <trkpt lat="45.91243" lon="6.20887">
        <ele>805.59997558594</ele>
        <time>2014-04-13T08:54:32.000Z</time>
      </trkpt>
      <trkpt lat="45.9125" lon="6.20899">
        <ele>805.20001220703</ele>
        <time>2014-04-13T08:54:38.000Z</time>
      </trkpt>
      <trkpt lat="45.91254" lon="6.20913">
        <ele>804.40002441406</ele>
        <time>2014-04-13T08:54:43.000Z</time>
      </trkpt>
      <trkpt lat="45.91256" lon="6.20915">
        <ele>804.59997558594</ele>
        <time>2014-04-13T08:54:44.000Z</time>
      </trkpt>
      <trkpt lat="45.91259" lon="6.20924">
        <ele>804.20001220703</ele>
        <time>2014-04-13T08:54:48.000Z</time>
      </trkpt>
      <trkpt lat="45.91258" lon="6.20926">
        <ele>803.20001220703</ele>
        <time>2014-04-13T08:54:49.000Z</time>
      </trkpt>
      <trkpt lat="45.91258" lon="6.20931">
        <ele>802.40002441406</ele>
        <time>2014-04-13T08:54:52.000Z</time>
      </trkpt>
      <trkpt lat="45.91258" lon="6.20936">
        <ele>801.20001220703</ele>
        <time>2014-04-13T08:54:54.000Z</time>
      </trkpt>
      <trkpt lat="45.9126" lon="6.2094">
        <ele>801</ele>
        <time>2014-04-13T08:54:56.000Z</time>
      </trkpt>
      <trkpt lat="45.91266" lon="6.20953">
        <ele>800.59997558594</ele>
        <time>2014-04-13T08:55:01.000Z</time>
      </trkpt>
      <trkpt lat="45.91267" lon="6.20967">
        <ele>798.20001220703</ele>
        <time>2014-04-13T08:55:04.000Z</time>
      </trkpt>
      <trkpt lat="45.91269" lon="6.20971">
        <ele>798</ele>
        <time>2014-04-13T08:55:05.000Z</time>
      </trkpt>
      <trkpt lat="45.91276" lon="6.20987">
        <ele>797.59997558594</ele>
        <time>2014-04-13T08:55:11.000Z</time>
      </trkpt>
      <trkpt lat="45.91278" lon="6.20996">
        <ele>796.40002441406</ele>
        <time>2014-04-13T08:55:14.000Z</time>
      </trkpt>
      <trkpt lat="45.9128" lon="6.20998">
        <ele>796.79998779297</ele>
        <time>2014-04-13T08:55:15.000Z</time>
      </trkpt>
      <trkpt lat="45.91289" lon="6.21003">
        <ele>799.20001220703</ele>
        <time>2014-04-13T08:55:19.000Z</time>
      </trkpt>
      <trkpt lat="45.91297" lon="6.2102">
        <ele>799.40002441406</ele>
        <time>2014-04-13T08:55:24.000Z</time>
      </trkpt>
      <trkpt lat="45.91299" lon="6.21027">
        <ele>798.79998779297</ele>
        <time>2014-04-13T08:55:26.000Z</time>
      </trkpt>
      <trkpt lat="45.913" lon="6.2103">
        <ele>798.59997558594</ele>
        <time>2014-04-13T08:55:27.000Z</time>
      </trkpt>
      <trkpt lat="45.91302" lon="6.21036">
        <ele>798.20001220703</ele>
        <time>2014-04-13T08:55:29.000Z</time>
      </trkpt>
      <trkpt lat="45.91306" lon="6.21051">
        <ele>797.20001220703</ele>
        <time>2014-04-13T08:55:33.000Z</time>
      </trkpt>
      <trkpt lat="45.91311" lon="6.21063">
        <ele>796.40002441406</ele>
        <time>2014-04-13T08:55:38.000Z</time>
      </trkpt>
      <trkpt lat="45.91313" lon="6.21074">
        <ele>795.40002441406</ele>
        <time>2014-04-13T08:55:42.000Z</time>
      </trkpt>
      <trkpt lat="45.91314" lon="6.21082">
        <ele>794.20001220703</ele>
        <time>2014-04-13T08:55:44.000Z</time>
      </trkpt>
      <trkpt lat="45.91315" lon="6.21092">
        <ele>795.40002441406</ele>
        <time>2014-04-13T08:55:47.000Z</time>
      </trkpt>
      <trkpt lat="45.91319" lon="6.21105">
        <ele>798.40002441406</ele>
        <time>2014-04-13T08:55:51.000Z</time>
      </trkpt>
      <trkpt lat="45.9132" lon="6.21107">
        <ele>799</ele>
        <time>2014-04-13T08:55:52.000Z</time>
      </trkpt>
      <trkpt lat="45.91321" lon="6.21116">
        <ele>800.59997558594</ele>
        <time>2014-04-13T08:55:55.000Z</time>
      </trkpt>
      <trkpt lat="45.9132" lon="6.21119">
        <ele>800.59997558594</ele>
        <time>2014-04-13T08:55:56.000Z</time>
      </trkpt>
      <trkpt lat="45.91311" lon="6.21128">
        <ele>798.79998779297</ele>
        <time>2014-04-13T08:56:00.000Z</time>
      </trkpt>
      <trkpt lat="45.91308" lon="6.21131">
        <ele>798</ele>
        <time>2014-04-13T08:56:02.000Z</time>
      </trkpt>
      <trkpt lat="45.913" lon="6.21135">
        <ele>796</ele>
        <time>2014-04-13T08:56:06.000Z</time>
      </trkpt>
      <trkpt lat="45.91287" lon="6.21142">
        <ele>792.79998779297</ele>
        <time>2014-04-13T08:56:13.000Z</time>
      </trkpt>
      <trkpt lat="45.91274" lon="6.21152">
        <ele>790</ele>
        <time>2014-04-13T08:56:21.000Z</time>
      </trkpt>
      <trkpt lat="45.91265" lon="6.21159">
        <ele>788.40002441406</ele>
        <time>2014-04-13T08:56:27.000Z</time>
      </trkpt>
      <trkpt lat="45.91255" lon="6.21168">
        <ele>787</ele>
        <time>2014-04-13T08:56:34.000Z</time>
      </trkpt>
      <trkpt lat="45.91243" lon="6.21173">
        <ele>785.79998779297</ele>
        <time>2014-04-13T08:56:40.000Z</time>
      </trkpt>
      <trkpt lat="45.91233" lon="6.21181">
        <ele>786.40002441406</ele>
        <time>2014-04-13T08:56:46.000Z</time>
      </trkpt>
      <trkpt lat="45.91208" lon="6.21176">
        <ele>777.59997558594</ele>
        <time>2014-04-13T08:56:52.000Z</time>
      </trkpt>
      <trkpt lat="45.91187" lon="6.21166">
        <ele>769</ele>
        <time>2014-04-13T08:56:56.000Z</time>
      </trkpt>
      <trkpt lat="45.91183" lon="6.21168">
        <ele>768.59997558594</ele>
        <time>2014-04-13T08:56:58.000Z</time>
      </trkpt>
      <trkpt lat="45.9118" lon="6.2117">
        <ele>768.59997558594</ele>
        <time>2014-04-13T08:56:59.000Z</time>
      </trkpt>
      <trkpt lat="45.91166" lon="6.21172">
        <ele>765.59997558594</ele>
        <time>2014-04-13T08:57:03.000Z</time>
      </trkpt>
      <trkpt lat="45.91147" lon="6.21175">
        <ele>761.59997558594</ele>
        <time>2014-04-13T08:57:09.000Z</time>
      </trkpt>
      <trkpt lat="45.91144" lon="6.21177">
        <ele>761.59997558594</ele>
        <time>2014-04-13T08:57:10.000Z</time>
      </trkpt>
      <trkpt lat="45.9113" lon="6.21186">
        <ele>761</ele>
        <time>2014-04-13T08:57:16.000Z</time>
      </trkpt>
      <trkpt lat="45.91118" lon="6.21196">
        <ele>761.20001220703</ele>
        <time>2014-04-13T08:57:21.000Z</time>
      </trkpt>
      <trkpt lat="45.91109" lon="6.21208">
        <ele>763</ele>
        <time>2014-04-13T08:57:26.000Z</time>
      </trkpt>
      <trkpt lat="45.91099" lon="6.21219">
        <ele>764</ele>
        <time>2014-04-13T08:57:31.000Z</time>
      </trkpt>
      <trkpt lat="45.9108" lon="6.21219">
        <ele>759.59997558594</ele>
        <time>2014-04-13T08:57:36.000Z</time>
      </trkpt>
      <trkpt lat="45.91063" lon="6.21222">
        <ele>756.59997558594</ele>
        <time>2014-04-13T08:57:42.000Z</time>
      </trkpt>
      <trkpt lat="45.91048" lon="6.21225">
        <ele>754</ele>
        <time>2014-04-13T08:57:47.000Z</time>
      </trkpt>
      <trkpt lat="45.91035" lon="6.21225">
        <ele>751.40002441406</ele>
        <time>2014-04-13T08:57:52.000Z</time>
      </trkpt>
      <trkpt lat="45.9102" lon="6.21228">
        <ele>748.59997558594</ele>
        <time>2014-04-13T08:57:58.000Z</time>
      </trkpt>
      <trkpt lat="45.91004" lon="6.2123">
        <ele>745.79998779297</ele>
        <time>2014-04-13T08:58:03.000Z</time>
      </trkpt>
      <trkpt lat="45.90994" lon="6.21244">
        <ele>747.40002441406</ele>
        <time>2014-04-13T08:58:09.000Z</time>
      </trkpt>
      <trkpt lat="45.90986" lon="6.21257">
        <ele>746.79998779297</ele>
        <time>2014-04-13T08:58:15.000Z</time>
      </trkpt>
      <trkpt lat="45.90981" lon="6.2127">
        <ele>744.79998779297</ele>
        <time>2014-04-13T08:58:20.000Z</time>
      </trkpt>
      <trkpt lat="45.90976" lon="6.21287">
        <ele>743</ele>
        <time>2014-04-13T08:58:26.000Z</time>
      </trkpt>
      <trkpt lat="45.9097" lon="6.21301">
        <ele>741</ele>
        <time>2014-04-13T08:58:30.000Z</time>
      </trkpt>
      <trkpt lat="45.90958" lon="6.21308">
        <ele>737.20001220703</ele>
        <time>2014-04-13T08:58:35.000Z</time>
      </trkpt>
      <trkpt lat="45.9095" lon="6.2131">
        <ele>735</ele>
        <time>2014-04-13T08:58:38.000Z</time>
      </trkpt>
      <trkpt lat="45.90942" lon="6.21312">
        <ele>732.59997558594</ele>
        <time>2014-04-13T08:58:41.000Z</time>
      </trkpt>
      <trkpt lat="45.90926" lon="6.21319">
        <ele>727.79998779297</ele>
        <time>2014-04-13T08:58:47.000Z</time>
      </trkpt>
      <trkpt lat="45.90914" lon="6.21323">
        <ele>724.40002441406</ele>
        <time>2014-04-13T08:58:52.000Z</time>
      </trkpt>
      <trkpt lat="45.90904" lon="6.21336">
        <ele>721.40002441406</ele>
        <time>2014-04-13T08:58:57.000Z</time>
      </trkpt>
      <trkpt lat="45.90898" lon="6.21351">
        <ele>717.40002441406</ele>
        <time>2014-04-13T08:59:02.000Z</time>
      </trkpt>
      <trkpt lat="45.90903" lon="6.21368">
        <ele>716</ele>
        <time>2014-04-13T08:59:07.000Z</time>
      </trkpt>
      <trkpt lat="45.90915" lon="6.21366">
        <ele>718.79998779297</ele>
        <time>2014-04-13T08:59:12.000Z</time>
      </trkpt>
      <trkpt lat="45.90916" lon="6.21369">
        <ele>718.40002441406</ele>
        <time>2014-04-13T08:59:14.000Z</time>
      </trkpt>
      <trkpt lat="45.90913" lon="6.21371">
        <ele>717.59997558594</ele>
        <time>2014-04-13T08:59:15.000Z</time>
      </trkpt>
      <trkpt lat="45.90902" lon="6.21378">
        <ele>714.20001220703</ele>
        <time>2014-04-13T08:59:19.000Z</time>
      </trkpt>
      <trkpt lat="45.90891" lon="6.21385">
        <ele>710.79998779297</ele>
        <time>2014-04-13T08:59:24.000Z</time>
      </trkpt>
      <trkpt lat="45.90879" lon="6.21387">
        <ele>708.20001220703</ele>
        <time>2014-04-13T08:59:29.000Z</time>
      </trkpt>
      <trkpt lat="45.90876" lon="6.21385">
        <ele>708</ele>
        <time>2014-04-13T08:59:30.000Z</time>
      </trkpt>
      <trkpt lat="45.90869" lon="6.21381">
        <ele>707</ele>
        <time>2014-04-13T08:59:33.000Z</time>
      </trkpt>
      <trkpt lat="45.90861" lon="6.21366">
        <ele>707.20001220703</ele>
        <time>2014-04-13T08:59:38.000Z</time>
      </trkpt>
      <trkpt lat="45.90859" lon="6.21345">
        <ele>709.20001220703</ele>
        <time>2014-04-13T08:59:43.000Z</time>
      </trkpt>
      <trkpt lat="45.90856" lon="6.21319">
        <ele>710.20001220703</ele>
        <time>2014-04-13T08:59:49.000Z</time>
      </trkpt>
      <trkpt lat="45.90856" lon="6.21315">
        <ele>710.20001220703</ele>
        <time>2014-04-13T08:59:50.000Z</time>
      </trkpt>
      <trkpt lat="45.90847" lon="6.21293">
        <ele>708.79998779297</ele>
        <time>2014-04-13T08:59:56.000Z</time>
      </trkpt>
      <trkpt lat="45.90831" lon="6.21283">
        <ele>705.59997558594</ele>
        <time>2014-04-13T09:00:02.000Z</time>
      </trkpt>
      <trkpt lat="45.90823" lon="6.21281">
        <ele>704.20001220703</ele>
        <time>2014-04-13T09:00:05.000Z</time>
      </trkpt>
      <trkpt lat="45.90812" lon="6.21277">
        <ele>702.79998779297</ele>
        <time>2014-04-13T09:00:09.000Z</time>
      </trkpt>
      <trkpt lat="45.90793" lon="6.21271">
        <ele>700.40002441406</ele>
        <time>2014-04-13T09:00:16.000Z</time>
      </trkpt>
      <trkpt lat="45.90776" lon="6.21267">
        <ele>698.59997558594</ele>
        <time>2014-04-13T09:00:22.000Z</time>
      </trkpt>
      <trkpt lat="45.9076" lon="6.21264">
        <ele>697</ele>
        <time>2014-04-13T09:00:28.000Z</time>
      </trkpt>
      <trkpt lat="45.90748" lon="6.21261">
        <ele>695.79998779297</ele>
        <time>2014-04-13T09:00:33.000Z</time>
      </trkpt>
      <trkpt lat="45.90734" lon="6.21251">
        <ele>694.59997558594</ele>
        <time>2014-04-13T09:00:40.000Z</time>
      </trkpt>
      <trkpt lat="45.90726" lon="6.21239">
        <ele>692.79998779297</ele>
        <time>2014-04-13T09:00:45.000Z</time>
      </trkpt>
      <trkpt lat="45.90718" lon="6.21219">
        <ele>690.20001220703</ele>
        <time>2014-04-13T09:00:51.000Z</time>
      </trkpt>
      <trkpt lat="45.9071" lon="6.21201">
        <ele>688.20001220703</ele>
        <time>2014-04-13T09:00:57.000Z</time>
      </trkpt>
      <trkpt lat="45.90708" lon="6.212">
        <ele>687.79998779297</ele>
        <time>2014-04-13T09:00:58.000Z</time>
      </trkpt>
      <trkpt lat="45.90703" lon="6.21198">
        <ele>687</ele>
        <time>2014-04-13T09:01:01.000Z</time>
      </trkpt>
      <trkpt lat="45.90698" lon="6.21189">
        <ele>686</ele>
        <time>2014-04-13T09:01:05.000Z</time>
      </trkpt>
      <trkpt lat="45.90697" lon="6.21187">
        <ele>685.79998779297</ele>
        <time>2014-04-13T09:01:06.000Z</time>
      </trkpt>
      <trkpt lat="45.90696" lon="6.21184">
        <ele>685.79998779297</ele>
        <time>2014-04-13T09:01:07.000Z</time>
      </trkpt>
      <trkpt lat="45.90691" lon="6.21178">
        <ele>684.79998779297</ele>
        <time>2014-04-13T09:01:10.000Z</time>
      </trkpt>
      <trkpt lat="45.90686" lon="6.21176">
        <ele>684.20001220703</ele>
        <time>2014-04-13T09:01:13.000Z</time>
      </trkpt>
      <trkpt lat="45.90673" lon="6.21178">
        <ele>682.79998779297</ele>
        <time>2014-04-13T09:01:18.000Z</time>
      </trkpt>
      <trkpt lat="45.90666" lon="6.21183">
        <ele>682</ele>
        <time>2014-04-13T09:01:23.000Z</time>
      </trkpt>
      <trkpt lat="45.90658" lon="6.21175">
        <ele>679.79998779297</ele>
        <time>2014-04-13T09:01:28.000Z</time>
      </trkpt>
      <trkpt lat="45.90655" lon="6.21173">
        <ele>679</ele>
        <time>2014-04-13T09:01:29.000Z</time>
      </trkpt>
      <trkpt lat="45.90643" lon="6.21171">
        <ele>676</ele>
        <time>2014-04-13T09:01:33.000Z</time>
      </trkpt>
      <trkpt lat="45.90632" lon="6.21172">
        <ele>673.40002441406</ele>
        <time>2014-04-13T09:01:38.000Z</time>
      </trkpt>
      <trkpt lat="45.90629" lon="6.21173">
        <ele>672.59997558594</ele>
        <time>2014-04-13T09:01:40.000Z</time>
      </trkpt>
      <trkpt lat="45.90619" lon="6.21171">
        <ele>670</ele>
        <time>2014-04-13T09:01:43.000Z</time>
      </trkpt>
      <trkpt lat="45.90605" lon="6.21177">
        <ele>666.40002441406</ele>
        <time>2014-04-13T09:01:49.000Z</time>
      </trkpt>
      <trkpt lat="45.90598" lon="6.21192">
        <ele>665</ele>
        <time>2014-04-13T09:01:54.000Z</time>
      </trkpt>
      <trkpt lat="45.90596" lon="6.21193">
        <ele>664.40002441406</ele>
        <time>2014-04-13T09:01:55.000Z</time>
      </trkpt>
      <trkpt lat="45.90596" lon="6.21203">
        <ele>664.40002441406</ele>
        <time>2014-04-13T09:01:59.000Z</time>
      </trkpt>
      <trkpt lat="45.90599" lon="6.21211">
        <ele>665.40002441406</ele>
        <time>2014-04-13T09:02:03.000Z</time>
      </trkpt>
      <trkpt lat="45.90605" lon="6.21219">
        <ele>666.79998779297</ele>
        <time>2014-04-13T09:02:07.000Z</time>
      </trkpt>
      <trkpt lat="45.90604" lon="6.2122">
        <ele>666.59997558594</ele>
        <time>2014-04-13T09:02:08.000Z</time>
      </trkpt>
      <trkpt lat="45.90607" lon="6.21224">
        <ele>667.40002441406</ele>
        <time>2014-04-13T09:02:11.000Z</time>
      </trkpt>
      <trkpt lat="45.90614" lon="6.21229">
        <ele>669.20001220703</ele>
        <time>2014-04-13T09:02:15.000Z</time>
      </trkpt>
      <trkpt lat="45.90618" lon="6.21234">
        <ele>670.20001220703</ele>
        <time>2014-04-13T09:02:17.000Z</time>
      </trkpt>
      <trkpt lat="45.90621" lon="6.21241">
        <ele>671</ele>
        <time>2014-04-13T09:02:21.000Z</time>
      </trkpt>
      <trkpt lat="45.9062" lon="6.21246">
        <ele>670.79998779297</ele>
        <time>2014-04-13T09:02:25.000Z</time>
      </trkpt>
      <trkpt lat="45.9062" lon="6.21249">
        <ele>670.79998779297</ele>
        <time>2014-04-13T09:02:26.000Z</time>
      </trkpt>
      <trkpt lat="45.9062" lon="6.21259">
        <ele>668.59997558594</ele>
        <time>2014-04-13T09:02:31.000Z</time>
      </trkpt>
      <trkpt lat="45.90619" lon="6.2126">
        <ele>668</ele>
        <time>2014-04-13T09:02:32.000Z</time>
      </trkpt>
      <trkpt lat="45.90618" lon="6.2126">
        <ele>667.79998779297</ele>
        <time>2014-04-13T09:02:35.000Z</time>
      </trkpt>
      <trkpt lat="45.90619" lon="6.21264">
        <ele>667.20001220703</ele>
        <time>2014-04-13T09:02:42.000Z</time>
      </trkpt>
      <trkpt lat="45.90625" lon="6.21265">
        <ele>668.20001220703</ele>
        <time>2014-04-13T09:02:47.000Z</time>
      </trkpt>
      <trkpt lat="45.90625" lon="6.21269">
        <ele>667.40002441406</ele>
        <time>2014-04-13T09:02:50.000Z</time>
      </trkpt>
      <trkpt lat="45.90624" lon="6.21273">
        <ele>666.20001220703</ele>
        <time>2014-04-13T09:02:52.000Z</time>
      </trkpt>
      <trkpt lat="45.90622" lon="6.21276">
        <ele>664.59997558594</ele>
        <time>2014-04-13T09:02:55.000Z</time>
      </trkpt>
      <trkpt lat="45.9062" lon="6.21279">
        <ele>663.59997558594</ele>
        <time>2014-04-13T09:02:56.000Z</time>
      </trkpt>
      <trkpt lat="45.90616" lon="6.21286">
        <ele>660.79998779297</ele>
        <time>2014-04-13T09:02:59.000Z</time>
      </trkpt>
      <trkpt lat="45.90613" lon="6.2129">
        <ele>659</ele>
        <time>2014-04-13T09:03:01.000Z</time>
      </trkpt>
      <trkpt lat="45.90603" lon="6.213">
        <ele>654.20001220703</ele>
        <time>2014-04-13T09:03:06.000Z</time>
      </trkpt>
      <trkpt lat="45.90594" lon="6.21306">
        <ele>650.40002441406</ele>
        <time>2014-04-13T09:03:11.000Z</time>
      </trkpt>
      <trkpt lat="45.90589" lon="6.21309">
        <ele>648.79998779297</ele>
        <time>2014-04-13T09:03:13.000Z</time>
      </trkpt>
      <trkpt lat="45.90588" lon="6.21311">
        <ele>647.79998779297</ele>
        <time>2014-04-13T09:03:14.000Z</time>
      </trkpt>
      <trkpt lat="45.90584" lon="6.21311">
        <ele>647</ele>
        <time>2014-04-13T09:03:16.000Z</time>
      </trkpt>
      <trkpt lat="45.90577" lon="6.21318">
        <ele>642.20001220703</ele>
        <time>2014-04-13T09:03:22.000Z</time>
      </trkpt>
      <trkpt lat="45.90575" lon="6.21316">
        <ele>641.59997558594</ele>
        <time>2014-04-13T09:03:23.000Z</time>
      </trkpt>
      <trkpt lat="45.90569" lon="6.21314">
        <ele>640</ele>
        <time>2014-04-13T09:03:27.000Z</time>
      </trkpt>
      <trkpt lat="45.90563" lon="6.21309">
        <ele>638.40002441406</ele>
        <time>2014-04-13T09:03:32.000Z</time>
      </trkpt>
      <trkpt lat="45.9056" lon="6.21308">
        <ele>637.79998779297</ele>
        <time>2014-04-13T09:03:34.000Z</time>
      </trkpt>
      <trkpt lat="45.90555" lon="6.21303">
        <ele>636.40002441406</ele>
        <time>2014-04-13T09:03:37.000Z</time>
      </trkpt>
      <trkpt lat="45.90551" lon="6.21305">
        <ele>634.59997558594</ele>
        <time>2014-04-13T09:03:39.000Z</time>
      </trkpt>
      <trkpt lat="45.90548" lon="6.21301">
        <ele>634</ele>
        <time>2014-04-13T09:03:42.000Z</time>
      </trkpt>
      <trkpt lat="45.90545" lon="6.21298">
        <ele>633.40002441406</ele>
        <time>2014-04-13T09:03:45.000Z</time>
      </trkpt>
      <trkpt lat="45.90544" lon="6.21296">
        <ele>633.40002441406</ele>
        <time>2014-04-13T09:03:46.000Z</time>
      </trkpt>
      <trkpt lat="45.90543" lon="6.21294">
        <ele>633.59997558594</ele>
        <time>2014-04-13T09:03:47.000Z</time>
      </trkpt>
      <trkpt lat="45.90542" lon="6.21293">
        <ele>633.20001220703</ele>
        <time>2014-04-13T09:03:48.000Z</time>
      </trkpt>
      <trkpt lat="45.90539" lon="6.2129">
        <ele>633</ele>
        <time>2014-04-13T09:03:50.000Z</time>
      </trkpt>
      <trkpt lat="45.90537" lon="6.21288">
        <ele>632.40002441406</ele>
        <time>2014-04-13T09:03:52.000Z</time>
      </trkpt>
      <trkpt lat="45.90531" lon="6.21282">
        <ele>631</ele>
        <time>2014-04-13T09:03:59.000Z</time>
      </trkpt>
      <trkpt lat="45.90525" lon="6.21287">
        <ele>627.40002441406</ele>
        <time>2014-04-13T09:04:03.000Z</time>
      </trkpt>
      <trkpt lat="45.90516" lon="6.21289">
        <ele>623</ele>
        <time>2014-04-13T09:04:08.000Z</time>
      </trkpt>
      <trkpt lat="45.90515" lon="6.21288">
        <ele>622.79998779297</ele>
        <time>2014-04-13T09:04:09.000Z</time>
      </trkpt>
      <trkpt lat="45.90505" lon="6.21281">
        <ele>619.59997558594</ele>
        <time>2014-04-13T09:04:13.000Z</time>
      </trkpt>
      <trkpt lat="45.90499" lon="6.21272">
        <ele>619</ele>
        <time>2014-04-13T09:04:18.000Z</time>
      </trkpt>
      <trkpt lat="45.90498" lon="6.21265">
        <ele>620.20001220703</ele>
        <time>2014-04-13T09:04:21.000Z</time>
      </trkpt>
      <trkpt lat="45.90496" lon="6.21261">
        <ele>620</ele>
        <time>2014-04-13T09:04:23.000Z</time>
      </trkpt>
      <trkpt lat="45.90497" lon="6.21259">
        <ele>620.59997558594</ele>
        <time>2014-04-13T09:04:24.000Z</time>
      </trkpt>
      <trkpt lat="45.90487" lon="6.21242">
        <ele>617.40002441406</ele>
        <time>2014-04-13T09:04:29.000Z</time>
      </trkpt>
      <trkpt lat="45.90486" lon="6.21242">
        <ele>616.40002441406</ele>
        <time>2014-04-13T09:04:30.000Z</time>
      </trkpt>
      <trkpt lat="45.90481" lon="6.21241">
        <ele>613.79998779297</ele>
        <time>2014-04-13T09:04:33.000Z</time>
      </trkpt>
      <trkpt lat="45.9047" lon="6.21251">
        <ele>609</ele>
        <time>2014-04-13T09:04:39.000Z</time>
      </trkpt>
      <trkpt lat="45.90469" lon="6.21253">
        <ele>608</ele>
        <time>2014-04-13T09:04:40.000Z</time>
      </trkpt>
      <trkpt lat="45.90463" lon="6.21266">
        <ele>602.59997558594</ele>
        <time>2014-04-13T09:04:46.000Z</time>
      </trkpt>
      <trkpt lat="45.90457" lon="6.21278">
        <ele>598.20001220703</ele>
        <time>2014-04-13T09:04:51.000Z</time>
      </trkpt>
      <trkpt lat="45.90452" lon="6.21276">
        <ele>596</ele>
        <time>2014-04-13T09:04:55.000Z</time>
      </trkpt>
      <trkpt lat="45.90446" lon="6.21256">
        <ele>596</ele>
        <time>2014-04-13T09:05:00.000Z</time>
      </trkpt>
      <trkpt lat="45.90445" lon="6.21253">
        <ele>595.79998779297</ele>
        <time>2014-04-13T09:05:01.000Z</time>
      </trkpt>
      <trkpt lat="45.9044" lon="6.21247">
        <ele>593.59997558594</ele>
        <time>2014-04-13T09:05:05.000Z</time>
      </trkpt>
      <trkpt lat="45.90439" lon="6.21244">
        <ele>592.79998779297</ele>
        <time>2014-04-13T09:05:06.000Z</time>
      </trkpt>
      <trkpt lat="45.90431" lon="6.21245">
        <ele>588.40002441406</ele>
        <time>2014-04-13T09:05:10.000Z</time>
      </trkpt>
      <trkpt lat="45.90429" lon="6.21247">
        <ele>587.79998779297</ele>
        <time>2014-04-13T09:05:11.000Z</time>
      </trkpt>
      <trkpt lat="45.90424" lon="6.21252">
        <ele>585.20001220703</ele>
        <time>2014-04-13T09:05:14.000Z</time>
      </trkpt>
      <trkpt lat="45.90418" lon="6.21244">
        <ele>582</ele>
        <time>2014-04-13T09:05:15.000Z</time>
      </trkpt>
      <trkpt lat="45.90408" lon="6.21234">
        <ele>576.40002441406</ele>
        <time>2014-04-13T09:05:19.000Z</time>
      </trkpt>
      <trkpt lat="45.90409" lon="6.21247">
        <ele>578</ele>
        <time>2014-04-13T09:05:25.000Z</time>
      </trkpt>
      <trkpt lat="45.9041" lon="6.21266">
        <ele>577.79998779297</ele>
        <time>2014-04-13T09:05:31.000Z</time>
      </trkpt>
      <trkpt lat="45.90408" lon="6.21272">
        <ele>576.20001220703</ele>
        <time>2014-04-13T09:05:33.000Z</time>
      </trkpt>
      <trkpt lat="45.90403" lon="6.21274">
        <ele>574.20001220703</ele>
        <time>2014-04-13T09:05:35.000Z</time>
      </trkpt>
      <trkpt lat="45.90395" lon="6.21267">
        <ele>571.20001220703</ele>
        <time>2014-04-13T09:05:39.000Z</time>
      </trkpt>
      <trkpt lat="45.90393" lon="6.21265">
        <ele>570.40002441406</ele>
        <time>2014-04-13T09:05:40.000Z</time>
      </trkpt>
      <trkpt lat="45.90384" lon="6.21266">
        <ele>566.40002441406</ele>
        <time>2014-04-13T09:05:44.000Z</time>
      </trkpt>
      <trkpt lat="45.90379" lon="6.21272">
        <ele>564</ele>
        <time>2014-04-13T09:05:47.000Z</time>
      </trkpt>
      <trkpt lat="45.90376" lon="6.21275">
        <ele>562.59997558594</ele>
        <time>2014-04-13T09:05:49.000Z</time>
      </trkpt>
      <trkpt lat="45.90376" lon="6.21281">
        <ele>562.40002441406</ele>
        <time>2014-04-13T09:05:51.000Z</time>
      </trkpt>
      <trkpt lat="45.90375" lon="6.21286">
        <ele>561.59997558594</ele>
        <time>2014-04-13T09:05:53.000Z</time>
      </trkpt>
      <trkpt lat="45.90376" lon="6.21289">
        <ele>561.59997558594</ele>
        <time>2014-04-13T09:05:54.000Z</time>
      </trkpt>
      <trkpt lat="45.90379" lon="6.21293">
        <ele>563</ele>
        <time>2014-04-13T09:05:57.000Z</time>
      </trkpt>
      <trkpt lat="45.9038" lon="6.21298">
        <ele>563</ele>
        <time>2014-04-13T09:06:02.000Z</time>
      </trkpt>
      <trkpt lat="45.90377" lon="6.21301">
        <ele>561.59997558594</ele>
        <time>2014-04-13T09:06:03.000Z</time>
      </trkpt>
      <trkpt lat="45.9037" lon="6.21306">
        <ele>558.59997558594</ele>
        <time>2014-04-13T09:06:06.000Z</time>
      </trkpt>
      <trkpt lat="45.90368" lon="6.2132">
        <ele>557</ele>
        <time>2014-04-13T09:06:10.000Z</time>
      </trkpt>
      <trkpt lat="45.90371" lon="6.21325">
        <ele>557.79998779297</ele>
        <time>2014-04-13T09:06:13.000Z</time>
      </trkpt>
      <trkpt lat="45.90369" lon="6.21332">
        <ele>557</ele>
        <time>2014-04-13T09:06:14.000Z</time>
      </trkpt>
      <trkpt lat="45.90366" lon="6.21349">
        <ele>554.40002441406</ele>
        <time>2014-04-13T09:06:18.000Z</time>
      </trkpt>
      <trkpt lat="45.90362" lon="6.21356">
        <ele>552.40002441406</ele>
        <time>2014-04-13T09:06:22.000Z</time>
      </trkpt>
      <trkpt lat="45.90357" lon="6.21351">
        <ele>551</ele>
        <time>2014-04-13T09:06:26.000Z</time>
      </trkpt>
      <trkpt lat="45.90355" lon="6.21349">
        <ele>550.59997558594</ele>
        <time>2014-04-13T09:06:27.000Z</time>
      </trkpt>
      <trkpt lat="45.90347" lon="6.21338">
        <ele>548.40002441406</ele>
        <time>2014-04-13T09:06:34.000Z</time>
      </trkpt>
      <trkpt lat="45.90342" lon="6.21334">
        <ele>547.20001220703</ele>
        <time>2014-04-13T09:06:39.000Z</time>
      </trkpt>
      <trkpt lat="45.90341" lon="6.21332">
        <ele>547</ele>
        <time>2014-04-13T09:06:40.000Z</time>
      </trkpt>
      <trkpt lat="45.90341" lon="6.21324">
        <ele>546.79998779297</ele>
        <time>2014-04-13T09:06:44.000Z</time>
      </trkpt>
      <trkpt lat="45.9034" lon="6.21321">
        <ele>546.59997558594</ele>
        <time>2014-04-13T09:06:45.000Z</time>
      </trkpt>
      <trkpt lat="45.90336" lon="6.2131">
        <ele>545.20001220703</ele>
        <time>2014-04-13T09:06:51.000Z</time>
      </trkpt>
      <trkpt lat="45.90332" lon="6.21303">
        <ele>544</ele>
        <time>2014-04-13T09:06:56.000Z</time>
      </trkpt>
      <trkpt lat="45.9033" lon="6.21302">
        <ele>543.79998779297</ele>
        <time>2014-04-13T09:06:57.000Z</time>
      </trkpt>
      <trkpt lat="45.90328" lon="6.21296">
        <ele>543.40002441406</ele>
        <time>2014-04-13T09:07:00.000Z</time>
      </trkpt>
      <trkpt lat="45.90326" lon="6.21284">
        <ele>543</ele>
        <time>2014-04-13T09:07:06.000Z</time>
      </trkpt>
      <trkpt lat="45.90325" lon="6.21273">
        <ele>543</ele>
        <time>2014-04-13T09:07:12.000Z</time>
      </trkpt>
      <trkpt lat="45.90321" lon="6.21269">
        <ele>542.20001220703</ele>
        <time>2014-04-13T09:07:16.000Z</time>
      </trkpt>
      <trkpt lat="45.90321" lon="6.21267">
        <ele>542.20001220703</ele>
        <time>2014-04-13T09:07:17.000Z</time>
      </trkpt>
      <trkpt lat="45.90322" lon="6.21259">
        <ele>542.20001220703</ele>
        <time>2014-04-13T09:07:23.000Z</time>
      </trkpt>
      <trkpt lat="45.90318" lon="6.21256">
        <ele>541.40002441406</ele>
        <time>2014-04-13T09:07:25.000Z</time>
      </trkpt>
      <trkpt lat="45.90313" lon="6.21247">
        <ele>540.20001220703</ele>
        <time>2014-04-13T09:07:29.000Z</time>
      </trkpt>
      <trkpt lat="45.90313" lon="6.21242">
        <ele>539.79998779297</ele>
        <time>2014-04-13T09:07:32.000Z</time>
      </trkpt>
      <trkpt lat="45.90314" lon="6.21233">
        <ele>539.20001220703</ele>
        <time>2014-04-13T09:07:36.000Z</time>
      </trkpt>
      <trkpt lat="45.90314" lon="6.21231">
        <ele>539</ele>
        <time>2014-04-13T09:07:37.000Z</time>
      </trkpt>
      <trkpt lat="45.90315" lon="6.21219">
        <ele>538.20001220703</ele>
        <time>2014-04-13T09:07:43.000Z</time>
      </trkpt>
      <trkpt lat="45.90316" lon="6.21216">
        <ele>538</ele>
        <time>2014-04-13T09:07:45.000Z</time>
      </trkpt>
      <trkpt lat="45.90316" lon="6.2121">
        <ele>537.59997558594</ele>
        <time>2014-04-13T09:07:48.000Z</time>
      </trkpt>
      <trkpt lat="45.9032" lon="6.21202">
        <ele>537.40002441406</ele>
        <time>2014-04-13T09:07:52.000Z</time>
      </trkpt>
      <trkpt lat="45.90322" lon="6.21197">
        <ele>537.20001220703</ele>
        <time>2014-04-13T09:07:55.000Z</time>
      </trkpt>
      <trkpt lat="45.90327" lon="6.21185">
        <ele>536.59997558594</ele>
        <time>2014-04-13T09:08:01.000Z</time>
      </trkpt>
      <trkpt lat="45.90334" lon="6.21174">
        <ele>536</ele>
        <time>2014-04-13T09:08:09.000Z</time>
      </trkpt>
      <trkpt lat="45.90336" lon="6.21169">
        <ele>536.59997558594</ele>
        <time>2014-04-13T09:08:13.000Z</time>
      </trkpt>
      <trkpt lat="45.90342" lon="6.21159">
        <ele>537.79998779297</ele>
        <time>2014-04-13T09:08:19.000Z</time>
      </trkpt>
      <trkpt lat="45.90347" lon="6.21149">
        <ele>538.79998779297</ele>
        <time>2014-04-13T09:08:26.000Z</time>
      </trkpt>
      <trkpt lat="45.90348" lon="6.21147">
        <ele>538.79998779297</ele>
        <time>2014-04-13T09:08:27.000Z</time>
      </trkpt>
      <trkpt lat="45.90353" lon="6.21137">
        <ele>539.40002441406</ele>
        <time>2014-04-13T09:08:33.000Z</time>
      </trkpt>
      <trkpt lat="45.90353" lon="6.21136">
        <ele>539.59997558594</ele>
        <time>2014-04-13T09:08:34.000Z</time>
      </trkpt>
      <trkpt lat="45.90355" lon="6.21132">
        <ele>539.59997558594</ele>
        <time>2014-04-13T09:08:38.000Z</time>
      </trkpt>
      <trkpt lat="45.9036" lon="6.21119">
        <ele>539.20001220703</ele>
        <time>2014-04-13T09:08:47.000Z</time>
      </trkpt>
      <trkpt lat="45.90362" lon="6.21106">
        <ele>537.79998779297</ele>
        <time>2014-04-13T09:08:54.000Z</time>
      </trkpt>
      <trkpt lat="45.90359" lon="6.21082">
        <ele>533.59997558594</ele>
        <time>2014-04-13T09:09:06.000Z</time>
      </trkpt>
      <trkpt lat="45.90357" lon="6.21073">
        <ele>533</ele>
        <time>2014-04-13T09:09:11.000Z</time>
      </trkpt>
      <trkpt lat="45.90356" lon="6.21071">
        <ele>532.79998779297</ele>
        <time>2014-04-13T09:09:12.000Z</time>
      </trkpt>
      <trkpt lat="45.90354" lon="6.21065">
        <ele>532.20001220703</ele>
        <time>2014-04-13T09:09:16.000Z</time>
      </trkpt>
      <trkpt lat="45.90352" lon="6.21061">
        <ele>531.79998779297</ele>
        <time>2014-04-13T09:09:18.000Z</time>
      </trkpt>
      <trkpt lat="45.90348" lon="6.2105">
        <ele>531.20001220703</ele>
        <time>2014-04-13T09:09:24.000Z</time>
      </trkpt>
      <trkpt lat="45.90347" lon="6.21048">
        <ele>531</ele>
        <time>2014-04-13T09:09:25.000Z</time>
      </trkpt>
      <trkpt lat="45.90345" lon="6.21042">
        <ele>530.79998779297</ele>
        <time>2014-04-13T09:09:28.000Z</time>
      </trkpt>
      <trkpt lat="45.90345" lon="6.21042">
        <ele>530.79998779297</ele>
        <time>2014-04-13T09:09:29.000Z</time>
      </trkpt>
      <trkpt lat="45.90343" lon="6.21036">
        <ele>530.59997558594</ele>
        <time>2014-04-13T09:09:31.000Z</time>
      </trkpt>
      <trkpt lat="45.90342" lon="6.2103">
        <ele>530.59997558594</ele>
        <time>2014-04-13T09:09:35.000Z</time>
      </trkpt>
      <trkpt lat="45.90342" lon="6.21029">
        <ele>530.79998779297</ele>
        <time>2014-04-13T09:09:36.000Z</time>
      </trkpt>
      <trkpt lat="45.90341" lon="6.21023">
        <ele>530.79998779297</ele>
        <time>2014-04-13T09:09:40.000Z</time>
      </trkpt>
      <trkpt lat="45.90341" lon="6.21021">
        <ele>530.79998779297</ele>
        <time>2014-04-13T09:09:42.000Z</time>
      </trkpt>
      <trkpt lat="45.90341" lon="6.21021">
        <ele>530.79998779297</ele>
        <time>2014-04-13T09:09:43.000Z</time>
      </trkpt>
      <trkpt lat="45.90339" lon="6.21019">
        <ele>530.59997558594</ele>
        <time>2014-04-13T09:09:49.000Z</time>
      </trkpt>
      <trkpt lat="45.90337" lon="6.21014">
        <ele>530.79998779297</ele>
        <time>2014-04-13T09:09:51.000Z</time>
      </trkpt>
      <trkpt lat="45.90333" lon="6.20998">
        <ele>531.59997558594</ele>
        <time>2014-04-13T09:09:57.000Z</time>
      </trkpt>
      <trkpt lat="45.90334" lon="6.20983">
        <ele>534.20001220703</ele>
        <time>2014-04-13T09:10:04.000Z</time>
      </trkpt>
      <trkpt lat="45.90337" lon="6.20965">
        <ele>537.59997558594</ele>
        <time>2014-04-13T09:10:09.000Z</time>
      </trkpt>
      <trkpt lat="45.90341" lon="6.20948">
        <ele>540.20001220703</ele>
        <time>2014-04-13T09:10:13.000Z</time>
      </trkpt>
      <trkpt lat="45.90349" lon="6.20931">
        <ele>542.20001220703</ele>
        <time>2014-04-13T09:10:18.000Z</time>
      </trkpt>
      <trkpt lat="45.9036" lon="6.20916">
        <ele>542.79998779297</ele>
        <time>2014-04-13T09:10:23.000Z</time>
      </trkpt>
      <trkpt lat="45.9037" lon="6.20896">
        <ele>545.20001220703</ele>
        <time>2014-04-13T09:10:29.000Z</time>
      </trkpt>
      <trkpt lat="45.9038" lon="6.2088">
        <ele>545.59997558594</ele>
        <time>2014-04-13T09:10:34.000Z</time>
      </trkpt>
      <trkpt lat="45.90393" lon="6.20862">
        <ele>544.79998779297</ele>
        <time>2014-04-13T09:10:40.000Z</time>
      </trkpt>
      <trkpt lat="45.90401" lon="6.20848">
        <ele>543.59997558594</ele>
        <time>2014-04-13T09:10:45.000Z</time>
      </trkpt>
      <trkpt lat="45.90413" lon="6.20833">
        <ele>540.59997558594</ele>
        <time>2014-04-13T09:10:50.000Z</time>
      </trkpt>
      <trkpt lat="45.90422" lon="6.20821">
        <ele>544.40002441406</ele>
        <time>2014-04-13T09:10:55.000Z</time>
      </trkpt>
      <trkpt lat="45.9043" lon="6.20805">
        <ele>550.20001220703</ele>
        <time>2014-04-13T09:11:00.000Z</time>
      </trkpt>
      <trkpt lat="45.90435" lon="6.20794">
        <ele>553.40002441406</ele>
        <time>2014-04-13T09:11:04.000Z</time>
      </trkpt>
      <trkpt lat="45.90437" lon="6.20791">
        <ele>554.20001220703</ele>
        <time>2014-04-13T09:11:05.000Z</time>
      </trkpt>
      <trkpt lat="45.90443" lon="6.20775">
        <ele>556.79998779297</ele>
        <time>2014-04-13T09:11:11.000Z</time>
      </trkpt>
      <trkpt lat="45.90447" lon="6.2076">
        <ele>558.59997558594</ele>
        <time>2014-04-13T09:11:17.000Z</time>
      </trkpt>
      <trkpt lat="45.90448" lon="6.20752">
        <ele>559.20001220703</ele>
        <time>2014-04-13T09:11:22.000Z</time>
      </trkpt>
      <trkpt lat="45.90452" lon="6.20746">
        <ele>560.40002441406</ele>
        <time>2014-04-13T09:11:28.000Z</time>
      </trkpt>
      <trkpt lat="45.90455" lon="6.20736">
        <ele>563.40002441406</ele>
        <time>2014-04-13T09:11:32.000Z</time>
      </trkpt>
      <trkpt lat="45.90466" lon="6.20713">
        <ele>566.59997558594</ele>
        <time>2014-04-13T09:11:37.000Z</time>
      </trkpt>
      <trkpt lat="45.90467" lon="6.20709">
        <ele>567.20001220703</ele>
        <time>2014-04-13T09:11:38.000Z</time>
      </trkpt>
      <trkpt lat="45.90477" lon="6.20688">
        <ele>566</ele>
        <time>2014-04-13T09:11:44.000Z</time>
      </trkpt>
      <trkpt lat="45.90484" lon="6.20666">
        <ele>563.79998779297</ele>
        <time>2014-04-13T09:11:50.000Z</time>
      </trkpt>
      <trkpt lat="45.90489" lon="6.20639">
        <ele>565.20001220703</ele>
        <time>2014-04-13T09:11:57.000Z</time>
      </trkpt>
      <trkpt lat="45.9049" lon="6.20636">
        <ele>564.59997558594</ele>
        <time>2014-04-13T09:11:58.000Z</time>
      </trkpt>
      <trkpt lat="45.90495" lon="6.20618">
        <ele>561.79998779297</ele>
        <time>2014-04-13T09:12:03.000Z</time>
      </trkpt>
      <trkpt lat="45.90501" lon="6.20598">
        <ele>557.79998779297</ele>
        <time>2014-04-13T09:12:08.000Z</time>
      </trkpt>
      <trkpt lat="45.90508" lon="6.20581">
        <ele>558.59997558594</ele>
        <time>2014-04-13T09:12:13.000Z</time>
      </trkpt>
      <trkpt lat="45.90514" lon="6.20567">
        <ele>562.40002441406</ele>
        <time>2014-04-13T09:12:17.000Z</time>
      </trkpt>
      <trkpt lat="45.90519" lon="6.20547">
        <ele>567.79998779297</ele>
        <time>2014-04-13T09:12:22.000Z</time>
      </trkpt>
      <trkpt lat="45.90523" lon="6.20526">
        <ele>572.59997558594</ele>
        <time>2014-04-13T09:12:28.000Z</time>
      </trkpt>
      <trkpt lat="45.90536" lon="6.20513">
        <ele>567</ele>
        <time>2014-04-13T09:12:33.000Z</time>
      </trkpt>
      <trkpt lat="45.90544" lon="6.20505">
        <ele>562.20001220703</ele>
        <time>2014-04-13T09:12:38.000Z</time>
      </trkpt>
      <trkpt lat="45.90544" lon="6.20497">
        <ele>564.20001220703</ele>
        <time>2014-04-13T09:12:44.000Z</time>
      </trkpt>
      <trkpt lat="45.90548" lon="6.20494">
        <ele>562.20001220703</ele>
        <time>2014-04-13T09:12:47.000Z</time>
      </trkpt>
      <trkpt lat="45.90549" lon="6.20493">
        <ele>561.20001220703</ele>
        <time>2014-04-13T09:12:50.000Z</time>
      </trkpt>
      <trkpt lat="45.90555" lon="6.20487">
        <ele>558.40002441406</ele>
        <time>2014-04-13T09:13:07.000Z</time>
      </trkpt>
      <trkpt lat="45.90556" lon="6.20486">
        <ele>557.40002441406</ele>
        <time>2014-04-13T09:13:10.000Z</time>
      </trkpt>
      <trkpt lat="45.90553" lon="6.20481">
        <ele>561.79998779297</ele>
        <time>2014-04-13T09:13:15.000Z</time>
      </trkpt>
      <trkpt lat="45.90555" lon="6.20471">
        <ele>563.59997558594</ele>
        <time>2014-04-13T09:13:19.000Z</time>
      </trkpt>
      <trkpt lat="45.90552" lon="6.20466">
        <ele>568</ele>
        <time>2014-04-13T09:13:22.000Z</time>
      </trkpt>
      <trkpt lat="45.90548" lon="6.20465">
        <ele>570.79998779297</ele>
        <time>2014-04-13T09:13:25.000Z</time>
      </trkpt>
      <trkpt lat="45.90549" lon="6.20462">
        <ele>571.20001220703</ele>
        <time>2014-04-13T09:13:26.000Z</time>
      </trkpt>
      <trkpt lat="45.90557" lon="6.20454">
        <ele>567.40002441406</ele>
        <time>2014-04-13T09:13:30.000Z</time>
      </trkpt>
      <trkpt lat="45.90566" lon="6.20446">
        <ele>563.40002441406</ele>
        <time>2014-04-13T09:13:34.000Z</time>
      </trkpt>
      <trkpt lat="45.90575" lon="6.20442">
        <ele>558</ele>
        <time>2014-04-13T09:13:36.000Z</time>
      </trkpt>
      <trkpt lat="45.90589" lon="6.20433">
        <ele>554</ele>
        <time>2014-04-13T09:13:42.000Z</time>
      </trkpt>
      <trkpt lat="45.90594" lon="6.2043">
        <ele>553.59997558594</ele>
        <time>2014-04-13T09:13:44.000Z</time>
      </trkpt>
      <trkpt lat="45.90599" lon="6.20428">
        <ele>553.20001220703</ele>
        <time>2014-04-13T09:13:47.000Z</time>
      </trkpt>
      <trkpt lat="45.90604" lon="6.20422">
        <ele>553</ele>
        <time>2014-04-13T09:13:51.000Z</time>
      </trkpt>
      <trkpt lat="45.90606" lon="6.20421">
        <ele>552.79998779297</ele>
        <time>2014-04-13T09:13:52.000Z</time>
      </trkpt>
      <trkpt lat="45.90615" lon="6.2041">
        <ele>553</ele>
        <time>2014-04-13T09:13:59.000Z</time>
      </trkpt>
      <trkpt lat="45.9062" lon="6.20406">
        <ele>553</ele>
        <time>2014-04-13T09:14:03.000Z</time>
      </trkpt>
      <trkpt lat="45.90622" lon="6.20403">
        <ele>553.40002441406</ele>
        <time>2014-04-13T09:14:05.000Z</time>
      </trkpt>
      <trkpt lat="45.90623" lon="6.20398">
        <ele>555.20001220703</ele>
        <time>2014-04-13T09:14:10.000Z</time>
      </trkpt>
      <trkpt lat="45.90626" lon="6.20393">
        <ele>556.20001220703</ele>
        <time>2014-04-13T09:14:13.000Z</time>
      </trkpt>
      <trkpt lat="45.90626" lon="6.20392">
        <ele>556.40002441406</ele>
        <time>2014-04-13T09:14:14.000Z</time>
      </trkpt>
      <trkpt lat="45.90627" lon="6.20389">
        <ele>557.40002441406</ele>
        <time>2014-04-13T09:14:15.000Z</time>
      </trkpt>
      <trkpt lat="45.90627" lon="6.20381">
        <ele>560.59997558594</ele>
        <time>2014-04-13T09:14:18.000Z</time>
      </trkpt>
      <trkpt lat="45.90628" lon="6.20379">
        <ele>560.79998779297</ele>
        <time>2014-04-13T09:14:19.000Z</time>
      </trkpt>
      <trkpt lat="45.90627" lon="6.20373">
        <ele>563.40002441406</ele>
        <time>2014-04-13T09:14:22.000Z</time>
      </trkpt>
      <trkpt lat="45.90628" lon="6.20371">
        <ele>564.20001220703</ele>
        <time>2014-04-13T09:14:24.000Z</time>
      </trkpt>
      <trkpt lat="45.90629" lon="6.20359">
        <ele>568.59997558594</ele>
        <time>2014-04-13T09:14:29.000Z</time>
      </trkpt>
      <trkpt lat="45.9063" lon="6.20356">
        <ele>569.59997558594</ele>
        <time>2014-04-13T09:14:30.000Z</time>
      </trkpt>
      <trkpt lat="45.90629" lon="6.20347">
        <ele>573.59997558594</ele>
        <time>2014-04-13T09:14:33.000Z</time>
      </trkpt>
      <trkpt lat="45.90629" lon="6.20333">
        <ele>579</ele>
        <time>2014-04-13T09:14:38.000Z</time>
      </trkpt>
      <trkpt lat="45.90631" lon="6.20322">
        <ele>581.59997558594</ele>
        <time>2014-04-13T09:14:43.000Z</time>
      </trkpt>
      <trkpt lat="45.9064" lon="6.20325">
        <ele>578</ele>
        <time>2014-04-13T09:14:47.000Z</time>
      </trkpt>
      <trkpt lat="45.90645" lon="6.20327">
        <ele>575.59997558594</ele>
        <time>2014-04-13T09:14:49.000Z</time>
      </trkpt>
      <trkpt lat="45.90653" lon="6.20329">
        <ele>572.79998779297</ele>
        <time>2014-04-13T09:14:53.000Z</time>
      </trkpt>
      <trkpt lat="45.90659" lon="6.20323">
        <ele>572.40002441406</ele>
        <time>2014-04-13T09:14:57.000Z</time>
      </trkpt>
      <trkpt lat="45.90662" lon="6.20321">
        <ele>572.40002441406</ele>
        <time>2014-04-13T09:14:58.000Z</time>
      </trkpt>
      <trkpt lat="45.9067" lon="6.2031">
        <ele>573.20001220703</ele>
        <time>2014-04-13T09:15:03.000Z</time>
      </trkpt>
      <trkpt lat="45.90671" lon="6.20304">
        <ele>574.59997558594</ele>
        <time>2014-04-13T09:15:05.000Z</time>
      </trkpt>
      <trkpt lat="45.90673" lon="6.20299">
        <ele>575.40002441406</ele>
        <time>2014-04-13T09:15:07.000Z</time>
      </trkpt>
      <trkpt lat="45.90676" lon="6.2029">
        <ele>576.59997558594</ele>
        <time>2014-04-13T09:15:10.000Z</time>
      </trkpt>
      <trkpt lat="45.90685" lon="6.20279">
        <ele>576.40002441406</ele>
        <time>2014-04-13T09:15:14.000Z</time>
      </trkpt>
      <trkpt lat="45.90689" lon="6.20258">
        <ele>580</ele>
        <time>2014-04-13T09:15:20.000Z</time>
      </trkpt>
      <trkpt lat="45.90692" lon="6.20252">
        <ele>580.20001220703</ele>
        <time>2014-04-13T09:15:22.000Z</time>
      </trkpt>
      <trkpt lat="45.90695" lon="6.20242">
        <ele>580</ele>
        <time>2014-04-13T09:15:25.000Z</time>
      </trkpt>
      <trkpt lat="45.90697" lon="6.20238">
        <ele>579.59997558594</ele>
        <time>2014-04-13T09:15:26.000Z</time>
      </trkpt>
      <trkpt lat="45.90701" lon="6.20223">
        <ele>579</ele>
        <time>2014-04-13T09:15:31.000Z</time>
      </trkpt>
      <trkpt lat="45.90706" lon="6.20207">
        <ele>578.20001220703</ele>
        <time>2014-04-13T09:15:37.000Z</time>
      </trkpt>
      <trkpt lat="45.90709" lon="6.20191">
        <ele>578.40002441406</ele>
        <time>2014-04-13T09:15:43.000Z</time>
      </trkpt>
      <trkpt lat="45.90713" lon="6.20176">
        <ele>578</ele>
        <time>2014-04-13T09:15:48.000Z</time>
      </trkpt>
      <trkpt lat="45.90719" lon="6.20157">
        <ele>576.59997558594</ele>
        <time>2014-04-13T09:15:55.000Z</time>
      </trkpt>
      <trkpt lat="45.90719" lon="6.20139">
        <ele>577</ele>
        <time>2014-04-13T09:16:01.000Z</time>
      </trkpt>
      <trkpt lat="45.90719" lon="6.20133">
        <ele>577.40002441406</ele>
        <time>2014-04-13T09:16:03.000Z</time>
      </trkpt>
      <trkpt lat="45.9072" lon="6.20128">
        <ele>577.40002441406</ele>
        <time>2014-04-13T09:16:05.000Z</time>
      </trkpt>
      <trkpt lat="45.90722" lon="6.20114">
        <ele>577</ele>
        <time>2014-04-13T09:16:09.000Z</time>
      </trkpt>
      <trkpt lat="45.90722" lon="6.20102">
        <ele>577.59997558594</ele>
        <time>2014-04-13T09:16:13.000Z</time>
      </trkpt>
      <trkpt lat="45.90722" lon="6.20098">
        <ele>577.59997558594</ele>
        <time>2014-04-13T09:16:14.000Z</time>
      </trkpt>
      <trkpt lat="45.90725" lon="6.20088">
        <ele>577.20001220703</ele>
        <time>2014-04-13T09:16:18.000Z</time>
      </trkpt>
      <trkpt lat="45.90726" lon="6.20086">
        <ele>577</ele>
        <time>2014-04-13T09:16:19.000Z</time>
      </trkpt>
      <trkpt lat="45.90731" lon="6.20072">
        <ele>576.59997558594</ele>
        <time>2014-04-13T09:16:25.000Z</time>
      </trkpt>
      <trkpt lat="45.90735" lon="6.20061">
        <ele>576.40002441406</ele>
        <time>2014-04-13T09:16:30.000Z</time>
      </trkpt>
      <trkpt lat="45.90737" lon="6.2005">
        <ele>576.79998779297</ele>
        <time>2014-04-13T09:16:35.000Z</time>
      </trkpt>
      <trkpt lat="45.90738" lon="6.20041">
        <ele>577.59997558594</ele>
        <time>2014-04-13T09:16:38.000Z</time>
      </trkpt>
      <trkpt lat="45.90739" lon="6.20038">
        <ele>577.59997558594</ele>
        <time>2014-04-13T09:16:39.000Z</time>
      </trkpt>
      <trkpt lat="45.90734" lon="6.20019">
        <ele>581.40002441406</ele>
        <time>2014-04-13T09:16:44.000Z</time>
      </trkpt>
      <trkpt lat="45.90732" lon="6.20016">
        <ele>582.59997558594</ele>
        <time>2014-04-13T09:16:46.000Z</time>
      </trkpt>
      <trkpt lat="45.90725" lon="6.20014">
        <ele>585.40002441406</ele>
        <time>2014-04-13T09:16:50.000Z</time>
      </trkpt>
      <trkpt lat="45.90722" lon="6.20014">
        <ele>586.40002441406</ele>
        <time>2014-04-13T09:16:52.000Z</time>
      </trkpt>
      <trkpt lat="45.90718" lon="6.20015">
        <ele>587.79998779297</ele>
        <time>2014-04-13T09:16:55.000Z</time>
      </trkpt>
      <trkpt lat="45.9071" lon="6.20019">
        <ele>590.20001220703</ele>
        <time>2014-04-13T09:17:00.000Z</time>
      </trkpt>
      <trkpt lat="45.90702" lon="6.20002">
        <ele>595.20001220703</ele>
        <time>2014-04-13T09:17:05.000Z</time>
      </trkpt>
      <trkpt lat="45.90699" lon="6.19996">
        <ele>597.20001220703</ele>
        <time>2014-04-13T09:17:07.000Z</time>
      </trkpt>
      <trkpt lat="45.90697" lon="6.19995">
        <ele>598.20001220703</ele>
        <time>2014-04-13T09:17:09.000Z</time>
      </trkpt>
      <trkpt lat="45.90696" lon="6.19994">
        <ele>598.40002441406</ele>
        <time>2014-04-13T09:17:10.000Z</time>
      </trkpt>
      <trkpt lat="45.90694" lon="6.19984">
        <ele>600.79998779297</ele>
        <time>2014-04-13T09:17:17.000Z</time>
      </trkpt>
      <trkpt lat="45.90694" lon="6.19981">
        <ele>601.40002441406</ele>
        <time>2014-04-13T09:17:19.000Z</time>
      </trkpt>
      <trkpt lat="45.90689" lon="6.19976">
        <ele>604.40002441406</ele>
        <time>2014-04-13T09:17:24.000Z</time>
      </trkpt>
      <trkpt lat="45.90686" lon="6.19978">
        <ele>604.79998779297</ele>
        <time>2014-04-13T09:17:27.000Z</time>
      </trkpt>
      <trkpt lat="45.9068" lon="6.1998">
        <ele>606.79998779297</ele>
        <time>2014-04-13T09:17:32.000Z</time>
      </trkpt>
      <trkpt lat="45.90676" lon="6.19978">
        <ele>608.40002441406</ele>
        <time>2014-04-13T09:17:34.000Z</time>
      </trkpt>
      <trkpt lat="45.9067" lon="6.19979">
        <ele>610.20001220703</ele>
        <time>2014-04-13T09:17:38.000Z</time>
      </trkpt>
      <trkpt lat="45.90664" lon="6.1998">
        <ele>612</ele>
        <time>2014-04-13T09:17:42.000Z</time>
      </trkpt>
      <trkpt lat="45.9066" lon="6.1998">
        <ele>613.20001220703</ele>
        <time>2014-04-13T09:17:45.000Z</time>
      </trkpt>
      <trkpt lat="45.90652" lon="6.19982">
        <ele>615</ele>
        <time>2014-04-13T09:17:50.000Z</time>
      </trkpt>
      <trkpt lat="45.90651" lon="6.1998">
        <ele>615.59997558594</ele>
        <time>2014-04-13T09:17:51.000Z</time>
      </trkpt>
      <trkpt lat="45.90644" lon="6.19974">
        <ele>618.59997558594</ele>
        <time>2014-04-13T09:17:59.000Z</time>
      </trkpt>
      <trkpt lat="45.90643" lon="6.19971">
        <ele>619.59997558594</ele>
        <time>2014-04-13T09:18:03.000Z</time>
      </trkpt>
      <trkpt lat="45.90638" lon="6.19971">
        <ele>620.79998779297</ele>
        <time>2014-04-13T09:18:06.000Z</time>
      </trkpt>
      <trkpt lat="45.90638" lon="6.1997">
        <ele>621.20001220703</ele>
        <time>2014-04-13T09:18:07.000Z</time>
      </trkpt>
      <trkpt lat="45.90635" lon="6.19971">
        <ele>621.79998779297</ele>
        <time>2014-04-13T09:18:09.000Z</time>
      </trkpt>
      <trkpt lat="45.90629" lon="6.19973">
        <ele>623</ele>
        <time>2014-04-13T09:18:13.000Z</time>
      </trkpt>
      <trkpt lat="45.90623" lon="6.19974">
        <ele>624.59997558594</ele>
        <time>2014-04-13T09:18:19.000Z</time>
      </trkpt>
      <trkpt lat="45.90616" lon="6.19978">
        <ele>625.40002441406</ele>
        <time>2014-04-13T09:18:26.000Z</time>
      </trkpt>
      <trkpt lat="45.90613" lon="6.19984">
        <ele>624.40002441406</ele>
        <time>2014-04-13T09:18:30.000Z</time>
      </trkpt>
      <trkpt lat="45.90607" lon="6.19997">
        <ele>622.40002441406</ele>
        <time>2014-04-13T09:18:36.000Z</time>
      </trkpt>
      <trkpt lat="45.90608" lon="6.19998">
        <ele>621.79998779297</ele>
        <time>2014-04-13T09:18:37.000Z</time>
      </trkpt>
      <trkpt lat="45.90608" lon="6.20005">
        <ele>620.79998779297</ele>
        <time>2014-04-13T09:18:40.000Z</time>
      </trkpt>
      <trkpt lat="45.90608" lon="6.20007">
        <ele>620.59997558594</ele>
        <time>2014-04-13T09:18:41.000Z</time>
      </trkpt>
      <trkpt lat="45.90606" lon="6.20019">
        <ele>619.79998779297</ele>
        <time>2014-04-13T09:18:48.000Z</time>
      </trkpt>
      <trkpt lat="45.906" lon="6.20021">
        <ele>620.79998779297</ele>
        <time>2014-04-13T09:18:52.000Z</time>
      </trkpt>
      <trkpt lat="45.90598" lon="6.20019">
        <ele>621.40002441406</ele>
        <time>2014-04-13T09:18:54.000Z</time>
      </trkpt>
      <trkpt lat="45.90592" lon="6.20015">
        <ele>623.20001220703</ele>
        <time>2014-04-13T09:19:01.000Z</time>
      </trkpt>
      <trkpt lat="45.90588" lon="6.20008">
        <ele>625</ele>
        <time>2014-04-13T09:19:06.000Z</time>
      </trkpt>
      <trkpt lat="45.90588" lon="6.20007">
        <ele>625.20001220703</ele>
        <time>2014-04-13T09:19:07.000Z</time>
      </trkpt>
      <trkpt lat="45.90587" lon="6.20002">
        <ele>626</ele>
        <time>2014-04-13T09:19:09.000Z</time>
      </trkpt>
      <trkpt lat="45.90583" lon="6.19992">
        <ele>629.59997558594</ele>
        <time>2014-04-13T09:19:13.000Z</time>
      </trkpt>
      <trkpt lat="45.90579" lon="6.19981">
        <ele>633.59997558594</ele>
        <time>2014-04-13T09:19:19.000Z</time>
      </trkpt>
      <trkpt lat="45.90581" lon="6.19974">
        <ele>635.79998779297</ele>
        <time>2014-04-13T09:19:24.000Z</time>
      </trkpt>
      <trkpt lat="45.90583" lon="6.19969">
        <ele>637.20001220703</ele>
        <time>2014-04-13T09:19:26.000Z</time>
      </trkpt>
      <trkpt lat="45.90588" lon="6.19962">
        <ele>638</ele>
        <time>2014-04-13T09:19:30.000Z</time>
      </trkpt>
      <trkpt lat="45.90594" lon="6.19955">
        <ele>638.40002441406</ele>
        <time>2014-04-13T09:19:36.000Z</time>
      </trkpt>
      <trkpt lat="45.90601" lon="6.19945">
        <ele>639</ele>
        <time>2014-04-13T09:19:41.000Z</time>
      </trkpt>
      <trkpt lat="45.90604" lon="6.19939">
        <ele>639.79998779297</ele>
        <time>2014-04-13T09:19:46.000Z</time>
      </trkpt>
      <trkpt lat="45.9061" lon="6.19929">
        <ele>640.20001220703</ele>
        <time>2014-04-13T09:19:50.000Z</time>
      </trkpt>
      <trkpt lat="45.9061" lon="6.19924">
        <ele>641.59997558594</ele>
        <time>2014-04-13T09:19:53.000Z</time>
      </trkpt>
      <trkpt lat="45.90609" lon="6.19919">
        <ele>643.59997558594</ele>
        <time>2014-04-13T09:19:56.000Z</time>
      </trkpt>
      <trkpt lat="45.90609" lon="6.19917">
        <ele>644</ele>
        <time>2014-04-13T09:19:57.000Z</time>
      </trkpt>
      <trkpt lat="45.90607" lon="6.19906">
        <ele>647.79998779297</ele>
        <time>2014-04-13T09:20:01.000Z</time>
      </trkpt>
      <trkpt lat="45.90607" lon="6.19897">
        <ele>650</ele>
        <time>2014-04-13T09:20:06.000Z</time>
      </trkpt>
      <trkpt lat="45.90606" lon="6.19894">
        <ele>651.20001220703</ele>
        <time>2014-04-13T09:20:08.000Z</time>
      </trkpt>
      <trkpt lat="45.90605" lon="6.19886">
        <ele>653.59997558594</ele>
        <time>2014-04-13T09:20:12.000Z</time>
      </trkpt>
      <trkpt lat="45.90604" lon="6.19878">
        <ele>656</ele>
        <time>2014-04-13T09:20:17.000Z</time>
      </trkpt>
      <trkpt lat="45.90603" lon="6.19875">
        <ele>657.40002441406</ele>
        <time>2014-04-13T09:20:22.000Z</time>
      </trkpt>
      <trkpt lat="45.90604" lon="6.19869">
        <ele>658.20001220703</ele>
        <time>2014-04-13T09:20:27.000Z</time>
      </trkpt>
      <trkpt lat="45.90604" lon="6.19865">
        <ele>659.59997558594</ele>
        <time>2014-04-13T09:20:29.000Z</time>
      </trkpt>
      <trkpt lat="45.90604" lon="6.19859">
        <ele>661</ele>
        <time>2014-04-13T09:20:31.000Z</time>
      </trkpt>
      <trkpt lat="45.90605" lon="6.19856">
        <ele>661.59997558594</ele>
        <time>2014-04-13T09:20:33.000Z</time>
      </trkpt>
      <trkpt lat="45.90603" lon="6.19846">
        <ele>664.79998779297</ele>
        <time>2014-04-13T09:20:40.000Z</time>
      </trkpt>
      <trkpt lat="45.90603" lon="6.19841">
        <ele>666</ele>
        <time>2014-04-13T09:20:43.000Z</time>
      </trkpt>
      <trkpt lat="45.90604" lon="6.19839">
        <ele>666.40002441406</ele>
        <time>2014-04-13T09:20:44.000Z</time>
      </trkpt>
      <trkpt lat="45.90604" lon="6.19835">
        <ele>667.40002441406</ele>
        <time>2014-04-13T09:20:46.000Z</time>
      </trkpt>
      <trkpt lat="45.90605" lon="6.19832">
        <ele>667.59997558594</ele>
        <time>2014-04-13T09:20:53.000Z</time>
      </trkpt>
      <trkpt lat="45.90608" lon="6.19828">
        <ele>666.79998779297</ele>
        <time>2014-04-13T09:21:00.000Z</time>
      </trkpt>
      <trkpt lat="45.90612" lon="6.19824">
        <ele>666</ele>
        <time>2014-04-13T09:21:05.000Z</time>
      </trkpt>
      <trkpt lat="45.90615" lon="6.19822">
        <ele>665.20001220703</ele>
        <time>2014-04-13T09:21:07.000Z</time>
      </trkpt>
      <trkpt lat="45.90619" lon="6.19813">
        <ele>665</ele>
        <time>2014-04-13T09:21:12.000Z</time>
      </trkpt>
      <trkpt lat="45.90622" lon="6.198">
        <ele>666.20001220703</ele>
        <time>2014-04-13T09:21:20.000Z</time>
      </trkpt>
      <trkpt lat="45.90623" lon="6.19797">
        <ele>666.20001220703</ele>
        <time>2014-04-13T09:21:22.000Z</time>
      </trkpt>
      <trkpt lat="45.90625" lon="6.1979">
        <ele>666.40002441406</ele>
        <time>2014-04-13T09:21:26.000Z</time>
      </trkpt>
      <trkpt lat="45.90624" lon="6.19787">
        <ele>667.40002441406</ele>
        <time>2014-04-13T09:21:28.000Z</time>
      </trkpt>
      <trkpt lat="45.90625" lon="6.19782">
        <ele>668</ele>
        <time>2014-04-13T09:21:33.000Z</time>
      </trkpt>
      <trkpt lat="45.90627" lon="6.1978">
        <ele>667.40002441406</ele>
        <time>2014-04-13T09:21:38.000Z</time>
      </trkpt>
      <trkpt lat="45.90629" lon="6.19779">
        <ele>666.79998779297</ele>
        <time>2014-04-13T09:21:40.000Z</time>
      </trkpt>
      <trkpt lat="45.9063" lon="6.19778">
        <ele>666.59997558594</ele>
        <time>2014-04-13T09:21:41.000Z</time>
      </trkpt>
      <trkpt lat="45.90632" lon="6.19776">
        <ele>666</ele>
        <time>2014-04-13T09:21:43.000Z</time>
      </trkpt>
      <trkpt lat="45.90632" lon="6.19774">
        <ele>666.59997558594</ele>
        <time>2014-04-13T09:21:44.000Z</time>
      </trkpt>
      <trkpt lat="45.9063" lon="6.19769">
        <ele>668.40002441406</ele>
        <time>2014-04-13T09:21:48.000Z</time>
      </trkpt>
      <trkpt lat="45.90628" lon="6.19769">
        <ele>669.20001220703</ele>
        <time>2014-04-13T09:21:49.000Z</time>
      </trkpt>
      <trkpt lat="45.90627" lon="6.19768">
        <ele>669.40002441406</ele>
        <time>2014-04-13T09:21:50.000Z</time>
      </trkpt>
      <trkpt lat="45.90628" lon="6.19756">
        <ele>671.59997558594</ele>
        <time>2014-04-13T09:21:54.000Z</time>
      </trkpt>
      <trkpt lat="45.90629" lon="6.1975">
        <ele>672.40002441406</ele>
        <time>2014-04-13T09:21:58.000Z</time>
      </trkpt>
      <trkpt lat="45.90629" lon="6.19748">
        <ele>672.20001220703</ele>
        <time>2014-04-13T09:21:59.000Z</time>
      </trkpt>
      <trkpt lat="45.90629" lon="6.19735">
        <ele>673.59997558594</ele>
        <time>2014-04-13T09:22:04.000Z</time>
      </trkpt>
      <trkpt lat="45.90629" lon="6.19732">
        <ele>674</ele>
        <time>2014-04-13T09:22:05.000Z</time>
      </trkpt>
      <trkpt lat="45.90628" lon="6.19728">
        <ele>674.59997558594</ele>
        <time>2014-04-13T09:22:06.000Z</time>
      </trkpt>
      <trkpt lat="45.90628" lon="6.19718">
        <ele>675.59997558594</ele>
        <time>2014-04-13T09:22:09.000Z</time>
      </trkpt>
      <trkpt lat="45.90631" lon="6.19708">
        <ele>674.79998779297</ele>
        <time>2014-04-13T09:22:14.000Z</time>
      </trkpt>
      <trkpt lat="45.90632" lon="6.19698">
        <ele>675.40002441406</ele>
        <time>2014-04-13T09:22:18.000Z</time>
      </trkpt>
      <trkpt lat="45.90632" lon="6.19693">
        <ele>676</ele>
        <time>2014-04-13T09:22:20.000Z</time>
      </trkpt>
      <trkpt lat="45.90634" lon="6.19692">
        <ele>675.20001220703</ele>
        <time>2014-04-13T09:22:21.000Z</time>
      </trkpt>
      <trkpt lat="45.90638" lon="6.19687">
        <ele>674.20001220703</ele>
        <time>2014-04-13T09:22:24.000Z</time>
      </trkpt>
      <trkpt lat="45.90639" lon="6.19685">
        <ele>673.79998779297</ele>
        <time>2014-04-13T09:22:25.000Z</time>
      </trkpt>
      <trkpt lat="45.90645" lon="6.19677">
        <ele>672.20001220703</ele>
        <time>2014-04-13T09:22:29.000Z</time>
      </trkpt>
      <trkpt lat="45.90646" lon="6.19674">
        <ele>672.20001220703</ele>
        <time>2014-04-13T09:22:31.000Z</time>
      </trkpt>
      <trkpt lat="45.90647" lon="6.19671">
        <ele>672</ele>
        <time>2014-04-13T09:22:32.000Z</time>
      </trkpt>
      <trkpt lat="45.90647" lon="6.1967">
        <ele>672.40002441406</ele>
        <time>2014-04-13T09:22:33.000Z</time>
      </trkpt>
      <trkpt lat="45.90648" lon="6.19661">
        <ele>673.59997558594</ele>
        <time>2014-04-13T09:22:36.000Z</time>
      </trkpt>
      <trkpt lat="45.90647" lon="6.19659">
        <ele>674.59997558594</ele>
        <time>2014-04-13T09:22:37.000Z</time>
      </trkpt>
      <trkpt lat="45.90639" lon="6.19654">
        <ele>678.59997558594</ele>
        <time>2014-04-13T09:22:42.000Z</time>
      </trkpt>
      <trkpt lat="45.90634" lon="6.19655">
        <ele>680.20001220703</ele>
        <time>2014-04-13T09:22:46.000Z</time>
      </trkpt>
      <trkpt lat="45.90632" lon="6.19655">
        <ele>680.79998779297</ele>
        <time>2014-04-13T09:22:47.000Z</time>
      </trkpt>
      <trkpt lat="45.9063" lon="6.19656">
        <ele>681.20001220703</ele>
        <time>2014-04-13T09:22:48.000Z</time>
      </trkpt>
      <trkpt lat="45.90624" lon="6.19655">
        <ele>683.59997558594</ele>
        <time>2014-04-13T09:22:53.000Z</time>
      </trkpt>
      <trkpt lat="45.9062" lon="6.19654">
        <ele>685.40002441406</ele>
        <time>2014-04-13T09:22:58.000Z</time>
      </trkpt>
      <trkpt lat="45.90618" lon="6.19654">
        <ele>686</ele>
        <time>2014-04-13T09:22:59.000Z</time>
      </trkpt>
      <trkpt lat="45.90614" lon="6.19655">
        <ele>687.20001220703</ele>
        <time>2014-04-13T09:23:02.000Z</time>
      </trkpt>
      <trkpt lat="45.90613" lon="6.19654">
        <ele>687.59997558594</ele>
        <time>2014-04-13T09:23:03.000Z</time>
      </trkpt>
      <trkpt lat="45.90607" lon="6.19652">
        <ele>690</ele>
        <time>2014-04-13T09:23:08.000Z</time>
      </trkpt>
      <trkpt lat="45.90606" lon="6.19651">
        <ele>690.59997558594</ele>
        <time>2014-04-13T09:23:09.000Z</time>
      </trkpt>
      <trkpt lat="45.90605" lon="6.19651">
        <ele>691</ele>
        <time>2014-04-13T09:23:10.000Z</time>
      </trkpt>
      <trkpt lat="45.90602" lon="6.19653">
        <ele>691.79998779297</ele>
        <time>2014-04-13T09:23:12.000Z</time>
      </trkpt>
      <trkpt lat="45.90598" lon="6.19651">
        <ele>693.59997558594</ele>
        <time>2014-04-13T09:23:19.000Z</time>
      </trkpt>
      <trkpt lat="45.90597" lon="6.19646">
        <ele>694.40002441406</ele>
        <time>2014-04-13T09:23:23.000Z</time>
      </trkpt>
      <trkpt lat="45.90594" lon="6.19642">
        <ele>695.79998779297</ele>
        <time>2014-04-13T09:23:26.000Z</time>
      </trkpt>
      <trkpt lat="45.90591" lon="6.19644">
        <ele>696.79998779297</ele>
        <time>2014-04-13T09:23:29.000Z</time>
      </trkpt>
      <trkpt lat="45.9059" lon="6.19642">
        <ele>697.20001220703</ele>
        <time>2014-04-13T09:23:31.000Z</time>
      </trkpt>
      <trkpt lat="45.90588" lon="6.19636">
        <ele>698.59997558594</ele>
        <time>2014-04-13T09:23:36.000Z</time>
      </trkpt>
      <trkpt lat="45.90587" lon="6.19634">
        <ele>699</ele>
        <time>2014-04-13T09:23:37.000Z</time>
      </trkpt>
      <trkpt lat="45.90586" lon="6.19629">
        <ele>699.79998779297</ele>
        <time>2014-04-13T09:23:40.000Z</time>
      </trkpt>
      <trkpt lat="45.90586" lon="6.19627">
        <ele>700</ele>
        <time>2014-04-13T09:23:41.000Z</time>
      </trkpt>
      <trkpt lat="45.90588" lon="6.1961">
        <ele>701</ele>
        <time>2014-04-13T09:23:48.000Z</time>
      </trkpt>
      <trkpt lat="45.9059" lon="6.19607">
        <ele>701.20001220703</ele>
        <time>2014-04-13T09:23:49.000Z</time>
      </trkpt>
      <trkpt lat="45.90593" lon="6.19595">
        <ele>701.59997558594</ele>
        <time>2014-04-13T09:23:52.000Z</time>
      </trkpt>
      <trkpt lat="45.90597" lon="6.19588">
        <ele>701.59997558594</ele>
        <time>2014-04-13T09:23:54.000Z</time>
      </trkpt>
      <trkpt lat="45.90608" lon="6.19575">
        <ele>702.79998779297</ele>
        <time>2014-04-13T09:23:59.000Z</time>
      </trkpt>
      <trkpt lat="45.90624" lon="6.19572">
        <ele>700.59997558594</ele>
        <time>2014-04-13T09:24:05.000Z</time>
      </trkpt>
      <trkpt lat="45.9063" lon="6.19574">
        <ele>699</ele>
        <time>2014-04-13T09:24:08.000Z</time>
      </trkpt>
      <trkpt lat="45.90635" lon="6.19577">
        <ele>697.20001220703</ele>
        <time>2014-04-13T09:24:10.000Z</time>
      </trkpt>
      <trkpt lat="45.90652" lon="6.19585">
        <ele>691.40002441406</ele>
        <time>2014-04-13T09:24:16.000Z</time>
      </trkpt>
      <trkpt lat="45.90656" lon="6.19597">
        <ele>687.59997558594</ele>
        <time>2014-04-13T09:24:21.000Z</time>
      </trkpt>
      <trkpt lat="45.90661" lon="6.19603">
        <ele>684.59997558594</ele>
        <time>2014-04-13T09:24:27.000Z</time>
      </trkpt>
      <trkpt lat="45.90669" lon="6.19602">
        <ele>683.59997558594</ele>
        <time>2014-04-13T09:24:32.000Z</time>
      </trkpt>
      <trkpt lat="45.90684" lon="6.19595">
        <ele>685.40002441406</ele>
        <time>2014-04-13T09:24:37.000Z</time>
      </trkpt>
      <trkpt lat="45.90702" lon="6.1959">
        <ele>686.59997558594</ele>
        <time>2014-04-13T09:24:42.000Z</time>
      </trkpt>
      <trkpt lat="45.90719" lon="6.19585">
        <ele>687.79998779297</ele>
        <time>2014-04-13T09:24:47.000Z</time>
      </trkpt>
      <trkpt lat="45.90729" lon="6.1959">
        <ele>686.20001220703</ele>
        <time>2014-04-13T09:24:52.000Z</time>
      </trkpt>
      <trkpt lat="45.9074" lon="6.19597">
        <ele>683.79998779297</ele>
        <time>2014-04-13T09:24:57.000Z</time>
      </trkpt>
      <trkpt lat="45.9075" lon="6.19606">
        <ele>680.59997558594</ele>
        <time>2014-04-13T09:25:02.000Z</time>
      </trkpt>
      <trkpt lat="45.9076" lon="6.19607">
        <ele>679.79998779297</ele>
        <time>2014-04-13T09:25:07.000Z</time>
      </trkpt>
      <trkpt lat="45.90775" lon="6.19601">
        <ele>681</ele>
        <time>2014-04-13T09:25:13.000Z</time>
      </trkpt>
      <trkpt lat="45.90786" lon="6.19596">
        <ele>682.20001220703</ele>
        <time>2014-04-13T09:25:19.000Z</time>
      </trkpt>
      <trkpt lat="45.90801" lon="6.19588">
        <ele>684.20001220703</ele>
        <time>2014-04-13T09:25:26.000Z</time>
      </trkpt>
      <trkpt lat="45.9081" lon="6.19584">
        <ele>685</ele>
        <time>2014-04-13T09:25:31.000Z</time>
      </trkpt>
      <trkpt lat="45.90822" lon="6.19578">
        <ele>686.59997558594</ele>
        <time>2014-04-13T09:25:37.000Z</time>
      </trkpt>
      <trkpt lat="45.90835" lon="6.19575">
        <ele>686.79998779297</ele>
        <time>2014-04-13T09:25:43.000Z</time>
      </trkpt>
      <trkpt lat="45.90844" lon="6.19574">
        <ele>685.40002441406</ele>
        <time>2014-04-13T09:25:48.000Z</time>
      </trkpt>
      <trkpt lat="45.90847" lon="6.19573">
        <ele>685</ele>
        <time>2014-04-13T09:25:49.000Z</time>
      </trkpt>
      <trkpt lat="45.90863" lon="6.19571">
        <ele>682.59997558594</ele>
        <time>2014-04-13T09:25:55.000Z</time>
      </trkpt>
      <trkpt lat="45.90877" lon="6.19564">
        <ele>682.40002441406</ele>
        <time>2014-04-13T09:26:00.000Z</time>
      </trkpt>
      <trkpt lat="45.90886" lon="6.19558">
        <ele>683.40002441406</ele>
        <time>2014-04-13T09:26:04.000Z</time>
      </trkpt>
      <trkpt lat="45.90898" lon="6.19548">
        <ele>685.59997558594</ele>
        <time>2014-04-13T09:26:09.000Z</time>
      </trkpt>
      <trkpt lat="45.9091" lon="6.19547">
        <ele>683.79998779297</ele>
        <time>2014-04-13T09:26:13.000Z</time>
      </trkpt>
      <trkpt lat="45.90924" lon="6.19548">
        <ele>681.79998779297</ele>
        <time>2014-04-13T09:26:18.000Z</time>
      </trkpt>
      <trkpt lat="45.90939" lon="6.19551">
        <ele>679.59997558594</ele>
        <time>2014-04-13T09:26:24.000Z</time>
      </trkpt>
      <trkpt lat="45.90957" lon="6.19554">
        <ele>677.79998779297</ele>
        <time>2014-04-13T09:26:29.000Z</time>
      </trkpt>
      <trkpt lat="45.9096" lon="6.19554">
        <ele>677.59997558594</ele>
        <time>2014-04-13T09:26:30.000Z</time>
      </trkpt>
      <trkpt lat="45.9097" lon="6.19558">
        <ele>675.40002441406</ele>
        <time>2014-04-13T09:26:34.000Z</time>
      </trkpt>
      <trkpt lat="45.90991" lon="6.19557">
        <ele>675</ele>
        <time>2014-04-13T09:26:40.000Z</time>
      </trkpt>
      <trkpt lat="45.91006" lon="6.19563">
        <ele>671.79998779297</ele>
        <time>2014-04-13T09:26:45.000Z</time>
      </trkpt>
      <trkpt lat="45.91022" lon="6.19566">
        <ele>668.79998779297</ele>
        <time>2014-04-13T09:26:50.000Z</time>
      </trkpt>
      <trkpt lat="45.91039" lon="6.19567">
        <ele>667</ele>
        <time>2014-04-13T09:26:55.000Z</time>
      </trkpt>
      <trkpt lat="45.91054" lon="6.19561">
        <ele>668.79998779297</ele>
        <time>2014-04-13T09:26:59.000Z</time>
      </trkpt>
      <trkpt lat="45.91062" lon="6.19564">
        <ele>666.79998779297</ele>
        <time>2014-04-13T09:27:03.000Z</time>
      </trkpt>
      <trkpt lat="45.91076" lon="6.19562">
        <ele>666.40002441406</ele>
        <time>2014-04-13T09:27:08.000Z</time>
      </trkpt>
      <trkpt lat="45.91092" lon="6.19559">
        <ele>667</ele>
        <time>2014-04-13T09:27:14.000Z</time>
      </trkpt>
      <trkpt lat="45.91109" lon="6.19556">
        <ele>667.40002441406</ele>
        <time>2014-04-13T09:27:20.000Z</time>
      </trkpt>
      <trkpt lat="45.91119" lon="6.19559">
        <ele>664.59997558594</ele>
        <time>2014-04-13T09:27:25.000Z</time>
      </trkpt>
      <trkpt lat="45.91135" lon="6.1956">
        <ele>662.59997558594</ele>
        <time>2014-04-13T09:27:31.000Z</time>
      </trkpt>
      <trkpt lat="45.91146" lon="6.19559">
        <ele>662.20001220703</ele>
        <time>2014-04-13T09:27:37.000Z</time>
      </trkpt>
      <trkpt lat="45.91154" lon="6.19555">
        <ele>664</ele>
        <time>2014-04-13T09:27:42.000Z</time>
      </trkpt>
      <trkpt lat="45.91162" lon="6.19548">
        <ele>667.20001220703</ele>
        <time>2014-04-13T09:27:48.000Z</time>
      </trkpt>
      <trkpt lat="45.9117" lon="6.19544">
        <ele>669.40002441406</ele>
        <time>2014-04-13T09:27:53.000Z</time>
      </trkpt>
      <trkpt lat="45.91181" lon="6.19538">
        <ele>672.40002441406</ele>
        <time>2014-04-13T09:28:00.000Z</time>
      </trkpt>
      <trkpt lat="45.91188" lon="6.19535">
        <ele>674</ele>
        <time>2014-04-13T09:28:04.000Z</time>
      </trkpt>
      <trkpt lat="45.91188" lon="6.19534">
        <ele>674.59997558594</ele>
        <time>2014-04-13T09:28:05.000Z</time>
      </trkpt>
      <trkpt lat="45.91195" lon="6.1953">
        <ele>676.79998779297</ele>
        <time>2014-04-13T09:28:09.000Z</time>
      </trkpt>
      <trkpt lat="45.91199" lon="6.19527">
        <ele>678.79998779297</ele>
        <time>2014-04-13T09:28:12.000Z</time>
      </trkpt>
      <trkpt lat="45.91203" lon="6.19525">
        <ele>679.79998779297</ele>
        <time>2014-04-13T09:28:14.000Z</time>
      </trkpt>
      <trkpt lat="45.91212" lon="6.19517">
        <ele>684.20001220703</ele>
        <time>2014-04-13T09:28:20.000Z</time>
      </trkpt>
      <trkpt lat="45.91218" lon="6.19512">
        <ele>686.59997558594</ele>
        <time>2014-04-13T09:28:24.000Z</time>
      </trkpt>
      <trkpt lat="45.91221" lon="6.19511">
        <ele>687.40002441406</ele>
        <time>2014-04-13T09:28:26.000Z</time>
      </trkpt>
      <trkpt lat="45.91236" lon="6.19501">
        <ele>692.59997558594</ele>
        <time>2014-04-13T09:28:33.000Z</time>
      </trkpt>
      <trkpt lat="45.91243" lon="6.19494">
        <ele>694.20001220703</ele>
        <time>2014-04-13T09:28:37.000Z</time>
      </trkpt>
      <trkpt lat="45.91246" lon="6.19492">
        <ele>694.59997558594</ele>
        <time>2014-04-13T09:28:39.000Z</time>
      </trkpt>
      <trkpt lat="45.91256" lon="6.19485">
        <ele>695.40002441406</ele>
        <time>2014-04-13T09:28:44.000Z</time>
      </trkpt>
      <trkpt lat="45.91267" lon="6.19473">
        <ele>696.79998779297</ele>
        <time>2014-04-13T09:28:51.000Z</time>
      </trkpt>
      <trkpt lat="45.91279" lon="6.19469">
        <ele>696.40002441406</ele>
        <time>2014-04-13T09:28:56.000Z</time>
      </trkpt>
      <trkpt lat="45.91289" lon="6.19465">
        <ele>696.40002441406</ele>
        <time>2014-04-13T09:29:00.000Z</time>
      </trkpt>
      <trkpt lat="45.91291" lon="6.19464">
        <ele>696.40002441406</ele>
        <time>2014-04-13T09:29:01.000Z</time>
      </trkpt>
      <trkpt lat="45.91302" lon="6.19458">
        <ele>696.40002441406</ele>
        <time>2014-04-13T09:29:05.000Z</time>
      </trkpt>
      <trkpt lat="45.91311" lon="6.19449">
        <ele>697</ele>
        <time>2014-04-13T09:29:09.000Z</time>
      </trkpt>
      <trkpt lat="45.91316" lon="6.19436">
        <ele>698.79998779297</ele>
        <time>2014-04-13T09:29:14.000Z</time>
      </trkpt>
      <trkpt lat="45.91314" lon="6.19434">
        <ele>699.20001220703</ele>
        <time>2014-04-13T09:29:15.000Z</time>
      </trkpt>
      <trkpt lat="45.91308" lon="6.19427">
        <ele>701</ele>
        <time>2014-04-13T09:29:20.000Z</time>
      </trkpt>
      <trkpt lat="45.91307" lon="6.19427">
        <ele>701</ele>
        <time>2014-04-13T09:29:21.000Z</time>
      </trkpt>
      <trkpt lat="45.91308" lon="6.19427">
        <ele>701</ele>
        <time>2014-04-13T09:29:22.000Z</time>
      </trkpt>
      <trkpt lat="45.91304" lon="6.19426">
        <ele>701.59997558594</ele>
        <time>2014-04-13T09:29:26.000Z</time>
      </trkpt>
      <trkpt lat="45.91299" lon="6.19428">
        <ele>701.79998779297</ele>
        <time>2014-04-13T09:29:31.000Z</time>
      </trkpt>
      <trkpt lat="45.91297" lon="6.19427">
        <ele>702.20001220703</ele>
        <time>2014-04-13T09:29:34.000Z</time>
      </trkpt>
      <trkpt lat="45.91293" lon="6.19427">
        <ele>702.59997558594</ele>
        <time>2014-04-13T09:29:41.000Z</time>
      </trkpt>
      <trkpt lat="45.91288" lon="6.19423">
        <ele>703.59997558594</ele>
        <time>2014-04-13T09:29:49.000Z</time>
      </trkpt>
      <trkpt lat="45.91284" lon="6.19426">
        <ele>703.59997558594</ele>
        <time>2014-04-13T09:29:52.000Z</time>
      </trkpt>
      <trkpt lat="45.91281" lon="6.19423">
        <ele>704.59997558594</ele>
        <time>2014-04-13T09:29:55.000Z</time>
      </trkpt>
      <trkpt lat="45.91275" lon="6.19422">
        <ele>705.40002441406</ele>
        <time>2014-04-13T09:30:01.000Z</time>
      </trkpt>
      <trkpt lat="45.91273" lon="6.19423">
        <ele>705.40002441406</ele>
        <time>2014-04-13T09:30:02.000Z</time>
      </trkpt>
      <trkpt lat="45.91266" lon="6.19427">
        <ele>705.40002441406</ele>
        <time>2014-04-13T09:30:06.000Z</time>
      </trkpt>
      <trkpt lat="45.91263" lon="6.19428">
        <ele>705.40002441406</ele>
        <time>2014-04-13T09:30:08.000Z</time>
      </trkpt>
      <trkpt lat="45.91262" lon="6.19428">
        <ele>705.59997558594</ele>
        <time>2014-04-13T09:30:09.000Z</time>
      </trkpt>
      <trkpt lat="45.91255" lon="6.1943">
        <ele>705.79998779297</ele>
        <time>2014-04-13T09:30:14.000Z</time>
      </trkpt>
      <trkpt lat="45.91253" lon="6.19431">
        <ele>706</ele>
        <time>2014-04-13T09:30:16.000Z</time>
      </trkpt>
      <trkpt lat="45.91245" lon="6.19434">
        <ele>706.20001220703</ele>
        <time>2014-04-13T09:30:22.000Z</time>
      </trkpt>
      <trkpt lat="45.91238" lon="6.19436">
        <ele>706.79998779297</ele>
        <time>2014-04-13T09:30:27.000Z</time>
      </trkpt>
      <trkpt lat="45.9123" lon="6.19436">
        <ele>707.59997558594</ele>
        <time>2014-04-13T09:30:32.000Z</time>
      </trkpt>
      <trkpt lat="45.91228" lon="6.19436">
        <ele>708</ele>
        <time>2014-04-13T09:30:35.000Z</time>
      </trkpt>
      <trkpt lat="45.91227" lon="6.19435">
        <ele>708.40002441406</ele>
        <time>2014-04-13T09:30:36.000Z</time>
      </trkpt>
      <trkpt lat="45.91222" lon="6.19434">
        <ele>709.20001220703</ele>
        <time>2014-04-13T09:30:38.000Z</time>
      </trkpt>
      <trkpt lat="45.91212" lon="6.19435">
        <ele>710.20001220703</ele>
        <time>2014-04-13T09:30:42.000Z</time>
      </trkpt>
      <trkpt lat="45.91207" lon="6.19434">
        <ele>711</ele>
        <time>2014-04-13T09:30:44.000Z</time>
      </trkpt>
      <trkpt lat="45.912" lon="6.19437">
        <ele>711.20001220703</ele>
        <time>2014-04-13T09:30:48.000Z</time>
      </trkpt>
      <trkpt lat="45.9119" lon="6.19439">
        <ele>711.59997558594</ele>
        <time>2014-04-13T09:30:52.000Z</time>
      </trkpt>
      <trkpt lat="45.91186" lon="6.19442">
        <ele>711.59997558594</ele>
        <time>2014-04-13T09:30:56.000Z</time>
      </trkpt>
      <trkpt lat="45.91182" lon="6.19444">
        <ele>711.20001220703</ele>
        <time>2014-04-13T09:30:58.000Z</time>
      </trkpt>
      <trkpt lat="45.91177" lon="6.19444">
        <ele>711.79998779297</ele>
        <time>2014-04-13T09:31:01.000Z</time>
      </trkpt>
      <trkpt lat="45.91167" lon="6.19442">
        <ele>713.40002441406</ele>
        <time>2014-04-13T09:31:05.000Z</time>
      </trkpt>
      <trkpt lat="45.91161" lon="6.19443">
        <ele>713.79998779297</ele>
        <time>2014-04-13T09:31:07.000Z</time>
      </trkpt>
      <trkpt lat="45.91151" lon="6.19446">
        <ele>714</ele>
        <time>2014-04-13T09:31:11.000Z</time>
      </trkpt>
      <trkpt lat="45.91144" lon="6.19446">
        <ele>714.59997558594</ele>
        <time>2014-04-13T09:31:14.000Z</time>
      </trkpt>
      <trkpt lat="45.91137" lon="6.19444">
        <ele>716</ele>
        <time>2014-04-13T09:31:17.000Z</time>
      </trkpt>
      <trkpt lat="45.91128" lon="6.19449">
        <ele>715.20001220703</ele>
        <time>2014-04-13T09:31:21.000Z</time>
      </trkpt>
      <trkpt lat="45.91117" lon="6.1945">
        <ele>716</ele>
        <time>2014-04-13T09:31:26.000Z</time>
      </trkpt>
      <trkpt lat="45.91116" lon="6.19448">
        <ele>717</ele>
        <time>2014-04-13T09:31:27.000Z</time>
      </trkpt>
      <trkpt lat="45.91114" lon="6.19449">
        <ele>716.79998779297</ele>
        <time>2014-04-13T09:31:28.000Z</time>
      </trkpt>
      <trkpt lat="45.91105" lon="6.19449">
        <ele>717.59997558594</ele>
        <time>2014-04-13T09:31:32.000Z</time>
      </trkpt>
      <trkpt lat="45.91096" lon="6.19447">
        <ele>719.20001220703</ele>
        <time>2014-04-13T09:31:37.000Z</time>
      </trkpt>
      <trkpt lat="45.9109" lon="6.19445">
        <ele>720.59997558594</ele>
        <time>2014-04-13T09:31:40.000Z</time>
      </trkpt>
      <trkpt lat="45.91086" lon="6.19446">
        <ele>720.79998779297</ele>
        <time>2014-04-13T09:31:42.000Z</time>
      </trkpt>
      <trkpt lat="45.91081" lon="6.19449">
        <ele>720.20001220703</ele>
        <time>2014-04-13T09:31:44.000Z</time>
      </trkpt>
      <trkpt lat="45.91073" lon="6.1945">
        <ele>719.79998779297</ele>
        <time>2014-04-13T09:31:47.000Z</time>
      </trkpt>
      <trkpt lat="45.91061" lon="6.19454">
        <ele>719</ele>
        <time>2014-04-13T09:31:52.000Z</time>
      </trkpt>
      <trkpt lat="45.91057" lon="6.19453">
        <ele>719.20001220703</ele>
        <time>2014-04-13T09:31:54.000Z</time>
      </trkpt>
      <trkpt lat="45.91052" lon="6.19451">
        <ele>720.20001220703</ele>
        <time>2014-04-13T09:31:57.000Z</time>
      </trkpt>
      <trkpt lat="45.91047" lon="6.19449">
        <ele>721.20001220703</ele>
        <time>2014-04-13T09:32:00.000Z</time>
      </trkpt>
      <trkpt lat="45.91043" lon="6.19446">
        <ele>722.20001220703</ele>
        <time>2014-04-13T09:32:03.000Z</time>
      </trkpt>
      <trkpt lat="45.91037" lon="6.19448">
        <ele>721.59997558594</ele>
        <time>2014-04-13T09:32:08.000Z</time>
      </trkpt>
      <trkpt lat="45.91037" lon="6.19449">
        <ele>721.40002441406</ele>
        <time>2014-04-13T09:32:09.000Z</time>
      </trkpt>
      <trkpt lat="45.91035" lon="6.19449">
        <ele>721.59997558594</ele>
        <time>2014-04-13T09:32:10.000Z</time>
      </trkpt>
      <trkpt lat="45.91033" lon="6.19447">
        <ele>722.40002441406</ele>
        <time>2014-04-13T09:32:12.000Z</time>
      </trkpt>
      <trkpt lat="45.91027" lon="6.19447">
        <ele>722.59997558594</ele>
        <time>2014-04-13T09:32:16.000Z</time>
      </trkpt>
      <trkpt lat="45.91024" lon="6.19445">
        <ele>723.20001220703</ele>
        <time>2014-04-13T09:32:18.000Z</time>
      </trkpt>
      <trkpt lat="45.91019" lon="6.19444">
        <ele>724</ele>
        <time>2014-04-13T09:32:24.000Z</time>
      </trkpt>
      <trkpt lat="45.91014" lon="6.19441">
        <ele>725</ele>
        <time>2014-04-13T09:32:28.000Z</time>
      </trkpt>
      <trkpt lat="45.91013" lon="6.19441">
        <ele>725.20001220703</ele>
        <time>2014-04-13T09:32:29.000Z</time>
      </trkpt>
      <trkpt lat="45.9101" lon="6.19441">
        <ele>725.40002441406</ele>
        <time>2014-04-13T09:32:31.000Z</time>
      </trkpt>
      <trkpt lat="45.91007" lon="6.19442">
        <ele>725</ele>
        <time>2014-04-13T09:32:33.000Z</time>
      </trkpt>
      <trkpt lat="45.90997" lon="6.19442">
        <ele>725.40002441406</ele>
        <time>2014-04-13T09:32:39.000Z</time>
      </trkpt>
      <trkpt lat="45.90991" lon="6.19434">
        <ele>728.79998779297</ele>
        <time>2014-04-13T09:32:45.000Z</time>
      </trkpt>
      <trkpt lat="45.90984" lon="6.19432">
        <ele>729.59997558594</ele>
        <time>2014-04-13T09:32:50.000Z</time>
      </trkpt>
      <trkpt lat="45.90979" lon="6.19432">
        <ele>729.79998779297</ele>
        <time>2014-04-13T09:32:53.000Z</time>
      </trkpt>
      <trkpt lat="45.90978" lon="6.19429">
        <ele>731</ele>
        <time>2014-04-13T09:32:55.000Z</time>
      </trkpt>
      <trkpt lat="45.90979" lon="6.19428">
        <ele>731.40002441406</ele>
        <time>2014-04-13T09:32:56.000Z</time>
      </trkpt>
      <trkpt lat="45.90981" lon="6.19427">
        <ele>731.40002441406</ele>
        <time>2014-04-13T09:32:59.000Z</time>
      </trkpt>
      <trkpt lat="45.90982" lon="6.19427">
        <ele>731.79998779297</ele>
        <time>2014-04-13T09:33:00.000Z</time>
      </trkpt>
      <trkpt lat="45.90986" lon="6.19422">
        <ele>733.59997558594</ele>
        <time>2014-04-13T09:33:04.000Z</time>
      </trkpt>
      <trkpt lat="45.90989" lon="6.19421">
        <ele>733.79998779297</ele>
        <time>2014-04-13T09:33:07.000Z</time>
      </trkpt>
      <trkpt lat="45.90993" lon="6.19419">
        <ele>734.40002441406</ele>
        <time>2014-04-13T09:33:11.000Z</time>
      </trkpt>
      <trkpt lat="45.90995" lon="6.1942">
        <ele>733.79998779297</ele>
        <time>2014-04-13T09:33:12.000Z</time>
      </trkpt>
      <trkpt lat="45.91003" lon="6.1942">
        <ele>733.79998779297</ele>
        <time>2014-04-13T09:33:15.000Z</time>
      </trkpt>
      <trkpt lat="45.91019" lon="6.19415">
        <ele>735</ele>
        <time>2014-04-13T09:33:21.000Z</time>
      </trkpt>
      <trkpt lat="45.91025" lon="6.19411">
        <ele>735.79998779297</ele>
        <time>2014-04-13T09:33:23.000Z</time>
      </trkpt>
      <trkpt lat="45.91034" lon="6.19408">
        <ele>736.59997558594</ele>
        <time>2014-04-13T09:33:27.000Z</time>
      </trkpt>
      <trkpt lat="45.91041" lon="6.19405">
        <ele>737.20001220703</ele>
        <time>2014-04-13T09:33:30.000Z</time>
      </trkpt>
      <trkpt lat="45.91046" lon="6.19403">
        <ele>737.79998779297</ele>
        <time>2014-04-13T09:33:32.000Z</time>
      </trkpt>
      <trkpt lat="45.91054" lon="6.19396">
        <ele>739.40002441406</ele>
        <time>2014-04-13T09:33:36.000Z</time>
      </trkpt>
      <trkpt lat="45.9106" lon="6.19394">
        <ele>739.59997558594</ele>
        <time>2014-04-13T09:33:40.000Z</time>
      </trkpt>
      <trkpt lat="45.91069" lon="6.19392">
        <ele>739.79998779297</ele>
        <time>2014-04-13T09:33:44.000Z</time>
      </trkpt>
      <trkpt lat="45.91072" lon="6.19394">
        <ele>739.20001220703</ele>
        <time>2014-04-13T09:33:45.000Z</time>
      </trkpt>
      <trkpt lat="45.91089" lon="6.19405">
        <ele>734.59997558594</ele>
        <time>2014-04-13T09:33:50.000Z</time>
      </trkpt>
      <trkpt lat="45.91103" lon="6.19403">
        <ele>733.59997558594</ele>
        <time>2014-04-13T09:33:54.000Z</time>
      </trkpt>
      <trkpt lat="45.91113" lon="6.19393">
        <ele>735</ele>
        <time>2014-04-13T09:33:59.000Z</time>
      </trkpt>
      <trkpt lat="45.91118" lon="6.19383">
        <ele>737.20001220703</ele>
        <time>2014-04-13T09:34:04.000Z</time>
      </trkpt>
      <trkpt lat="45.9112" lon="6.19382">
        <ele>737.40002441406</ele>
        <time>2014-04-13T09:34:05.000Z</time>
      </trkpt>
      <trkpt lat="45.91129" lon="6.19377">
        <ele>737.79998779297</ele>
        <time>2014-04-13T09:34:10.000Z</time>
      </trkpt>
      <trkpt lat="45.91135" lon="6.19369">
        <ele>739.20001220703</ele>
        <time>2014-04-13T09:34:16.000Z</time>
      </trkpt>
      <trkpt lat="45.91141" lon="6.19362">
        <ele>740.40002441406</ele>
        <time>2014-04-13T09:34:21.000Z</time>
      </trkpt>
      <trkpt lat="45.9114" lon="6.19361">
        <ele>740.59997558594</ele>
        <time>2014-04-13T09:34:22.000Z</time>
      </trkpt>
      <trkpt lat="45.9114" lon="6.19357">
        <ele>742</ele>
        <time>2014-04-13T09:34:24.000Z</time>
      </trkpt>
      <trkpt lat="45.9114" lon="6.19354">
        <ele>742.79998779297</ele>
        <time>2014-04-13T09:34:27.000Z</time>
      </trkpt>
      <trkpt lat="45.91142" lon="6.19347">
        <ele>744.59997558594</ele>
        <time>2014-04-13T09:34:31.000Z</time>
      </trkpt>
      <trkpt lat="45.91146" lon="6.19344">
        <ele>744.79998779297</ele>
        <time>2014-04-13T09:34:34.000Z</time>
      </trkpt>
      <trkpt lat="45.91147" lon="6.19343">
        <ele>745</ele>
        <time>2014-04-13T09:34:36.000Z</time>
      </trkpt>
      <trkpt lat="45.91151" lon="6.19338">
        <ele>745.59997558594</ele>
        <time>2014-04-13T09:34:39.000Z</time>
      </trkpt>
      <trkpt lat="45.91156" lon="6.19332">
        <ele>746.79998779297</ele>
        <time>2014-04-13T09:34:44.000Z</time>
      </trkpt>
      <trkpt lat="45.91161" lon="6.19323">
        <ele>748.20001220703</ele>
        <time>2014-04-13T09:34:50.000Z</time>
      </trkpt>
      <trkpt lat="45.9116" lon="6.1932">
        <ele>749</ele>
        <time>2014-04-13T09:34:52.000Z</time>
      </trkpt>
      <trkpt lat="45.91158" lon="6.19316">
        <ele>750.20001220703</ele>
        <time>2014-04-13T09:34:56.000Z</time>
      </trkpt>
      <trkpt lat="45.91155" lon="6.19308">
        <ele>752.40002441406</ele>
        <time>2014-04-13T09:35:04.000Z</time>
      </trkpt>
      <trkpt lat="45.91156" lon="6.19302">
        <ele>753.79998779297</ele>
        <time>2014-04-13T09:35:08.000Z</time>
      </trkpt>
      <trkpt lat="45.91159" lon="6.19298">
        <ele>754.20001220703</ele>
        <time>2014-04-13T09:35:11.000Z</time>
      </trkpt>
      <trkpt lat="45.91159" lon="6.19297">
        <ele>754.59997558594</ele>
        <time>2014-04-13T09:35:13.000Z</time>
      </trkpt>
      <trkpt lat="45.91163" lon="6.19293">
        <ele>754.79998779297</ele>
        <time>2014-04-13T09:35:16.000Z</time>
      </trkpt>
      <trkpt lat="45.91165" lon="6.1929">
        <ele>755</ele>
        <time>2014-04-13T09:35:18.000Z</time>
      </trkpt>
      <trkpt lat="45.91168" lon="6.19288">
        <ele>755</ele>
        <time>2014-04-13T09:35:21.000Z</time>
      </trkpt>
      <trkpt lat="45.9117" lon="6.19287">
        <ele>755.20001220703</ele>
        <time>2014-04-13T09:35:23.000Z</time>
      </trkpt>
      <trkpt lat="45.91172" lon="6.19278">
        <ele>756.59997558594</ele>
        <time>2014-04-13T09:35:39.000Z</time>
      </trkpt>
      <trkpt lat="45.91171" lon="6.19271">
        <ele>758.20001220703</ele>
        <time>2014-04-13T09:35:47.000Z</time>
      </trkpt>
      <trkpt lat="45.9117" lon="6.19268">
        <ele>759.40002441406</ele>
        <time>2014-04-13T09:35:50.000Z</time>
      </trkpt>
      <trkpt lat="45.91168" lon="6.19266">
        <ele>760</ele>
        <time>2014-04-13T09:35:51.000Z</time>
      </trkpt>
      <trkpt lat="45.91167" lon="6.19261">
        <ele>761.20001220703</ele>
        <time>2014-04-13T09:35:57.000Z</time>
      </trkpt>
      <trkpt lat="45.91165" lon="6.19257">
        <ele>762.79998779297</ele>
        <time>2014-04-13T09:36:03.000Z</time>
      </trkpt>
      <trkpt lat="45.91168" lon="6.19249">
        <ele>763.79998779297</ele>
        <time>2014-04-13T09:36:09.000Z</time>
      </trkpt>
      <trkpt lat="45.91169" lon="6.19246">
        <ele>764.40002441406</ele>
        <time>2014-04-13T09:36:12.000Z</time>
      </trkpt>
      <trkpt lat="45.91169" lon="6.1924">
        <ele>765.20001220703</ele>
        <time>2014-04-13T09:36:16.000Z</time>
      </trkpt>
      <trkpt lat="45.91171" lon="6.19234">
        <ele>765.79998779297</ele>
        <time>2014-04-13T09:36:20.000Z</time>
      </trkpt>
      <trkpt lat="45.9117" lon="6.19227">
        <ele>767</ele>
        <time>2014-04-13T09:36:24.000Z</time>
      </trkpt>
      <trkpt lat="45.91172" lon="6.19224">
        <ele>767.20001220703</ele>
        <time>2014-04-13T09:36:25.000Z</time>
      </trkpt>
      <trkpt lat="45.91176" lon="6.19206">
        <ele>769.40002441406</ele>
        <time>2014-04-13T09:36:30.000Z</time>
      </trkpt>
      <trkpt lat="45.91184" lon="6.19184">
        <ele>771.20001220703</ele>
        <time>2014-04-13T09:36:36.000Z</time>
      </trkpt>
      <trkpt lat="45.9119" lon="6.19166">
        <ele>772.79998779297</ele>
        <time>2014-04-13T09:36:41.000Z</time>
      </trkpt>
      <trkpt lat="45.91198" lon="6.19156">
        <ele>772.79998779297</ele>
        <time>2014-04-13T09:36:46.000Z</time>
      </trkpt>
      <trkpt lat="45.91209" lon="6.1915">
        <ele>771.20001220703</ele>
        <time>2014-04-13T09:36:51.000Z</time>
      </trkpt>
      <trkpt lat="45.91225" lon="6.19149">
        <ele>767.59997558594</ele>
        <time>2014-04-13T09:36:56.000Z</time>
      </trkpt>
      <trkpt lat="45.9124" lon="6.19145">
        <ele>764.79998779297</ele>
        <time>2014-04-13T09:37:01.000Z</time>
      </trkpt>
      <trkpt lat="45.91251" lon="6.19145">
        <ele>762</ele>
        <time>2014-04-13T09:37:05.000Z</time>
      </trkpt>
      <trkpt lat="45.91269" lon="6.19139">
        <ele>759</ele>
        <time>2014-04-13T09:37:11.000Z</time>
      </trkpt>
      <trkpt lat="45.91282" lon="6.19135">
        <ele>757</ele>
        <time>2014-04-13T09:37:16.000Z</time>
      </trkpt>
      <trkpt lat="45.91298" lon="6.19124">
        <ele>755.79998779297</ele>
        <time>2014-04-13T09:37:21.000Z</time>
      </trkpt>
      <trkpt lat="45.9131" lon="6.1911">
        <ele>755.79998779297</ele>
        <time>2014-04-13T09:37:26.000Z</time>
      </trkpt>
      <trkpt lat="45.91326" lon="6.19099">
        <ele>755</ele>
        <time>2014-04-13T09:37:32.000Z</time>
      </trkpt>
      <trkpt lat="45.91342" lon="6.19082">
        <ele>755.40002441406</ele>
        <time>2014-04-13T09:37:38.000Z</time>
      </trkpt>
      <trkpt lat="45.91352" lon="6.19066">
        <ele>755.59997558594</ele>
        <time>2014-04-13T09:37:43.000Z</time>
      </trkpt>
      <trkpt lat="45.91366" lon="6.19053">
        <ele>754.20001220703</ele>
        <time>2014-04-13T09:37:48.000Z</time>
      </trkpt>
      <trkpt lat="45.91378" lon="6.19039">
        <ele>752.59997558594</ele>
        <time>2014-04-13T09:37:53.000Z</time>
      </trkpt>
      <trkpt lat="45.9139" lon="6.19023">
        <ele>751</ele>
        <time>2014-04-13T09:37:58.000Z</time>
      </trkpt>
      <trkpt lat="45.914" lon="6.19007">
        <ele>749.59997558594</ele>
        <time>2014-04-13T09:38:03.000Z</time>
      </trkpt>
      <trkpt lat="45.91411" lon="6.18989">
        <ele>747.20001220703</ele>
        <time>2014-04-13T09:38:08.000Z</time>
      </trkpt>
      <trkpt lat="45.91419" lon="6.18969">
        <ele>745.40002441406</ele>
        <time>2014-04-13T09:38:13.000Z</time>
      </trkpt>
      <trkpt lat="45.91423" lon="6.18947">
        <ele>744.79998779297</ele>
        <time>2014-04-13T09:38:18.000Z</time>
      </trkpt>
      <trkpt lat="45.91424" lon="6.18924">
        <ele>745.20001220703</ele>
        <time>2014-04-13T09:38:24.000Z</time>
      </trkpt>
      <trkpt lat="45.91424" lon="6.18909">
        <ele>745.59997558594</ele>
        <time>2014-04-13T09:38:28.000Z</time>
      </trkpt>
      <trkpt lat="45.91425" lon="6.18905">
        <ele>745.59997558594</ele>
        <time>2014-04-13T09:38:29.000Z</time>
      </trkpt>
      <trkpt lat="45.91424" lon="6.18887">
        <ele>746.20001220703</ele>
        <time>2014-04-13T09:38:33.000Z</time>
      </trkpt>
      <trkpt lat="45.91425" lon="6.18867">
        <ele>746.40002441406</ele>
        <time>2014-04-13T09:38:38.000Z</time>
      </trkpt>
      <trkpt lat="45.91431" lon="6.18847">
        <ele>744.40002441406</ele>
        <time>2014-04-13T09:38:43.000Z</time>
      </trkpt>
      <trkpt lat="45.91443" lon="6.18823">
        <ele>740.20001220703</ele>
        <time>2014-04-13T09:38:49.000Z</time>
      </trkpt>
      <trkpt lat="45.91455" lon="6.18803">
        <ele>735.20001220703</ele>
        <time>2014-04-13T09:38:55.000Z</time>
      </trkpt>
      <trkpt lat="45.91456" lon="6.18797">
        <ele>735</ele>
        <time>2014-04-13T09:38:56.000Z</time>
      </trkpt>
      <trkpt lat="45.9146" lon="6.18774">
        <ele>733.59997558594</ele>
        <time>2014-04-13T09:39:01.000Z</time>
      </trkpt>
      <trkpt lat="45.91461" lon="6.18756">
        <ele>733.20001220703</ele>
        <time>2014-04-13T09:39:07.000Z</time>
      </trkpt>
      <trkpt lat="45.91462" lon="6.18735">
        <ele>732.79998779297</ele>
        <time>2014-04-13T09:39:13.000Z</time>
      </trkpt>
      <trkpt lat="45.91467" lon="6.18713">
        <ele>731</ele>
        <time>2014-04-13T09:39:19.000Z</time>
      </trkpt>
      <trkpt lat="45.9147" lon="6.18694">
        <ele>729.79998779297</ele>
        <time>2014-04-13T09:39:24.000Z</time>
      </trkpt>
      <trkpt lat="45.91471" lon="6.18671">
        <ele>729.20001220703</ele>
        <time>2014-04-13T09:39:30.000Z</time>
      </trkpt>
      <trkpt lat="45.91473" lon="6.18643">
        <ele>728.20001220703</ele>
        <time>2014-04-13T09:39:36.000Z</time>
      </trkpt>
      <trkpt lat="45.91474" lon="6.18628">
        <ele>727.40002441406</ele>
        <time>2014-04-13T09:39:40.000Z</time>
      </trkpt>
      <trkpt lat="45.91475" lon="6.18612">
        <ele>727</ele>
        <time>2014-04-13T09:39:44.000Z</time>
      </trkpt>
      <trkpt lat="45.91476" lon="6.18609">
        <ele>726.40002441406</ele>
        <time>2014-04-13T09:39:45.000Z</time>
      </trkpt>
      <trkpt lat="45.91483" lon="6.18584">
        <ele>723.40002441406</ele>
        <time>2014-04-13T09:39:50.000Z</time>
      </trkpt>
      <trkpt lat="45.91488" lon="6.18563">
        <ele>721.79998779297</ele>
        <time>2014-04-13T09:39:55.000Z</time>
      </trkpt>
      <trkpt lat="45.91489" lon="6.18548">
        <ele>721.79998779297</ele>
        <time>2014-04-13T09:39:59.000Z</time>
      </trkpt>
      <trkpt lat="45.91489" lon="6.18543">
        <ele>722.20001220703</ele>
        <time>2014-04-13T09:40:00.000Z</time>
      </trkpt>
      <trkpt lat="45.91489" lon="6.18531">
        <ele>722.59997558594</ele>
        <time>2014-04-13T09:40:03.000Z</time>
      </trkpt>
      <trkpt lat="45.91489" lon="6.18523">
        <ele>722.59997558594</ele>
        <time>2014-04-13T09:40:05.000Z</time>
      </trkpt>
      <trkpt lat="45.91491" lon="6.18507">
        <ele>722.40002441406</ele>
        <time>2014-04-13T09:40:09.000Z</time>
      </trkpt>
      <trkpt lat="45.91492" lon="6.18484">
        <ele>723</ele>
        <time>2014-04-13T09:40:14.000Z</time>
      </trkpt>
      <trkpt lat="45.91494" lon="6.18479">
        <ele>722.59997558594</ele>
        <time>2014-04-13T09:40:16.000Z</time>
      </trkpt>
      <trkpt lat="45.91495" lon="6.18473">
        <ele>722.40002441406</ele>
        <time>2014-04-13T09:40:18.000Z</time>
      </trkpt>
      <trkpt lat="45.91499" lon="6.18464">
        <ele>721.59997558594</ele>
        <time>2014-04-13T09:40:22.000Z</time>
      </trkpt>
      <trkpt lat="45.91498" lon="6.18461">
        <ele>721.79998779297</ele>
        <time>2014-04-13T09:40:23.000Z</time>
      </trkpt>
      <trkpt lat="45.91508" lon="6.18447">
        <ele>720.20001220703</ele>
        <time>2014-04-13T09:40:28.000Z</time>
      </trkpt>
      <trkpt lat="45.91511" lon="6.18445">
        <ele>720</ele>
        <time>2014-04-13T09:40:29.000Z</time>
      </trkpt>
      <trkpt lat="45.91513" lon="6.18434">
        <ele>719.79998779297</ele>
        <time>2014-04-13T09:40:33.000Z</time>
      </trkpt>
      <trkpt lat="45.91508" lon="6.1843">
        <ele>721</ele>
        <time>2014-04-13T09:40:37.000Z</time>
      </trkpt>
      <trkpt lat="45.91508" lon="6.1843">
        <ele>721</ele>
        <time>2014-04-13T09:40:38.000Z</time>
      </trkpt>
      <trkpt lat="45.91502" lon="6.18427">
        <ele>722.20001220703</ele>
        <time>2014-04-13T09:40:41.000Z</time>
      </trkpt>
      <trkpt lat="45.915" lon="6.18427">
        <ele>722.59997558594</ele>
        <time>2014-04-13T09:40:42.000Z</time>
      </trkpt>
      <trkpt lat="45.91493" lon="6.18429">
        <ele>724.79998779297</ele>
        <time>2014-04-13T09:40:46.000Z</time>
      </trkpt>
      <trkpt lat="45.91485" lon="6.18428">
        <ele>727.40002441406</ele>
        <time>2014-04-13T09:40:51.000Z</time>
      </trkpt>
      <trkpt lat="45.91477" lon="6.18428">
        <ele>729.79998779297</ele>
        <time>2014-04-13T09:40:57.000Z</time>
      </trkpt>
      <trkpt lat="45.91473" lon="6.18421">
        <ele>731.59997558594</ele>
        <time>2014-04-13T09:41:03.000Z</time>
      </trkpt>
      <trkpt lat="45.91462" lon="6.18423">
        <ele>735</ele>
        <time>2014-04-13T09:41:12.000Z</time>
      </trkpt>
      <trkpt lat="45.91455" lon="6.18425">
        <ele>737.20001220703</ele>
        <time>2014-04-13T09:41:15.000Z</time>
      </trkpt>
      <trkpt lat="45.91452" lon="6.18425">
        <ele>738</ele>
        <time>2014-04-13T09:41:16.000Z</time>
      </trkpt>
      <trkpt lat="45.91449" lon="6.18421">
        <ele>739.20001220703</ele>
        <time>2014-04-13T09:41:21.000Z</time>
      </trkpt>
      <trkpt lat="45.91452" lon="6.18415">
        <ele>738.79998779297</ele>
        <time>2014-04-13T09:41:24.000Z</time>
      </trkpt>
      <trkpt lat="45.9145" lon="6.18411">
        <ele>739.40002441406</ele>
        <time>2014-04-13T09:41:26.000Z</time>
      </trkpt>
      <trkpt lat="45.91448" lon="6.18407">
        <ele>740.40002441406</ele>
        <time>2014-04-13T09:41:30.000Z</time>
      </trkpt>
      <trkpt lat="45.91448" lon="6.18406">
        <ele>740.59997558594</ele>
        <time>2014-04-13T09:41:31.000Z</time>
      </trkpt>
      <trkpt lat="45.91447" lon="6.18396">
        <ele>741.59997558594</ele>
        <time>2014-04-13T09:41:36.000Z</time>
      </trkpt>
      <trkpt lat="45.91448" lon="6.18394">
        <ele>741.40002441406</ele>
        <time>2014-04-13T09:41:37.000Z</time>
      </trkpt>
      <trkpt lat="45.91451" lon="6.18386">
        <ele>741</ele>
        <time>2014-04-13T09:41:41.000Z</time>
      </trkpt>
      <trkpt lat="45.91451" lon="6.18375">
        <ele>741.59997558594</ele>
        <time>2014-04-13T09:41:43.000Z</time>
      </trkpt>
      <trkpt lat="45.91451" lon="6.18369">
        <ele>742</ele>
        <time>2014-04-13T09:41:45.000Z</time>
      </trkpt>
      <trkpt lat="45.91448" lon="6.18357">
        <ele>743.59997558594</ele>
        <time>2014-04-13T09:41:50.000Z</time>
      </trkpt>
      <trkpt lat="45.91445" lon="6.18342">
        <ele>745.79998779297</ele>
        <time>2014-04-13T09:41:57.000Z</time>
      </trkpt>
      <trkpt lat="45.91444" lon="6.18337">
        <ele>746.20001220703</ele>
        <time>2014-04-13T09:41:59.000Z</time>
      </trkpt>
      <trkpt lat="45.91443" lon="6.18332">
        <ele>746.79998779297</ele>
        <time>2014-04-13T09:42:01.000Z</time>
      </trkpt>
      <trkpt lat="45.91444" lon="6.18314">
        <ele>747.20001220703</ele>
        <time>2014-04-13T09:42:09.000Z</time>
      </trkpt>
      <trkpt lat="45.91445" lon="6.18314">
        <ele>747</ele>
        <time>2014-04-13T09:42:10.000Z</time>
      </trkpt>
      <trkpt lat="45.91445" lon="6.18313">
        <ele>746.79998779297</ele>
        <time>2014-04-13T09:42:13.000Z</time>
      </trkpt>
      <trkpt lat="45.91445" lon="6.1831">
        <ele>747</ele>
        <time>2014-04-13T09:42:19.000Z</time>
      </trkpt>
      <trkpt lat="45.91453" lon="6.18304">
        <ele>745</ele>
        <time>2014-04-13T09:42:25.000Z</time>
      </trkpt>
      <trkpt lat="45.91453" lon="6.18298">
        <ele>745</ele>
        <time>2014-04-13T09:42:28.000Z</time>
      </trkpt>
      <trkpt lat="45.91453" lon="6.18296">
        <ele>745</ele>
        <time>2014-04-13T09:42:29.000Z</time>
      </trkpt>
      <trkpt lat="45.91454" lon="6.18294">
        <ele>745</ele>
        <time>2014-04-13T09:42:30.000Z</time>
      </trkpt>
      <trkpt lat="45.91455" lon="6.1829">
        <ele>744.79998779297</ele>
        <time>2014-04-13T09:42:33.000Z</time>
      </trkpt>
      <trkpt lat="45.91452" lon="6.18287">
        <ele>745.79998779297</ele>
        <time>2014-04-13T09:42:36.000Z</time>
      </trkpt>
      <trkpt lat="45.9145" lon="6.18283">
        <ele>746.59997558594</ele>
        <time>2014-04-13T09:42:40.000Z</time>
      </trkpt>
      <trkpt lat="45.91451" lon="6.18282">
        <ele>746.40002441406</ele>
        <time>2014-04-13T09:42:41.000Z</time>
      </trkpt>
      <trkpt lat="45.91449" lon="6.18273">
        <ele>747.40002441406</ele>
        <time>2014-04-13T09:42:45.000Z</time>
      </trkpt>
      <trkpt lat="45.91446" lon="6.1827">
        <ele>748.40002441406</ele>
        <time>2014-04-13T09:42:48.000Z</time>
      </trkpt>
      <trkpt lat="45.91446" lon="6.1827">
        <ele>748.59997558594</ele>
        <time>2014-04-13T09:42:52.000Z</time>
      </trkpt>
      <trkpt lat="45.9144" lon="6.18259">
        <ele>751.40002441406</ele>
        <time>2014-04-13T09:43:03.000Z</time>
      </trkpt>
      <trkpt lat="45.91434" lon="6.18256">
        <ele>753.59997558594</ele>
        <time>2014-04-13T09:43:08.000Z</time>
      </trkpt>
      <trkpt lat="45.91432" lon="6.18255">
        <ele>754.40002441406</ele>
        <time>2014-04-13T09:43:10.000Z</time>
      </trkpt>
      <trkpt lat="45.91431" lon="6.1825">
        <ele>755</ele>
        <time>2014-04-13T09:43:14.000Z</time>
      </trkpt>
      <trkpt lat="45.91428" lon="6.18242">
        <ele>756.40002441406</ele>
        <time>2014-04-13T09:43:22.000Z</time>
      </trkpt>
      <trkpt lat="45.91428" lon="6.18239">
        <ele>756.79998779297</ele>
        <time>2014-04-13T09:43:23.000Z</time>
      </trkpt>
      <trkpt lat="45.91426" lon="6.18234">
        <ele>757.79998779297</ele>
        <time>2014-04-13T09:43:27.000Z</time>
      </trkpt>
      <trkpt lat="45.91426" lon="6.18233">
        <ele>758</ele>
        <time>2014-04-13T09:43:28.000Z</time>
      </trkpt>
      <trkpt lat="45.91424" lon="6.18229">
        <ele>759</ele>
        <time>2014-04-13T09:43:31.000Z</time>
      </trkpt>
      <trkpt lat="45.91421" lon="6.18228">
        <ele>760.20001220703</ele>
        <time>2014-04-13T09:43:35.000Z</time>
      </trkpt>
      <trkpt lat="45.91417" lon="6.18221">
        <ele>762</ele>
        <time>2014-04-13T09:43:40.000Z</time>
      </trkpt>
      <trkpt lat="45.91418" lon="6.18211">
        <ele>762.40002441406</ele>
        <time>2014-04-13T09:43:45.000Z</time>
      </trkpt>
      <trkpt lat="45.91417" lon="6.18204">
        <ele>763</ele>
        <time>2014-04-13T09:43:49.000Z</time>
      </trkpt>
      <trkpt lat="45.91416" lon="6.18199">
        <ele>763.79998779297</ele>
        <time>2014-04-13T09:43:51.000Z</time>
      </trkpt>
      <trkpt lat="45.91413" lon="6.18185">
        <ele>765.79998779297</ele>
        <time>2014-04-13T09:43:56.000Z</time>
      </trkpt>
      <trkpt lat="45.91413" lon="6.18181">
        <ele>766.20001220703</ele>
        <time>2014-04-13T09:43:57.000Z</time>
      </trkpt>
      <trkpt lat="45.91411" lon="6.18167">
        <ele>767.59997558594</ele>
        <time>2014-04-13T09:44:04.000Z</time>
      </trkpt>
      <trkpt lat="45.91402" lon="6.18157">
        <ele>771.40002441406</ele>
        <time>2014-04-13T09:44:11.000Z</time>
      </trkpt>
      <trkpt lat="45.914" lon="6.18154">
        <ele>772.40002441406</ele>
        <time>2014-04-13T09:44:13.000Z</time>
      </trkpt>
      <trkpt lat="45.91398" lon="6.18149">
        <ele>773.79998779297</ele>
        <time>2014-04-13T09:44:17.000Z</time>
      </trkpt>
      <trkpt lat="45.91395" lon="6.18145">
        <ele>775</ele>
        <time>2014-04-13T09:44:20.000Z</time>
      </trkpt>
      <trkpt lat="45.91393" lon="6.18134">
        <ele>776.59997558594</ele>
        <time>2014-04-13T09:44:23.000Z</time>
      </trkpt>
      <trkpt lat="45.91386" lon="6.18119">
        <ele>779.79998779297</ele>
        <time>2014-04-13T09:44:30.000Z</time>
      </trkpt>
      <trkpt lat="45.91382" lon="6.18115">
        <ele>781.20001220703</ele>
        <time>2014-04-13T09:44:33.000Z</time>
      </trkpt>
      <trkpt lat="45.91379" lon="6.18114">
        <ele>781.79998779297</ele>
        <time>2014-04-13T09:44:35.000Z</time>
      </trkpt>
      <trkpt lat="45.91373" lon="6.18111">
        <ele>783</ele>
        <time>2014-04-13T09:44:38.000Z</time>
      </trkpt>
      <trkpt lat="45.91367" lon="6.1811">
        <ele>784.20001220703</ele>
        <time>2014-04-13T09:44:42.000Z</time>
      </trkpt>
      <trkpt lat="45.9136" lon="6.18106">
        <ele>785.59997558594</ele>
        <time>2014-04-13T09:44:47.000Z</time>
      </trkpt>
      <trkpt lat="45.91354" lon="6.18104">
        <ele>786.59997558594</ele>
        <time>2014-04-13T09:44:51.000Z</time>
      </trkpt>
      <trkpt lat="45.91354" lon="6.18102">
        <ele>786.59997558594</ele>
        <time>2014-04-13T09:44:52.000Z</time>
      </trkpt>
      <trkpt lat="45.9136" lon="6.18092">
        <ele>786.40002441406</ele>
        <time>2014-04-13T09:44:58.000Z</time>
      </trkpt>
      <trkpt lat="45.91367" lon="6.18086">
        <ele>785.79998779297</ele>
        <time>2014-04-13T09:45:02.000Z</time>
      </trkpt>
      <trkpt lat="45.91368" lon="6.18084">
        <ele>785.79998779297</ele>
        <time>2014-04-13T09:45:03.000Z</time>
      </trkpt>
      <trkpt lat="45.91372" lon="6.1808">
        <ele>785.79998779297</ele>
        <time>2014-04-13T09:45:05.000Z</time>
      </trkpt>
      <trkpt lat="45.91377" lon="6.18074">
        <ele>786</ele>
        <time>2014-04-13T09:45:09.000Z</time>
      </trkpt>
      <trkpt lat="45.91378" lon="6.18072">
        <ele>786.20001220703</ele>
        <time>2014-04-13T09:45:10.000Z</time>
      </trkpt>
      <trkpt lat="45.91375" lon="6.18066">
        <ele>787.20001220703</ele>
        <time>2014-04-13T09:45:12.000Z</time>
      </trkpt>
      <trkpt lat="45.91378" lon="6.18063">
        <ele>787.40002441406</ele>
        <time>2014-04-13T09:45:14.000Z</time>
      </trkpt>
      <trkpt lat="45.91382" lon="6.1806">
        <ele>787.40002441406</ele>
        <time>2014-04-13T09:45:16.000Z</time>
      </trkpt>
      <trkpt lat="45.91385" lon="6.18056">
        <ele>787.40002441406</ele>
        <time>2014-04-13T09:45:19.000Z</time>
      </trkpt>
      <trkpt lat="45.91386" lon="6.18055">
        <ele>787.59997558594</ele>
        <time>2014-04-13T09:45:20.000Z</time>
      </trkpt>
      <trkpt lat="45.91393" lon="6.18043">
        <ele>788.40002441406</ele>
        <time>2014-04-13T09:45:26.000Z</time>
      </trkpt>
      <trkpt lat="45.91397" lon="6.18034">
        <ele>789.20001220703</ele>
        <time>2014-04-13T09:45:30.000Z</time>
      </trkpt>
      <trkpt lat="45.91399" lon="6.18032">
        <ele>789.40002441406</ele>
        <time>2014-04-13T09:45:31.000Z</time>
      </trkpt>
      <trkpt lat="45.914" lon="6.18024">
        <ele>790.20001220703</ele>
        <time>2014-04-13T09:45:34.000Z</time>
      </trkpt>
      <trkpt lat="45.91402" lon="6.18023">
        <ele>790.20001220703</ele>
        <time>2014-04-13T09:45:36.000Z</time>
      </trkpt>
      <trkpt lat="45.91407" lon="6.18021">
        <ele>790</ele>
        <time>2014-04-13T09:45:40.000Z</time>
      </trkpt>
      <trkpt lat="45.91409" lon="6.18021">
        <ele>789.79998779297</ele>
        <time>2014-04-13T09:45:41.000Z</time>
      </trkpt>
      <trkpt lat="45.91413" lon="6.1802">
        <ele>789.40002441406</ele>
        <time>2014-04-13T09:45:44.000Z</time>
      </trkpt>
      <trkpt lat="45.91417" lon="6.18018">
        <ele>789.20001220703</ele>
        <time>2014-04-13T09:45:46.000Z</time>
      </trkpt>
      <trkpt lat="45.91425" lon="6.18015">
        <ele>787.79998779297</ele>
        <time>2014-04-13T09:45:52.000Z</time>
      </trkpt>
      <trkpt lat="45.91432" lon="6.18012">
        <ele>786.79998779297</ele>
        <time>2014-04-13T09:45:57.000Z</time>
      </trkpt>
      <trkpt lat="45.91433" lon="6.18011">
        <ele>786.79998779297</ele>
        <time>2014-04-13T09:45:58.000Z</time>
      </trkpt>
      <trkpt lat="45.91439" lon="6.18006">
        <ele>786.20001220703</ele>
        <time>2014-04-13T09:46:02.000Z</time>
      </trkpt>
      <trkpt lat="45.9144" lon="6.18006">
        <ele>786.20001220703</ele>
        <time>2014-04-13T09:46:03.000Z</time>
      </trkpt>
      <trkpt lat="45.91446" lon="6.17999">
        <ele>786</ele>
        <time>2014-04-13T09:46:07.000Z</time>
      </trkpt>
      <trkpt lat="45.91451" lon="6.17988">
        <ele>786.59997558594</ele>
        <time>2014-04-13T09:46:13.000Z</time>
      </trkpt>
      <trkpt lat="45.91444" lon="6.17986">
        <ele>788.40002441406</ele>
        <time>2014-04-13T09:46:17.000Z</time>
      </trkpt>
      <trkpt lat="45.91443" lon="6.17985">
        <ele>789</ele>
        <time>2014-04-13T09:46:18.000Z</time>
      </trkpt>
      <trkpt lat="45.91436" lon="6.17988">
        <ele>790</ele>
        <time>2014-04-13T09:46:22.000Z</time>
      </trkpt>
      <trkpt lat="45.91431" lon="6.17987">
        <ele>791.40002441406</ele>
        <time>2014-04-13T09:46:26.000Z</time>
      </trkpt>
      <trkpt lat="45.91433" lon="6.17985">
        <ele>791.40002441406</ele>
        <time>2014-04-13T09:46:28.000Z</time>
      </trkpt>
      <trkpt lat="45.91435" lon="6.17984">
        <ele>791.20001220703</ele>
        <time>2014-04-13T09:46:30.000Z</time>
      </trkpt>
      <trkpt lat="45.91439" lon="6.1798">
        <ele>790.79998779297</ele>
        <time>2014-04-13T09:46:34.000Z</time>
      </trkpt>
      <trkpt lat="45.91444" lon="6.17971">
        <ele>791.20001220703</ele>
        <time>2014-04-13T09:46:39.000Z</time>
      </trkpt>
      <trkpt lat="45.91454" lon="6.17958">
        <ele>790.79998779297</ele>
        <time>2014-04-13T09:46:46.000Z</time>
      </trkpt>
      <trkpt lat="45.9146" lon="6.17945">
        <ele>791.20001220703</ele>
        <time>2014-04-13T09:46:53.000Z</time>
      </trkpt>
      <trkpt lat="45.9146" lon="6.17942">
        <ele>791.79998779297</ele>
        <time>2014-04-13T09:46:56.000Z</time>
      </trkpt>
      <trkpt lat="45.91459" lon="6.17935">
        <ele>793</ele>
        <time>2014-04-13T09:46:59.000Z</time>
      </trkpt>
      <trkpt lat="45.91457" lon="6.1792">
        <ele>796</ele>
        <time>2014-04-13T09:47:05.000Z</time>
      </trkpt>
      <trkpt lat="45.91453" lon="6.17917">
        <ele>797.40002441406</ele>
        <time>2014-04-13T09:47:07.000Z</time>
      </trkpt>
      <trkpt lat="45.9145" lon="6.17917">
        <ele>798.59997558594</ele>
        <time>2014-04-13T09:47:09.000Z</time>
      </trkpt>
      <trkpt lat="45.91448" lon="6.17907">
        <ele>800.59997558594</ele>
        <time>2014-04-13T09:47:15.000Z</time>
      </trkpt>
      <trkpt lat="45.91445" lon="6.17904">
        <ele>802</ele>
        <time>2014-04-13T09:47:18.000Z</time>
      </trkpt>
      <trkpt lat="45.91443" lon="6.17906">
        <ele>802.40002441406</ele>
        <time>2014-04-13T09:47:19.000Z</time>
      </trkpt>
      <trkpt lat="45.91442" lon="6.17907">
        <ele>802.40002441406</ele>
        <time>2014-04-13T09:47:20.000Z</time>
      </trkpt>
      <trkpt lat="45.91442" lon="6.17903">
        <ele>803</ele>
        <time>2014-04-13T09:47:24.000Z</time>
      </trkpt>
      <trkpt lat="45.91442" lon="6.17901">
        <ele>803.20001220703</ele>
        <time>2014-04-13T09:47:25.000Z</time>
      </trkpt>
      <trkpt lat="45.91442" lon="6.17897">
        <ele>803.79998779297</ele>
        <time>2014-04-13T09:47:28.000Z</time>
      </trkpt>
      <trkpt lat="45.9144" lon="6.17894">
        <ele>805</ele>
        <time>2014-04-13T09:47:30.000Z</time>
      </trkpt>
      <trkpt lat="45.91436" lon="6.17894">
        <ele>806.40002441406</ele>
        <time>2014-04-13T09:47:33.000Z</time>
      </trkpt>
      <trkpt lat="45.91435" lon="6.17894">
        <ele>806.79998779297</ele>
        <time>2014-04-13T09:47:34.000Z</time>
      </trkpt>
      <trkpt lat="45.91429" lon="6.17896">
        <ele>808.79998779297</ele>
        <time>2014-04-13T09:47:39.000Z</time>
      </trkpt>
      <trkpt lat="45.91428" lon="6.17896">
        <ele>809.20001220703</ele>
        <time>2014-04-13T09:47:40.000Z</time>
      </trkpt>
      <trkpt lat="45.91427" lon="6.17899">
        <ele>809</ele>
        <time>2014-04-13T09:47:41.000Z</time>
      </trkpt>
      <trkpt lat="45.91425" lon="6.17903">
        <ele>809.20001220703</ele>
        <time>2014-04-13T09:47:43.000Z</time>
      </trkpt>
      <trkpt lat="45.91419" lon="6.17914">
        <ele>809.59997558594</ele>
        <time>2014-04-13T09:47:48.000Z</time>
      </trkpt>
      <trkpt lat="45.91415" lon="6.1792">
        <ele>809.40002441406</ele>
        <time>2014-04-13T09:47:52.000Z</time>
      </trkpt>
      <trkpt lat="45.91413" lon="6.17922">
        <ele>809.20001220703</ele>
        <time>2014-04-13T09:47:53.000Z</time>
      </trkpt>
      <trkpt lat="45.91412" lon="6.17924">
        <ele>809.20001220703</ele>
        <time>2014-04-13T09:47:54.000Z</time>
      </trkpt>
      <trkpt lat="45.91411" lon="6.17926">
        <ele>808.79998779297</ele>
        <time>2014-04-13T09:47:58.000Z</time>
      </trkpt>
      <trkpt lat="45.91409" lon="6.17927">
        <ele>808.79998779297</ele>
        <time>2014-04-13T09:47:59.000Z</time>
      </trkpt>
      <trkpt lat="45.91398" lon="6.17929">
        <ele>810.20001220703</ele>
        <time>2014-04-13T09:48:05.000Z</time>
      </trkpt>
      <trkpt lat="45.91396" lon="6.1793">
        <ele>810</ele>
        <time>2014-04-13T09:48:07.000Z</time>
      </trkpt>
      <trkpt lat="45.91394" lon="6.17932">
        <ele>810</ele>
        <time>2014-04-13T09:48:09.000Z</time>
      </trkpt>
      <trkpt lat="45.91393" lon="6.17932">
        <ele>810.20001220703</ele>
        <time>2014-04-13T09:48:10.000Z</time>
      </trkpt>
      <trkpt lat="45.91383" lon="6.17932">
        <ele>811.59997558594</ele>
        <time>2014-04-13T09:48:17.000Z</time>
      </trkpt>
      <trkpt lat="45.91379" lon="6.17936">
        <ele>811</ele>
        <time>2014-04-13T09:48:22.000Z</time>
      </trkpt>
      <trkpt lat="45.91375" lon="6.17934">
        <ele>812.20001220703</ele>
        <time>2014-04-13T09:48:24.000Z</time>
      </trkpt>
      <trkpt lat="45.91373" lon="6.17933">
        <ele>812.79998779297</ele>
        <time>2014-04-13T09:48:25.000Z</time>
      </trkpt>
      <trkpt lat="45.91371" lon="6.17932">
        <ele>813.20001220703</ele>
        <time>2014-04-13T09:48:26.000Z</time>
      </trkpt>
      <trkpt lat="45.91362" lon="6.17927">
        <ele>816</ele>
        <time>2014-04-13T09:48:31.000Z</time>
      </trkpt>
      <trkpt lat="45.91353" lon="6.17927">
        <ele>817.20001220703</ele>
        <time>2014-04-13T09:48:34.000Z</time>
      </trkpt>
      <trkpt lat="45.91349" lon="6.17924">
        <ele>818.59997558594</ele>
        <time>2014-04-13T09:48:37.000Z</time>
      </trkpt>
      <trkpt lat="45.91341" lon="6.17918">
        <ele>821.40002441406</ele>
        <time>2014-04-13T09:48:43.000Z</time>
      </trkpt>
      <trkpt lat="45.91336" lon="6.17914">
        <ele>823.40002441406</ele>
        <time>2014-04-13T09:48:49.000Z</time>
      </trkpt>
      <trkpt lat="45.91329" lon="6.17912">
        <ele>824.40002441406</ele>
        <time>2014-04-13T09:48:54.000Z</time>
      </trkpt>
      <trkpt lat="45.91318" lon="6.1791">
        <ele>825</ele>
        <time>2014-04-13T09:49:00.000Z</time>
      </trkpt>
      <trkpt lat="45.91312" lon="6.17909">
        <ele>825.40002441406</ele>
        <time>2014-04-13T09:49:04.000Z</time>
      </trkpt>
      <trkpt lat="45.9131" lon="6.17908">
        <ele>825.59997558594</ele>
        <time>2014-04-13T09:49:05.000Z</time>
      </trkpt>
      <trkpt lat="45.91303" lon="6.17908">
        <ele>825.79998779297</ele>
        <time>2014-04-13T09:49:09.000Z</time>
      </trkpt>
      <trkpt lat="45.91301" lon="6.17908">
        <ele>825.79998779297</ele>
        <time>2014-04-13T09:49:10.000Z</time>
      </trkpt>
      <trkpt lat="45.91296" lon="6.17903">
        <ele>827.20001220703</ele>
        <time>2014-04-13T09:49:14.000Z</time>
      </trkpt>
      <trkpt lat="45.91292" lon="6.17901">
        <ele>827.79998779297</ele>
        <time>2014-04-13T09:49:17.000Z</time>
      </trkpt>
      <trkpt lat="45.91289" lon="6.17899">
        <ele>828.40002441406</ele>
        <time>2014-04-13T09:49:19.000Z</time>
      </trkpt>
      <trkpt lat="45.91278" lon="6.1789">
        <ele>831</ele>
        <time>2014-04-13T09:49:25.000Z</time>
      </trkpt>
      <trkpt lat="45.91274" lon="6.17883">
        <ele>833</ele>
        <time>2014-04-13T09:49:29.000Z</time>
      </trkpt>
      <trkpt lat="45.91272" lon="6.17881">
        <ele>833.40002441406</ele>
        <time>2014-04-13T09:49:30.000Z</time>
      </trkpt>
      <trkpt lat="45.91267" lon="6.17878">
        <ele>834.20001220703</ele>
        <time>2014-04-13T09:49:33.000Z</time>
      </trkpt>
      <trkpt lat="45.91267" lon="6.17876">
        <ele>834.59997558594</ele>
        <time>2014-04-13T09:49:34.000Z</time>
      </trkpt>
      <trkpt lat="45.91259" lon="6.17868">
        <ele>837</ele>
        <time>2014-04-13T09:49:40.000Z</time>
      </trkpt>
      <trkpt lat="45.91258" lon="6.17865">
        <ele>837.59997558594</ele>
        <time>2014-04-13T09:49:41.000Z</time>
      </trkpt>
      <trkpt lat="45.91249" lon="6.17851">
        <ele>841.40002441406</ele>
        <time>2014-04-13T09:49:46.000Z</time>
      </trkpt>
      <trkpt lat="45.91246" lon="6.17845">
        <ele>843</ele>
        <time>2014-04-13T09:49:48.000Z</time>
      </trkpt>
      <trkpt lat="45.91242" lon="6.17842">
        <ele>843.79998779297</ele>
        <time>2014-04-13T09:49:50.000Z</time>
      </trkpt>
      <trkpt lat="45.91238" lon="6.17839">
        <ele>844.59997558594</ele>
        <time>2014-04-13T09:49:52.000Z</time>
      </trkpt>
      <trkpt lat="45.91235" lon="6.17836">
        <ele>845.40002441406</ele>
        <time>2014-04-13T09:49:54.000Z</time>
      </trkpt>
      <trkpt lat="45.91233" lon="6.17835">
        <ele>845.59997558594</ele>
        <time>2014-04-13T09:49:55.000Z</time>
      </trkpt>
      <trkpt lat="45.91226" lon="6.1783">
        <ele>846.79998779297</ele>
        <time>2014-04-13T09:49:58.000Z</time>
      </trkpt>
      <trkpt lat="45.91221" lon="6.17823">
        <ele>848.20001220703</ele>
        <time>2014-04-13T09:50:01.000Z</time>
      </trkpt>
      <trkpt lat="45.91213" lon="6.17813">
        <ele>850</ele>
        <time>2014-04-13T09:50:06.000Z</time>
      </trkpt>
      <trkpt lat="45.91204" lon="6.17806">
        <ele>850.79998779297</ele>
        <time>2014-04-13T09:50:11.000Z</time>
      </trkpt>
      <trkpt lat="45.91193" lon="6.17801">
        <ele>851.20001220703</ele>
        <time>2014-04-13T09:50:15.000Z</time>
      </trkpt>
      <trkpt lat="45.9119" lon="6.17801">
        <ele>851</ele>
        <time>2014-04-13T09:50:16.000Z</time>
      </trkpt>
      <trkpt lat="45.91182" lon="6.17796">
        <ele>851</ele>
        <time>2014-04-13T09:50:20.000Z</time>
      </trkpt>
      <trkpt lat="45.91176" lon="6.17796">
        <ele>850.59997558594</ele>
        <time>2014-04-13T09:50:24.000Z</time>
      </trkpt>
      <trkpt lat="45.91166" lon="6.17791">
        <ele>850.79998779297</ele>
        <time>2014-04-13T09:50:28.000Z</time>
      </trkpt>
      <trkpt lat="45.91165" lon="6.1779">
        <ele>851.20001220703</ele>
        <time>2014-04-13T09:50:29.000Z</time>
      </trkpt>
      <trkpt lat="45.9116" lon="6.17784">
        <ele>852.59997558594</ele>
        <time>2014-04-13T09:50:34.000Z</time>
      </trkpt>
      <trkpt lat="45.91158" lon="6.17775">
        <ele>854</ele>
        <time>2014-04-13T09:50:38.000Z</time>
      </trkpt>
      <trkpt lat="45.91153" lon="6.17774">
        <ele>855</ele>
        <time>2014-04-13T09:50:41.000Z</time>
      </trkpt>
      <trkpt lat="45.91153" lon="6.17772">
        <ele>855.20001220703</ele>
        <time>2014-04-13T09:50:42.000Z</time>
      </trkpt>
      <trkpt lat="45.91154" lon="6.17768">
        <ele>855.20001220703</ele>
        <time>2014-04-13T09:50:46.000Z</time>
      </trkpt>
      <trkpt lat="45.9115" lon="6.17761">
        <ele>856.59997558594</ele>
        <time>2014-04-13T09:50:50.000Z</time>
      </trkpt>
      <trkpt lat="45.91149" lon="6.17757">
        <ele>857</ele>
        <time>2014-04-13T09:50:52.000Z</time>
      </trkpt>
      <trkpt lat="45.91136" lon="6.17745">
        <ele>859.79998779297</ele>
        <time>2014-04-13T09:50:59.000Z</time>
      </trkpt>
      <trkpt lat="45.91132" lon="6.17743">
        <ele>860.40002441406</ele>
        <time>2014-04-13T09:51:01.000Z</time>
      </trkpt>
      <trkpt lat="45.91129" lon="6.17735">
        <ele>861</ele>
        <time>2014-04-13T09:51:04.000Z</time>
      </trkpt>
      <trkpt lat="45.91125" lon="6.17718">
        <ele>862</ele>
        <time>2014-04-13T09:51:10.000Z</time>
      </trkpt>
      <trkpt lat="45.91121" lon="6.17702">
        <ele>862.59997558594</ele>
        <time>2014-04-13T09:51:15.000Z</time>
      </trkpt>
      <trkpt lat="45.91114" lon="6.17684">
        <ele>863</ele>
        <time>2014-04-13T09:51:21.000Z</time>
      </trkpt>
      <trkpt lat="45.91114" lon="6.17682">
        <ele>863</ele>
        <time>2014-04-13T09:51:22.000Z</time>
      </trkpt>
      <trkpt lat="45.91113" lon="6.17676">
        <ele>863</ele>
        <time>2014-04-13T09:51:23.000Z</time>
      </trkpt>
      <trkpt lat="45.91108" lon="6.17668">
        <ele>862.79998779297</ele>
        <time>2014-04-13T09:51:26.000Z</time>
      </trkpt>
      <trkpt lat="45.91101" lon="6.17661">
        <ele>862.59997558594</ele>
        <time>2014-04-13T09:51:29.000Z</time>
      </trkpt>
      <trkpt lat="45.911" lon="6.17656">
        <ele>862.40002441406</ele>
        <time>2014-04-13T09:51:31.000Z</time>
      </trkpt>
      <trkpt lat="45.91094" lon="6.17645">
        <ele>862.20001220703</ele>
        <time>2014-04-13T09:51:35.000Z</time>
      </trkpt>
      <trkpt lat="45.9109" lon="6.17638">
        <ele>862</ele>
        <time>2014-04-13T09:51:37.000Z</time>
      </trkpt>
      <trkpt lat="45.91086" lon="6.17636">
        <ele>861.79998779297</ele>
        <time>2014-04-13T09:51:39.000Z</time>
      </trkpt>
      <trkpt lat="45.91082" lon="6.17632">
        <ele>862.20001220703</ele>
        <time>2014-04-13T09:51:42.000Z</time>
      </trkpt>
      <trkpt lat="45.91077" lon="6.17625">
        <ele>863.59997558594</ele>
        <time>2014-04-13T09:51:45.000Z</time>
      </trkpt>
      <trkpt lat="45.91073" lon="6.1762">
        <ele>864.79998779297</ele>
        <time>2014-04-13T09:51:47.000Z</time>
      </trkpt>
      <trkpt lat="45.91073" lon="6.17619">
        <ele>864.59997558594</ele>
        <time>2014-04-13T09:51:48.000Z</time>
      </trkpt>
      <trkpt lat="45.91075" lon="6.17611">
        <ele>864</ele>
        <time>2014-04-13T09:51:51.000Z</time>
      </trkpt>
      <trkpt lat="45.91072" lon="6.17606">
        <ele>864.59997558594</ele>
        <time>2014-04-13T09:51:56.000Z</time>
      </trkpt>
      <trkpt lat="45.91074" lon="6.17591">
        <ele>863.79998779297</ele>
        <time>2014-04-13T09:52:01.000Z</time>
      </trkpt>
      <trkpt lat="45.91076" lon="6.17584">
        <ele>863</ele>
        <time>2014-04-13T09:52:08.000Z</time>
      </trkpt>
      <trkpt lat="45.91071" lon="6.17579">
        <ele>864.40002441406</ele>
        <time>2014-04-13T09:52:11.000Z</time>
      </trkpt>
      <trkpt lat="45.91066" lon="6.17578">
        <ele>865.79998779297</ele>
        <time>2014-04-13T09:52:14.000Z</time>
      </trkpt>
      <trkpt lat="45.91062" lon="6.17585">
        <ele>866.79998779297</ele>
        <time>2014-04-13T09:52:17.000Z</time>
      </trkpt>
      <trkpt lat="45.91059" lon="6.17589">
        <ele>868</ele>
        <time>2014-04-13T09:52:20.000Z</time>
      </trkpt>
      <trkpt lat="45.91059" lon="6.17586">
        <ele>868</ele>
        <time>2014-04-13T09:52:21.000Z</time>
      </trkpt>
      <trkpt lat="45.91056" lon="6.17579">
        <ele>868.59997558594</ele>
        <time>2014-04-13T09:52:24.000Z</time>
      </trkpt>
      <trkpt lat="45.91045" lon="6.17571">
        <ele>871.79998779297</ele>
        <time>2014-04-13T09:52:29.000Z</time>
      </trkpt>
      <trkpt lat="45.91042" lon="6.1757">
        <ele>872.59997558594</ele>
        <time>2014-04-13T09:52:30.000Z</time>
      </trkpt>
      <trkpt lat="45.91034" lon="6.17565">
        <ele>874.79998779297</ele>
        <time>2014-04-13T09:52:37.000Z</time>
      </trkpt>
      <trkpt lat="45.91028" lon="6.17563">
        <ele>876.79998779297</ele>
        <time>2014-04-13T09:52:45.000Z</time>
      </trkpt>
      <trkpt lat="45.91028" lon="6.17559">
        <ele>876.79998779297</ele>
        <time>2014-04-13T09:52:49.000Z</time>
      </trkpt>
      <trkpt lat="45.91028" lon="6.17547">
        <ele>877.20001220703</ele>
        <time>2014-04-13T09:52:54.000Z</time>
      </trkpt>
      <trkpt lat="45.91029" lon="6.17544">
        <ele>876.79998779297</ele>
        <time>2014-04-13T09:52:57.000Z</time>
      </trkpt>
      <trkpt lat="45.9103" lon="6.1754">
        <ele>876.59997558594</ele>
        <time>2014-04-13T09:52:59.000Z</time>
      </trkpt>
      <trkpt lat="45.91031" lon="6.17538">
        <ele>876.40002441406</ele>
        <time>2014-04-13T09:53:01.000Z</time>
      </trkpt>
      <trkpt lat="45.91031" lon="6.17537">
        <ele>876.40002441406</ele>
        <time>2014-04-13T09:53:04.000Z</time>
      </trkpt>
      <trkpt lat="45.91031" lon="6.17536">
        <ele>876.40002441406</ele>
        <time>2014-04-13T09:53:09.000Z</time>
      </trkpt>
      <trkpt lat="45.91031" lon="6.17535">
        <ele>876.40002441406</ele>
        <time>2014-04-13T09:53:10.000Z</time>
      </trkpt>
      <trkpt lat="45.91031" lon="6.1753">
        <ele>876.79998779297</ele>
        <time>2014-04-13T09:53:15.000Z</time>
      </trkpt>
      <trkpt lat="45.9103" lon="6.17526">
        <ele>877</ele>
        <time>2014-04-13T09:53:19.000Z</time>
      </trkpt>
      <trkpt lat="45.9103" lon="6.17525">
        <ele>876.79998779297</ele>
        <time>2014-04-13T09:53:20.000Z</time>
      </trkpt>
      <trkpt lat="45.9103" lon="6.17524">
        <ele>877</ele>
        <time>2014-04-13T09:53:21.000Z</time>
      </trkpt>
      <trkpt lat="45.91029" lon="6.1752">
        <ele>877.40002441406</ele>
        <time>2014-04-13T09:53:24.000Z</time>
      </trkpt>
      <trkpt lat="45.9103" lon="6.17516">
        <ele>877.20001220703</ele>
        <time>2014-04-13T09:53:27.000Z</time>
      </trkpt>
      <trkpt lat="45.91032" lon="6.17514">
        <ele>876.40002441406</ele>
        <time>2014-04-13T09:53:28.000Z</time>
      </trkpt>
      <trkpt lat="45.91037" lon="6.17516">
        <ele>875</ele>
        <time>2014-04-13T09:53:32.000Z</time>
      </trkpt>
      <trkpt lat="45.91037" lon="6.17515">
        <ele>875</ele>
        <time>2014-04-13T09:53:33.000Z</time>
      </trkpt>
      <trkpt lat="45.91041" lon="6.17512">
        <ele>873.40002441406</ele>
        <time>2014-04-13T09:53:40.000Z</time>
      </trkpt>
      <trkpt lat="45.91046" lon="6.1751">
        <ele>872</ele>
        <time>2014-04-13T09:53:44.000Z</time>
      </trkpt>
      <trkpt lat="45.91047" lon="6.17508">
        <ele>871.79998779297</ele>
        <time>2014-04-13T09:53:45.000Z</time>
      </trkpt>
      <trkpt lat="45.91047" lon="6.17506">
        <ele>871.59997558594</ele>
        <time>2014-04-13T09:53:47.000Z</time>
      </trkpt>
      <trkpt lat="45.91049" lon="6.17506">
        <ele>871</ele>
        <time>2014-04-13T09:53:49.000Z</time>
      </trkpt>
      <trkpt lat="45.9105" lon="6.17503">
        <ele>870.79998779297</ele>
        <time>2014-04-13T09:53:51.000Z</time>
      </trkpt>
      <trkpt lat="45.91053" lon="6.17501">
        <ele>869.59997558594</ele>
        <time>2014-04-13T09:53:54.000Z</time>
      </trkpt>
      <trkpt lat="45.91053" lon="6.17498">
        <ele>869.79998779297</ele>
        <time>2014-04-13T09:53:59.000Z</time>
      </trkpt>
      <trkpt lat="45.91055" lon="6.17493">
        <ele>869.40002441406</ele>
        <time>2014-04-13T09:54:04.000Z</time>
      </trkpt>
      <trkpt lat="45.91056" lon="6.17485">
        <ele>869.59997558594</ele>
        <time>2014-04-13T09:54:10.000Z</time>
      </trkpt>
      <trkpt lat="45.91054" lon="6.17478">
        <ele>870.79998779297</ele>
        <time>2014-04-13T09:54:15.000Z</time>
      </trkpt>
      <trkpt lat="45.91054" lon="6.17477">
        <ele>871</ele>
        <time>2014-04-13T09:54:16.000Z</time>
      </trkpt>
      <trkpt lat="45.9105" lon="6.17473">
        <ele>872.40002441406</ele>
        <time>2014-04-13T09:54:20.000Z</time>
      </trkpt>
      <trkpt lat="45.9105" lon="6.17469">
        <ele>873</ele>
        <time>2014-04-13T09:54:23.000Z</time>
      </trkpt>
      <trkpt lat="45.91041" lon="6.17461">
        <ele>876.59997558594</ele>
        <time>2014-04-13T09:54:30.000Z</time>
      </trkpt>
      <trkpt lat="45.91033" lon="6.17459">
        <ele>879.79998779297</ele>
        <time>2014-04-13T09:54:33.000Z</time>
      </trkpt>
      <trkpt lat="45.9103" lon="6.17457">
        <ele>881.20001220703</ele>
        <time>2014-04-13T09:54:35.000Z</time>
      </trkpt>
      <trkpt lat="45.91026" lon="6.17455">
        <ele>882.59997558594</ele>
        <time>2014-04-13T09:54:37.000Z</time>
      </trkpt>
      <trkpt lat="45.91015" lon="6.1745">
        <ele>887.20001220703</ele>
        <time>2014-04-13T09:54:44.000Z</time>
      </trkpt>
      <trkpt lat="45.91001" lon="6.17447">
        <ele>892.79998779297</ele>
        <time>2014-04-13T09:54:51.000Z</time>
      </trkpt>
      <trkpt lat="45.90999" lon="6.17445">
        <ele>893.59997558594</ele>
        <time>2014-04-13T09:54:55.000Z</time>
      </trkpt>
      <trkpt lat="45.90997" lon="6.17444">
        <ele>894.20001220703</ele>
        <time>2014-04-13T09:54:57.000Z</time>
      </trkpt>
      <trkpt lat="45.90989" lon="6.17438">
        <ele>897.40002441406</ele>
        <time>2014-04-13T09:55:01.000Z</time>
      </trkpt>
      <trkpt lat="45.90988" lon="6.17436">
        <ele>897.79998779297</ele>
        <time>2014-04-13T09:55:02.000Z</time>
      </trkpt>
      <trkpt lat="45.90979" lon="6.17425">
        <ele>901.59997558594</ele>
        <time>2014-04-13T09:55:09.000Z</time>
      </trkpt>
      <trkpt lat="45.90976" lon="6.17413">
        <ele>903.20001220703</ele>
        <time>2014-04-13T09:55:16.000Z</time>
      </trkpt>
      <trkpt lat="45.90973" lon="6.17407">
        <ele>904.40002441406</ele>
        <time>2014-04-13T09:55:21.000Z</time>
      </trkpt>
      <trkpt lat="45.90971" lon="6.17402">
        <ele>905.40002441406</ele>
        <time>2014-04-13T09:55:23.000Z</time>
      </trkpt>
      <trkpt lat="45.90966" lon="6.17399">
        <ele>907</ele>
        <time>2014-04-13T09:55:25.000Z</time>
      </trkpt>
      <trkpt lat="45.9096" lon="6.17394">
        <ele>909</ele>
        <time>2014-04-13T09:55:31.000Z</time>
      </trkpt>
      <trkpt lat="45.90954" lon="6.17388">
        <ele>911</ele>
        <time>2014-04-13T09:55:35.000Z</time>
      </trkpt>
      <trkpt lat="45.90953" lon="6.17387">
        <ele>911.20001220703</ele>
        <time>2014-04-13T09:55:36.000Z</time>
      </trkpt>
      <trkpt lat="45.90953" lon="6.17375">
        <ele>912.20001220703</ele>
        <time>2014-04-13T09:55:42.000Z</time>
      </trkpt>
      <trkpt lat="45.9095" lon="6.17374">
        <ele>912.79998779297</ele>
        <time>2014-04-13T09:55:44.000Z</time>
      </trkpt>
      <trkpt lat="45.90945" lon="6.17368">
        <ele>914.20001220703</ele>
        <time>2014-04-13T09:55:48.000Z</time>
      </trkpt>
      <trkpt lat="45.90944" lon="6.17366">
        <ele>914.79998779297</ele>
        <time>2014-04-13T09:55:50.000Z</time>
      </trkpt>
      <trkpt lat="45.90939" lon="6.17361">
        <ele>916.20001220703</ele>
        <time>2014-04-13T09:55:54.000Z</time>
      </trkpt>
      <trkpt lat="45.90932" lon="6.17358">
        <ele>918</ele>
        <time>2014-04-13T09:56:00.000Z</time>
      </trkpt>
      <trkpt lat="45.90928" lon="6.17354">
        <ele>919</ele>
        <time>2014-04-13T09:56:03.000Z</time>
      </trkpt>
      <trkpt lat="45.90923" lon="6.17353">
        <ele>920.20001220703</ele>
        <time>2014-04-13T09:56:07.000Z</time>
      </trkpt>
      <trkpt lat="45.90919" lon="6.17351">
        <ele>921</ele>
        <time>2014-04-13T09:56:10.000Z</time>
      </trkpt>
      <trkpt lat="45.90918" lon="6.17349">
        <ele>921.40002441406</ele>
        <time>2014-04-13T09:56:12.000Z</time>
      </trkpt>
      <trkpt lat="45.90916" lon="6.17349">
        <ele>921.79998779297</ele>
        <time>2014-04-13T09:56:13.000Z</time>
      </trkpt>
      <trkpt lat="45.90912" lon="6.1735">
        <ele>922.59997558594</ele>
        <time>2014-04-13T09:56:16.000Z</time>
      </trkpt>
      <trkpt lat="45.90908" lon="6.17345">
        <ele>923.40002441406</ele>
        <time>2014-04-13T09:56:20.000Z</time>
      </trkpt>
      <trkpt lat="45.90905" lon="6.17341">
        <ele>923.79998779297</ele>
        <time>2014-04-13T09:56:22.000Z</time>
      </trkpt>
      <trkpt lat="45.90901" lon="6.17335">
        <ele>924.40002441406</ele>
        <time>2014-04-13T09:56:26.000Z</time>
      </trkpt>
      <trkpt lat="45.90887" lon="6.17322">
        <ele>927.40002441406</ele>
        <time>2014-04-13T09:56:34.000Z</time>
      </trkpt>
      <trkpt lat="45.90881" lon="6.17314">
        <ele>928.59997558594</ele>
        <time>2014-04-13T09:56:40.000Z</time>
      </trkpt>
      <trkpt lat="45.90881" lon="6.17308">
        <ele>929.20001220703</ele>
        <time>2014-04-13T09:56:44.000Z</time>
      </trkpt>
      <trkpt lat="45.90881" lon="6.17305">
        <ele>929.20001220703</ele>
        <time>2014-04-13T09:56:45.000Z</time>
      </trkpt>
      <trkpt lat="45.90883" lon="6.17296">
        <ele>929.59997558594</ele>
        <time>2014-04-13T09:56:51.000Z</time>
      </trkpt>
      <trkpt lat="45.90882" lon="6.17287">
        <ele>930.40002441406</ele>
        <time>2014-04-13T09:56:56.000Z</time>
      </trkpt>
      <trkpt lat="45.90881" lon="6.1728">
        <ele>930.79998779297</ele>
        <time>2014-04-13T09:57:00.000Z</time>
      </trkpt>
      <trkpt lat="45.90878" lon="6.17274">
        <ele>931.20001220703</ele>
        <time>2014-04-13T09:57:03.000Z</time>
      </trkpt>
      <trkpt lat="45.90878" lon="6.17268">
        <ele>931.59997558594</ele>
        <time>2014-04-13T09:57:06.000Z</time>
      </trkpt>
      <trkpt lat="45.90878" lon="6.17267">
        <ele>931.59997558594</ele>
        <time>2014-04-13T09:57:07.000Z</time>
      </trkpt>
      <trkpt lat="45.90875" lon="6.17261">
        <ele>932</ele>
        <time>2014-04-13T09:57:10.000Z</time>
      </trkpt>
      <trkpt lat="45.90872" lon="6.17255">
        <ele>932.20001220703</ele>
        <time>2014-04-13T09:57:14.000Z</time>
      </trkpt>
      <trkpt lat="45.90871" lon="6.17251">
        <ele>932.40002441406</ele>
        <time>2014-04-13T09:57:16.000Z</time>
      </trkpt>
      <trkpt lat="45.9087" lon="6.17248">
        <ele>932.40002441406</ele>
        <time>2014-04-13T09:57:18.000Z</time>
      </trkpt>
      <trkpt lat="45.90863" lon="6.17244">
        <ele>932.40002441406</ele>
        <time>2014-04-13T09:57:23.000Z</time>
      </trkpt>
      <trkpt lat="45.9086" lon="6.17242">
        <ele>932.40002441406</ele>
        <time>2014-04-13T09:57:27.000Z</time>
      </trkpt>
      <trkpt lat="45.90858" lon="6.17239">
        <ele>932.40002441406</ele>
        <time>2014-04-13T09:57:29.000Z</time>
      </trkpt>
      <trkpt lat="45.90855" lon="6.17235">
        <ele>932.40002441406</ele>
        <time>2014-04-13T09:57:31.000Z</time>
      </trkpt>
      <trkpt lat="45.90853" lon="6.17234">
        <ele>932.40002441406</ele>
        <time>2014-04-13T09:57:33.000Z</time>
      </trkpt>
      <trkpt lat="45.90852" lon="6.17232">
        <ele>932.40002441406</ele>
        <time>2014-04-13T09:57:34.000Z</time>
      </trkpt>
      <trkpt lat="45.90848" lon="6.17227">
        <ele>932.40002441406</ele>
        <time>2014-04-13T09:57:39.000Z</time>
      </trkpt>
      <trkpt lat="45.90849" lon="6.17228">
        <ele>932.40002441406</ele>
        <time>2014-04-13T09:57:40.000Z</time>
      </trkpt>
      <trkpt lat="45.90845" lon="6.17233">
        <ele>932.20001220703</ele>
        <time>2014-04-13T09:57:49.000Z</time>
      </trkpt>
      <trkpt lat="45.90844" lon="6.17236">
        <ele>932.20001220703</ele>
        <time>2014-04-13T09:57:55.000Z</time>
      </trkpt>
      <trkpt lat="45.90841" lon="6.17241">
        <ele>932.20001220703</ele>
        <time>2014-04-13T09:58:00.000Z</time>
      </trkpt>
      <trkpt lat="45.9084" lon="6.17235">
        <ele>932.20001220703</ele>
        <time>2014-04-13T09:59:04.000Z</time>
      </trkpt>
      <trkpt lat="45.90839" lon="6.17233">
        <ele>932.20001220703</ele>
        <time>2014-04-13T09:59:16.000Z</time>
      </trkpt>
      <trkpt lat="45.90834" lon="6.17234">
        <ele>932</ele>
        <time>2014-04-13T09:59:20.000Z</time>
      </trkpt>
      <trkpt lat="45.90837" lon="6.17229">
        <ele>932.20001220703</ele>
        <time>2014-04-13T09:59:35.000Z</time>
      </trkpt>
      <trkpt lat="45.9084" lon="6.17229">
        <ele>932.20001220703</ele>
        <time>2014-04-13T09:59:40.000Z</time>
      </trkpt>
      <trkpt lat="45.90834" lon="6.17232">
        <ele>932</ele>
        <time>2014-04-13T09:59:54.000Z</time>
      </trkpt>
      <trkpt lat="45.90833" lon="6.17229">
        <ele>932</ele>
        <time>2014-04-13T09:59:58.000Z</time>
      </trkpt>
      <trkpt lat="45.90832" lon="6.17229">
        <ele>932.20001220703</ele>
        <time>2014-04-13T09:59:59.000Z</time>
      </trkpt>
      <trkpt lat="45.90825" lon="6.17225">
        <ele>932.79998779297</ele>
        <time>2014-04-13T10:00:05.000Z</time>
      </trkpt>
      <trkpt lat="45.90822" lon="6.17219">
        <ele>932.79998779297</ele>
        <time>2014-04-13T10:00:10.000Z</time>
      </trkpt>
      <trkpt lat="45.9082" lon="6.17215">
        <ele>932.79998779297</ele>
        <time>2014-04-13T10:00:12.000Z</time>
      </trkpt>
      <trkpt lat="45.90816" lon="6.17208">
        <ele>932.59997558594</ele>
        <time>2014-04-13T10:00:16.000Z</time>
      </trkpt>
      <trkpt lat="45.90809" lon="6.172">
        <ele>932.20001220703</ele>
        <time>2014-04-13T10:00:21.000Z</time>
      </trkpt>
      <trkpt lat="45.90808" lon="6.17199">
        <ele>932</ele>
        <time>2014-04-13T10:00:22.000Z</time>
      </trkpt>
      <trkpt lat="45.90799" lon="6.17191">
        <ele>931</ele>
        <time>2014-04-13T10:00:26.000Z</time>
      </trkpt>
      <trkpt lat="45.9079" lon="6.17178">
        <ele>928.59997558594</ele>
        <time>2014-04-13T10:00:31.000Z</time>
      </trkpt>
      <trkpt lat="45.90783" lon="6.17169">
        <ele>926.40002441406</ele>
        <time>2014-04-13T10:00:35.000Z</time>
      </trkpt>
      <trkpt lat="45.90775" lon="6.17157">
        <ele>923</ele>
        <time>2014-04-13T10:00:39.000Z</time>
      </trkpt>
      <trkpt lat="45.90767" lon="6.17143">
        <ele>918.59997558594</ele>
        <time>2014-04-13T10:00:44.000Z</time>
      </trkpt>
      <trkpt lat="45.90765" lon="6.17141">
        <ele>918</ele>
        <time>2014-04-13T10:00:45.000Z</time>
      </trkpt>
      <trkpt lat="45.90762" lon="6.17138">
        <ele>916.40002441406</ele>
        <time>2014-04-13T10:00:47.000Z</time>
      </trkpt>
      <trkpt lat="45.90759" lon="6.17133">
        <ele>914.79998779297</ele>
        <time>2014-04-13T10:00:49.000Z</time>
      </trkpt>
      <trkpt lat="45.90754" lon="6.17125">
        <ele>911.79998779297</ele>
        <time>2014-04-13T10:00:52.000Z</time>
      </trkpt>
      <trkpt lat="45.90752" lon="6.17122">
        <ele>910.59997558594</ele>
        <time>2014-04-13T10:00:53.000Z</time>
      </trkpt>
      <trkpt lat="45.90747" lon="6.17118">
        <ele>909.59997558594</ele>
        <time>2014-04-13T10:00:55.000Z</time>
      </trkpt>
      <trkpt lat="45.90742" lon="6.17111">
        <ele>908.40002441406</ele>
        <time>2014-04-13T10:00:57.000Z</time>
      </trkpt>
      <trkpt lat="45.90732" lon="6.17105">
        <ele>907.20001220703</ele>
        <time>2014-04-13T10:01:01.000Z</time>
      </trkpt>
      <trkpt lat="45.90731" lon="6.17101">
        <ele>906.20001220703</ele>
        <time>2014-04-13T10:01:05.000Z</time>
      </trkpt>
      <trkpt lat="45.90732" lon="6.17099">
        <ele>905.40002441406</ele>
        <time>2014-04-13T10:01:06.000Z</time>
      </trkpt>
      <trkpt lat="45.90735" lon="6.17092">
        <ele>902.79998779297</ele>
        <time>2014-04-13T10:01:09.000Z</time>
      </trkpt>
      <trkpt lat="45.90734" lon="6.17091">
        <ele>902.59997558594</ele>
        <time>2014-04-13T10:01:10.000Z</time>
      </trkpt>
      <trkpt lat="45.90723" lon="6.17082">
        <ele>899.40002441406</ele>
        <time>2014-04-13T10:01:14.000Z</time>
      </trkpt>
      <trkpt lat="45.90705" lon="6.17073">
        <ele>895.79998779297</ele>
        <time>2014-04-13T10:01:19.000Z</time>
      </trkpt>
      <trkpt lat="45.90701" lon="6.17072">
        <ele>895.40002441406</ele>
        <time>2014-04-13T10:01:20.000Z</time>
      </trkpt>
      <trkpt lat="45.90694" lon="6.17071">
        <ele>894.79998779297</ele>
        <time>2014-04-13T10:01:24.000Z</time>
      </trkpt>
      <trkpt lat="45.90695" lon="6.17069">
        <ele>894.20001220703</ele>
        <time>2014-04-13T10:01:26.000Z</time>
      </trkpt>
      <trkpt lat="45.90699" lon="6.17067">
        <ele>893.59997558594</ele>
        <time>2014-04-13T10:01:28.000Z</time>
      </trkpt>
      <trkpt lat="45.90702" lon="6.17067">
        <ele>893.59997558594</ele>
        <time>2014-04-13T10:01:30.000Z</time>
      </trkpt>
      <trkpt lat="45.90705" lon="6.17068">
        <ele>893.79998779297</ele>
        <time>2014-04-13T10:01:31.000Z</time>
      </trkpt>
      <trkpt lat="45.90707" lon="6.1707">
        <ele>894.79998779297</ele>
        <time>2014-04-13T10:01:32.000Z</time>
      </trkpt>
      <trkpt lat="45.9071" lon="6.17073">
        <ele>896</ele>
        <time>2014-04-13T10:01:33.000Z</time>
      </trkpt>
      <trkpt lat="45.90715" lon="6.17071">
        <ele>895.59997558594</ele>
        <time>2014-04-13T10:01:35.000Z</time>
      </trkpt>
      <trkpt lat="45.90713" lon="6.17067">
        <ele>894</ele>
        <time>2014-04-13T10:01:37.000Z</time>
      </trkpt>
      <trkpt lat="45.9071" lon="6.17056">
        <ele>889.59997558594</ele>
        <time>2014-04-13T10:01:40.000Z</time>
      </trkpt>
      <trkpt lat="45.90705" lon="6.1705">
        <ele>887</ele>
        <time>2014-04-13T10:01:42.000Z</time>
      </trkpt>
      <trkpt lat="45.90696" lon="6.17049">
        <ele>885.40002441406</ele>
        <time>2014-04-13T10:01:46.000Z</time>
      </trkpt>
      <trkpt lat="45.90692" lon="6.17046">
        <ele>884.20001220703</ele>
        <time>2014-04-13T10:01:50.000Z</time>
      </trkpt>
      <trkpt lat="45.90692" lon="6.17043">
        <ele>883</ele>
        <time>2014-04-13T10:01:51.000Z</time>
      </trkpt>
      <trkpt lat="45.90698" lon="6.17041">
        <ele>882.59997558594</ele>
        <time>2014-04-13T10:01:54.000Z</time>
      </trkpt>
      <trkpt lat="45.90702" lon="6.17042">
        <ele>883.59997558594</ele>
        <time>2014-04-13T10:01:56.000Z</time>
      </trkpt>
      <trkpt lat="45.90707" lon="6.17043">
        <ele>884.59997558594</ele>
        <time>2014-04-13T10:01:58.000Z</time>
      </trkpt>
      <trkpt lat="45.90715" lon="6.1704">
        <ele>884.20001220703</ele>
        <time>2014-04-13T10:02:02.000Z</time>
      </trkpt>
      <trkpt lat="45.90709" lon="6.17031">
        <ele>880.20001220703</ele>
        <time>2014-04-13T10:02:06.000Z</time>
      </trkpt>
      <trkpt lat="45.90698" lon="6.17023">
        <ele>875.40002441406</ele>
        <time>2014-04-13T10:02:10.000Z</time>
      </trkpt>
      <trkpt lat="45.90692" lon="6.17023">
        <ele>874.20001220703</ele>
        <time>2014-04-13T10:02:14.000Z</time>
      </trkpt>
      <trkpt lat="45.9068" lon="6.17024">
        <ele>872.79998779297</ele>
        <time>2014-04-13T10:02:19.000Z</time>
      </trkpt>
      <trkpt lat="45.90682" lon="6.17015">
        <ele>869.20001220703</ele>
        <time>2014-04-13T10:02:23.000Z</time>
      </trkpt>
      <trkpt lat="45.90695" lon="6.17004">
        <ele>866.79998779297</ele>
        <time>2014-04-13T10:02:29.000Z</time>
      </trkpt>
      <trkpt lat="45.90696" lon="6.17002">
        <ele>866.20001220703</ele>
        <time>2014-04-13T10:02:30.000Z</time>
      </trkpt>
      <trkpt lat="45.90692" lon="6.16997">
        <ele>863.40002441406</ele>
        <time>2014-04-13T10:02:33.000Z</time>
      </trkpt>
      <trkpt lat="45.90689" lon="6.16997">
        <ele>862.59997558594</ele>
        <time>2014-04-13T10:02:34.000Z</time>
      </trkpt>
      <trkpt lat="45.90689" lon="6.16997">
        <ele>862.40002441406</ele>
        <time>2014-04-13T10:02:37.000Z</time>
      </trkpt>
      <trkpt lat="45.90691" lon="6.16996">
        <ele>862.40002441406</ele>
        <time>2014-04-13T10:02:38.000Z</time>
      </trkpt>
      <trkpt lat="45.90696" lon="6.16992">
        <ele>861.59997558594</ele>
        <time>2014-04-13T10:02:41.000Z</time>
      </trkpt>
      <trkpt lat="45.90695" lon="6.16986">
        <ele>859</ele>
        <time>2014-04-13T10:02:44.000Z</time>
      </trkpt>
      <trkpt lat="45.90694" lon="6.16987">
        <ele>859.20001220703</ele>
        <time>2014-04-13T10:02:45.000Z</time>
      </trkpt>
      <trkpt lat="45.90691" lon="6.16984">
        <ele>857.40002441406</ele>
        <time>2014-04-13T10:02:49.000Z</time>
      </trkpt>
      <trkpt lat="45.90695" lon="6.16983">
        <ele>857.40002441406</ele>
        <time>2014-04-13T10:02:51.000Z</time>
      </trkpt>
      <trkpt lat="45.90697" lon="6.1698">
        <ele>856.79998779297</ele>
        <time>2014-04-13T10:02:53.000Z</time>
      </trkpt>
      <trkpt lat="45.90692" lon="6.16977">
        <ele>854.40002441406</ele>
        <time>2014-04-13T10:02:57.000Z</time>
      </trkpt>
      <trkpt lat="45.90691" lon="6.1698">
        <ele>855.40002441406</ele>
        <time>2014-04-13T10:02:58.000Z</time>
      </trkpt>
      <trkpt lat="45.90685" lon="6.16985">
        <ele>856.20001220703</ele>
        <time>2014-04-13T10:03:01.000Z</time>
      </trkpt>
      <trkpt lat="45.90677" lon="6.16981">
        <ele>852.40002441406</ele>
        <time>2014-04-13T10:03:04.000Z</time>
      </trkpt>
      <trkpt lat="45.90671" lon="6.16977">
        <ele>849.40002441406</ele>
        <time>2014-04-13T10:03:06.000Z</time>
      </trkpt>
      <trkpt lat="45.90664" lon="6.16972">
        <ele>846.20001220703</ele>
        <time>2014-04-13T10:03:08.000Z</time>
      </trkpt>
      <trkpt lat="45.90656" lon="6.16967">
        <ele>843.79998779297</ele>
        <time>2014-04-13T10:03:11.000Z</time>
      </trkpt>
      <trkpt lat="45.90652" lon="6.16966">
        <ele>843.59997558594</ele>
        <time>2014-04-13T10:03:12.000Z</time>
      </trkpt>
      <trkpt lat="45.90639" lon="6.16961">
        <ele>840.59997558594</ele>
        <time>2014-04-13T10:03:17.000Z</time>
      </trkpt>
      <trkpt lat="45.90634" lon="6.16957">
        <ele>838.59997558594</ele>
        <time>2014-04-13T10:03:19.000Z</time>
      </trkpt>
      <trkpt lat="45.90629" lon="6.16953">
        <ele>836.79998779297</ele>
        <time>2014-04-13T10:03:21.000Z</time>
      </trkpt>
      <trkpt lat="45.90618" lon="6.16944">
        <ele>831.79998779297</ele>
        <time>2014-04-13T10:03:26.000Z</time>
      </trkpt>
      <trkpt lat="45.90616" lon="6.16941">
        <ele>830</ele>
        <time>2014-04-13T10:03:30.000Z</time>
      </trkpt>
      <trkpt lat="45.9062" lon="6.16939">
        <ele>829.40002441406</ele>
        <time>2014-04-13T10:03:33.000Z</time>
      </trkpt>
      <trkpt lat="45.90623" lon="6.16938">
        <ele>829</ele>
        <time>2014-04-13T10:03:34.000Z</time>
      </trkpt>
      <trkpt lat="45.90636" lon="6.16938">
        <ele>829.20001220703</ele>
        <time>2014-04-13T10:03:38.000Z</time>
      </trkpt>
      <trkpt lat="45.90652" lon="6.16936">
        <ele>829</ele>
        <time>2014-04-13T10:03:43.000Z</time>
      </trkpt>
      <trkpt lat="45.9066" lon="6.16927">
        <ele>825.40002441406</ele>
        <time>2014-04-13T10:03:47.000Z</time>
      </trkpt>
      <trkpt lat="45.90665" lon="6.16923">
        <ele>824</ele>
        <time>2014-04-13T10:03:49.000Z</time>
      </trkpt>
      <trkpt lat="45.90668" lon="6.16919">
        <ele>822.20001220703</ele>
        <time>2014-04-13T10:03:51.000Z</time>
      </trkpt>
      <trkpt lat="45.90674" lon="6.16912">
        <ele>820.20001220703</ele>
        <time>2014-04-13T10:03:54.000Z</time>
      </trkpt>
      <trkpt lat="45.90675" lon="6.1691">
        <ele>819.79998779297</ele>
        <time>2014-04-13T10:03:55.000Z</time>
      </trkpt>
      <trkpt lat="45.90679" lon="6.16901">
        <ele>816</ele>
        <time>2014-04-13T10:03:58.000Z</time>
      </trkpt>
      <trkpt lat="45.9068" lon="6.16897">
        <ele>814.40002441406</ele>
        <time>2014-04-13T10:03:59.000Z</time>
      </trkpt>
      <trkpt lat="45.90693" lon="6.16878">
        <ele>807.40002441406</ele>
        <time>2014-04-13T10:04:04.000Z</time>
      </trkpt>
      <trkpt lat="45.90704" lon="6.16865">
        <ele>803</ele>
        <time>2014-04-13T10:04:09.000Z</time>
      </trkpt>
      <trkpt lat="45.90715" lon="6.16849">
        <ele>797.59997558594</ele>
        <time>2014-04-13T10:04:14.000Z</time>
      </trkpt>
      <trkpt lat="45.90728" lon="6.16833">
        <ele>792</ele>
        <time>2014-04-13T10:04:19.000Z</time>
      </trkpt>
      <trkpt lat="45.90734" lon="6.16829">
        <ele>790.40002441406</ele>
        <time>2014-04-13T10:04:22.000Z</time>
      </trkpt>
      <trkpt lat="45.90735" lon="6.16827">
        <ele>789.20001220703</ele>
        <time>2014-04-13T10:04:23.000Z</time>
      </trkpt>
      <trkpt lat="45.90733" lon="6.16826">
        <ele>788.59997558594</ele>
        <time>2014-04-13T10:04:26.000Z</time>
      </trkpt>
      <trkpt lat="45.90724" lon="6.16828">
        <ele>787.79998779297</ele>
        <time>2014-04-13T10:04:29.000Z</time>
      </trkpt>
      <trkpt lat="45.9071" lon="6.1683">
        <ele>786.20001220703</ele>
        <time>2014-04-13T10:04:33.000Z</time>
      </trkpt>
      <trkpt lat="45.90697" lon="6.16834">
        <ele>785.20001220703</ele>
        <time>2014-04-13T10:04:38.000Z</time>
      </trkpt>
      <trkpt lat="45.90677" lon="6.16841">
        <ele>784.20001220703</ele>
        <time>2014-04-13T10:04:44.000Z</time>
      </trkpt>
      <trkpt lat="45.90663" lon="6.16846">
        <ele>784.20001220703</ele>
        <time>2014-04-13T10:04:49.000Z</time>
      </trkpt>
      <trkpt lat="45.90656" lon="6.16851">
        <ele>786.20001220703</ele>
        <time>2014-04-13T10:04:54.000Z</time>
      </trkpt>
      <trkpt lat="45.90657" lon="6.1685">
        <ele>785.79998779297</ele>
        <time>2014-04-13T10:04:55.000Z</time>
      </trkpt>
      <trkpt lat="45.90664" lon="6.16841">
        <ele>781.59997558594</ele>
        <time>2014-04-13T10:04:58.000Z</time>
      </trkpt>
      <trkpt lat="45.90666" lon="6.16837">
        <ele>779.59997558594</ele>
        <time>2014-04-13T10:04:59.000Z</time>
      </trkpt>
      <trkpt lat="45.90678" lon="6.16818">
        <ele>773.20001220703</ele>
        <time>2014-04-13T10:05:04.000Z</time>
      </trkpt>
      <trkpt lat="45.90685" lon="6.1681">
        <ele>770.59997558594</ele>
        <time>2014-04-13T10:05:07.000Z</time>
      </trkpt>
      <trkpt lat="45.90687" lon="6.16807">
        <ele>769.59997558594</ele>
        <time>2014-04-13T10:05:08.000Z</time>
      </trkpt>
      <trkpt lat="45.90688" lon="6.16801">
        <ele>766.79998779297</ele>
        <time>2014-04-13T10:05:13.000Z</time>
      </trkpt>
      <trkpt lat="45.90679" lon="6.16806">
        <ele>767.79998779297</ele>
        <time>2014-04-13T10:05:17.000Z</time>
      </trkpt>
      <trkpt lat="45.90667" lon="6.16814">
        <ele>769.59997558594</ele>
        <time>2014-04-13T10:05:21.000Z</time>
      </trkpt>
      <trkpt lat="45.90648" lon="6.16819">
        <ele>769.59997558594</ele>
        <time>2014-04-13T10:05:26.000Z</time>
      </trkpt>
      <trkpt lat="45.90638" lon="6.16827">
        <ele>772</ele>
        <time>2014-04-13T10:05:30.000Z</time>
      </trkpt>
      <trkpt lat="45.90633" lon="6.16832">
        <ele>773.40002441406</ele>
        <time>2014-04-13T10:05:34.000Z</time>
      </trkpt>
      <trkpt lat="45.90627" lon="6.1683">
        <ele>771.59997558594</ele>
        <time>2014-04-13T10:05:38.000Z</time>
      </trkpt>
      <trkpt lat="45.90617" lon="6.16831">
        <ele>770.79998779297</ele>
        <time>2014-04-13T10:05:44.000Z</time>
      </trkpt>
      <trkpt lat="45.90616" lon="6.16832">
        <ele>771.20001220703</ele>
        <time>2014-04-13T10:05:45.000Z</time>
      </trkpt>
      <trkpt lat="45.90611" lon="6.16834">
        <ele>771.40002441406</ele>
        <time>2014-04-13T10:05:48.000Z</time>
      </trkpt>
      <trkpt lat="45.90608" lon="6.16832">
        <ele>770.20001220703</ele>
        <time>2014-04-13T10:05:50.000Z</time>
      </trkpt>
      <trkpt lat="45.906" lon="6.16831">
        <ele>769</ele>
        <time>2014-04-13T10:05:55.000Z</time>
      </trkpt>
      <trkpt lat="45.90593" lon="6.16832">
        <ele>768.79998779297</ele>
        <time>2014-04-13T10:06:00.000Z</time>
      </trkpt>
      <trkpt lat="45.90592" lon="6.1683">
        <ele>767.59997558594</ele>
        <time>2014-04-13T10:06:01.000Z</time>
      </trkpt>
      <trkpt lat="45.90585" lon="6.16819">
        <ele>761.59997558594</ele>
        <time>2014-04-13T10:06:07.000Z</time>
      </trkpt>
      <trkpt lat="45.90576" lon="6.1681">
        <ele>757.40002441406</ele>
        <time>2014-04-13T10:06:12.000Z</time>
      </trkpt>
      <trkpt lat="45.9057" lon="6.16807">
        <ele>755.59997558594</ele>
        <time>2014-04-13T10:06:15.000Z</time>
      </trkpt>
      <trkpt lat="45.90569" lon="6.16809">
        <ele>756.40002441406</ele>
        <time>2014-04-13T10:06:16.000Z</time>
      </trkpt>
      <trkpt lat="45.90564" lon="6.16808">
        <ele>756</ele>
        <time>2014-04-13T10:06:19.000Z</time>
      </trkpt>
      <trkpt lat="45.90563" lon="6.16809">
        <ele>756.40002441406</ele>
        <time>2014-04-13T10:06:20.000Z</time>
      </trkpt>
      <trkpt lat="45.90556" lon="6.16815">
        <ele>759</ele>
        <time>2014-04-13T10:06:27.000Z</time>
      </trkpt>
      <trkpt lat="45.90551" lon="6.16815">
        <ele>759</ele>
        <time>2014-04-13T10:06:29.000Z</time>
      </trkpt>
      <trkpt lat="45.90544" lon="6.16813">
        <ele>758</ele>
        <time>2014-04-13T10:06:31.000Z</time>
      </trkpt>
      <trkpt lat="45.90537" lon="6.16813">
        <ele>758</ele>
        <time>2014-04-13T10:06:34.000Z</time>
      </trkpt>
      <trkpt lat="45.90533" lon="6.16813">
        <ele>757.79998779297</ele>
        <time>2014-04-13T10:06:35.000Z</time>
      </trkpt>
      <trkpt lat="45.90518" lon="6.16805">
        <ele>753.79998779297</ele>
        <time>2014-04-13T10:06:39.000Z</time>
      </trkpt>
      <trkpt lat="45.90503" lon="6.16798">
        <ele>750.20001220703</ele>
        <time>2014-04-13T10:06:43.000Z</time>
      </trkpt>
      <trkpt lat="45.90491" lon="6.16792">
        <ele>747.40002441406</ele>
        <time>2014-04-13T10:06:47.000Z</time>
      </trkpt>
      <trkpt lat="45.90477" lon="6.16784">
        <ele>744.20001220703</ele>
        <time>2014-04-13T10:06:52.000Z</time>
      </trkpt>
      <trkpt lat="45.90464" lon="6.16781">
        <ele>743.40002441406</ele>
        <time>2014-04-13T10:06:57.000Z</time>
      </trkpt>
      <trkpt lat="45.90443" lon="6.16781">
        <ele>744.79998779297</ele>
        <time>2014-04-13T10:07:03.000Z</time>
      </trkpt>
      <trkpt lat="45.90437" lon="6.16783">
        <ele>746.20001220703</ele>
        <time>2014-04-13T10:07:07.000Z</time>
      </trkpt>
      <trkpt lat="45.90433" lon="6.16782">
        <ele>745.59997558594</ele>
        <time>2014-04-13T10:07:13.000Z</time>
      </trkpt>
      <trkpt lat="45.90432" lon="6.16782">
        <ele>746</ele>
        <time>2014-04-13T10:07:16.000Z</time>
      </trkpt>
      <trkpt lat="45.90432" lon="6.16783">
        <ele>746.40002441406</ele>
        <time>2014-04-13T10:07:18.000Z</time>
      </trkpt>
      <trkpt lat="45.90431" lon="6.16785">
        <ele>747.40002441406</ele>
        <time>2014-04-13T10:07:35.000Z</time>
      </trkpt>
      <trkpt lat="45.90431" lon="6.16792">
        <ele>750.79998779297</ele>
        <time>2014-04-13T10:07:59.000Z</time>
      </trkpt>
      <trkpt lat="45.90428" lon="6.16791">
        <ele>750.40002441406</ele>
        <time>2014-04-13T10:08:02.000Z</time>
      </trkpt>
      <trkpt lat="45.90427" lon="6.1679">
        <ele>750</ele>
        <time>2014-04-13T10:08:03.000Z</time>
      </trkpt>
      <trkpt lat="45.90426" lon="6.16789">
        <ele>749.79998779297</ele>
        <time>2014-04-13T10:08:04.000Z</time>
      </trkpt>
      <trkpt lat="45.90421" lon="6.16787">
        <ele>748.59997558594</ele>
        <time>2014-04-13T10:08:07.000Z</time>
      </trkpt>
      <trkpt lat="45.90407" lon="6.1678">
        <ele>747</ele>
        <time>2014-04-13T10:08:12.000Z</time>
      </trkpt>
      <trkpt lat="45.90389" lon="6.16768">
        <ele>743.79998779297</ele>
        <time>2014-04-13T10:08:18.000Z</time>
      </trkpt>
      <trkpt lat="45.90376" lon="6.16759">
        <ele>740.79998779297</ele>
        <time>2014-04-13T10:08:24.000Z</time>
      </trkpt>
      <trkpt lat="45.90365" lon="6.16756">
        <ele>741</ele>
        <time>2014-04-13T10:08:29.000Z</time>
      </trkpt>
      <trkpt lat="45.90356" lon="6.16753">
        <ele>740.59997558594</ele>
        <time>2014-04-13T10:08:34.000Z</time>
      </trkpt>
      <trkpt lat="45.90353" lon="6.16752">
        <ele>740.20001220703</ele>
        <time>2014-04-13T10:08:36.000Z</time>
      </trkpt>
      <trkpt lat="45.9035" lon="6.16751">
        <ele>740</ele>
        <time>2014-04-13T10:08:39.000Z</time>
      </trkpt>
      <trkpt lat="45.90345" lon="6.16749">
        <ele>740</ele>
        <time>2014-04-13T10:08:43.000Z</time>
      </trkpt>
      <trkpt lat="45.90338" lon="6.16745">
        <ele>739.40002441406</ele>
        <time>2014-04-13T10:08:47.000Z</time>
      </trkpt>
      <trkpt lat="45.90327" lon="6.1675">
        <ele>742.59997558594</ele>
        <time>2014-04-13T10:08:51.000Z</time>
      </trkpt>
      <trkpt lat="45.90323" lon="6.16749">
        <ele>743</ele>
        <time>2014-04-13T10:08:53.000Z</time>
      </trkpt>
      <trkpt lat="45.90316" lon="6.16748">
        <ele>743.40002441406</ele>
        <time>2014-04-13T10:08:55.000Z</time>
      </trkpt>
      <trkpt lat="45.90309" lon="6.16745">
        <ele>743</ele>
        <time>2014-04-13T10:08:58.000Z</time>
      </trkpt>
      <trkpt lat="45.90307" lon="6.16744">
        <ele>742.79998779297</ele>
        <time>2014-04-13T10:08:59.000Z</time>
      </trkpt>
      <trkpt lat="45.90296" lon="6.16736">
        <ele>741.20001220703</ele>
        <time>2014-04-13T10:09:03.000Z</time>
      </trkpt>
      <trkpt lat="45.90279" lon="6.16728">
        <ele>739.79998779297</ele>
        <time>2014-04-13T10:09:09.000Z</time>
      </trkpt>
      <trkpt lat="45.90269" lon="6.16717">
        <ele>736.79998779297</ele>
        <time>2014-04-13T10:09:14.000Z</time>
      </trkpt>
      <trkpt lat="45.90263" lon="6.16712">
        <ele>735.40002441406</ele>
        <time>2014-04-13T10:09:18.000Z</time>
      </trkpt>
      <trkpt lat="45.90254" lon="6.16708">
        <ele>735</ele>
        <time>2014-04-13T10:09:22.000Z</time>
      </trkpt>
      <trkpt lat="45.90244" lon="6.16704">
        <ele>734.20001220703</ele>
        <time>2014-04-13T10:09:27.000Z</time>
      </trkpt>
      <trkpt lat="45.90234" lon="6.167">
        <ele>733.59997558594</ele>
        <time>2014-04-13T10:09:31.000Z</time>
      </trkpt>
      <trkpt lat="45.9022" lon="6.16692">
        <ele>731.79998779297</ele>
        <time>2014-04-13T10:09:36.000Z</time>
      </trkpt>
      <trkpt lat="45.90202" lon="6.16679">
        <ele>728.40002441406</ele>
        <time>2014-04-13T10:09:41.000Z</time>
      </trkpt>
      <trkpt lat="45.9019" lon="6.16671">
        <ele>726.40002441406</ele>
        <time>2014-04-13T10:09:46.000Z</time>
      </trkpt>
      <trkpt lat="45.9018" lon="6.16663">
        <ele>724.40002441406</ele>
        <time>2014-04-13T10:09:50.000Z</time>
      </trkpt>
      <trkpt lat="45.90178" lon="6.16662">
        <ele>724.40002441406</ele>
        <time>2014-04-13T10:09:51.000Z</time>
      </trkpt>
      <trkpt lat="45.90172" lon="6.16659">
        <ele>724</ele>
        <time>2014-04-13T10:09:54.000Z</time>
      </trkpt>
      <trkpt lat="45.90168" lon="6.16651">
        <ele>722</ele>
        <time>2014-04-13T10:09:56.000Z</time>
      </trkpt>
      <trkpt lat="45.9016" lon="6.16642">
        <ele>719.20001220703</ele>
        <time>2014-04-13T10:09:59.000Z</time>
      </trkpt>
      <trkpt lat="45.90147" lon="6.16632">
        <ele>716.20001220703</ele>
        <time>2014-04-13T10:10:03.000Z</time>
      </trkpt>
      <trkpt lat="45.90133" lon="6.16626">
        <ele>714.40002441406</ele>
        <time>2014-04-13T10:10:08.000Z</time>
      </trkpt>
      <trkpt lat="45.90116" lon="6.16615">
        <ele>711.20001220703</ele>
        <time>2014-04-13T10:10:15.000Z</time>
      </trkpt>
      <trkpt lat="45.90105" lon="6.16601">
        <ele>707.20001220703</ele>
        <time>2014-04-13T10:10:20.000Z</time>
      </trkpt>
      <trkpt lat="45.90098" lon="6.16595">
        <ele>705.40002441406</ele>
        <time>2014-04-13T10:10:25.000Z</time>
      </trkpt>
      <trkpt lat="45.9009" lon="6.16591">
        <ele>704.20001220703</ele>
        <time>2014-04-13T10:10:29.000Z</time>
      </trkpt>
      <trkpt lat="45.90088" lon="6.1659">
        <ele>704</ele>
        <time>2014-04-13T10:10:30.000Z</time>
      </trkpt>
      <trkpt lat="45.9008" lon="6.16584">
        <ele>701.20001220703</ele>
        <time>2014-04-13T10:10:34.000Z</time>
      </trkpt>
      <trkpt lat="45.90075" lon="6.16581">
        <ele>698.40002441406</ele>
        <time>2014-04-13T10:10:36.000Z</time>
      </trkpt>
      <trkpt lat="45.90071" lon="6.16576">
        <ele>695.59997558594</ele>
        <time>2014-04-13T10:10:38.000Z</time>
      </trkpt>
      <trkpt lat="45.9006" lon="6.16569">
        <ele>690.40002441406</ele>
        <time>2014-04-13T10:10:43.000Z</time>
      </trkpt>
      <trkpt lat="45.90055" lon="6.16565">
        <ele>688</ele>
        <time>2014-04-13T10:10:45.000Z</time>
      </trkpt>
      <trkpt lat="45.90048" lon="6.1656">
        <ele>684.59997558594</ele>
        <time>2014-04-13T10:10:48.000Z</time>
      </trkpt>
      <trkpt lat="45.90042" lon="6.16556">
        <ele>682.20001220703</ele>
        <time>2014-04-13T10:10:51.000Z</time>
      </trkpt>
      <trkpt lat="45.90041" lon="6.16555">
        <ele>681.59997558594</ele>
        <time>2014-04-13T10:10:52.000Z</time>
      </trkpt>
      <trkpt lat="45.90037" lon="6.16551">
        <ele>680</ele>
        <time>2014-04-13T10:10:56.000Z</time>
      </trkpt>
      <trkpt lat="45.90035" lon="6.16548">
        <ele>678.79998779297</ele>
        <time>2014-04-13T10:10:59.000Z</time>
      </trkpt>
      <trkpt lat="45.90032" lon="6.16546">
        <ele>677.79998779297</ele>
        <time>2014-04-13T10:11:00.000Z</time>
      </trkpt>
      <trkpt lat="45.90019" lon="6.16543">
        <ele>675.20001220703</ele>
        <time>2014-04-13T10:11:04.000Z</time>
      </trkpt>
      <trkpt lat="45.90016" lon="6.16542">
        <ele>674.40002441406</ele>
        <time>2014-04-13T10:11:05.000Z</time>
      </trkpt>
      <trkpt lat="45.90001" lon="6.16535">
        <ele>671.40002441406</ele>
        <time>2014-04-13T10:11:10.000Z</time>
      </trkpt>
      <trkpt lat="45.89988" lon="6.16526">
        <ele>665.59997558594</ele>
        <time>2014-04-13T10:11:14.000Z</time>
      </trkpt>
      <trkpt lat="45.89974" lon="6.16521">
        <ele>659.79998779297</ele>
        <time>2014-04-13T10:11:18.000Z</time>
      </trkpt>
      <trkpt lat="45.89964" lon="6.1652">
        <ele>655.79998779297</ele>
        <time>2014-04-13T10:11:22.000Z</time>
      </trkpt>
      <trkpt lat="45.89966" lon="6.16522">
        <ele>656.59997558594</ele>
        <time>2014-04-13T10:11:24.000Z</time>
      </trkpt>
      <trkpt lat="45.89967" lon="6.16524">
        <ele>657.20001220703</ele>
        <time>2014-04-13T10:11:26.000Z</time>
      </trkpt>
      <trkpt lat="45.89965" lon="6.16521">
        <ele>656.20001220703</ele>
        <time>2014-04-13T10:11:32.000Z</time>
      </trkpt>
      <trkpt lat="45.89961" lon="6.16517">
        <ele>654.40002441406</ele>
        <time>2014-04-13T10:13:02.000Z</time>
      </trkpt>
      <trkpt lat="45.8996" lon="6.16517">
        <ele>653.79998779297</ele>
        <time>2014-04-13T10:13:03.000Z</time>
      </trkpt>
      <trkpt lat="45.89954" lon="6.16519">
        <ele>652</ele>
        <time>2014-04-13T10:13:07.000Z</time>
      </trkpt>
      <trkpt lat="45.89952" lon="6.16519">
        <ele>651.20001220703</ele>
        <time>2014-04-13T10:13:08.000Z</time>
      </trkpt>
      <trkpt lat="45.89946" lon="6.1652">
        <ele>649</ele>
        <time>2014-04-13T10:13:13.000Z</time>
      </trkpt>
      <trkpt lat="45.89941" lon="6.16521">
        <ele>647.20001220703</ele>
        <time>2014-04-13T10:13:16.000Z</time>
      </trkpt>
      <trkpt lat="45.89941" lon="6.16523">
        <ele>647.20001220703</ele>
        <time>2014-04-13T10:13:18.000Z</time>
      </trkpt>
      <trkpt lat="45.89939" lon="6.16518">
        <ele>646.20001220703</ele>
        <time>2014-04-13T10:13:23.000Z</time>
      </trkpt>
      <trkpt lat="45.8994" lon="6.16517">
        <ele>646.40002441406</ele>
        <time>2014-04-13T10:13:24.000Z</time>
      </trkpt>
      <trkpt lat="45.8994" lon="6.16515">
        <ele>646.20001220703</ele>
        <time>2014-04-13T10:13:28.000Z</time>
      </trkpt>
      <trkpt lat="45.89938" lon="6.16513">
        <ele>645.40002441406</ele>
        <time>2014-04-13T10:13:32.000Z</time>
      </trkpt>
      <trkpt lat="45.89935" lon="6.16506">
        <ele>644</ele>
        <time>2014-04-13T10:13:38.000Z</time>
      </trkpt>
      <trkpt lat="45.89935" lon="6.16504">
        <ele>644</ele>
        <time>2014-04-13T10:13:39.000Z</time>
      </trkpt>
      <trkpt lat="45.89938" lon="6.16495">
        <ele>641.59997558594</ele>
        <time>2014-04-13T10:13:45.000Z</time>
      </trkpt>
      <trkpt lat="45.89941" lon="6.16494">
        <ele>642</ele>
        <time>2014-04-13T10:13:48.000Z</time>
      </trkpt>
      <trkpt lat="45.89942" lon="6.16495">
        <ele>643</ele>
        <time>2014-04-13T10:13:51.000Z</time>
      </trkpt>
      <trkpt lat="45.89946" lon="6.16494">
        <ele>644</ele>
        <time>2014-04-13T10:14:37.000Z</time>
      </trkpt>
      <trkpt lat="45.89947" lon="6.16496">
        <ele>645.79998779297</ele>
        <time>2014-04-13T10:14:45.000Z</time>
      </trkpt>
      <trkpt lat="45.89952" lon="6.16497">
        <ele>647.79998779297</ele>
        <time>2014-04-13T10:14:49.000Z</time>
      </trkpt>
      <trkpt lat="45.89954" lon="6.16496">
        <ele>648.40002441406</ele>
        <time>2014-04-13T10:14:50.000Z</time>
      </trkpt>
      <trkpt lat="45.8996" lon="6.16497">
        <ele>650.79998779297</ele>
        <time>2014-04-13T10:14:53.000Z</time>
      </trkpt>
      <trkpt lat="45.89966" lon="6.16498">
        <ele>653.79998779297</ele>
        <time>2014-04-13T10:14:56.000Z</time>
      </trkpt>
      <trkpt lat="45.89982" lon="6.16498">
        <ele>659.40002441406</ele>
        <time>2014-04-13T10:15:02.000Z</time>
      </trkpt>
      <trkpt lat="45.89995" lon="6.16498">
        <ele>663.79998779297</ele>
        <time>2014-04-13T10:15:07.000Z</time>
      </trkpt>
      <trkpt lat="45.89998" lon="6.16497">
        <ele>664.59997558594</ele>
        <time>2014-04-13T10:15:10.000Z</time>
      </trkpt>
      <trkpt lat="45.90003" lon="6.16495">
        <ele>664.40002441406</ele>
        <time>2014-04-13T10:15:13.000Z</time>
      </trkpt>
      <trkpt lat="45.90014" lon="6.16493">
        <ele>663.20001220703</ele>
        <time>2014-04-13T10:15:18.000Z</time>
      </trkpt>
      <trkpt lat="45.90024" lon="6.16489">
        <ele>661</ele>
        <time>2014-04-13T10:15:23.000Z</time>
      </trkpt>
      <trkpt lat="45.90026" lon="6.16487">
        <ele>660</ele>
        <time>2014-04-13T10:15:24.000Z</time>
      </trkpt>
      <trkpt lat="45.90032" lon="6.16484">
        <ele>658.59997558594</ele>
        <time>2014-04-13T10:15:27.000Z</time>
      </trkpt>
      <trkpt lat="45.90034" lon="6.16483">
        <ele>657.79998779297</ele>
        <time>2014-04-13T10:15:28.000Z</time>
      </trkpt>
      <trkpt lat="45.90045" lon="6.16473">
        <ele>652</ele>
        <time>2014-04-13T10:15:33.000Z</time>
      </trkpt>
      <trkpt lat="45.90051" lon="6.16465">
        <ele>647.59997558594</ele>
        <time>2014-04-13T10:15:38.000Z</time>
      </trkpt>
      <trkpt lat="45.90054" lon="6.16464">
        <ele>647.20001220703</ele>
        <time>2014-04-13T10:15:40.000Z</time>
      </trkpt>
      <trkpt lat="45.90056" lon="6.16464">
        <ele>646.79998779297</ele>
        <time>2014-04-13T10:15:42.000Z</time>
      </trkpt>
      <trkpt lat="45.90066" lon="6.16464">
        <ele>646.79998779297</ele>
        <time>2014-04-13T10:15:46.000Z</time>
      </trkpt>
      <trkpt lat="45.9007" lon="6.16465">
        <ele>647</ele>
        <time>2014-04-13T10:15:48.000Z</time>
      </trkpt>
      <trkpt lat="45.90073" lon="6.16466">
        <ele>647.40002441406</ele>
        <time>2014-04-13T10:15:50.000Z</time>
      </trkpt>
      <trkpt lat="45.90079" lon="6.16465">
        <ele>647.20001220703</ele>
        <time>2014-04-13T10:15:55.000Z</time>
      </trkpt>
      <trkpt lat="45.90083" lon="6.16466">
        <ele>647.40002441406</ele>
        <time>2014-04-13T10:15:58.000Z</time>
      </trkpt>
      <trkpt lat="45.90085" lon="6.16466">
        <ele>647.59997558594</ele>
        <time>2014-04-13T10:15:59.000Z</time>
      </trkpt>
      <trkpt lat="45.9009" lon="6.16462">
        <ele>644.79998779297</ele>
        <time>2014-04-13T10:16:03.000Z</time>
      </trkpt>
      <trkpt lat="45.90101" lon="6.16465">
        <ele>646.20001220703</ele>
        <time>2014-04-13T10:16:08.000Z</time>
      </trkpt>
      <trkpt lat="45.90106" lon="6.16467">
        <ele>647.40002441406</ele>
        <time>2014-04-13T10:16:11.000Z</time>
      </trkpt>
      <trkpt lat="45.90117" lon="6.16468">
        <ele>647.79998779297</ele>
        <time>2014-04-13T10:16:15.000Z</time>
      </trkpt>
      <trkpt lat="45.90121" lon="6.1647">
        <ele>648.40002441406</ele>
        <time>2014-04-13T10:16:17.000Z</time>
      </trkpt>
      <trkpt lat="45.90125" lon="6.1647">
        <ele>648.40002441406</ele>
        <time>2014-04-13T10:16:19.000Z</time>
      </trkpt>
      <trkpt lat="45.90136" lon="6.16476">
        <ele>651.40002441406</ele>
        <time>2014-04-13T10:16:23.000Z</time>
      </trkpt>
      <trkpt lat="45.90145" lon="6.16473">
        <ele>649.20001220703</ele>
        <time>2014-04-13T10:16:27.000Z</time>
      </trkpt>
      <trkpt lat="45.90157" lon="6.16474">
        <ele>649.59997558594</ele>
        <time>2014-04-13T10:16:32.000Z</time>
      </trkpt>
      <trkpt lat="45.90161" lon="6.16475">
        <ele>650</ele>
        <time>2014-04-13T10:16:33.000Z</time>
      </trkpt>
      <trkpt lat="45.9017" lon="6.16475">
        <ele>649.20001220703</ele>
        <time>2014-04-13T10:16:36.000Z</time>
      </trkpt>
      <trkpt lat="45.90179" lon="6.16477">
        <ele>649.79998779297</ele>
        <time>2014-04-13T10:16:41.000Z</time>
      </trkpt>
      <trkpt lat="45.90188" lon="6.16477">
        <ele>648.79998779297</ele>
        <time>2014-04-13T10:16:45.000Z</time>
      </trkpt>
      <trkpt lat="45.90192" lon="6.16477">
        <ele>648.20001220703</ele>
        <time>2014-04-13T10:16:47.000Z</time>
      </trkpt>
      <trkpt lat="45.90193" lon="6.16479">
        <ele>649</ele>
        <time>2014-04-13T10:16:48.000Z</time>
      </trkpt>
      <trkpt lat="45.90203" lon="6.1648">
        <ele>648.59997558594</ele>
        <time>2014-04-13T10:16:52.000Z</time>
      </trkpt>
      <trkpt lat="45.90205" lon="6.16479">
        <ele>647.79998779297</ele>
        <time>2014-04-13T10:16:53.000Z</time>
      </trkpt>
      <trkpt lat="45.90215" lon="6.16481">
        <ele>647.59997558594</ele>
        <time>2014-04-13T10:16:57.000Z</time>
      </trkpt>
      <trkpt lat="45.9022" lon="6.16484">
        <ele>648.79998779297</ele>
        <time>2014-04-13T10:16:59.000Z</time>
      </trkpt>
      <trkpt lat="45.90232" lon="6.16486">
        <ele>648.59997558594</ele>
        <time>2014-04-13T10:17:04.000Z</time>
      </trkpt>
      <trkpt lat="45.90244" lon="6.1649">
        <ele>649.40002441406</ele>
        <time>2014-04-13T10:17:08.000Z</time>
      </trkpt>
      <trkpt lat="45.90249" lon="6.16491">
        <ele>649.40002441406</ele>
        <time>2014-04-13T10:17:10.000Z</time>
      </trkpt>
      <trkpt lat="45.90255" lon="6.16492">
        <ele>648.79998779297</ele>
        <time>2014-04-13T10:17:13.000Z</time>
      </trkpt>
      <trkpt lat="45.90258" lon="6.16494">
        <ele>649.20001220703</ele>
        <time>2014-04-13T10:17:14.000Z</time>
      </trkpt>
      <trkpt lat="45.90264" lon="6.16496">
        <ele>649.40002441406</ele>
        <time>2014-04-13T10:17:17.000Z</time>
      </trkpt>
      <trkpt lat="45.90266" lon="6.16498">
        <ele>649.79998779297</ele>
        <time>2014-04-13T10:17:18.000Z</time>
      </trkpt>
      <trkpt lat="45.90275" lon="6.16502">
        <ele>650</ele>
        <time>2014-04-13T10:17:22.000Z</time>
      </trkpt>
      <trkpt lat="45.90283" lon="6.16504">
        <ele>649.59997558594</ele>
        <time>2014-04-13T10:17:25.000Z</time>
      </trkpt>
      <trkpt lat="45.90284" lon="6.16506">
        <ele>649.79998779297</ele>
        <time>2014-04-13T10:17:26.000Z</time>
      </trkpt>
      <trkpt lat="45.90294" lon="6.16509">
        <ele>649.40002441406</ele>
        <time>2014-04-13T10:17:31.000Z</time>
      </trkpt>
      <trkpt lat="45.90297" lon="6.16509">
        <ele>648.79998779297</ele>
        <time>2014-04-13T10:17:32.000Z</time>
      </trkpt>
      <trkpt lat="45.90305" lon="6.16509">
        <ele>647.20001220703</ele>
        <time>2014-04-13T10:17:35.000Z</time>
      </trkpt>
      <trkpt lat="45.90315" lon="6.16512">
        <ele>646.59997558594</ele>
        <time>2014-04-13T10:17:39.000Z</time>
      </trkpt>
      <trkpt lat="45.90327" lon="6.16514">
        <ele>645.20001220703</ele>
        <time>2014-04-13T10:17:43.000Z</time>
      </trkpt>
      <trkpt lat="45.9034" lon="6.16514">
        <ele>642.59997558594</ele>
        <time>2014-04-13T10:17:48.000Z</time>
      </trkpt>
      <trkpt lat="45.90341" lon="6.16515">
        <ele>642.79998779297</ele>
        <time>2014-04-13T10:17:49.000Z</time>
      </trkpt>
      <trkpt lat="45.9035" lon="6.1652">
        <ele>643.40002441406</ele>
        <time>2014-04-13T10:17:53.000Z</time>
      </trkpt>
      <trkpt lat="45.90359" lon="6.16522">
        <ele>642.40002441406</ele>
        <time>2014-04-13T10:17:57.000Z</time>
      </trkpt>
      <trkpt lat="45.90365" lon="6.16523">
        <ele>641.40002441406</ele>
        <time>2014-04-13T10:18:00.000Z</time>
      </trkpt>
      <trkpt lat="45.90366" lon="6.16524">
        <ele>641.40002441406</ele>
        <time>2014-04-13T10:18:01.000Z</time>
      </trkpt>
      <trkpt lat="45.9037" lon="6.16525">
        <ele>641.20001220703</ele>
        <time>2014-04-13T10:18:03.000Z</time>
      </trkpt>
      <trkpt lat="45.90373" lon="6.16525">
        <ele>640.79998779297</ele>
        <time>2014-04-13T10:18:04.000Z</time>
      </trkpt>
      <trkpt lat="45.90386" lon="6.16527">
        <ele>639</ele>
        <time>2014-04-13T10:18:09.000Z</time>
      </trkpt>
      <trkpt lat="45.90399" lon="6.16526">
        <ele>635.79998779297</ele>
        <time>2014-04-13T10:18:14.000Z</time>
      </trkpt>
      <trkpt lat="45.90407" lon="6.16526">
        <ele>634.40002441406</ele>
        <time>2014-04-13T10:18:18.000Z</time>
      </trkpt>
      <trkpt lat="45.90416" lon="6.1653">
        <ele>634.40002441406</ele>
        <time>2014-04-13T10:18:23.000Z</time>
      </trkpt>
      <trkpt lat="45.90431" lon="6.16535">
        <ele>633.79998779297</ele>
        <time>2014-04-13T10:18:29.000Z</time>
      </trkpt>
      <trkpt lat="45.90441" lon="6.16535">
        <ele>631.40002441406</ele>
        <time>2014-04-13T10:18:33.000Z</time>
      </trkpt>
      <trkpt lat="45.90446" lon="6.16534">
        <ele>630</ele>
        <time>2014-04-13T10:18:35.000Z</time>
      </trkpt>
      <trkpt lat="45.90454" lon="6.16539">
        <ele>631.20001220703</ele>
        <time>2014-04-13T10:18:39.000Z</time>
      </trkpt>
      <trkpt lat="45.90456" lon="6.1654">
        <ele>631</ele>
        <time>2014-04-13T10:18:40.000Z</time>
      </trkpt>
      <trkpt lat="45.9047" lon="6.16542">
        <ele>630</ele>
        <time>2014-04-13T10:18:46.000Z</time>
      </trkpt>
      <trkpt lat="45.90479" lon="6.16543">
        <ele>628.59997558594</ele>
        <time>2014-04-13T10:18:50.000Z</time>
      </trkpt>
      <trkpt lat="45.90488" lon="6.16545">
        <ele>628.59997558594</ele>
        <time>2014-04-13T10:18:55.000Z</time>
      </trkpt>
      <trkpt lat="45.90495" lon="6.16548">
        <ele>628.79998779297</ele>
        <time>2014-04-13T10:18:59.000Z</time>
      </trkpt>
      <trkpt lat="45.90497" lon="6.1655">
        <ele>629.79998779297</ele>
        <time>2014-04-13T10:19:01.000Z</time>
      </trkpt>
      <trkpt lat="45.90499" lon="6.16552">
        <ele>631</ele>
        <time>2014-04-13T10:19:03.000Z</time>
      </trkpt>
      <trkpt lat="45.90503" lon="6.16553">
        <ele>631</ele>
        <time>2014-04-13T10:19:06.000Z</time>
      </trkpt>
      <trkpt lat="45.90505" lon="6.16553">
        <ele>630</ele>
        <time>2014-04-13T10:19:07.000Z</time>
      </trkpt>
      <trkpt lat="45.90513" lon="6.16555">
        <ele>629.79998779297</ele>
        <time>2014-04-13T10:19:12.000Z</time>
      </trkpt>
      <trkpt lat="45.90516" lon="6.16554">
        <ele>628.79998779297</ele>
        <time>2014-04-13T10:19:14.000Z</time>
      </trkpt>
      <trkpt lat="45.90519" lon="6.16553">
        <ele>627.59997558594</ele>
        <time>2014-04-13T10:19:16.000Z</time>
      </trkpt>
      <trkpt lat="45.90521" lon="6.16553">
        <ele>627.20001220703</ele>
        <time>2014-04-13T10:19:17.000Z</time>
      </trkpt>
      <trkpt lat="45.90523" lon="6.16554">
        <ele>626.79998779297</ele>
        <time>2014-04-13T10:19:20.000Z</time>
      </trkpt>
      <trkpt lat="45.90523" lon="6.16553">
        <ele>626.59997558594</ele>
        <time>2014-04-13T10:19:21.000Z</time>
      </trkpt>
      <trkpt lat="45.90523" lon="6.16552">
        <ele>626.20001220703</ele>
        <time>2014-04-13T10:19:22.000Z</time>
      </trkpt>
      <trkpt lat="45.90523" lon="6.1655">
        <ele>624.40002441406</ele>
        <time>2014-04-13T10:19:25.000Z</time>
      </trkpt>
      <trkpt lat="45.90524" lon="6.16548">
        <ele>623</ele>
        <time>2014-04-13T10:19:27.000Z</time>
      </trkpt>
      <trkpt lat="45.90525" lon="6.16548">
        <ele>622.79998779297</ele>
        <time>2014-04-13T10:19:28.000Z</time>
      </trkpt>
      <trkpt lat="45.90533" lon="6.16546">
        <ele>619.79998779297</ele>
        <time>2014-04-13T10:19:35.000Z</time>
      </trkpt>
      <trkpt lat="45.90541" lon="6.16547">
        <ele>618.59997558594</ele>
        <time>2014-04-13T10:19:40.000Z</time>
      </trkpt>
      <trkpt lat="45.90545" lon="6.16549">
        <ele>619</ele>
        <time>2014-04-13T10:19:43.000Z</time>
      </trkpt>
      <trkpt lat="45.90547" lon="6.16549">
        <ele>618.79998779297</ele>
        <time>2014-04-13T10:19:45.000Z</time>
      </trkpt>
      <trkpt lat="45.90551" lon="6.16544">
        <ele>614.40002441406</ele>
        <time>2014-04-13T10:19:49.000Z</time>
      </trkpt>
      <trkpt lat="45.90551" lon="6.16542">
        <ele>613.40002441406</ele>
        <time>2014-04-13T10:19:50.000Z</time>
      </trkpt>
      <trkpt lat="45.90551" lon="6.1654">
        <ele>612</ele>
        <time>2014-04-13T10:19:51.000Z</time>
      </trkpt>
      <trkpt lat="45.90551" lon="6.16537">
        <ele>610.20001220703</ele>
        <time>2014-04-13T10:19:54.000Z</time>
      </trkpt>
      <trkpt lat="45.90549" lon="6.16536">
        <ele>609.79998779297</ele>
        <time>2014-04-13T10:19:58.000Z</time>
      </trkpt>
      <trkpt lat="45.90544" lon="6.16532">
        <ele>608.40002441406</ele>
        <time>2014-04-13T10:20:05.000Z</time>
      </trkpt>
      <trkpt lat="45.90544" lon="6.16531">
        <ele>607.59997558594</ele>
        <time>2014-04-13T10:20:07.000Z</time>
      </trkpt>
      <trkpt lat="45.9055" lon="6.1653">
        <ele>606.20001220703</ele>
        <time>2014-04-13T10:20:11.000Z</time>
      </trkpt>
      <trkpt lat="45.90554" lon="6.16529">
        <ele>604.40002441406</ele>
        <time>2014-04-13T10:20:15.000Z</time>
      </trkpt>
      <trkpt lat="45.90554" lon="6.16527">
        <ele>603.59997558594</ele>
        <time>2014-04-13T10:20:17.000Z</time>
      </trkpt>
      <trkpt lat="45.90551" lon="6.16527">
        <ele>604</ele>
        <time>2014-04-13T10:20:20.000Z</time>
      </trkpt>
      <trkpt lat="45.90551" lon="6.16526">
        <ele>603.20001220703</ele>
        <time>2014-04-13T10:20:25.000Z</time>
      </trkpt>
      <trkpt lat="45.90552" lon="6.16526">
        <ele>602.79998779297</ele>
        <time>2014-04-13T10:20:26.000Z</time>
      </trkpt>
      <trkpt lat="45.90554" lon="6.16525">
        <ele>602.20001220703</ele>
        <time>2014-04-13T10:20:27.000Z</time>
      </trkpt>
      <trkpt lat="45.90557" lon="6.16524">
        <ele>600.59997558594</ele>
        <time>2014-04-13T10:20:30.000Z</time>
      </trkpt>
      <trkpt lat="45.90551" lon="6.16519">
        <ele>599</ele>
        <time>2014-04-13T10:20:34.000Z</time>
      </trkpt>
      <trkpt lat="45.90547" lon="6.16516">
        <ele>597.59997558594</ele>
        <time>2014-04-13T10:20:37.000Z</time>
      </trkpt>
      <trkpt lat="45.90543" lon="6.16513">
        <ele>596.20001220703</ele>
        <time>2014-04-13T10:20:40.000Z</time>
      </trkpt>
      <trkpt lat="45.90543" lon="6.16512">
        <ele>595.79998779297</ele>
        <time>2014-04-13T10:20:41.000Z</time>
      </trkpt>
      <trkpt lat="45.90538" lon="6.16514">
        <ele>597.59997558594</ele>
        <time>2014-04-13T10:20:44.000Z</time>
      </trkpt>
      <trkpt lat="45.90533" lon="6.16511">
        <ele>596.79998779297</ele>
        <time>2014-04-13T10:20:48.000Z</time>
      </trkpt>
      <trkpt lat="45.90528" lon="6.1651">
        <ele>596.79998779297</ele>
        <time>2014-04-13T10:20:51.000Z</time>
      </trkpt>
      <trkpt lat="45.90526" lon="6.1651">
        <ele>597</ele>
        <time>2014-04-13T10:20:52.000Z</time>
      </trkpt>
      <trkpt lat="45.90517" lon="6.16505">
        <ele>595.20001220703</ele>
        <time>2014-04-13T10:20:57.000Z</time>
      </trkpt>
      <trkpt lat="45.90511" lon="6.16502">
        <ele>594.20001220703</ele>
        <time>2014-04-13T10:21:01.000Z</time>
      </trkpt>
      <trkpt lat="45.90509" lon="6.16501">
        <ele>593.20001220703</ele>
        <time>2014-04-13T10:21:02.000Z</time>
      </trkpt>
      <trkpt lat="45.90496" lon="6.16494">
        <ele>592</ele>
        <time>2014-04-13T10:21:08.000Z</time>
      </trkpt>
      <trkpt lat="45.90495" lon="6.16494">
        <ele>592.40002441406</ele>
        <time>2014-04-13T10:21:09.000Z</time>
      </trkpt>
      <trkpt lat="45.9049" lon="6.16495">
        <ele>594.40002441406</ele>
        <time>2014-04-13T10:21:12.000Z</time>
      </trkpt>
      <trkpt lat="45.90488" lon="6.16495">
        <ele>595</ele>
        <time>2014-04-13T10:21:13.000Z</time>
      </trkpt>
      <trkpt lat="45.90479" lon="6.1649">
        <ele>594.79998779297</ele>
        <time>2014-04-13T10:21:19.000Z</time>
      </trkpt>
      <trkpt lat="45.90478" lon="6.16489">
        <ele>594.20001220703</ele>
        <time>2014-04-13T10:21:20.000Z</time>
      </trkpt>
      <trkpt lat="45.90476" lon="6.16483">
        <ele>591.20001220703</ele>
        <time>2014-04-13T10:21:23.000Z</time>
      </trkpt>
      <trkpt lat="45.90474" lon="6.1648">
        <ele>590</ele>
        <time>2014-04-13T10:21:26.000Z</time>
      </trkpt>
      <trkpt lat="45.90471" lon="6.16477">
        <ele>589.20001220703</ele>
        <time>2014-04-13T10:21:28.000Z</time>
      </trkpt>
      <trkpt lat="45.90469" lon="6.16474">
        <ele>587.79998779297</ele>
        <time>2014-04-13T10:21:29.000Z</time>
      </trkpt>
      <trkpt lat="45.90462" lon="6.16468">
        <ele>585.79998779297</ele>
        <time>2014-04-13T10:21:33.000Z</time>
      </trkpt>
      <trkpt lat="45.90462" lon="6.16469">
        <ele>586.59997558594</ele>
        <time>2014-04-13T10:21:34.000Z</time>
      </trkpt>
      <trkpt lat="45.90464" lon="6.16471">
        <ele>587.40002441406</ele>
        <time>2014-04-13T10:21:35.000Z</time>
      </trkpt>
      <trkpt lat="45.90467" lon="6.16472">
        <ele>587</ele>
        <time>2014-04-13T10:21:37.000Z</time>
      </trkpt>
      <trkpt lat="45.9047" lon="6.16469">
        <ele>584.20001220703</ele>
        <time>2014-04-13T10:21:41.000Z</time>
      </trkpt>
      <trkpt lat="45.90469" lon="6.16467">
        <ele>583.79998779297</ele>
        <time>2014-04-13T10:21:42.000Z</time>
      </trkpt>
      <trkpt lat="45.90464" lon="6.16463">
        <ele>582.20001220703</ele>
        <time>2014-04-13T10:21:45.000Z</time>
      </trkpt>
      <trkpt lat="45.90453" lon="6.16458">
        <ele>581.79998779297</ele>
        <time>2014-04-13T10:21:50.000Z</time>
      </trkpt>
      <trkpt lat="45.90446" lon="6.16457">
        <ele>582.79998779297</ele>
        <time>2014-04-13T10:21:53.000Z</time>
      </trkpt>
      <trkpt lat="45.90442" lon="6.16454">
        <ele>581.59997558594</ele>
        <time>2014-04-13T10:21:55.000Z</time>
      </trkpt>
      <trkpt lat="45.90437" lon="6.16451">
        <ele>580.79998779297</ele>
        <time>2014-04-13T10:21:58.000Z</time>
      </trkpt>
      <trkpt lat="45.90432" lon="6.16451">
        <ele>581.40002441406</ele>
        <time>2014-04-13T10:22:00.000Z</time>
      </trkpt>
      <trkpt lat="45.90433" lon="6.16448">
        <ele>579.20001220703</ele>
        <time>2014-04-13T10:22:04.000Z</time>
      </trkpt>
      <trkpt lat="45.90436" lon="6.16446">
        <ele>577.59997558594</ele>
        <time>2014-04-13T10:22:06.000Z</time>
      </trkpt>
      <trkpt lat="45.90442" lon="6.16443">
        <ele>574.59997558594</ele>
        <time>2014-04-13T10:22:09.000Z</time>
      </trkpt>
      <trkpt lat="45.9045" lon="6.16439">
        <ele>570.40002441406</ele>
        <time>2014-04-13T10:22:13.000Z</time>
      </trkpt>
      <trkpt lat="45.90459" lon="6.16437">
        <ele>567.59997558594</ele>
        <time>2014-04-13T10:22:18.000Z</time>
      </trkpt>
      <trkpt lat="45.90459" lon="6.16437">
        <ele>567.59997558594</ele>
        <time>2014-04-13T10:22:19.000Z</time>
      </trkpt>
      <trkpt lat="45.90465" lon="6.16442">
        <ele>569.40002441406</ele>
        <time>2014-04-13T10:22:22.000Z</time>
      </trkpt>
      <trkpt lat="45.90468" lon="6.16443">
        <ele>569.40002441406</ele>
        <time>2014-04-13T10:22:23.000Z</time>
      </trkpt>
      <trkpt lat="45.90471" lon="6.16444">
        <ele>569.40002441406</ele>
        <time>2014-04-13T10:22:26.000Z</time>
      </trkpt>
      <trkpt lat="45.90473" lon="6.16444">
        <ele>569</ele>
        <time>2014-04-13T10:22:27.000Z</time>
      </trkpt>
      <trkpt lat="45.9047" lon="6.16437">
        <ele>565.59997558594</ele>
        <time>2014-04-13T10:22:33.000Z</time>
      </trkpt>
      <trkpt lat="45.90462" lon="6.16427">
        <ele>560.79998779297</ele>
        <time>2014-04-13T10:22:38.000Z</time>
      </trkpt>
      <trkpt lat="45.90454" lon="6.16422">
        <ele>558.79998779297</ele>
        <time>2014-04-13T10:22:43.000Z</time>
      </trkpt>
      <trkpt lat="45.90449" lon="6.16416">
        <ele>556.20001220703</ele>
        <time>2014-04-13T10:22:47.000Z</time>
      </trkpt>
      <trkpt lat="45.90454" lon="6.16417">
        <ele>555.59997558594</ele>
        <time>2014-04-13T10:22:51.000Z</time>
      </trkpt>
      <trkpt lat="45.90464" lon="6.16414">
        <ele>553.20001220703</ele>
        <time>2014-04-13T10:22:56.000Z</time>
      </trkpt>
      <trkpt lat="45.90468" lon="6.16413">
        <ele>552</ele>
        <time>2014-04-13T10:22:58.000Z</time>
      </trkpt>
      <trkpt lat="45.90475" lon="6.16407">
        <ele>548.20001220703</ele>
        <time>2014-04-13T10:23:01.000Z</time>
      </trkpt>
      <trkpt lat="45.90483" lon="6.16404">
        <ele>545.79998779297</ele>
        <time>2014-04-13T10:23:05.000Z</time>
      </trkpt>
      <trkpt lat="45.90487" lon="6.16404">
        <ele>545.59997558594</ele>
        <time>2014-04-13T10:23:06.000Z</time>
      </trkpt>
      <trkpt lat="45.90494" lon="6.16403">
        <ele>544</ele>
        <time>2014-04-13T10:23:09.000Z</time>
      </trkpt>
      <trkpt lat="45.90506" lon="6.16403">
        <ele>541.79998779297</ele>
        <time>2014-04-13T10:23:13.000Z</time>
      </trkpt>
      <trkpt lat="45.90521" lon="6.16408">
        <ele>541.59997558594</ele>
        <time>2014-04-13T10:23:18.000Z</time>
      </trkpt>
      <trkpt lat="45.90529" lon="6.16417">
        <ele>543.59997558594</ele>
        <time>2014-04-13T10:23:23.000Z</time>
      </trkpt>
      <trkpt lat="45.90535" lon="6.16426">
        <ele>547.59997558594</ele>
        <time>2014-04-13T10:23:29.000Z</time>
      </trkpt>
      <trkpt lat="45.90536" lon="6.16427">
        <ele>548.20001220703</ele>
        <time>2014-04-13T10:23:30.000Z</time>
      </trkpt>
      <trkpt lat="45.9054" lon="6.16431">
        <ele>549.20001220703</ele>
        <time>2014-04-13T10:23:34.000Z</time>
      </trkpt>
      <trkpt lat="45.90547" lon="6.16435">
        <ele>550.20001220703</ele>
        <time>2014-04-13T10:23:40.000Z</time>
      </trkpt>
      <trkpt lat="45.90549" lon="6.16437">
        <ele>551.20001220703</ele>
        <time>2014-04-13T10:23:42.000Z</time>
      </trkpt>
      <trkpt lat="45.90551" lon="6.16439">
        <ele>552</ele>
        <time>2014-04-13T10:23:44.000Z</time>
      </trkpt>
      <trkpt lat="45.90555" lon="6.1644">
        <ele>551.79998779297</ele>
        <time>2014-04-13T10:23:46.000Z</time>
      </trkpt>
      <trkpt lat="45.90557" lon="6.16443">
        <ele>552.79998779297</ele>
        <time>2014-04-13T10:23:48.000Z</time>
      </trkpt>
      <trkpt lat="45.90566" lon="6.16447">
        <ele>553.79998779297</ele>
        <time>2014-04-13T10:23:55.000Z</time>
      </trkpt>
      <trkpt lat="45.90574" lon="6.16455">
        <ele>557</ele>
        <time>2014-04-13T10:24:04.000Z</time>
      </trkpt>
      <trkpt lat="45.90576" lon="6.1646">
        <ele>559.79998779297</ele>
        <time>2014-04-13T10:24:08.000Z</time>
      </trkpt>
      <trkpt lat="45.90577" lon="6.16461">
        <ele>560.20001220703</ele>
        <time>2014-04-13T10:24:09.000Z</time>
      </trkpt>
      <trkpt lat="45.90581" lon="6.16466">
        <ele>562.59997558594</ele>
        <time>2014-04-13T10:24:15.000Z</time>
      </trkpt>
      <trkpt lat="45.90587" lon="6.16469">
        <ele>563.20001220703</ele>
        <time>2014-04-13T10:24:20.000Z</time>
      </trkpt>
      <trkpt lat="45.90593" lon="6.16474">
        <ele>565.40002441406</ele>
        <time>2014-04-13T10:24:25.000Z</time>
      </trkpt>
      <trkpt lat="45.90594" lon="6.16477">
        <ele>567</ele>
        <time>2014-04-13T10:24:30.000Z</time>
      </trkpt>
      <trkpt lat="45.90595" lon="6.16479">
        <ele>567.79998779297</ele>
        <time>2014-04-13T10:24:31.000Z</time>
      </trkpt>
      <trkpt lat="45.90604" lon="6.16488">
        <ele>571.79998779297</ele>
        <time>2014-04-13T10:24:40.000Z</time>
      </trkpt>
      <trkpt lat="45.90607" lon="6.16491">
        <ele>573</ele>
        <time>2014-04-13T10:24:43.000Z</time>
      </trkpt>
      <trkpt lat="45.90611" lon="6.16492">
        <ele>572.59997558594</ele>
        <time>2014-04-13T10:24:45.000Z</time>
      </trkpt>
      <trkpt lat="45.90616" lon="6.16495">
        <ele>573.79998779297</ele>
        <time>2014-04-13T10:24:50.000Z</time>
      </trkpt>
      <trkpt lat="45.9062" lon="6.16496">
        <ele>573.59997558594</ele>
        <time>2014-04-13T10:24:53.000Z</time>
      </trkpt>
      <trkpt lat="45.90624" lon="6.16495">
        <ele>572.59997558594</ele>
        <time>2014-04-13T10:24:58.000Z</time>
      </trkpt>
      <trkpt lat="45.90626" lon="6.16501">
        <ele>575.40002441406</ele>
        <time>2014-04-13T10:25:03.000Z</time>
      </trkpt>
      <trkpt lat="45.90628" lon="6.16503">
        <ele>576.59997558594</ele>
        <time>2014-04-13T10:25:05.000Z</time>
      </trkpt>
      <trkpt lat="45.9063" lon="6.16508">
        <ele>579.40002441406</ele>
        <time>2014-04-13T10:25:08.000Z</time>
      </trkpt>
      <trkpt lat="45.90631" lon="6.16509">
        <ele>580</ele>
        <time>2014-04-13T10:25:16.000Z</time>
      </trkpt>
      <trkpt lat="45.90633" lon="6.16511">
        <ele>581</ele>
        <time>2014-04-13T10:25:22.000Z</time>
      </trkpt>
      <trkpt lat="45.90637" lon="6.16514">
        <ele>581.59997558594</ele>
        <time>2014-04-13T10:25:28.000Z</time>
      </trkpt>
      <trkpt lat="45.9064" lon="6.16515">
        <ele>582.59997558594</ele>
        <time>2014-04-13T10:25:32.000Z</time>
      </trkpt>
      <trkpt lat="45.90641" lon="6.16516">
        <ele>583</ele>
        <time>2014-04-13T10:25:33.000Z</time>
      </trkpt>
      <trkpt lat="45.90643" lon="6.16519">
        <ele>584.40002441406</ele>
        <time>2014-04-13T10:25:36.000Z</time>
      </trkpt>
      <trkpt lat="45.90644" lon="6.16521">
        <ele>585.59997558594</ele>
        <time>2014-04-13T10:25:37.000Z</time>
      </trkpt>
      <trkpt lat="45.90651" lon="6.16528">
        <ele>589</ele>
        <time>2014-04-13T10:25:43.000Z</time>
      </trkpt>
      <trkpt lat="45.90651" lon="6.16529">
        <ele>589.59997558594</ele>
        <time>2014-04-13T10:25:44.000Z</time>
      </trkpt>
      <trkpt lat="45.90654" lon="6.16532">
        <ele>591.59997558594</ele>
        <time>2014-04-13T10:25:48.000Z</time>
      </trkpt>
      <trkpt lat="45.9066" lon="6.16541">
        <ele>596.59997558594</ele>
        <time>2014-04-13T10:25:53.000Z</time>
      </trkpt>
      <trkpt lat="45.90663" lon="6.16541">
        <ele>596.40002441406</ele>
        <time>2014-04-13T10:25:54.000Z</time>
      </trkpt>
      <trkpt lat="45.90669" lon="6.16546">
        <ele>599</ele>
        <time>2014-04-13T10:25:58.000Z</time>
      </trkpt>
      <trkpt lat="45.90672" lon="6.1655">
        <ele>601.40002441406</ele>
        <time>2014-04-13T10:26:00.000Z</time>
      </trkpt>
      <trkpt lat="45.90676" lon="6.16553">
        <ele>602.20001220703</ele>
        <time>2014-04-13T10:26:02.000Z</time>
      </trkpt>
      <trkpt lat="45.90683" lon="6.16556">
        <ele>603.40002441406</ele>
        <time>2014-04-13T10:26:06.000Z</time>
      </trkpt>
      <trkpt lat="45.90689" lon="6.16555">
        <ele>601.59997558594</ele>
        <time>2014-04-13T10:26:09.000Z</time>
      </trkpt>
      <trkpt lat="45.90692" lon="6.16554">
        <ele>600.40002441406</ele>
        <time>2014-04-13T10:26:10.000Z</time>
      </trkpt>
      <trkpt lat="45.907" lon="6.16559">
        <ele>602.20001220703</ele>
        <time>2014-04-13T10:26:16.000Z</time>
      </trkpt>
      <trkpt lat="45.90702" lon="6.16561">
        <ele>603</ele>
        <time>2014-04-13T10:26:18.000Z</time>
      </trkpt>
      <trkpt lat="45.90709" lon="6.16564">
        <ele>603.40002441406</ele>
        <time>2014-04-13T10:26:27.000Z</time>
      </trkpt>
      <trkpt lat="45.90715" lon="6.16563">
        <ele>601.40002441406</ele>
        <time>2014-04-13T10:26:30.000Z</time>
      </trkpt>
      <trkpt lat="45.9072" lon="6.16567">
        <ele>603</ele>
        <time>2014-04-13T10:26:37.000Z</time>
      </trkpt>
      <trkpt lat="45.90721" lon="6.16569">
        <ele>604</ele>
        <time>2014-04-13T10:26:38.000Z</time>
      </trkpt>
      <trkpt lat="45.90731" lon="6.1657">
        <ele>603.20001220703</ele>
        <time>2014-04-13T10:26:42.000Z</time>
      </trkpt>
      <trkpt lat="45.90733" lon="6.16575">
        <ele>605.40002441406</ele>
        <time>2014-04-13T10:26:49.000Z</time>
      </trkpt>
      <trkpt lat="45.90735" lon="6.16576">
        <ele>605.59997558594</ele>
        <time>2014-04-13T10:26:55.000Z</time>
      </trkpt>
      <trkpt lat="45.90738" lon="6.16578">
        <ele>606.59997558594</ele>
        <time>2014-04-13T10:26:58.000Z</time>
      </trkpt>
      <trkpt lat="45.90739" lon="6.16578">
        <ele>606.40002441406</ele>
        <time>2014-04-13T10:27:00.000Z</time>
      </trkpt>
      <trkpt lat="45.90741" lon="6.1658">
        <ele>606.79998779297</ele>
        <time>2014-04-13T10:27:01.000Z</time>
      </trkpt>
      <trkpt lat="45.90744" lon="6.16585">
        <ele>609.79998779297</ele>
        <time>2014-04-13T10:27:05.000Z</time>
      </trkpt>
      <trkpt lat="45.90749" lon="6.16594">
        <ele>615</ele>
        <time>2014-04-13T10:27:12.000Z</time>
      </trkpt>
      <trkpt lat="45.90751" lon="6.16597">
        <ele>616.79998779297</ele>
        <time>2014-04-13T10:27:17.000Z</time>
      </trkpt>
      <trkpt lat="45.90753" lon="6.16597">
        <ele>616.40002441406</ele>
        <time>2014-04-13T10:27:20.000Z</time>
      </trkpt>
      <trkpt lat="45.90754" lon="6.16596">
        <ele>615.20001220703</ele>
        <time>2014-04-13T10:27:22.000Z</time>
      </trkpt>
      <trkpt lat="45.90757" lon="6.16595">
        <ele>614.40002441406</ele>
        <time>2014-04-13T10:27:27.000Z</time>
      </trkpt>
      <trkpt lat="45.90758" lon="6.16596">
        <ele>614.59997558594</ele>
        <time>2014-04-13T10:27:30.000Z</time>
      </trkpt>
      <trkpt lat="45.90761" lon="6.16598">
        <ele>615.40002441406</ele>
        <time>2014-04-13T10:27:33.000Z</time>
      </trkpt>
      <trkpt lat="45.90772" lon="6.16597">
        <ele>613</ele>
        <time>2014-04-13T10:27:37.000Z</time>
      </trkpt>
      <trkpt lat="45.90776" lon="6.16597">
        <ele>612.20001220703</ele>
        <time>2014-04-13T10:27:38.000Z</time>
      </trkpt>
      <trkpt lat="45.90783" lon="6.16599">
        <ele>611.79998779297</ele>
        <time>2014-04-13T10:27:42.000Z</time>
      </trkpt>
      <trkpt lat="45.9079" lon="6.16599">
        <ele>611</ele>
        <time>2014-04-13T10:27:46.000Z</time>
      </trkpt>
      <trkpt lat="45.90793" lon="6.166">
        <ele>610.79998779297</ele>
        <time>2014-04-13T10:27:47.000Z</time>
      </trkpt>
      <trkpt lat="45.90808" lon="6.16602">
        <ele>609.40002441406</ele>
        <time>2014-04-13T10:27:52.000Z</time>
      </trkpt>
      <trkpt lat="45.90823" lon="6.16604">
        <ele>607.79998779297</ele>
        <time>2014-04-13T10:27:58.000Z</time>
      </trkpt>
      <trkpt lat="45.90836" lon="6.16606">
        <ele>607</ele>
        <time>2014-04-13T10:28:03.000Z</time>
      </trkpt>
      <trkpt lat="45.90843" lon="6.16609">
        <ele>607.79998779297</ele>
        <time>2014-04-13T10:28:06.000Z</time>
      </trkpt>
      <trkpt lat="45.9085" lon="6.16611">
        <ele>608.40002441406</ele>
        <time>2014-04-13T10:28:09.000Z</time>
      </trkpt>
      <trkpt lat="45.90861" lon="6.16613">
        <ele>607.59997558594</ele>
        <time>2014-04-13T10:28:14.000Z</time>
      </trkpt>
      <trkpt lat="45.90873" lon="6.16617">
        <ele>608.59997558594</ele>
        <time>2014-04-13T10:28:19.000Z</time>
      </trkpt>
      <trkpt lat="45.90884" lon="6.16619">
        <ele>608.40002441406</ele>
        <time>2014-04-13T10:28:24.000Z</time>
      </trkpt>
      <trkpt lat="45.90896" lon="6.16622">
        <ele>608</ele>
        <time>2014-04-13T10:28:28.000Z</time>
      </trkpt>
      <trkpt lat="45.90904" lon="6.16623">
        <ele>607.20001220703</ele>
        <time>2014-04-13T10:28:31.000Z</time>
      </trkpt>
      <trkpt lat="45.90914" lon="6.16624">
        <ele>606.20001220703</ele>
        <time>2014-04-13T10:28:33.000Z</time>
      </trkpt>
      <trkpt lat="45.90926" lon="6.16625">
        <ele>605.20001220703</ele>
        <time>2014-04-13T10:28:37.000Z</time>
      </trkpt>
      <trkpt lat="45.9093" lon="6.16627">
        <ele>605.59997558594</ele>
        <time>2014-04-13T10:28:39.000Z</time>
      </trkpt>
      <trkpt lat="45.90937" lon="6.16628">
        <ele>604.79998779297</ele>
        <time>2014-04-13T10:28:42.000Z</time>
      </trkpt>
      <trkpt lat="45.90951" lon="6.16631">
        <ele>604</ele>
        <time>2014-04-13T10:28:48.000Z</time>
      </trkpt>
      <trkpt lat="45.90969" lon="6.16625">
        <ele>598.79998779297</ele>
        <time>2014-04-13T10:28:54.000Z</time>
      </trkpt>
      <trkpt lat="45.90978" lon="6.16624">
        <ele>597.20001220703</ele>
        <time>2014-04-13T10:28:59.000Z</time>
      </trkpt>
      <trkpt lat="45.90989" lon="6.16624">
        <ele>595.20001220703</ele>
        <time>2014-04-13T10:29:03.000Z</time>
      </trkpt>
      <trkpt lat="45.90998" lon="6.16615">
        <ele>591</ele>
        <time>2014-04-13T10:29:08.000Z</time>
      </trkpt>
      <trkpt lat="45.90999" lon="6.16615">
        <ele>590.79998779297</ele>
        <time>2014-04-13T10:29:09.000Z</time>
      </trkpt>
      <trkpt lat="45.91004" lon="6.16617">
        <ele>591.20001220703</ele>
        <time>2014-04-13T10:29:12.000Z</time>
      </trkpt>
      <trkpt lat="45.91012" lon="6.16619">
        <ele>591.79998779297</ele>
        <time>2014-04-13T10:29:16.000Z</time>
      </trkpt>
      <trkpt lat="45.91022" lon="6.16623">
        <ele>593.20001220703</ele>
        <time>2014-04-13T10:29:20.000Z</time>
      </trkpt>
      <trkpt lat="45.91022" lon="6.16624">
        <ele>593.20001220703</ele>
        <time>2014-04-13T10:29:21.000Z</time>
      </trkpt>
      <trkpt lat="45.91031" lon="6.16626">
        <ele>594</ele>
        <time>2014-04-13T10:29:24.000Z</time>
      </trkpt>
      <trkpt lat="45.91043" lon="6.16632">
        <ele>595.59997558594</ele>
        <time>2014-04-13T10:29:29.000Z</time>
      </trkpt>
      <trkpt lat="45.91057" lon="6.16638">
        <ele>597.20001220703</ele>
        <time>2014-04-13T10:29:35.000Z</time>
      </trkpt>
      <trkpt lat="45.91061" lon="6.16641">
        <ele>597.79998779297</ele>
        <time>2014-04-13T10:29:37.000Z</time>
      </trkpt>
      <trkpt lat="45.91067" lon="6.16642">
        <ele>598</ele>
        <time>2014-04-13T10:29:40.000Z</time>
      </trkpt>
      <trkpt lat="45.91079" lon="6.16644">
        <ele>598.40002441406</ele>
        <time>2014-04-13T10:29:45.000Z</time>
      </trkpt>
      <trkpt lat="45.91092" lon="6.16637">
        <ele>596</ele>
        <time>2014-04-13T10:29:51.000Z</time>
      </trkpt>
      <trkpt lat="45.91095" lon="6.16636">
        <ele>595.59997558594</ele>
        <time>2014-04-13T10:29:52.000Z</time>
      </trkpt>
      <trkpt lat="45.91103" lon="6.16638">
        <ele>596.20001220703</ele>
        <time>2014-04-13T10:29:55.000Z</time>
      </trkpt>
      <trkpt lat="45.91112" lon="6.16632">
        <ele>594.20001220703</ele>
        <time>2014-04-13T10:29:59.000Z</time>
      </trkpt>
      <trkpt lat="45.91123" lon="6.16625">
        <ele>591.79998779297</ele>
        <time>2014-04-13T10:30:04.000Z</time>
      </trkpt>
      <trkpt lat="45.9113" lon="6.16623">
        <ele>591</ele>
        <time>2014-04-13T10:30:07.000Z</time>
      </trkpt>
      <trkpt lat="45.91132" lon="6.16623">
        <ele>591.20001220703</ele>
        <time>2014-04-13T10:30:08.000Z</time>
      </trkpt>
      <trkpt lat="45.91152" lon="6.16626">
        <ele>591.59997558594</ele>
        <time>2014-04-13T10:30:14.000Z</time>
      </trkpt>
      <trkpt lat="45.91165" lon="6.16629">
        <ele>592.20001220703</ele>
        <time>2014-04-13T10:30:18.000Z</time>
      </trkpt>
      <trkpt lat="45.91167" lon="6.16629">
        <ele>592.20001220703</ele>
        <time>2014-04-13T10:30:19.000Z</time>
      </trkpt>
      <trkpt lat="45.91176" lon="6.16632">
        <ele>593</ele>
        <time>2014-04-13T10:30:23.000Z</time>
      </trkpt>
      <trkpt lat="45.91179" lon="6.16629">
        <ele>592.40002441406</ele>
        <time>2014-04-13T10:30:24.000Z</time>
      </trkpt>
      <trkpt lat="45.91186" lon="6.16621">
        <ele>590.20001220703</ele>
        <time>2014-04-13T10:30:28.000Z</time>
      </trkpt>
      <trkpt lat="45.91193" lon="6.16621">
        <ele>590.40002441406</ele>
        <time>2014-04-13T10:30:31.000Z</time>
      </trkpt>
      <trkpt lat="45.91203" lon="6.16621">
        <ele>590.59997558594</ele>
        <time>2014-04-13T10:30:36.000Z</time>
      </trkpt>
      <trkpt lat="45.91214" lon="6.16621">
        <ele>590.79998779297</ele>
        <time>2014-04-13T10:30:40.000Z</time>
      </trkpt>
      <trkpt lat="45.91227" lon="6.16618">
        <ele>590.20001220703</ele>
        <time>2014-04-13T10:30:45.000Z</time>
      </trkpt>
      <trkpt lat="45.9123" lon="6.16619">
        <ele>590.40002441406</ele>
        <time>2014-04-13T10:30:46.000Z</time>
      </trkpt>
      <trkpt lat="45.91241" lon="6.16617">
        <ele>590.20001220703</ele>
        <time>2014-04-13T10:30:51.000Z</time>
      </trkpt>
      <trkpt lat="45.91252" lon="6.16598">
        <ele>585.59997558594</ele>
        <time>2014-04-13T10:30:57.000Z</time>
      </trkpt>
      <trkpt lat="45.91254" lon="6.1659">
        <ele>583.59997558594</ele>
        <time>2014-04-13T10:31:00.000Z</time>
      </trkpt>
      <trkpt lat="45.91259" lon="6.16581">
        <ele>581.20001220703</ele>
        <time>2014-04-13T10:31:03.000Z</time>
      </trkpt>
      <trkpt lat="45.91264" lon="6.16576">
        <ele>579.79998779297</ele>
        <time>2014-04-13T10:31:05.000Z</time>
      </trkpt>
      <trkpt lat="45.91269" lon="6.16569">
        <ele>577.59997558594</ele>
        <time>2014-04-13T10:31:08.000Z</time>
      </trkpt>
      <trkpt lat="45.91274" lon="6.16562">
        <ele>575.59997558594</ele>
        <time>2014-04-13T10:31:11.000Z</time>
      </trkpt>
      <trkpt lat="45.91276" lon="6.16559">
        <ele>575</ele>
        <time>2014-04-13T10:31:12.000Z</time>
      </trkpt>
      <trkpt lat="45.91275" lon="6.16542">
        <ele>570.40002441406</ele>
        <time>2014-04-13T10:31:17.000Z</time>
      </trkpt>
      <trkpt lat="45.91277" lon="6.16537">
        <ele>568.79998779297</ele>
        <time>2014-04-13T10:31:20.000Z</time>
      </trkpt>
      <trkpt lat="45.91279" lon="6.16533">
        <ele>567.79998779297</ele>
        <time>2014-04-13T10:31:22.000Z</time>
      </trkpt>
      <trkpt lat="45.91281" lon="6.16524">
        <ele>565.20001220703</ele>
        <time>2014-04-13T10:31:27.000Z</time>
      </trkpt>
      <trkpt lat="45.91278" lon="6.16519">
        <ele>564</ele>
        <time>2014-04-13T10:31:28.000Z</time>
      </trkpt>
      <trkpt lat="45.9128" lon="6.16508">
        <ele>560.79998779297</ele>
        <time>2014-04-13T10:31:33.000Z</time>
      </trkpt>
      <trkpt lat="45.91281" lon="6.16505">
        <ele>560</ele>
        <time>2014-04-13T10:31:34.000Z</time>
      </trkpt>
      <trkpt lat="45.91277" lon="6.16493">
        <ele>557</ele>
        <time>2014-04-13T10:31:38.000Z</time>
      </trkpt>
      <trkpt lat="45.91278" lon="6.16491">
        <ele>556.40002441406</ele>
        <time>2014-04-13T10:31:39.000Z</time>
      </trkpt>
      <trkpt lat="45.91279" lon="6.16487">
        <ele>555.59997558594</ele>
        <time>2014-04-13T10:31:40.000Z</time>
      </trkpt>
      <trkpt lat="45.91282" lon="6.16482">
        <ele>554.40002441406</ele>
        <time>2014-04-13T10:31:42.000Z</time>
      </trkpt>
      <trkpt lat="45.91289" lon="6.16475">
        <ele>553</ele>
        <time>2014-04-13T10:31:46.000Z</time>
      </trkpt>
      <trkpt lat="45.91291" lon="6.16474">
        <ele>552.79998779297</ele>
        <time>2014-04-13T10:31:47.000Z</time>
      </trkpt>
      <trkpt lat="45.91292" lon="6.16473">
        <ele>552.40002441406</ele>
        <time>2014-04-13T10:31:48.000Z</time>
      </trkpt>
      <trkpt lat="45.91293" lon="6.16463">
        <ele>550.20001220703</ele>
        <time>2014-04-13T10:31:51.000Z</time>
      </trkpt>
      <trkpt lat="45.91291" lon="6.16451">
        <ele>547.20001220703</ele>
        <time>2014-04-13T10:31:55.000Z</time>
      </trkpt>
      <trkpt lat="45.91292" lon="6.16437">
        <ele>543.79998779297</ele>
        <time>2014-04-13T10:32:00.000Z</time>
      </trkpt>
      <trkpt lat="45.91293" lon="6.16434">
        <ele>543.20001220703</ele>
        <time>2014-04-13T10:32:01.000Z</time>
      </trkpt>
      <trkpt lat="45.91294" lon="6.16422">
        <ele>540.40002441406</ele>
        <time>2014-04-13T10:32:05.000Z</time>
      </trkpt>
      <trkpt lat="45.91293" lon="6.16411">
        <ele>538.20001220703</ele>
        <time>2014-04-13T10:32:09.000Z</time>
      </trkpt>
      <trkpt lat="45.91295" lon="6.16403">
        <ele>537.20001220703</ele>
        <time>2014-04-13T10:32:11.000Z</time>
      </trkpt>
      <trkpt lat="45.91298" lon="6.16393">
        <ele>535.59997558594</ele>
        <time>2014-04-13T10:32:14.000Z</time>
      </trkpt>
      <trkpt lat="45.91298" lon="6.16375">
        <ele>532.79998779297</ele>
        <time>2014-04-13T10:32:18.000Z</time>
      </trkpt>
      <trkpt lat="45.91297" lon="6.16359">
        <ele>530.20001220703</ele>
        <time>2014-04-13T10:32:23.000Z</time>
      </trkpt>
      <trkpt lat="45.91299" lon="6.16354">
        <ele>529.59997558594</ele>
        <time>2014-04-13T10:32:25.000Z</time>
      </trkpt>
      <trkpt lat="45.91303" lon="6.1635">
        <ele>529.20001220703</ele>
        <time>2014-04-13T10:32:27.000Z</time>
      </trkpt>
      <trkpt lat="45.91312" lon="6.16338">
        <ele>527.79998779297</ele>
        <time>2014-04-13T10:32:32.000Z</time>
      </trkpt>
      <trkpt lat="45.91318" lon="6.16329">
        <ele>526.79998779297</ele>
        <time>2014-04-13T10:32:37.000Z</time>
      </trkpt>
      <trkpt lat="45.91325" lon="6.16318">
        <ele>525.59997558594</ele>
        <time>2014-04-13T10:32:42.000Z</time>
      </trkpt>
      <trkpt lat="45.91333" lon="6.16302">
        <ele>524.20001220703</ele>
        <time>2014-04-13T10:32:48.000Z</time>
      </trkpt>
      <trkpt lat="45.91338" lon="6.16299">
        <ele>523.79998779297</ele>
        <time>2014-04-13T10:32:50.000Z</time>
      </trkpt>
      <trkpt lat="45.91344" lon="6.16298">
        <ele>523.59997558594</ele>
        <time>2014-04-13T10:32:52.000Z</time>
      </trkpt>
      <trkpt lat="45.91357" lon="6.163">
        <ele>523.59997558594</ele>
        <time>2014-04-13T10:32:57.000Z</time>
      </trkpt>
      <trkpt lat="45.9137" lon="6.16302">
        <ele>523.59997558594</ele>
        <time>2014-04-13T10:33:02.000Z</time>
      </trkpt>
      <trkpt lat="45.91382" lon="6.16303">
        <ele>523.59997558594</ele>
        <time>2014-04-13T10:33:07.000Z</time>
      </trkpt>
      <trkpt lat="45.914" lon="6.16306">
        <ele>523.59997558594</ele>
        <time>2014-04-13T10:33:14.000Z</time>
      </trkpt>
      <trkpt lat="45.91412" lon="6.16308">
        <ele>523.59997558594</ele>
        <time>2014-04-13T10:33:19.000Z</time>
      </trkpt>
      <trkpt lat="45.91426" lon="6.16307">
        <ele>523.79998779297</ele>
        <time>2014-04-13T10:33:24.000Z</time>
      </trkpt>
      <trkpt lat="45.91441" lon="6.16307">
        <ele>524.40002441406</ele>
        <time>2014-04-13T10:33:29.000Z</time>
      </trkpt>
      <trkpt lat="45.91453" lon="6.16307">
        <ele>524.79998779297</ele>
        <time>2014-04-13T10:33:34.000Z</time>
      </trkpt>
      <trkpt lat="45.91465" lon="6.16305">
        <ele>525</ele>
        <time>2014-04-13T10:33:38.000Z</time>
      </trkpt>
      <trkpt lat="45.9148" lon="6.16303">
        <ele>525.40002441406</ele>
        <time>2014-04-13T10:33:43.000Z</time>
      </trkpt>
      <trkpt lat="45.91494" lon="6.16302">
        <ele>525.79998779297</ele>
        <time>2014-04-13T10:33:48.000Z</time>
      </trkpt>
      <trkpt lat="45.91512" lon="6.16303">
        <ele>526.59997558594</ele>
        <time>2014-04-13T10:33:54.000Z</time>
      </trkpt>
      <trkpt lat="45.91528" lon="6.16302">
        <ele>527.20001220703</ele>
        <time>2014-04-13T10:34:00.000Z</time>
      </trkpt>
      <trkpt lat="45.91538" lon="6.16304">
        <ele>527.59997558594</ele>
        <time>2014-04-13T10:34:04.000Z</time>
      </trkpt>
      <trkpt lat="45.91549" lon="6.16307">
        <ele>528.40002441406</ele>
        <time>2014-04-13T10:34:09.000Z</time>
      </trkpt>
      <trkpt lat="45.91563" lon="6.16313">
        <ele>529.40002441406</ele>
        <time>2014-04-13T10:34:15.000Z</time>
      </trkpt>
      <trkpt lat="45.91565" lon="6.16314">
        <ele>529.79998779297</ele>
        <time>2014-04-13T10:34:16.000Z</time>
      </trkpt>
      <trkpt lat="45.91575" lon="6.16322">
        <ele>530.79998779297</ele>
        <time>2014-04-13T10:34:21.000Z</time>
      </trkpt>
      <trkpt lat="45.91587" lon="6.16332">
        <ele>532.20001220703</ele>
        <time>2014-04-13T10:34:28.000Z</time>
      </trkpt>
      <trkpt lat="45.91597" lon="6.16337">
        <ele>533.40002441406</ele>
        <time>2014-04-13T10:34:35.000Z</time>
      </trkpt>
      <trkpt lat="45.91607" lon="6.16342">
        <ele>534.59997558594</ele>
        <time>2014-04-13T10:34:41.000Z</time>
      </trkpt>
      <trkpt lat="45.91617" lon="6.16345">
        <ele>535.59997558594</ele>
        <time>2014-04-13T10:34:47.000Z</time>
      </trkpt>
      <trkpt lat="45.91629" lon="6.16351">
        <ele>537.20001220703</ele>
        <time>2014-04-13T10:34:54.000Z</time>
      </trkpt>
      <trkpt lat="45.91639" lon="6.16353">
        <ele>538</ele>
        <time>2014-04-13T10:35:00.000Z</time>
      </trkpt>
      <trkpt lat="45.91649" lon="6.16357">
        <ele>539</ele>
        <time>2014-04-13T10:35:06.000Z</time>
      </trkpt>
      <trkpt lat="45.91662" lon="6.16362">
        <ele>540.20001220703</ele>
        <time>2014-04-13T10:35:13.000Z</time>
      </trkpt>
      <trkpt lat="45.91666" lon="6.16366">
        <ele>540.79998779297</ele>
        <time>2014-04-13T10:35:17.000Z</time>
      </trkpt>
      <trkpt lat="45.91666" lon="6.16367">
        <ele>541</ele>
        <time>2014-04-13T10:35:18.000Z</time>
      </trkpt>
      <trkpt lat="45.91672" lon="6.16366">
        <ele>541.40002441406</ele>
        <time>2014-04-13T10:35:22.000Z</time>
      </trkpt>
      <trkpt lat="45.91676" lon="6.16368">
        <ele>542</ele>
        <time>2014-04-13T10:35:24.000Z</time>
      </trkpt>
      <trkpt lat="45.91685" lon="6.16372">
        <ele>543.20001220703</ele>
        <time>2014-04-13T10:35:29.000Z</time>
      </trkpt>
      <trkpt lat="45.91687" lon="6.16373">
        <ele>543.40002441406</ele>
        <time>2014-04-13T10:35:30.000Z</time>
      </trkpt>
      <trkpt lat="45.91688" lon="6.16374">
        <ele>543.59997558594</ele>
        <time>2014-04-13T10:35:31.000Z</time>
      </trkpt>
      <trkpt lat="45.91694" lon="6.16376">
        <ele>544.20001220703</ele>
        <time>2014-04-13T10:35:35.000Z</time>
      </trkpt>
      <trkpt lat="45.91696" lon="6.16377">
        <ele>544.40002441406</ele>
        <time>2014-04-13T10:35:36.000Z</time>
      </trkpt>
      <trkpt lat="45.91704" lon="6.1638">
        <ele>545.40002441406</ele>
        <time>2014-04-13T10:35:40.000Z</time>
      </trkpt>
      <trkpt lat="45.91708" lon="6.16382">
        <ele>545.79998779297</ele>
        <time>2014-04-13T10:35:42.000Z</time>
      </trkpt>
      <trkpt lat="45.91711" lon="6.16384">
        <ele>546.40002441406</ele>
        <time>2014-04-13T10:35:44.000Z</time>
      </trkpt>
      <trkpt lat="45.91723" lon="6.16391">
        <ele>547.79998779297</ele>
        <time>2014-04-13T10:35:50.000Z</time>
      </trkpt>
      <trkpt lat="45.91731" lon="6.16396">
        <ele>549</ele>
        <time>2014-04-13T10:35:55.000Z</time>
      </trkpt>
      <trkpt lat="45.91743" lon="6.16401">
        <ele>550.20001220703</ele>
        <time>2014-04-13T10:36:02.000Z</time>
      </trkpt>
      <trkpt lat="45.9175" lon="6.16406">
        <ele>551</ele>
        <time>2014-04-13T10:36:06.000Z</time>
      </trkpt>
      <trkpt lat="45.9176" lon="6.1641">
        <ele>552</ele>
        <time>2014-04-13T10:36:12.000Z</time>
      </trkpt>
      <trkpt lat="45.91771" lon="6.16413">
        <ele>552.79998779297</ele>
        <time>2014-04-13T10:36:17.000Z</time>
      </trkpt>
      <trkpt lat="45.91778" lon="6.16415">
        <ele>553.20001220703</ele>
        <time>2014-04-13T10:36:22.000Z</time>
      </trkpt>
      <trkpt lat="45.9179" lon="6.16419">
        <ele>554.20001220703</ele>
        <time>2014-04-13T10:36:29.000Z</time>
      </trkpt>
      <trkpt lat="45.91792" lon="6.1642">
        <ele>554.40002441406</ele>
        <time>2014-04-13T10:36:30.000Z</time>
      </trkpt>
      <trkpt lat="45.91798" lon="6.16425">
        <ele>555.20001220703</ele>
        <time>2014-04-13T10:36:34.000Z</time>
      </trkpt>
      <trkpt lat="45.91811" lon="6.16429">
        <ele>556.20001220703</ele>
        <time>2014-04-13T10:36:40.000Z</time>
      </trkpt>
      <trkpt lat="45.91821" lon="6.16433">
        <ele>556.79998779297</ele>
        <time>2014-04-13T10:36:46.000Z</time>
      </trkpt>
      <trkpt lat="45.91831" lon="6.16438">
        <ele>557.40002441406</ele>
        <time>2014-04-13T10:36:52.000Z</time>
      </trkpt>
      <trkpt lat="45.91839" lon="6.1644">
        <ele>557.79998779297</ele>
        <time>2014-04-13T10:36:56.000Z</time>
      </trkpt>
      <trkpt lat="45.91848" lon="6.16447">
        <ele>558.20001220703</ele>
        <time>2014-04-13T10:37:03.000Z</time>
      </trkpt>
      <trkpt lat="45.91856" lon="6.1645">
        <ele>558.40002441406</ele>
        <time>2014-04-13T10:37:10.000Z</time>
      </trkpt>
      <trkpt lat="45.91872" lon="6.16456">
        <ele>558.59997558594</ele>
        <time>2014-04-13T10:37:18.000Z</time>
      </trkpt>
      <trkpt lat="45.91889" lon="6.16463">
        <ele>558.79998779297</ele>
        <time>2014-04-13T10:37:25.000Z</time>
      </trkpt>
      <trkpt lat="45.91906" lon="6.16472">
        <ele>559.20001220703</ele>
        <time>2014-04-13T10:37:32.000Z</time>
      </trkpt>
      <trkpt lat="45.91908" lon="6.16474">
        <ele>559.20001220703</ele>
        <time>2014-04-13T10:37:33.000Z</time>
      </trkpt>
      <trkpt lat="45.9192" lon="6.16486">
        <ele>559.40002441406</ele>
        <time>2014-04-13T10:37:39.000Z</time>
      </trkpt>
      <trkpt lat="45.91932" lon="6.16501">
        <ele>559.40002441406</ele>
        <time>2014-04-13T10:37:46.000Z</time>
      </trkpt>
      <trkpt lat="45.91943" lon="6.16516">
        <ele>560</ele>
        <time>2014-04-13T10:37:52.000Z</time>
      </trkpt>
      <trkpt lat="45.91956" lon="6.16529">
        <ele>560.40002441406</ele>
        <time>2014-04-13T10:37:58.000Z</time>
      </trkpt>
      <trkpt lat="45.9197" lon="6.16544">
        <ele>560.79998779297</ele>
        <time>2014-04-13T10:38:05.000Z</time>
      </trkpt>
      <trkpt lat="45.91972" lon="6.16547">
        <ele>560.79998779297</ele>
        <time>2014-04-13T10:38:06.000Z</time>
      </trkpt>
      <trkpt lat="45.91987" lon="6.16565">
        <ele>561.40002441406</ele>
        <time>2014-04-13T10:38:14.000Z</time>
      </trkpt>
      <trkpt lat="45.91996" lon="6.16581">
        <ele>562</ele>
        <time>2014-04-13T10:38:19.000Z</time>
      </trkpt>
      <trkpt lat="45.92007" lon="6.16598">
        <ele>563</ele>
        <time>2014-04-13T10:38:25.000Z</time>
      </trkpt>
      <trkpt lat="45.92018" lon="6.16613">
        <ele>564</ele>
        <time>2014-04-13T10:38:31.000Z</time>
      </trkpt>
      <trkpt lat="45.92029" lon="6.16625">
        <ele>564.59997558594</ele>
        <time>2014-04-13T10:38:37.000Z</time>
      </trkpt>
      <trkpt lat="45.92039" lon="6.16639">
        <ele>565.40002441406</ele>
        <time>2014-04-13T10:38:43.000Z</time>
      </trkpt>
      <trkpt lat="45.92046" lon="6.16654">
        <ele>566.40002441406</ele>
        <time>2014-04-13T10:38:48.000Z</time>
      </trkpt>
      <trkpt lat="45.92059" lon="6.1667">
        <ele>567</ele>
        <time>2014-04-13T10:38:55.000Z</time>
      </trkpt>
      <trkpt lat="45.92066" lon="6.16673">
        <ele>567</ele>
        <time>2014-04-13T10:39:00.000Z</time>
      </trkpt>
      <trkpt lat="45.92076" lon="6.16663">
        <ele>566</ele>
        <time>2014-04-13T10:39:06.000Z</time>
      </trkpt>
      <trkpt lat="45.92088" lon="6.16647">
        <ele>564.59997558594</ele>
        <time>2014-04-13T10:39:13.000Z</time>
      </trkpt>
      <trkpt lat="45.92102" lon="6.16629">
        <ele>563.59997558594</ele>
        <time>2014-04-13T10:39:20.000Z</time>
      </trkpt>
      <trkpt lat="45.92114" lon="6.16612">
        <ele>562.79998779297</ele>
        <time>2014-04-13T10:39:27.000Z</time>
      </trkpt>
      <trkpt lat="45.92125" lon="6.16593">
        <ele>562</ele>
        <time>2014-04-13T10:39:34.000Z</time>
      </trkpt>
      <trkpt lat="45.92129" lon="6.16569">
        <ele>561</ele>
        <time>2014-04-13T10:39:41.000Z</time>
      </trkpt>
      <trkpt lat="45.92128" lon="6.16543">
        <ele>559.79998779297</ele>
        <time>2014-04-13T10:39:48.000Z</time>
      </trkpt>
      <trkpt lat="45.92124" lon="6.16526">
        <ele>559</ele>
        <time>2014-04-13T10:39:53.000Z</time>
      </trkpt>
      <trkpt lat="45.92122" lon="6.16501">
        <ele>558</ele>
        <time>2014-04-13T10:40:00.000Z</time>
      </trkpt>
      <trkpt lat="45.92124" lon="6.16498">
        <ele>558</ele>
        <time>2014-04-13T10:40:01.000Z</time>
      </trkpt>
      <trkpt lat="45.92132" lon="6.16491">
        <ele>558</ele>
        <time>2014-04-13T10:40:04.000Z</time>
      </trkpt>
      <trkpt lat="45.92134" lon="6.16489">
        <ele>558</ele>
        <time>2014-04-13T10:40:05.000Z</time>
      </trkpt>
      <trkpt lat="45.92142" lon="6.16489">
        <ele>558.20001220703</ele>
        <time>2014-04-13T10:40:08.000Z</time>
      </trkpt>
      <trkpt lat="45.92159" lon="6.16493">
        <ele>558.59997558594</ele>
        <time>2014-04-13T10:40:13.000Z</time>
      </trkpt>
      <trkpt lat="45.92174" lon="6.16495">
        <ele>558.79998779297</ele>
        <time>2014-04-13T10:40:18.000Z</time>
      </trkpt>
      <trkpt lat="45.92192" lon="6.16496">
        <ele>559</ele>
        <time>2014-04-13T10:40:24.000Z</time>
      </trkpt>
      <trkpt lat="45.92208" lon="6.16507">
        <ele>559.20001220703</ele>
        <time>2014-04-13T10:40:30.000Z</time>
      </trkpt>
      <trkpt lat="45.92223" lon="6.16516">
        <ele>559.40002441406</ele>
        <time>2014-04-13T10:40:36.000Z</time>
      </trkpt>
      <trkpt lat="45.92238" lon="6.16517">
        <ele>559.40002441406</ele>
        <time>2014-04-13T10:40:41.000Z</time>
      </trkpt>
      <trkpt lat="45.92255" lon="6.16516">
        <ele>559.40002441406</ele>
        <time>2014-04-13T10:40:47.000Z</time>
      </trkpt>
      <trkpt lat="45.9226" lon="6.16512">
        <ele>559.40002441406</ele>
        <time>2014-04-13T10:40:49.000Z</time>
      </trkpt>
      <trkpt lat="45.92263" lon="6.16506">
        <ele>559.20001220703</ele>
        <time>2014-04-13T10:40:51.000Z</time>
      </trkpt>
      <trkpt lat="45.9227" lon="6.16487">
        <ele>559</ele>
        <time>2014-04-13T10:40:56.000Z</time>
      </trkpt>
      <trkpt lat="45.92274" lon="6.16471">
        <ele>558.79998779297</ele>
        <time>2014-04-13T10:41:00.000Z</time>
      </trkpt>
      <trkpt lat="45.92274" lon="6.16467">
        <ele>558.79998779297</ele>
        <time>2014-04-13T10:41:01.000Z</time>
      </trkpt>
      <trkpt lat="45.92277" lon="6.16442">
        <ele>558.40002441406</ele>
        <time>2014-04-13T10:41:07.000Z</time>
      </trkpt>
      <trkpt lat="45.92278" lon="6.16421">
        <ele>558</ele>
        <time>2014-04-13T10:41:12.000Z</time>
      </trkpt>
      <trkpt lat="45.92281" lon="6.16397">
        <ele>557.59997558594</ele>
        <time>2014-04-13T10:41:18.000Z</time>
      </trkpt>
      <trkpt lat="45.92281" lon="6.16379">
        <ele>557.20001220703</ele>
        <time>2014-04-13T10:41:23.000Z</time>
      </trkpt>
      <trkpt lat="45.92284" lon="6.16364">
        <ele>556.79998779297</ele>
        <time>2014-04-13T10:41:27.000Z</time>
      </trkpt>
      <trkpt lat="45.92285" lon="6.1636">
        <ele>556.79998779297</ele>
        <time>2014-04-13T10:41:28.000Z</time>
      </trkpt>
      <trkpt lat="45.92284" lon="6.16345">
        <ele>556.40002441406</ele>
        <time>2014-04-13T10:41:32.000Z</time>
      </trkpt>
      <trkpt lat="45.92284" lon="6.16341">
        <ele>556.40002441406</ele>
        <time>2014-04-13T10:41:33.000Z</time>
      </trkpt>
      <trkpt lat="45.92284" lon="6.16326">
        <ele>556</ele>
        <time>2014-04-13T10:41:37.000Z</time>
      </trkpt>
      <trkpt lat="45.92285" lon="6.16313">
        <ele>555.40002441406</ele>
        <time>2014-04-13T10:41:41.000Z</time>
      </trkpt>
      <trkpt lat="45.9229" lon="6.16304">
        <ele>555</ele>
        <time>2014-04-13T10:41:43.000Z</time>
      </trkpt>
      <trkpt lat="45.92289" lon="6.16299">
        <ele>554.79998779297</ele>
        <time>2014-04-13T10:41:44.000Z</time>
      </trkpt>
      <trkpt lat="45.9229" lon="6.16292">
        <ele>554.59997558594</ele>
        <time>2014-04-13T10:41:46.000Z</time>
      </trkpt>
      <trkpt lat="45.92292" lon="6.16282">
        <ele>554.20001220703</ele>
        <time>2014-04-13T10:41:50.000Z</time>
      </trkpt>
      <trkpt lat="45.92293" lon="6.16281">
        <ele>554</ele>
        <time>2014-04-13T10:41:51.000Z</time>
      </trkpt>
      <trkpt lat="45.92301" lon="6.16282">
        <ele>554</ele>
        <time>2014-04-13T10:41:56.000Z</time>
      </trkpt>
      <trkpt lat="45.92314" lon="6.16281">
        <ele>553.59997558594</ele>
        <time>2014-04-13T10:42:01.000Z</time>
      </trkpt>
      <trkpt lat="45.92317" lon="6.16281">
        <ele>553.59997558594</ele>
        <time>2014-04-13T10:42:02.000Z</time>
      </trkpt>
      <trkpt lat="45.92332" lon="6.16278">
        <ele>553</ele>
        <time>2014-04-13T10:42:07.000Z</time>
      </trkpt>
      <trkpt lat="45.92348" lon="6.16275">
        <ele>552.59997558594</ele>
        <time>2014-04-13T10:42:12.000Z</time>
      </trkpt>
      <trkpt lat="45.92362" lon="6.16273">
        <ele>552.20001220703</ele>
        <time>2014-04-13T10:42:17.000Z</time>
      </trkpt>
      <trkpt lat="45.9238" lon="6.16268">
        <ele>551.59997558594</ele>
        <time>2014-04-13T10:42:23.000Z</time>
      </trkpt>
      <trkpt lat="45.92394" lon="6.16264">
        <ele>551.20001220703</ele>
        <time>2014-04-13T10:42:28.000Z</time>
      </trkpt>
      <trkpt lat="45.92408" lon="6.16261">
        <ele>550.79998779297</ele>
        <time>2014-04-13T10:42:33.000Z</time>
      </trkpt>
      <trkpt lat="45.92421" lon="6.16259">
        <ele>550.40002441406</ele>
        <time>2014-04-13T10:42:38.000Z</time>
      </trkpt>
      <trkpt lat="45.92426" lon="6.16258">
        <ele>550.40002441406</ele>
        <time>2014-04-13T10:42:44.000Z</time>
      </trkpt>
      <trkpt lat="45.92421" lon="6.16258">
        <ele>550.40002441406</ele>
        <time>2014-04-13T10:42:53.000Z</time>
      </trkpt>
      <trkpt lat="45.92415" lon="6.16259">
        <ele>550.40002441406</ele>
        <time>2014-04-13T10:42:58.000Z</time>
      </trkpt>
      <trkpt lat="45.92402" lon="6.16261">
        <ele>550.79998779297</ele>
        <time>2014-04-13T10:43:05.000Z</time>
      </trkpt>
      <trkpt lat="45.92388" lon="6.16264">
        <ele>551.20001220703</ele>
        <time>2014-04-13T10:43:10.000Z</time>
      </trkpt>
      <trkpt lat="45.92373" lon="6.16268">
        <ele>551.79998779297</ele>
        <time>2014-04-13T10:43:16.000Z</time>
      </trkpt>
      <trkpt lat="45.92359" lon="6.16269">
        <ele>552.20001220703</ele>
        <time>2014-04-13T10:43:21.000Z</time>
      </trkpt>
      <trkpt lat="45.92345" lon="6.16271">
        <ele>552.59997558594</ele>
        <time>2014-04-13T10:43:26.000Z</time>
      </trkpt>
      <trkpt lat="45.92332" lon="6.16275">
        <ele>553</ele>
        <time>2014-04-13T10:43:31.000Z</time>
      </trkpt>
      <trkpt lat="45.92319" lon="6.1628">
        <ele>553.40002441406</ele>
        <time>2014-04-13T10:43:36.000Z</time>
      </trkpt>
      <trkpt lat="45.923" lon="6.16277">
        <ele>553.79998779297</ele>
        <time>2014-04-13T10:43:42.000Z</time>
      </trkpt>
      <trkpt lat="45.92298" lon="6.16276">
        <ele>553.79998779297</ele>
        <time>2014-04-13T10:43:43.000Z</time>
      </trkpt>
      <trkpt lat="45.92293" lon="6.1627">
        <ele>553.79998779297</ele>
        <time>2014-04-13T10:43:45.000Z</time>
      </trkpt>
      <trkpt lat="45.92291" lon="6.16263">
        <ele>553.40002441406</ele>
        <time>2014-04-13T10:43:47.000Z</time>
      </trkpt>
      <trkpt lat="45.92293" lon="6.16238">
        <ele>552.59997558594</ele>
        <time>2014-04-13T10:43:53.000Z</time>
      </trkpt>
      <trkpt lat="45.92294" lon="6.16215">
        <ele>551.59997558594</ele>
        <time>2014-04-13T10:43:59.000Z</time>
      </trkpt>
      <trkpt lat="45.92296" lon="6.16193">
        <ele>550.79998779297</ele>
        <time>2014-04-13T10:44:05.000Z</time>
      </trkpt>
      <trkpt lat="45.92298" lon="6.1617">
        <ele>550</ele>
        <time>2014-04-13T10:44:11.000Z</time>
      </trkpt>
      <trkpt lat="45.923" lon="6.16151">
        <ele>549.79998779297</ele>
        <time>2014-04-13T10:44:16.000Z</time>
      </trkpt>
      <trkpt lat="45.92302" lon="6.1614">
        <ele>549.79998779297</ele>
        <time>2014-04-13T10:44:19.000Z</time>
      </trkpt>
      <trkpt lat="45.92302" lon="6.16136">
        <ele>549.79998779297</ele>
        <time>2014-04-13T10:44:20.000Z</time>
      </trkpt>
      <trkpt lat="45.92305" lon="6.16112">
        <ele>549.79998779297</ele>
        <time>2014-04-13T10:44:26.000Z</time>
      </trkpt>
      <trkpt lat="45.92307" lon="6.1609">
        <ele>550</ele>
        <time>2014-04-13T10:44:31.000Z</time>
      </trkpt>
      <trkpt lat="45.92312" lon="6.1607">
        <ele>549.59997558594</ele>
        <time>2014-04-13T10:44:36.000Z</time>
      </trkpt>
      <trkpt lat="45.92317" lon="6.16051">
        <ele>549</ele>
        <time>2014-04-13T10:44:41.000Z</time>
      </trkpt>
      <trkpt lat="45.92321" lon="6.16033">
        <ele>548.59997558594</ele>
        <time>2014-04-13T10:44:46.000Z</time>
      </trkpt>
      <trkpt lat="45.92335" lon="6.16013">
        <ele>548.40002441406</ele>
        <time>2014-04-13T10:44:52.000Z</time>
      </trkpt>
      <trkpt lat="45.92345" lon="6.15997">
        <ele>548.79998779297</ele>
        <time>2014-04-13T10:44:57.000Z</time>
      </trkpt>
      <trkpt lat="45.92354" lon="6.15983">
        <ele>549</ele>
        <time>2014-04-13T10:45:01.000Z</time>
      </trkpt>
      <trkpt lat="45.9236" lon="6.15964">
        <ele>548.79998779297</ele>
        <time>2014-04-13T10:45:06.000Z</time>
      </trkpt>
      <trkpt lat="45.92367" lon="6.15948">
        <ele>548.79998779297</ele>
        <time>2014-04-13T10:45:11.000Z</time>
      </trkpt>
      <trkpt lat="45.9238" lon="6.15928">
        <ele>548.59997558594</ele>
        <time>2014-04-13T10:45:17.000Z</time>
      </trkpt>
      <trkpt lat="45.92389" lon="6.15911">
        <ele>548.40002441406</ele>
        <time>2014-04-13T10:45:22.000Z</time>
      </trkpt>
      <trkpt lat="45.92391" lon="6.15905">
        <ele>548.20001220703</ele>
        <time>2014-04-13T10:45:24.000Z</time>
      </trkpt>
      <trkpt lat="45.92395" lon="6.15897">
        <ele>548</ele>
        <time>2014-04-13T10:45:27.000Z</time>
      </trkpt>
      <trkpt lat="45.92405" lon="6.15879">
        <ele>547.59997558594</ele>
        <time>2014-04-13T10:45:32.000Z</time>
      </trkpt>
      <trkpt lat="45.92414" lon="6.15864">
        <ele>547.40002441406</ele>
        <time>2014-04-13T10:45:37.000Z</time>
      </trkpt>
      <trkpt lat="45.92426" lon="6.15854">
        <ele>547.79998779297</ele>
        <time>2014-04-13T10:45:42.000Z</time>
      </trkpt>
      <trkpt lat="45.92446" lon="6.15858">
        <ele>550</ele>
        <time>2014-04-13T10:45:49.000Z</time>
      </trkpt>
      <trkpt lat="45.92453" lon="6.15862">
        <ele>550.79998779297</ele>
        <time>2014-04-13T10:45:52.000Z</time>
      </trkpt>
      <trkpt lat="45.92458" lon="6.15859">
        <ele>551</ele>
        <time>2014-04-13T10:45:54.000Z</time>
      </trkpt>
      <trkpt lat="45.92464" lon="6.15849">
        <ele>551.20001220703</ele>
        <time>2014-04-13T10:45:58.000Z</time>
      </trkpt>
      <trkpt lat="45.92465" lon="6.15846">
        <ele>551.20001220703</ele>
        <time>2014-04-13T10:45:59.000Z</time>
      </trkpt>
      <trkpt lat="45.92468" lon="6.15839">
        <ele>551.20001220703</ele>
        <time>2014-04-13T10:46:02.000Z</time>
      </trkpt>
      <trkpt lat="45.92469" lon="6.15833">
        <ele>551</ele>
        <time>2014-04-13T10:46:04.000Z</time>
      </trkpt>
      <trkpt lat="45.92477" lon="6.15818">
        <ele>550.79998779297</ele>
        <time>2014-04-13T10:46:09.000Z</time>
      </trkpt>
      <trkpt lat="45.92484" lon="6.158">
        <ele>550</ele>
        <time>2014-04-13T10:46:14.000Z</time>
      </trkpt>
      <trkpt lat="45.9249" lon="6.15787">
        <ele>549.40002441406</ele>
        <time>2014-04-13T10:46:18.000Z</time>
      </trkpt>
      <trkpt lat="45.92499" lon="6.15772">
        <ele>548.79998779297</ele>
        <time>2014-04-13T10:46:23.000Z</time>
      </trkpt>
      <trkpt lat="45.92514" lon="6.15761">
        <ele>548.40002441406</ele>
        <time>2014-04-13T10:46:29.000Z</time>
      </trkpt>
      <trkpt lat="45.92517" lon="6.15759">
        <ele>548.40002441406</ele>
        <time>2014-04-13T10:46:30.000Z</time>
      </trkpt>
      <trkpt lat="45.92528" lon="6.15754">
        <ele>548.20001220703</ele>
        <time>2014-04-13T10:46:34.000Z</time>
      </trkpt>
      <trkpt lat="45.92546" lon="6.15742">
        <ele>548.20001220703</ele>
        <time>2014-04-13T10:46:41.000Z</time>
      </trkpt>
      <trkpt lat="45.92548" lon="6.15741">
        <ele>548.20001220703</ele>
        <time>2014-04-13T10:46:42.000Z</time>
      </trkpt>
      <trkpt lat="45.92559" lon="6.15727">
        <ele>547.79998779297</ele>
        <time>2014-04-13T10:46:47.000Z</time>
      </trkpt>
      <trkpt lat="45.92573" lon="6.15706">
        <ele>547</ele>
        <time>2014-04-13T10:46:54.000Z</time>
      </trkpt>
      <trkpt lat="45.92576" lon="6.1569">
        <ele>546.20001220703</ele>
        <time>2014-04-13T10:46:58.000Z</time>
      </trkpt>
      <trkpt lat="45.92582" lon="6.15667">
        <ele>545</ele>
        <time>2014-04-13T10:47:04.000Z</time>
      </trkpt>
      <trkpt lat="45.92587" lon="6.15647">
        <ele>544.20001220703</ele>
        <time>2014-04-13T10:47:09.000Z</time>
      </trkpt>
      <trkpt lat="45.92596" lon="6.15626">
        <ele>543.40002441406</ele>
        <time>2014-04-13T10:47:15.000Z</time>
      </trkpt>
      <trkpt lat="45.92608" lon="6.15602">
        <ele>542.20001220703</ele>
        <time>2014-04-13T10:47:22.000Z</time>
      </trkpt>
      <trkpt lat="45.92623" lon="6.15584">
        <ele>541.20001220703</ele>
        <time>2014-04-13T10:47:27.000Z</time>
      </trkpt>
      <trkpt lat="45.92626" lon="6.15581">
        <ele>540.79998779297</ele>
        <time>2014-04-13T10:47:28.000Z</time>
      </trkpt>
      <trkpt lat="45.92639" lon="6.15567">
        <ele>540</ele>
        <time>2014-04-13T10:47:32.000Z</time>
      </trkpt>
      <trkpt lat="45.9265" lon="6.15545">
        <ele>538.79998779297</ele>
        <time>2014-04-13T10:47:37.000Z</time>
      </trkpt>
      <trkpt lat="45.92656" lon="6.15533">
        <ele>538.40002441406</ele>
        <time>2014-04-13T10:47:41.000Z</time>
      </trkpt>
      <trkpt lat="45.92667" lon="6.15521">
        <ele>537.79998779297</ele>
        <time>2014-04-13T10:47:45.000Z</time>
      </trkpt>
      <trkpt lat="45.9268" lon="6.15505">
        <ele>537.20001220703</ele>
        <time>2014-04-13T10:47:49.000Z</time>
      </trkpt>
      <trkpt lat="45.92692" lon="6.15494">
        <ele>536.79998779297</ele>
        <time>2014-04-13T10:47:53.000Z</time>
      </trkpt>
      <trkpt lat="45.92702" lon="6.15481">
        <ele>536.40002441406</ele>
        <time>2014-04-13T10:47:57.000Z</time>
      </trkpt>
      <trkpt lat="45.92716" lon="6.15465">
        <ele>536</ele>
        <time>2014-04-13T10:48:02.000Z</time>
      </trkpt>
      <trkpt lat="45.92723" lon="6.15455">
        <ele>535.79998779297</ele>
        <time>2014-04-13T10:48:05.000Z</time>
      </trkpt>
      <trkpt lat="45.92723" lon="6.15451">
        <ele>535.59997558594</ele>
        <time>2014-04-13T10:48:06.000Z</time>
      </trkpt>
      <trkpt lat="45.92719" lon="6.15439">
        <ele>535.20001220703</ele>
        <time>2014-04-13T10:48:09.000Z</time>
      </trkpt>
      <trkpt lat="45.92713" lon="6.15428">
        <ele>534.79998779297</ele>
        <time>2014-04-13T10:48:12.000Z</time>
      </trkpt>
      <trkpt lat="45.9271" lon="6.15418">
        <ele>534.59997558594</ele>
        <time>2014-04-13T10:48:14.000Z</time>
      </trkpt>
      <trkpt lat="45.92699" lon="6.15394">
        <ele>533.59997558594</ele>
        <time>2014-04-13T10:48:20.000Z</time>
      </trkpt>
      <trkpt lat="45.92696" lon="6.15387">
        <ele>533.20001220703</ele>
        <time>2014-04-13T10:48:24.000Z</time>
      </trkpt>
    </trkseg>
  </trk>
</gpx>